# Wetter Temperatur Luftdruck Luftfeuchtigkeit Sichtweite Windgeschwindigkeit Windrichtung Zeit
1 Haze 31 1013 31 5000 2.1 20 12:37 14.10.2019
2 Haze 31 1013 31 5000 2.1 20 12:18 14.10.2019
3 Haze 31 1013 33 5000 2.6 60 11:45 14.10.2019
4 Haze 32 1013 25 5000 2.6 50 11:26 14.10.2019
5 Haze 32 1013 25 5000 1.5 50 10:57 14.10.2019
6 Haze 31 1014 33 5000 2.1 70 10:38 14.10.2019
7 Haze 31 1014 33 5000 2.1 70 10:19 14.10.2019
8 Haze 31 1014 33 5000 2.1 70 09:42 14.10.2019
9 Haze 31 1014 33 5000 2.1 70 09:42 14.10.2019
10 Haze 32 1015 33 5000 1.5 70 09:21 14.10.2019
11 Haze 31 1015 38 5000 1.5 40 08:51 14.10.2019
12 Haze 31 1016 38 5000 1.5 70 08:23 14.10.2019
13 Haze 30 1017 45 5000 2.1 50 07:47 14.10.2019
14 Haze 30 1017 45 5000 2.1 50 07:47 14.10.2019
15 Haze 30 1017 45 4000 1.5 50 07:26 14.10.2019
16 Haze 29 1017 48 4000 1.5 80 06:59 14.10.2019
17 Haze 28 1017 58 3000 2.73 57.038 06:29 14.10.2019
18 Haze 26 1017 61 3000 1.5 20 05:57 14.10.2019
19 Haze 25 1017 61 3000 1.5 10 05:29 14.10.2019
20 Haze 23 1016 73 3000 2.9 24.253 04:34 14.10.2019
21 Haze 20 1015 82 2500 1.63 43.56 03:26 14.10.2019
22 Haze 21 1014 77 2500 1.63 43.56 02:34 14.10.2019
23 Haze 22 1014 68 2500 1 360 01:22 14.10.2019
24 Haze 22 1014 68 2500 1 350 00:45 14.10.2019
25 Haze 23 1014 60 2500 2.1 350 00:19 14.10.2019
26 Haze 23 1014 69 2500 1 340 23:44 13.10.2019
27 Haze 24 1014 69 2500 2.1 330 23:20 13.10.2019
28 Haze 24 1014 69 2500 2.1 330 23:20 13.10.2019
29 Haze 25 1014 78 2500 2.1 310 22:58 13.10.2019
30 Haze 25 1014 78 2500 2.1 310 22:40 13.10.2019
31 Haze 25 1014 78 2500 2.1 310 22:21 13.10.2019
32 Haze 26 1014 78 2500 1.5 340 21:57 13.10.2019
33 Haze 25 1014 88 2500 1.5 10 21:37 13.10.2019
34 Haze 25 1014 88 2500 1.5 10 21:37 13.10.2019
35 Haze 25 1014 88 2500 1.5 10 21:18 13.10.2019
36 -273 0 0 0 0 0 20:57 13.10.2019
37 Haze 26 1015 78 2500 1 10 20:37 13.10.2019
38 Haze 26 1015 78 2500 1 10 20:19 13.10.2019
39 Haze 26 1015 78 2500 1.5 310 19:56 13.10.2019
40 Haze 26 1015 78 2500 1.5 310 19:56 13.10.2019
41 Haze 26 1015 78 2500 1.5 310 19:56 13.10.2019
42 Haze 26 1015 78 2500 1.5 310 19:55 13.10.2019
43 Haze 25 1015 83 2500 2.05 20.576 19:37 13.10.2019
44 Haze 25 1015 83 2500 2.05 20.576 19:37 13.10.2019
45 Haze 25 1015 83 2500 2.05 20.576 19:19 13.10.2019
46 Haze 26 1015 78 2500 2.05 20.576 18:55 13.10.2019
47 Haze 26 1015 78 2500 2.05 20.576 18:55 13.10.2019
48 Haze 26 1015 78 2500 2.05 20.576 18:36 13.10.2019
49 Haze 26 1015 78 2500 1.49 115.256 18:18 13.10.2019
50 Haze 26 1014 74 2500 1.49 115.256 17:43 13.10.2019
51 Haze 26 1014 78 2500 1.49 115.256 17:25 13.10.2019
52 Haze 26 1014 78 2500 1.49 115.256 16:56 13.10.2019
53 Haze 26 1013 78 2500 1.49 115.256 16:36 13.10.2019
54 Haze 26 1013 78 2500 1.49 115.256 16:18 13.10.2019
55 Haze 27 1012 69 2500 1 90 15:55 13.10.2019
56 Haze 27 1012 69 2500 1 90 15:55 13.10.2019
57 Haze 27 1012 69 2500 1 90 15:36 13.10.2019
58 Haze 27 1012 69 2500 1 90 15:18 13.10.2019
59 Haze 29 1012 62 2500 1 100 14:40 13.10.2019
60 Haze 29 1012 62 2500 1 100 14:22 13.10.2019
61 Haze 29 1012 66 2500 1 100 13:59 13.10.2019
62 Haze 30 1012 62 2500 1.5 100 13:39 13.10.2019
63 Haze 30 1012 62 2500 1.5 100 13:21 13.10.2019
64 Haze 30 1011 58 2500 1.5 100 12:56 13.10.2019
65 Haze 31 1011 55 3000 0.5 100 12:38 13.10.2019
66 Haze 31 1011 55 3000 0.5 100 12:19 13.10.2019
67 Haze 31 1012 55 3000 1 90 11:56 13.10.2019
68 Haze 31 1012 52 3000 1 20 11:38 13.10.2019
69 Haze 31 1012 52 3000 1 20 11:19 13.10.2019
70 Haze 31 1013 55 3000 2.55 6.444 10:42 13.10.2019
71 Haze 30 1013 58 3000 2.55 6.444 10:23 13.10.2019
72 Haze 30 1013 58 2500 1.5 40 09:56 13.10.2019
73 Haze 31 1014 55 2500 1 360 09:37 13.10.2019
74 Haze 31 1014 55 2500 1 360 09:19 13.10.2019
75 Haze 30 1014 62 2500 1 360 08:43 13.10.2019
76 Haze 30 1015 62 2500 2.1 60 08:21 13.10.2019
77 Haze 30 1015 62 2000 1 10 07:46 13.10.2019
78 Haze 30 1015 62 2000 1.5 100 07:23 13.10.2019
79 Mist 28 1016 69 2000 1 30 06:42 13.10.2019
80 Mist 27 1016 74 2000 2.69 35.151 05:49 13.10.2019
81 Mist 26 1015 74 2000 2.69 35.151 04:52 13.10.2019
82 Mist 25 1015 83 2000 2.69 35.151 04:32 13.10.2019
83 Mist 23 1014 88 2000 1.77 8.643 02:42 13.10.2019
84 Mist 23 1014 88 2000 1.77 8.643 02:42 13.10.2019
85 Mist 23 1013 88 2000 1.77 8.643 01:59 13.10.2019
86 Mist 23 1013 88 2000 1.77 8.643 01:30 13.10.2019
87 Mist 23 1013 94 2000 2.45 19.033 00:49 13.10.2019
88 Mist 23 1012 88 2000 2.38 7.568 00:22 13.10.2019
89 Mist 23 1013 88 2000 2.38 7.568 23:57 12.10.2019
90 Mist 24 1013 83 2000 2.38 7.568 23:39 12.10.2019
91 Mist 24 1013 83 2000 2.38 7.568 23:19 12.10.2019
92 Mist 24 1013 88 2000 2.38 7.568 22:57 12.10.2019
93 Mist 25 1013 83 2000 2.38 7.568 22:38 12.10.2019
94 Mist 25 1013 83 2000 2.38 7.568 22:20 12.10.2019
95 Mist 25 1013 78 2000 2.38 7.568 21:55 12.10.2019
96 Mist 25 1013 78 2000 2.38 7.568 21:37 12.10.2019
97 Mist 25 1013 78 2000 1.28 30.933 21:18 12.10.2019
98 Haze 25 1014 78 2500 1.83 22.844 20:40 12.10.2019
99 Haze 25 1014 78 2500 1.83 22.844 20:22 12.10.2019
100 Haze 25 1014 78 2500 1.83 22.844 19:38 12.10.2019
101 Haze 25 1014 78 2500 1.83 22.844 19:20 12.10.2019
102 Haze 25 1014 78 2500 1.83 22.844 18:57 12.10.2019
103 Haze 25 1014 73 2500 1.83 22.844 18:39 12.10.2019
104 Haze 25 1014 73 2500 1.83 43.048 18:20 12.10.2019
105 Haze 26 1014 74 2500 1.83 43.048 17:43 12.10.2019
106 Haze 26 1014 74 2500 1.83 43.048 17:19 12.10.2019
107 Haze 26 1013 69 2500 1.83 43.048 16:54 12.10.2019
108 Haze 27 1013 65 2500 1.83 43.048 16:36 12.10.2019
109 Haze 27 1013 65 2500 1.83 43.048 16:18 12.10.2019
110 Haze 27 1012 69 2500 1.83 43.048 15:40 12.10.2019
111 Haze 27 1012 69 2500 2.85 61.949 15:22 12.10.2019
112 Haze 28 1012 61 2500 2.85 61.949 14:43 12.10.2019
113 Haze 29 1011 54 3000 1 50 14:22 12.10.2019
114 Haze 29 1011 54 3000 1 50 13:57 12.10.2019
115 Haze 30 1011 48 3000 1 50 13:38 12.10.2019
116 Haze 30 1011 48 3000 1 50 13:20 12.10.2019
117 Haze 31 1011 52 3000 1.5 60 12:39 12.10.2019
118 Haze 31 1011 52 3000 1.5 60 12:21 12.10.2019
119 Haze 31 1011 52 3000 1.5 60 11:58 12.10.2019
120 Haze 31 1011 52 3000 2.6 20 11:38 12.10.2019
121 Haze 31 1011 52 3000 2.6 20 11:19 12.10.2019
122 -273 0 0 0 0 0 10:41 12.10.2019
123 Haze 31 1012 55 3000 2.1 100 10:23 12.10.2019
124 Haze 31 1013 55 2500 1.5 70 09:58 12.10.2019
125 Haze 31 1013 55 2500 1.5 70 09:57 12.10.2019
126 Haze 31 1013 58 2500 1.5 50 09:39 12.10.2019
127 Haze 31 1013 58 2500 1.5 50 09:20 12.10.2019
128 Haze 30 1014 62 2500 2.1 70 08:56 12.10.2019
129 -273 0 0 0 0 0 08:55 12.10.2019
130 Haze 30 1014 58 2500 2.6 80 08:36 12.10.2019
131 Haze 30 1014 58 2500 2.6 80 08:18 12.10.2019
132 Haze 29 1015 66 2500 2.07 61.376 07:33 12.10.2019
133 Haze 28 1015 69 2500 2.07 61.376 06:44 12.10.2019
134 Haze 26 1015 74 2500 3.12 31.941 05:46 12.10.2019
135 Mist 25 1014 73 2500 3.12 31.941 04:47 12.10.2019
136 Mist 23 1014 83 2500 3.12 31.941 03:57 12.10.2019
137 Mist 23 1013 83 2500 2.03 12.84 02:57 12.10.2019
138 Mist 23 1012 88 2500 2.39 13.856 01:36 12.10.2019
139 Mist 22 1012 94 2500 2.39 13.856 00:58 12.10.2019
140 Mist 23 1012 88 2500 2.39 13.856 00:39 12.10.2019
141 Mist 23 1012 88 2500 2.26 10.972 23:57 11.10.2019
142 Mist 23 1012 88 2500 2.26 10.972 23:38 11.10.2019
143 Mist 23 1012 88 2500 2.26 10.972 23:19 11.10.2019
144 Mist 24 1012 88 2000 1 20 22:39 11.10.2019
145 Mist 24 1012 88 2000 1 20 22:21 11.10.2019
146 Mist 23 1012 94 2000 2.26 10.972 21:55 11.10.2019
147 Mist 23 1012 94 2000 2.26 10.972 21:36 11.10.2019
148 Mist 23 1012 94 2000 2.07 10.295 21:18 11.10.2019
149 Haze 24 1012 88 2500 1.85 12.841 20:43 11.10.2019
150 Haze 25 1012 83 3000 1.85 12.841 20:25 11.10.2019
151 Haze 25 1012 83 3000 1.85 12.841 19:56 11.10.2019
152 Haze 25 1012 83 3000 1.85 12.841 19:38 11.10.2019
153 Haze 25 1012 83 3000 1.85 12.841 19:18 11.10.2019
154 Haze 26 1013 78 3000 1 100 18:56 11.10.2019
155 Haze 26 1013 78 3000 1 100 18:37 11.10.2019
156 Haze 26 1013 78 3000 1 100 18:18 11.10.2019
157 Haze 26 1013 78 3000 1 100 17:57 11.10.2019
158 Haze 26 1012 78 3000 1 100 17:37 11.10.2019
159 Haze 26 1012 78 3000 1 100 17:18 11.10.2019
160 Haze 27 1011 69 3000 1 100 16:42 11.10.2019
161 Haze 27 1011 69 3000 1 100 16:21 11.10.2019
162 Haze 26 1011 74 3000 1.5 90 15:59 11.10.2019
163 Haze 27 1010 65 4000 1.5 80 15:39 11.10.2019
164 Haze 27 1010 65 4000 1.5 80 15:19 11.10.2019
165 Haze 28 1010 61 4000 1.5 40 14:48 11.10.2019
166 Haze 29 1010 54 4000 2.1 40 14:29 11.10.2019
167 Haze 30 1010 48 4000 1 20 13:57 11.10.2019
168 Haze 31 1010 45 4000 1.5 20 13:39 11.10.2019
169 Haze 31 1010 45 4000 1.5 20 13:21 11.10.2019
170 Haze 31 1010 45 4000 1.5 20 13:21 11.10.2019
171 Haze 30 1010 58 4000 1 40 12:56 11.10.2019
172 Haze 30 1010 58 4000 1 40 12:38 11.10.2019
173 Haze 30 1010 58 4000 1 40 12:19 11.10.2019
174 Haze 31 1010 55 4000 1 30 11:41 11.10.2019
175 Haze 31 1010 55 4000 1 30 11:22 11.10.2019
176 Haze 31 1011 52 4000 1 70 10:58 11.10.2019
177 Haze 31 1011 52 4000 1 70 10:58 11.10.2019
178 Haze 31 1011 48 4000 1.5 100 10:40 11.10.2019
179 Haze 31 1011 48 4000 1.5 100 10:22 11.10.2019
180 Haze 31 1012 52 4000 1.5 130 09:55 11.10.2019
181 Haze 31 1012 52 4000 1.9 86.102 09:37 11.10.2019
182 Haze 31 1012 52 4000 2.66 71.245 09:19 11.10.2019
183 Haze 31 1013 52 4000 1.5 130 08:55 11.10.2019
184 Haze 29 1014 62 4000 2.1 110 08:36 11.10.2019
185 Haze 29 1014 62 4000 2.1 110 08:18 11.10.2019
186 Haze 29 1014 62 4000 1.5 110 07:41 11.10.2019
187 Haze 29 1014 62 4000 1.5 110 07:22 11.10.2019
188 Haze 29 1014 62 4000 1 120 06:47 11.10.2019
189 Haze 28 1014 65 4000 1 70 06:22 11.10.2019
190 Haze 27 1014 69 3000 1 30 05:39 11.10.2019
191 Haze 26 1014 69 3000 1 30 04:59 11.10.2019
192 Haze 25 1013 73 3000 1 30 04:24 11.10.2019
193 Haze 23 1012 83 2500 2.52 11.694 02:19 11.10.2019
194 Haze 24 1012 78 2500 2.1 310 00:47 11.10.2019
195 Haze 24 1012 83 3000 2.56 15.126 00:27 11.10.2019
196 Haze 24 1012 83 3000 2.27 4.118 23:43 10.10.2019
197 Haze 24 1012 83 3000 2.27 4.118 23:21 10.10.2019
198 Haze 24 1012 83 3000 2.27 4.118 22:57 10.10.2019
199 Haze 24 1012 83 3000 2.27 4.118 22:57 10.10.2019
200 Haze 24 1012 88 3000 2.27 4.118 22:39 10.10.2019
201 Haze 24 1012 88 3000 2.27 4.118 22:20 10.10.2019
202 Haze 24 1012 88 3000 2.27 4.118 21:57 10.10.2019
203 Haze 25 1013 83 3000 2.27 4.118 21:38 10.10.2019
204 Haze 25 1013 83 3000 2.02 26.044 21:20 10.10.2019
205 Haze 25 1013 83 3000 2.27 17.112 20:42 10.10.2019
206 Haze 25 1013 83 3000 2.27 17.112 20:21 10.10.2019
207 Haze 25 1013 83 3000 2.27 17.112 19:58 10.10.2019
208 Haze 25 1013 83 3000 2.27 17.112 19:40 10.10.2019
209 Haze 25 1013 83 3000 2.27 17.112 19:40 10.10.2019
210 Haze 25 1013 83 3000 2.27 17.112 19:20 10.10.2019
211 Haze 25 1013 83 3000 2.27 17.112 19:20 10.10.2019
212 Haze 25 1013 83 3000 2.27 17.112 18:57 10.10.2019
213 Haze 25 1012 83 3000 2.27 17.112 18:38 10.10.2019
214 Haze 25 1012 83 3000 1.22 26.796 18:19 10.10.2019
215 Haze 26 1012 78 3000 1.22 26.796 17:41 10.10.2019
216 Haze 26 1012 78 3000 1.22 26.796 17:20 10.10.2019
217 Haze 26 1012 78 3000 1.22 26.796 16:59 10.10.2019
218 Haze 26 1011 78 3000 1.22 26.796 16:41 10.10.2019
219 Haze 26 1011 78 3000 1.22 26.796 16:22 10.10.2019
220 Haze 27 1011 69 3000 1.22 26.796 15:44 10.10.2019
221 Haze 27 1011 61 3000 1.22 26.796 15:25 10.10.2019
222 Haze 29 1010 51 3000 1.59 3.146 14:59 10.10.2019
223 Haze 30 1010 48 4000 1 30 14:38 10.10.2019
224 Haze 30 1010 48 4000 1 30 14:38 10.10.2019
225 Haze 30 1010 48 4000 1 30 14:38 10.10.2019
226 Haze 30 1010 48 4000 1 30 14:19 10.10.2019
227 Haze 31 1010 52 4000 2.1 350 13:59 10.10.2019
228 Haze 31 1010 52 4000 2.1 350 13:40 10.10.2019
229 Haze 31 1010 52 4000 2.1 350 13:19 10.10.2019
230 Haze 31 1010 48 4000 1 10 12:55 10.10.2019
231 Haze 31 1010 48 4000 1.5 30 12:37 10.10.2019
232 Haze 31 1010 48 4000 1.5 30 12:18 10.10.2019
233 Haze 31 1011 55 4000 1.5 60 11:42 10.10.2019
234 Haze 31 1011 55 4000 1.5 60 11:21 10.10.2019
235 Haze 31 1011 48 4000 1 310 10:59 10.10.2019
236 Haze 31 1011 48 4000 1 310 10:41 10.10.2019
237 Haze 31 1011 48 4000 1 310 10:22 10.10.2019
238 Haze 31 1012 55 4000 2.6 50 09:54 10.10.2019
239 Haze 31 1012 52 4000 2.69 32.613 09:36 10.10.2019
240 Haze 31 1012 52 4000 2.79 50.712 09:18 10.10.2019
241 Haze 30 1013 55 4000 1.5 20 08:41 10.10.2019
242 Haze 30 1013 55 4000 1.5 20 08:21 10.10.2019
243 Haze 29 1014 62 4000 1 60 07:58 10.10.2019
244 Haze 29 1014 62 4000 1.5 60 07:37 10.10.2019
245 Haze 29 1014 62 4000 1.5 60 07:19 10.10.2019
246 Haze 27 1014 65 4000 1 40 06:40 10.10.2019
247 Haze 27 1014 65 4000 1.5 30 05:57 10.10.2019
248 Haze 26 1014 69 4000 1.5 360 05:22 10.10.2019
249 Haze 24 1014 78 4000 1.5 20 04:37 10.10.2019
250 Haze 22 1012 88 3000 1.5 320 02:49 10.10.2019
251 Haze 23 1011 83 3000 1 10 01:41 10.10.2019
252 Haze 23 1011 83 3000 1 10 01:41 10.10.2019
253 Haze 23 1011 83 3000 1 10 01:22 10.10.2019
254 Haze 24 1011 78 3000 1 10 00:41 10.10.2019
255 Haze 24 1011 78 3000 1 10 00:19 10.10.2019
256 Haze 24 1012 83 3000 1 10 23:38 09.10.2019
257 Haze 24 1012 83 3000 1 10 23:19 09.10.2019
258 Haze 24 1012 83 3000 1 10 23:19 09.10.2019
259 Haze 24 1012 88 3000 1 20 22:42 09.10.2019
260 Haze 24 1012 88 3000 1 20 22:23 09.10.2019
261 Haze 25 1012 83 3000 1.5 20 21:59 09.10.2019
262 Haze 25 1012 88 3000 2.1 20 21:39 09.10.2019
263 Haze 25 1012 88 3000 2.1 20 21:19 09.10.2019
264 Haze 25 1012 88 3000 2.1 350 20:55 09.10.2019
265 Haze 25 1012 88 3000 2.51 12.848 20:37 09.10.2019
266 Haze 25 1012 88 3000 2.51 12.848 20:18 09.10.2019
267 Haze 25 1012 88 3000 2.51 12.848 20:18 09.10.2019
268 Haze 25 1012 88 3000 2.51 12.848 20:18 09.10.2019
269 Haze 25 1012 88 3000 2.51 12.848 19:45 09.10.2019
270 Haze 25 1012 88 3000 1 80 19:23 09.10.2019
271 Haze 25 1012 83 3000 1 80 18:57 09.10.2019
272 Haze 25 1012 88 3000 1 80 18:37 09.10.2019
273 Haze 25 1012 88 3000 1 80 18:18 09.10.2019
274 Haze 25 1012 88 3000 1 80 17:54 09.10.2019
275 Haze 26 1012 83 3000 1 170 17:36 09.10.2019
276 Haze 26 1012 83 3000 1 170 17:18 09.10.2019
277 Haze 26 1011 78 3000 1.5 180 16:40 09.10.2019
278 Haze 26 1011 78 3000 1.5 180 16:22 09.10.2019
279 Haze 27 1011 74 3000 1.16 79.341 15:58 09.10.2019
280 Haze 28 1010 65 3000 1.16 79.341 15:39 09.10.2019
281 Haze 28 1010 65 3000 1.55 8.915 15:19 09.10.2019
282 Haze 29 1010 62 3000 1 10 14:56 09.10.2019
283 Haze 29 1010 66 3000 2.1 10 14:37 09.10.2019
284 Haze 29 1010 66 3000 2.1 10 14:18 09.10.2019
285 Haze 30 1009 62 3000 1.5 20 13:39 09.10.2019
286 Haze 30 1009 62 3000 1.5 20 13:20 09.10.2019
287 Haze 30 1009 58 3000 2.6 50 12:58 09.10.2019
288 Haze 31 1010 55 2500 1.5 30 12:40 09.10.2019
289 Haze 31 1010 55 2500 1.5 30 12:21 09.10.2019
290 Haze 31 1010 58 2500 1.5 30 11:55 09.10.2019
291 Haze 31 1010 58 2500 1.5 30 11:55 09.10.2019
292 Haze 30 1011 58 2500 1.5 50 11:36 09.10.2019
293 Haze 30 1011 58 2500 1.5 50 11:18 09.10.2019
294 Haze 30 1011 66 2500 2.1 30 10:42 09.10.2019
295 Haze 30 1011 66 2500 2.1 30 10:20 09.10.2019
296 Haze 29 1012 70 2500 2.6 50 09:57 09.10.2019
297 Haze 29 1012 70 2500 1.5 30 09:38 09.10.2019
298 Haze 29 1012 70 2500 1.5 30 09:18 09.10.2019
299 Haze 29 1013 70 3000 3.71 72.63 08:39 09.10.2019
300 Haze 29 1014 70 3000 1.5 60 08:20 09.10.2019
301 Haze 29 1014 70 3000 1.5 60 07:47 09.10.2019
302 Haze 28 1014 74 3000 4.6 140 07:25 09.10.2019
303 Haze 28 1014 74 3000 4.6 140 07:25 09.10.2019
304 Haze 28 1014 74 3000 4.6 140 07:25 09.10.2019
305 Haze 27 1014 74 3000 4.6 140 06:59 09.10.2019
306 Haze 27 1014 74 3000 1 30 06:41 09.10.2019
307 Haze 27 1014 74 3000 3.37 44.88 05:53 09.10.2019
308 Haze 26 1014 74 4000 3.37 44.88 05:18 09.10.2019
309 Haze 23 1013 78 2500 1 20 03:48 09.10.2019
310 Haze 23 1012 78 3000 3.16 16.756 02:35 09.10.2019
311 Haze 24 1012 73 3000 3.16 16.756 01:39 09.10.2019
312 Haze 24 1012 73 3000 3.15 19.16 01:19 09.10.2019
313 Haze 24 1012 73 3000 1 10 00:55 09.10.2019
314 Haze 24 1012 73 3000 1 10 00:55 09.10.2019
315 Haze 24 1012 73 3000 1 10 00:36 09.10.2019
316 Haze 24 1012 73 3000 1 10 00:18 09.10.2019
317 Haze 24 1012 78 3000 1.5 340 23:38 08.10.2019
318 Haze 24 1012 78 3000 1.5 340 23:18 08.10.2019
319 Haze 25 1012 73 3000 1 350 22:55 08.10.2019
320 Haze 25 1012 69 3000 1.5 20 22:36 08.10.2019
321 Haze 25 1012 69 3000 1.5 20 22:18 08.10.2019
322 Haze 25 1012 69 3000 1.5 10 21:55 08.10.2019
323 Haze 25 1012 69 3000 1 10 21:36 08.10.2019
324 Haze 25 1012 69 3000 1 10 21:18 08.10.2019
325 Haze 25 1013 73 3000 1 20 20:55 08.10.2019
326 Haze 25 1013 73 3000 1 20 20:55 08.10.2019
327 Haze 26 1013 69 3000 1 10 20:36 08.10.2019
328 Haze 26 1013 69 3000 1 10 20:18 08.10.2019
329 Haze 26 1013 65 3000 1 20 19:42 08.10.2019
330 Haze 26 1013 65 3000 1 20 19:24 08.10.2019
331 Haze 26 1013 69 3000 1 40 18:59 08.10.2019
332 Haze 26 1013 69 3000 1 30 18:41 08.10.2019
333 Haze 26 1013 69 3000 1 30 18:22 08.10.2019
334 Haze 26 1013 69 3000 1 30 17:56 08.10.2019
335 Haze 26 1013 69 3000 1 30 17:56 08.10.2019
336 Haze 26 1013 69 3000 3.37 17.436 17:38 08.10.2019
337 Haze 26 1013 69 3000 3.37 17.436 17:18 08.10.2019
338 Haze 25 1012 78 3000 3.37 17.436 16:41 08.10.2019
339 Haze 26 1012 74 3000 3.37 17.436 16:22 08.10.2019
340 Haze 27 1011 69 3000 3.37 17.436 15:57 08.10.2019
341 Haze 28 1011 61 3000 3.37 17.436 15:38 08.10.2019
342 Haze 28 1011 61 3000 2.86 9.07 15:19 08.10.2019
343 Haze 28 1011 61 3000 2.86 9.07 14:42 08.10.2019
344 Haze 28 1011 61 3000 2.86 9.07 14:42 08.10.2019
345 Haze 29 1010 62 3000 2.86 9.07 14:22 08.10.2019
346 Haze 30 1010 55 3000 1 10 13:59 08.10.2019
347 Haze 30 1010 58 4000 1 20 13:39 08.10.2019
348 Haze 30 1010 58 4000 1 20 13:21 08.10.2019
349 Haze 30 1010 58 4000 1 20 12:59 08.10.2019
350 Haze 30 1010 58 4000 2.1 50 12:40 08.10.2019
351 Haze 30 1010 58 4000 2.1 50 12:20 08.10.2019
352 Haze 31 1010 55 4000 1 340 11:56 08.10.2019
353 Haze 31 1011 55 5000 1 10 11:37 08.10.2019
354 Haze 31 1011 55 5000 1 10 11:19 08.10.2019
355 Haze 31 1011 55 5000 1 10 10:40 08.10.2019
356 Haze 30 1011 58 5000 1 10 10:22 08.10.2019
357 Haze 31 1012 55 5000 2.1 40 09:58 08.10.2019
358 Haze 30 1012 58 5000 2.1 50 09:40 08.10.2019
359 Haze 30 1012 58 5000 2.1 50 09:20 08.10.2019
360 Haze 30 1013 62 5000 1.5 90 08:44 08.10.2019
361 Haze 30 1013 62 5000 2.1 40 08:25 08.10.2019
362 Haze 29 1014 62 5000 1.5 40 07:47 08.10.2019
363 Haze 29 1014 62 5000 2.1 20 07:23 08.10.2019
364 Haze 29 1014 62 4000 1 60 06:56 08.10.2019
365 Haze 28 1014 69 4000 1 70 06:34 08.10.2019
366 Haze 27 1014 69 4000 2.6 20 05:57 08.10.2019
367 Haze 27 1014 69 4000 2.6 20 05:57 08.10.2019
368 Haze 27 1014 69 4000 2.6 20 05:38 08.10.2019
369 Haze 26 1014 74 3000 2.6 20 04:42 08.10.2019
370 Haze 24 1012 83 3000 1 140 03:30 08.10.2019
371 Haze 24 1012 83 3000 1 360 02:40 08.10.2019
372 Haze 24 1012 83 3000 1 360 01:49 08.10.2019
373 Haze 24 1011 83 3000 2.1 360 01:31 08.10.2019
374 Haze 24 1011 83 3000 2.1 360 01:31 08.10.2019
375 Haze 24 1011 88 3000 2.6 300 00:51 08.10.2019
376 Haze 25 1011 83 3000 1 350 00:22 08.10.2019
377 Haze 25 1011 83 3000 1 340 23:42 07.10.2019
378 Haze 25 1011 78 3000 1 20 23:21 07.10.2019
379 Haze 25 1011 78 3000 1 20 23:21 07.10.2019
380 Haze 26 1012 74 3000 1 360 22:58 07.10.2019
381 Haze 26 1012 74 3000 2.75 1.645 22:40 07.10.2019
382 Haze 26 1012 74 3000 2.75 1.645 22:21 07.10.2019
383 Haze 26 1012 78 3000 2.75 1.645 21:58 07.10.2019
384 Haze 26 1013 78 3000 1 20 21:39 07.10.2019
385 Haze 26 1013 78 3000 1 20 21:20 07.10.2019
386 Haze 26 1013 78 3000 1 360 20:58 07.10.2019
387 Haze 26 1013 78 3000 1 360 20:39 07.10.2019
388 Haze 26 1013 78 3000 1 360 20:20 07.10.2019
389 Haze 26 1013 78 3000 1.5 20 19:58 07.10.2019
390 Haze 27 1013 74 3000 1.5 350 19:40 07.10.2019
391 Haze 27 1013 74 3000 1.5 350 19:19 07.10.2019
392 Haze 27 1013 74 3000 1.5 360 18:56 07.10.2019
393 Haze 27 1013 74 3000 1.5 360 18:56 07.10.2019
394 Haze 27 1013 74 3000 2.1 300 18:38 07.10.2019
395 Haze 27 1013 74 3000 2.1 300 18:18 07.10.2019
396 Haze 27 1013 74 3000 2.1 300 18:18 07.10.2019
397 Haze 27 1013 78 3000 2.33 6.979 17:43 07.10.2019
398 Haze 27 1013 74 3000 2.33 6.979 17:20 07.10.2019
399 Haze 27 1013 78 3000 2.33 6.979 16:57 07.10.2019
400 Haze 28 1012 69 3000 2.33 6.979 16:38 07.10.2019
401 Haze 28 1012 69 3000 2.33 6.979 16:20 07.10.2019
402 Haze 28 1012 74 3000 2.33 6.979 15:45 07.10.2019
403 Haze 28 1012 69 3000 2.33 6.979 15:25 07.10.2019
404 Haze 29 1011 62 3000 2.88 5.236 14:55 07.10.2019
405 Haze 30 1010 58 4000 2.88 5.236 14:37 07.10.2019
406 Haze 30 1010 58 4000 2.88 5.236 14:18 07.10.2019
407 Haze 31 1010 55 4000 1.5 40 13:41 07.10.2019
408 Haze 31 1010 55 4000 1.5 40 13:19 07.10.2019
409 Haze 31 1010 52 4000 1 30 12:55 07.10.2019
410 Haze 31 1010 55 4000 1.5 40 12:37 07.10.2019
411 Haze 31 1010 55 4000 1.5 40 12:18 07.10.2019
412 -273 0 0 0 0 0 11:56 07.10.2019
413 Haze 31 1011 58 4000 1.5 70 11:37 07.10.2019
414 Haze 31 1011 58 4000 1.5 70 11:18 07.10.2019
415 -273 0 0 0 0 0 10:41 07.10.2019
416 Haze 31 1012 58 4000 1.5 50 10:20 07.10.2019
417 Haze 31 1012 58 4000 2.6 70 09:42 07.10.2019
418 Haze 30 1013 62 4000 1.5 70 09:23 07.10.2019
419 Haze 30 1014 66 4000 1.5 80 08:57 07.10.2019
420 Clear 29 1012 62 0 2.88 42.594 08:38 07.10.2019
421 Haze 29 1015 70 5000 1.5 60 08:19 07.10.2019
422 Haze 29 1015 70 5000 1.5 60 07:41 07.10.2019
423 Haze 29 1015 70 5000 1.5 60 07:22 07.10.2019
424 Haze 29 1015 70 5000 2.88 42.594 06:49 07.10.2019
425 Haze 28 1015 74 5000 1.5 280 06:27 07.10.2019
426 Haze 28 1015 74 5000 1 20 05:47 07.10.2019
427 Haze 27 1014 78 5000 1.5 40 05:21 07.10.2019
428 Haze 26 1014 83 4000 3.04 21.052 04:24 07.10.2019
429 Haze 24 1013 88 4000 1 280 03:44 07.10.2019
430 Haze 24 1013 88 4000 1 280 03:44 07.10.2019
431 Haze 24 1013 88 4000 1 280 03:44 07.10.2019
432 Haze 23 1013 94 3000 2.36 12.237 03:20 07.10.2019
433 Haze 23 1012 94 3000 2.36 12.237 02:21 07.10.2019
434 Haze 23 1012 94 3000 2.36 12.237 01:50 07.10.2019
435 Haze 23 1012 94 3000 2.51 7.727 01:21 07.10.2019
436 Haze 24 1012 88 3000 2.51 7.727 00:39 07.10.2019
437 Haze 24 1012 88 3000 1.88 11.669 00:20 07.10.2019
438 Haze 24 1012 88 3000 1.88 11.669 23:42 06.10.2019
439 Haze 24 1012 88 3000 1.88 11.669 23:42 06.10.2019
440 Haze 24 1012 88 3000 1.88 11.669 23:21 06.10.2019
441 Haze 24 1012 88 3000 1.88 11.669 22:59 06.10.2019
442 Haze 24 1012 88 3000 1.88 11.669 22:41 06.10.2019
443 Haze 25 1012 88 3000 1.88 11.669 22:22 06.10.2019
444 Haze 25 1012 83 3000 1.88 11.669 21:57 06.10.2019
445 Haze 26 1013 78 3000 1.88 11.669 21:37 06.10.2019
446 Haze 26 1013 78 3000 1.08 12.299 21:19 06.10.2019
447 Haze 26 1013 78 3000 1.08 12.299 20:57 06.10.2019
448 Haze 26 1013 83 3000 1.73 16.566 20:39 06.10.2019
449 Haze 26 1013 83 3000 1.73 16.566 20:39 06.10.2019
450 Haze 26 1013 83 3000 1.73 16.566 20:20 06.10.2019
451 Haze 26 1013 83 3000 1.73 16.566 19:57 06.10.2019
452 Haze 26 1013 83 3000 1.73 16.566 19:37 06.10.2019
453 Haze 26 1013 83 3000 1.73 16.566 19:37 06.10.2019
454 Haze 26 1013 83 3000 1.73 16.566 19:19 06.10.2019
455 Haze 25 1013 88 3000 1.73 16.566 18:56 06.10.2019
456 Haze 25 1013 88 3000 1.73 16.566 18:38 06.10.2019
457 Haze 25 1013 88 3000 1.73 16.566 18:38 06.10.2019
458 Haze 25 1013 88 3000 1.39 29.601 18:19 06.10.2019
459 Haze 25 1013 88 3000 1.39 29.601 17:44 06.10.2019
460 Haze 26 1012 83 3000 1.39 29.601 17:21 06.10.2019
461 Haze 26 1012 83 3000 1.39 29.601 16:59 06.10.2019
462 Haze 26 1012 83 3000 1.39 29.601 16:41 06.10.2019
463 Haze 26 1012 83 3000 1.39 29.601 16:23 06.10.2019
464 Haze 27 1010 74 3000 1 320 15:45 06.10.2019
465 Haze 27 1010 74 3000 1 320 15:45 06.10.2019
466 Haze 27 1010 74 3000 1 320 15:23 06.10.2019
467 Haze 27 1010 74 3000 1 320 14:58 06.10.2019
468 Haze 27 1010 74 3000 1 240 14:40 06.10.2019
469 Haze 27 1010 74 3000 1 240 14:22 06.10.2019
470 Haze 28 1010 74 4000 2.14 325.03 13:55 06.10.2019
471 Haze 28 1010 74 4000 2.14 325.03 13:37 06.10.2019
472 Haze 28 1010 74 4000 2.43 315.434 13:18 06.10.2019
473 Haze 28 1009 69 4000 1.5 250 12:55 06.10.2019
474 Haze 28 1009 69 4000 1.5 250 12:55 06.10.2019
475 Haze 29 1009 66 4000 2.6 270 12:37 06.10.2019
476 Haze 29 1009 66 4000 2.6 270 12:19 06.10.2019
477 Haze 31 1009 55 4000 1.5 270 11:42 06.10.2019
478 Haze 31 1010 62 4000 3.13 348.877 11:24 06.10.2019
479 Haze 32 1010 55 4000 3.13 348.877 10:56 06.10.2019
480 Haze 32 1010 55 4000 3.13 348.877 10:56 06.10.2019
481 Haze 31 1011 55 4000 1 60 10:38 06.10.2019
482 Haze 31 1011 55 4000 1 60 10:19 06.10.2019
483 Haze 31 1012 58 4000 1.5 90 09:41 06.10.2019
484 Haze 30 1012 66 5000 1.5 20 09:20 06.10.2019
485 Haze 30 1013 62 5000 1.5 350 08:50 06.10.2019
486 Haze 31 1013 58 5000 1.5 10 08:30 06.10.2019
487 Haze 30 1014 62 5000 1.91 63.797 07:59 06.10.2019
488 Haze 30 1014 62 5000 1.91 63.797 07:59 06.10.2019
489 Haze 30 1014 66 4000 1.5 290 07:40 06.10.2019
490 Haze 30 1014 66 3000 1.5 20 06:59 06.10.2019
491 Haze 28 1014 74 3000 1.5 60 05:41 06.10.2019
492 Haze 28 1014 74 3000 1.5 60 05:41 06.10.2019
493 Haze 25 1013 83 3000 1.5 290 04:40 06.10.2019
494 Haze 23 1013 88 3000 1 240 02:56 06.10.2019
495 Haze 24 1012 83 3000 2.19 23.797 02:32 06.10.2019
496 Haze 24 1012 83 3000 2.19 23.797 01:49 06.10.2019
497 Haze 24 1012 83 3000 1.5 10 01:30 06.10.2019
498 Haze 24 1012 83 3000 1.5 10 01:30 06.10.2019
499 Haze 24 1012 83 3000 1 360 00:59 06.10.2019
500 Haze 23 1011 88 3000 2.2 25.168 00:36 06.10.2019
501 Haze 23 1011 88 3000 2.12 6.203 00:18 06.10.2019
502 Haze 24 1011 83 3000 2.12 6.203 23:41 05.10.2019
503 Haze 25 1011 78 3000 2.12 6.203 23:20 05.10.2019
504 Haze 25 1011 78 3000 1 340 22:55 05.10.2019
505 Haze 25 1011 78 3000 1.5 320 22:36 05.10.2019
506 Haze 25 1011 78 3000 1.5 320 22:18 05.10.2019
507 Haze 25 1012 78 3000 1.5 300 21:41 05.10.2019
508 Haze 25 1012 78 3000 1.5 300 21:41 05.10.2019
509 Haze 25 1012 83 3000 1.5 352.473 21:22 05.10.2019
510 Haze 26 1012 74 3000 1.5 352.473 20:57 05.10.2019
511 Haze 26 1012 74 3000 1.61 10.231 20:39 05.10.2019
512 Haze 26 1012 74 3000 1.61 10.231 20:19 05.10.2019
513 Haze 27 1012 69 3000 1.5 340 19:55 05.10.2019
514 Haze 26 1012 78 3000 1 300 19:36 05.10.2019
515 Haze 26 1012 78 3000 1 300 19:18 05.10.2019
516 Haze 26 1012 78 3000 1 300 18:54 05.10.2019
517 Haze 26 1012 78 3000 1.61 10.231 18:36 05.10.2019
518 Haze 26 1012 78 3000 1.07 357.739 18:18 05.10.2019
519 Haze 26 1012 78 3000 1.07 357.739 17:40 05.10.2019
520 Haze 26 1012 78 3000 1.07 357.739 17:21 05.10.2019
521 Haze 26 1011 74 3000 1.07 357.739 16:43 05.10.2019
522 Haze 26 1011 78 3000 1.07 357.739 16:23 05.10.2019
523 Haze 27 1010 74 3000 1.07 357.739 15:59 05.10.2019
524 Haze 27 1010 69 3000 1.07 357.739 15:40 05.10.2019
525 Haze 27 1010 69 3000 0.61 355.322 15:21 05.10.2019
526 Haze 28 1010 69 4000 1 90 14:59 05.10.2019
527 Haze 29 1009 62 4000 0.61 355.322 14:41 05.10.2019
528 Haze 29 1009 62 4000 0.61 355.322 14:41 05.10.2019
529 Haze 29 1009 62 4000 0.61 355.322 14:20 05.10.2019
530 Haze 30 1009 58 4000 1 60 13:42 05.10.2019
531 Haze 31 1009 55 4000 1.5 40 13:23 05.10.2019
532 Haze 31 1009 52 4000 2.1 60 12:47 05.10.2019
533 Haze 31 1009 52 4000 2.1 40 12:21 05.10.2019
534 Haze 31 1010 55 4000 2.1 40 11:59 05.10.2019
535 Haze 31 1010 52 4000 1 40 11:39 05.10.2019
536 Haze 31 1010 52 4000 1 40 11:19 05.10.2019
537 Haze 31 1011 52 4000 1.5 360 10:45 05.10.2019
538 Haze 31 1011 52 4000 1.5 360 10:26 05.10.2019
539 Haze 31 1012 55 4000 1.5 40 09:59 05.10.2019
540 Haze 31 1012 55 4000 1 20 09:39 05.10.2019
541 Haze 31 1012 55 4000 1 20 09:20 05.10.2019
542 Haze 30 1013 55 4000 2.78 43.993 08:40 05.10.2019
543 Haze 30 1013 55 4000 2.78 43.993 08:20 05.10.2019
544 Haze 30 1013 66 4000 1 70 07:57 05.10.2019
545 Haze 30 1014 62 4000 1.5 70 07:35 05.10.2019
546 Haze 30 1014 66 4000 1.5 90 06:59 05.10.2019
547 Haze 29 1014 70 4000 2.78 43.993 06:28 05.10.2019
548 Haze 29 1014 70 4000 1 30 05:51 05.10.2019
549 Haze 26 1013 83 2500 2.45 54.43 04:21 05.10.2019
550 Haze 23 1012 94 2500 2.45 54.43 03:28 05.10.2019
551 Haze 24 1011 88 3000 2.02 32.524 01:42 05.10.2019
552 Haze 24 1011 88 3000 2.09 26.883 01:20 05.10.2019
553 Haze 24 1011 88 3000 2.09 26.883 00:43 05.10.2019
554 Haze 24 1011 88 3000 2.09 26.883 00:25 05.10.2019
555 Haze 24 1011 88 3000 1.39 26.234 23:44 04.10.2019
556 Haze 25 1010 88 3000 1.39 26.234 23:26 04.10.2019
557 Haze 25 1010 88 3000 1.39 26.234 23:26 04.10.2019
558 Haze 25 1010 88 3000 1.39 26.234 22:59 04.10.2019
559 Haze 25 1010 88 3000 1.39 26.234 22:39 04.10.2019
560 Haze 25 1010 88 3000 1.39 26.234 22:20 04.10.2019
561 Haze 25 1011 88 3000 1.39 26.234 21:57 04.10.2019
562 Haze 25 1011 88 3000 1.39 26.234 21:38 04.10.2019
563 Haze 25 1011 88 3000 1.59 341.929 21:19 04.10.2019
564 Haze 25 1011 88 3000 1.72 323.802 20:55 04.10.2019
565 Haze 25 1011 88 3000 1.72 323.802 20:55 04.10.2019
566 Haze 26 1012 83 3000 1.72 323.802 20:36 04.10.2019
567 Haze 26 1012 83 3000 1.72 323.802 20:18 04.10.2019
568 Haze 26 1012 83 3000 1.72 323.802 19:45 04.10.2019
569 Haze 26 1012 83 4000 1.72 323.802 19:26 04.10.2019
570 Haze 27 1012 78 4000 1.72 323.802 18:57 04.10.2019
571 Haze 26 1012 83 4000 1.72 323.802 18:38 04.10.2019
572 Haze 26 1012 83 4000 0.17 337.15 18:19 04.10.2019
573 Haze 26 1012 83 4000 0.17 337.15 17:42 04.10.2019
574 Haze 27 1012 78 4000 0.17 337.15 17:22 04.10.2019
575 Haze 27 1011 78 4000 0.17 337.15 16:59 04.10.2019
576 Haze 27 1011 78 4000 0.17 337.15 16:41 04.10.2019
577 Haze 27 1011 74 4000 0.17 337.15 16:41 04.10.2019
578 Haze 27 1011 74 4000 0.17 337.15 16:19 04.10.2019
579 Haze 28 1011 74 4000 0.17 337.15 15:58 04.10.2019
580 Haze 28 1010 74 4000 0.17 337.15 15:39 04.10.2019
581 Haze 28 1010 74 4000 1.17 15.824 15:21 04.10.2019
582 Haze 30 1010 66 4000 1.17 15.824 14:58 04.10.2019
583 Haze 31 1010 55 5000 1.17 15.824 14:39 04.10.2019
584 Haze 31 1010 55 5000 1.17 15.824 14:21 04.10.2019
585 Haze 31 1010 52 5000 2.1 300 13:46 04.10.2019
586 Haze 32 1009 49 5000 1.5 320 13:24 04.10.2019
587 Haze 32 1009 49 5000 2.1 320 12:58 04.10.2019
588 Haze 32 1009 49 5000 2.1 320 12:40 04.10.2019
589 Haze 32 1009 49 5000 2.1 320 12:21 04.10.2019
590 Haze 32 1010 52 5000 1.77 318.321 11:43 04.10.2019
591 Haze 32 1010 52 5000 1.77 318.321 11:43 04.10.2019
592 Haze 32 1010 52 5000 1.77 318.321 11:42 04.10.2019
593 Haze 31 1010 52 5000 1.77 318.321 11:22 04.10.2019
594 Haze 31 1011 52 5000 1.77 318.321 10:55 04.10.2019
595 Haze 31 1011 58 5000 1.5 330 10:37 04.10.2019
596 Haze 31 1011 58 5000 1.5 330 10:18 04.10.2019
597 Haze 31 1012 55 5000 2.1 330 09:41 04.10.2019
598 Haze 30 1013 58 5000 1.5 330 09:23 04.10.2019
599 Haze 30 1013 62 5000 1 360 08:45 04.10.2019
600 Haze 30 1014 62 5000 1 360 08:26 04.10.2019
601 Haze 29 1014 66 5000 1.72 345.633 07:47 04.10.2019
602 Haze 29 1014 66 5000 1.72 345.633 07:26 04.10.2019
603 Haze 28 1014 74 4000 1.72 345.633 06:59 04.10.2019
604 Haze 28 1015 69 3000 1.72 345.633 06:39 04.10.2019
605 Haze 28 1015 69 3000 1.57 24.326 06:20 04.10.2019
606 Haze 26 1014 78 3000 1.57 24.326 05:21 04.10.2019
607 Haze 25 1014 83 3000 1 20 04:38 04.10.2019
608 Haze 23 1013 94 2500 1.5 11.242 03:18 04.10.2019
609 Haze 23 1013 94 2500 1.5 11.242 02:43 04.10.2019
610 Haze 23 1012 94 3000 1.5 11.242 01:53 04.10.2019
611 Haze 23 1012 94 3000 1.5 11.242 01:53 04.10.2019
612 Haze 23 1012 94 3000 1.63 358.697 01:26 04.10.2019
613 Haze 23 1012 94 3000 1.63 358.697 00:32 04.10.2019
614 Haze 24 1012 88 3000 2 353.067 23:39 03.10.2019
615 Haze 24 1012 88 3000 2 353.067 23:21 03.10.2019
616 Haze 24 1012 88 3000 2 353.067 22:57 03.10.2019
617 Haze 24 1012 94 2000 2 353.067 22:39 03.10.2019
618 Haze 24 1012 94 2000 2 353.067 22:39 03.10.2019
619 Haze 24 1012 94 2000 2 353.067 22:39 03.10.2019
620 Haze 24 1012 94 2000 2 353.067 22:21 03.10.2019
621 Haze 24 1012 94 2000 2 353.067 21:57 03.10.2019
622 Haze 24 1012 88 2000 2 353.067 21:39 03.10.2019
623 Haze 24 1012 88 2000 1.68 326.225 21:19 03.10.2019
624 Haze 24 1012 88 2000 1.68 326.225 21:19 03.10.2019
625 Haze 25 1012 88 2000 1.68 326.225 20:57 03.10.2019
626 Haze 25 1012 88 2000 2.21 320.208 20:38 03.10.2019
627 Haze 25 1012 88 2000 2.21 320.208 20:20 03.10.2019
628 Haze 25 1012 88 2000 1.5 300 19:55 03.10.2019
629 Haze 25 1012 88 2000 1.5 300 19:55 03.10.2019
630 Haze 25 1012 94 2000 1 230 19:37 03.10.2019
631 Haze 25 1012 94 2000 1 230 19:19 03.10.2019
632 Haze 25 1013 94 2000 1.5 290 18:54 03.10.2019
633 Haze 25 1013 88 3000 2.21 320.208 18:36 03.10.2019
634 Haze 25 1013 88 3000 2.23 297.406 18:18 03.10.2019
635 Haze 26 1012 83 3000 1 70 17:42 03.10.2019
636 Haze 25 1012 94 3000 1 60 17:21 03.10.2019
637 Haze 26 1012 83 3000 1 220 16:55 03.10.2019
638 Haze 26 1012 83 3000 1 220 16:54 03.10.2019
639 Haze 26 1012 83 3000 1 220 16:54 03.10.2019
640 Rain 26 1012 83 3000 1.5 100 16:36 03.10.2019
641 Rain 26 1012 83 3000 1.5 100 16:18 03.10.2019
642 Haze 27 1011 78 3000 1.5 70 15:42 03.10.2019
643 Haze 27 1011 78 4000 1.5 140 15:23 03.10.2019
644 Haze 28 1011 78 5000 2.29 294.695 14:56 03.10.2019
645 Haze 28 1011 78 5000 2.29 294.695 14:56 03.10.2019
646 Haze 28 1010 74 5000 1.5 160 14:36 03.10.2019
647 Haze 28 1010 74 5000 1.5 160 14:36 03.10.2019
648 Haze 28 1010 74 5000 1.5 160 14:18 03.10.2019
649 Haze 31 1010 55 5000 1 240 13:43 03.10.2019
650 Haze 31 1010 55 5000 1 240 13:22 03.10.2019
651 Haze 31 1010 55 4000 1 270 12:58 03.10.2019
652 Rain 27 1010 74 3000 1.5 260 12:39 03.10.2019
653 Rain 27 1010 74 3000 1.5 260 12:39 03.10.2019
654 Rain 27 1010 74 3000 1.5 260 12:19 03.10.2019
655 Rain 30 1010 62 2500 5.7 300 11:57 03.10.2019
656 -273 0 0 0 0 0 11:56 03.10.2019
657 Rain 30 1010 62 2500 5.7 300 11:56 03.10.2019
658 Haze 32 1010 55 5000 1.5 240 11:37 03.10.2019
659 Haze 32 1010 55 5000 1.5 240 11:19 03.10.2019
660 Haze 31 1011 55 5000 2.6 290 10:42 03.10.2019
661 Haze 31 1011 55 5000 2.1 320 10:19 03.10.2019
662 Haze 31 1012 55 5000 1.5 30 09:59 03.10.2019
663 Haze 31 1012 62 5000 1.5 340 09:40 03.10.2019
664 Haze 31 1012 62 5000 1.5 340 09:40 03.10.2019
665 Haze 31 1012 62 5000 1.5 340 09:22 03.10.2019
666 Haze 30 1013 58 5000 1 300 09:00 03.10.2019
667 Haze 30 1013 62 5000 2.1 330 08:40 03.10.2019
668 Haze 30 1013 62 5000 2.1 330 08:22 03.10.2019
669 Haze 29 1014 66 5000 2.1 20 07:41 03.10.2019
670 Haze 29 1014 66 5000 2.1 20 07:19 03.10.2019
671 Haze 29 1014 66 4000 2.1 330 06:51 03.10.2019
672 Haze 27 1014 74 2500 1.5 330 06:25 03.10.2019
673 Haze 27 1014 74 2500 1.5 310 05:47 03.10.2019
674 Haze 27 1014 74 2500 1.5 310 05:20 03.10.2019
675 Haze 25 1013 83 2500 2.73 314.288 04:39 03.10.2019
676 Haze 23 1012 94 3000 2.73 314.288 03:26 03.10.2019
677 Haze 23 1012 94 3000 1.54 305.468 02:45 03.10.2019
678 Haze 23 1011 94 3000 1.54 305.468 02:19 03.10.2019
679 Haze 23 1011 94 3000 1.62 306.99 01:37 03.10.2019
680 Haze 23 1010 94 3000 1.62 306.99 00:51 03.10.2019
681 Haze 23 1010 94 3000 1.62 306.99 00:26 03.10.2019
682 Haze 23 1010 94 3000 1.72 308.966 23:44 02.10.2019
683 Haze 23 1010 94 3000 1.72 308.966 23:44 02.10.2019
684 Haze 24 1011 88 3000 1.72 308.966 23:24 02.10.2019
685 Haze 23 1011 94 3000 1.72 308.966 22:47 02.10.2019
686 Haze 24 1011 88 3000 1.72 308.966 22:24 02.10.2019
687 Haze 25 1011 83 3000 1.72 308.966 21:58 02.10.2019
688 Haze 25 1011 83 3000 1.72 308.966 21:39 02.10.2019
689 Haze 25 1011 83 3000 2.42 310.93 21:20 02.10.2019
690 Haze 25 1012 83 3000 2.37 308.372 20:57 02.10.2019
691 Haze 25 1012 88 3000 2.37 308.372 20:39 02.10.2019
692 Haze 25 1012 88 3000 2.37 308.372 20:21 02.10.2019
693 Haze 25 1013 88 3000 2.37 308.372 19:57 02.10.2019
694 Haze 25 1013 88 3000 2.37 308.372 19:39 02.10.2019
695 Haze 25 1013 88 3000 2.37 308.372 19:21 02.10.2019
696 Haze 25 1013 88 3000 2.37 308.372 18:57 02.10.2019
697 Haze 25 1013 83 3000 2.37 308.372 18:38 02.10.2019
698 Haze 25 1013 83 3000 2.87 305.111 18:20 02.10.2019
699 Haze 26 1013 78 3000 2.6 280 17:56 02.10.2019
700 Haze 27 1013 74 3000 2.6 280 17:37 02.10.2019
701 Haze 27 1013 74 3000 2.6 280 17:19 02.10.2019
702 Haze 27 1013 74 3000 2.6 280 17:19 02.10.2019
703 Haze 27 1011 74 3000 2.87 305.111 16:42 02.10.2019
704 Haze 27 1011 74 3000 2.87 305.111 16:22 02.10.2019
705 Haze 27 1011 74 3000 2.87 305.111 15:57 02.10.2019
706 Haze 27 1011 78 4000 1.5 250 15:38 02.10.2019
707 Haze 27 1011 78 4000 1.5 250 15:19 02.10.2019
708 Haze 29 1010 70 4000 3.1 279.675 14:56 02.10.2019
709 Haze 30 1010 62 4000 1 280 14:38 02.10.2019
710 Haze 30 1010 62 4000 1 280 14:20 02.10.2019
711 Haze 31 1010 55 5000 4.1 290 13:43 02.10.2019
712 Haze 31 1010 55 5000 4.1 290 13:23 02.10.2019
713 Haze 31 1010 55 5000 3.6 280 12:57 02.10.2019
714 Haze 31 1010 55 5000 4.1 280 12:37 02.10.2019
715 Haze 31 1010 55 5000 4.1 280 12:18 02.10.2019
716 Haze 31 1010 55 5000 3.6 280 11:43 02.10.2019
717 Haze 31 1010 55 5000 3.6 280 11:23 02.10.2019
718 Haze 31 1012 58 5000 4.6 300 10:42 02.10.2019
719 Haze 31 1012 58 5000 4.6 300 10:20 02.10.2019
720 Haze 31 1012 55 5000 2.6 300 09:57 02.10.2019
721 Haze 30 1013 58 5000 4.1 290 09:36 02.10.2019
722 Haze 30 1013 58 5000 4.1 290 09:18 02.10.2019
723 Haze 29 1014 66 5000 5.7 270 08:42 02.10.2019
724 Haze 29 1014 66 5000 5.7 270 08:22 02.10.2019
725 Haze 29 1014 62 5000 3.1 300 07:56 02.10.2019
726 Haze 29 1014 62 5000 2.6 300 07:37 02.10.2019
727 Haze 28 1014 65 5000 3.6 300 07:19 02.10.2019
728 Haze 28 1014 65 5000 3.6 300 07:19 02.10.2019
729 Haze 27 1014 78 4000 3.6 290 06:31 02.10.2019
730 Haze 27 1014 78 4000 3.6 290 05:52 02.10.2019
731 Haze 25 1014 88 3000 1.5 250 05:23 02.10.2019
732 Haze 24 1013 94 3000 3.38 291.342 04:41 02.10.2019
733 Haze 23 1013 94 2500 3.38 291.342 03:51 02.10.2019
734 Haze 23 1012 94 2500 1 220 02:39 02.10.2019
735 Haze 23 1012 94 2500 1 220 02:20 02.10.2019
736 Haze 23 1011 94 2500 1.5 230 01:18 02.10.2019
737 Haze 22 1011 94 2500 1 220 00:30 02.10.2019
738 Haze 22 1011 94 2500 3.71 259.187 23:59 01.10.2019
739 Haze 22 1011 94 2500 2.1 200 23:41 01.10.2019
740 Haze 22 1011 94 2500 2.1 200 23:41 01.10.2019
741 Haze 22 1011 94 2500 2.1 200 23:22 01.10.2019
742 Haze 22 1011 94 2500 2.1 200 22:58 01.10.2019
743 Haze 23 1011 88 2000 2.1 240 22:38 01.10.2019
744 Haze 23 1011 88 2000 2.1 240 22:18 01.10.2019
745 Rain 22 1012 94 2000 1.5 210 21:44 01.10.2019
746 Rain 22 1012 94 2000 1.5 210 21:24 01.10.2019
747 Thunderstorm 23 1012 94 2000 1.5 120 20:59 01.10.2019
748 Thunderstorm 25 1012 88 2000 4.6 160 20:39 01.10.2019
749 Thunderstorm 25 1012 88 2000 4.6 160 20:21 01.10.2019
750 Rain 26 1012 88 1000 3.1 190 19:59 01.10.2019
751 Haze 27 1012 83 3000 1.5 180 19:41 01.10.2019
752 Haze 27 1012 83 3000 1.5 180 19:23 01.10.2019
753 Haze 26 1012 88 3000 1.5 140 18:56 01.10.2019
754 Haze 27 1012 83 3000 1.5 140 18:38 01.10.2019
755 Haze 27 1012 83 3000 1.5 140 18:19 01.10.2019
756 Haze 27 1012 83 3000 1.5 150 17:43 01.10.2019
757 Haze 27 1012 83 3000 1.5 150 17:22 01.10.2019
758 Haze 27 1011 83 3000 1.5 140 16:59 01.10.2019
759 Haze 27 1011 78 3000 1.5 150 16:41 01.10.2019
760 Haze 27 1011 78 3000 1.5 150 16:22 01.10.2019
761 Haze 27 1010 78 4000 2.1 170 15:49 01.10.2019
762 Haze 27 1010 78 4000 2.1 200 15:25 01.10.2019
763 Haze 27 1010 78 4000 2.1 200 15:25 01.10.2019
764 Haze 29 1010 70 4000 2.6 200 14:58 01.10.2019
765 Haze 30 1009 62 4000 2.6 200 14:40 01.10.2019
766 Haze 30 1009 62 4000 2.6 200 14:20 01.10.2019
767 Haze 31 1009 58 5000 3.1 190 13:56 01.10.2019
768 Haze 31 1009 58 5000 3.1 210 13:37 01.10.2019
769 Haze 31 1009 58 5000 3.1 210 13:37 01.10.2019
770 Haze 31 1009 58 5000 3.1 210 13:18 01.10.2019
771 Haze 31 1009 58 5000 3.6 200 12:55 01.10.2019
772 Haze 31 1009 58 5000 2.6 210 12:55 01.10.2019
773 Haze 31 1009 58 5000 2.6 210 12:37 01.10.2019
774 Haze 31 1009 62 5000 3.6 200 12:18 01.10.2019
775 Haze 31 1009 62 5000 3.6 200 11:55 01.10.2019
776 Haze 31 1010 58 5000 3.6 190 11:36 01.10.2019
777 Haze 31 1010 58 5000 3.6 190 11:18 01.10.2019
778 Haze 31 1011 66 5000 3.1 170 10:45 01.10.2019
779 Haze 31 1011 66 5000 3.1 170 10:27 01.10.2019
780 Haze 31 1012 66 5000 3.1 180 09:45 01.10.2019
781 Haze 30 1012 66 5000 1.5 250 09:26 01.10.2019
782 Haze 30 1013 66 5000 3.1 240 08:44 01.10.2019
783 Haze 30 1013 66 5000 3.1 240 08:25 01.10.2019
784 Haze 29 1013 70 5000 3.47 250.875 07:53 01.10.2019
785 Haze 28 1014 74 5000 1.5 180 07:26 01.10.2019
786 Haze 28 1014 74 5000 1.5 180 07:26 01.10.2019
787 Haze 28 1014 74 5000 1.5 180 06:51 01.10.2019
788 Haze 27 1014 83 5000 1 210 06:25 01.10.2019
789 Haze 27 1014 83 4000 1.5 190 05:59 01.10.2019
790 Haze 26 1014 83 4000 2.6 180 05:40 01.10.2019
791 Haze 24 1013 94 3000 2.07 211.386 04:42 01.10.2019
792 Haze 23 1012 94 3000 2.07 211.386 03:34 01.10.2019
793 Haze 24 1012 88 3000 1.76 214.438 02:19 01.10.2019
794 Haze 24 1012 88 3000 1.76 214.438 01:51 01.10.2019
795 Haze 23 1011 94 3000 2 212.833 00:44 01.10.2019
796 Haze 23 1011 94 3000 2 212.833 00:44 01.10.2019
797 Haze 23 1011 94 3000 2 212.833 00:44 01.10.2019
798 Haze 23 1011 94 3000 2 212.833 00:24 01.10.2019
799 Haze 23 1011 94 3000 2 212.833 00:24 01.10.2019
800 Haze 23 1011 94 3000 2 212.833 00:24 01.10.2019
801 Haze 23 1011 88 3000 2 206.181 23:42 30.09.2019
802 Haze 23 1011 88 3000 2 206.181 23:42 30.09.2019
803 Haze 23 1011 88 3000 2 206.181 23:22 30.09.2019
804 Haze 23 1011 88 3000 2.1 240 22:55 30.09.2019
805 Haze 23 1012 88 3000 1.5 210 22:37 30.09.2019
806 Haze 23 1012 88 3000 1.5 210 22:19 30.09.2019
807 Haze 23 1012 88 3000 1.5 260 21:55 30.09.2019
808 Haze 23 1012 88 3000 1.5 170 21:36 30.09.2019
809 Haze 23 1012 88 3000 1.5 170 21:18 30.09.2019
810 Thunderstorm 24 1013 88 3000 2.6 190 20:54 30.09.2019
811 Haze 26 1013 88 3000 2.1 180 20:36 30.09.2019
812 Haze 26 1013 88 3000 2.1 180 20:36 30.09.2019
813 Haze 26 1013 88 3000 1.65 196.955 20:18 30.09.2019
814 Haze 26 1013 88 3000 1.65 196.955 20:18 30.09.2019
815 Haze 26 1013 88 3000 2.1 180 20:18 30.09.2019
816 Haze 26 1013 88 3000 1.65 196.955 19:42 30.09.2019
817 Haze 26 1013 88 3000 1.65 196.955 19:20 30.09.2019
818 Haze 26 1013 94 3000 1.65 196.955 18:59 30.09.2019
819 Haze 26 1013 94 3000 1.65 196.955 18:41 30.09.2019
820 Haze 26 1013 94 3000 1.43 232.174 18:20 30.09.2019
821 Haze 26 1012 94 3000 1.43 232.174 17:56 30.09.2019
822 Haze 26 1012 94 3000 1.43 232.174 17:38 30.09.2019
823 Haze 26 1012 94 3000 1.43 232.174 17:19 30.09.2019
824 Haze 27 1012 83 4000 1.43 232.174 16:42 30.09.2019
825 Haze 27 1012 83 4000 1.43 232.174 16:20 30.09.2019
826 Haze 27 1012 83 4000 1.43 232.174 16:20 30.09.2019
827 Haze 27 1012 83 4000 1.43 232.174 16:20 30.09.2019
828 Haze 27 1011 83 4000 1.43 232.174 15:59 30.09.2019
829 Haze 27 1011 83 4000 1.43 232.174 15:39 30.09.2019
830 Haze 27 1011 83 4000 1.43 232.174 15:39 30.09.2019
831 Haze 27 1011 83 4000 2.35 232.754 15:19 30.09.2019
832 Haze 28 1010 83 4000 2.35 232.754 14:58 30.09.2019
833 Haze 28 1010 83 4000 2.35 232.754 14:38 30.09.2019
834 Haze 28 1010 83 4000 2.35 232.754 14:19 30.09.2019
835 Haze 29 1010 79 4000 2.35 232.754 13:59 30.09.2019
836 Haze 29 1010 74 4000 2.35 232.754 13:40 30.09.2019
837 Haze 29 1010 74 4000 2.69 254.771 13:21 30.09.2019
838 Haze 28 1010 78 4000 1 20 12:44 30.09.2019
839 Haze 28 1010 78 4000 1 20 12:44 30.09.2019
840 Haze 28 1010 78 4000 1 20 12:25 30.09.2019
841 Haze 30 1010 70 4000 3.1 280 11:59 30.09.2019
842 Haze 31 1011 62 4000 3.1 170 11:40 30.09.2019
843 Haze 31 1011 70 5000 3.6 200 11:21 30.09.2019
844 Haze 31 1011 70 5000 3.6 200 10:56 30.09.2019
845 Clouds 29 1012 70 0 2.1 210 10:37 30.09.2019
846 Clouds 29 1012 70 0 2.1 210 10:18 30.09.2019
847 Clouds 29 1013 70 0 1.5 190 09:40 30.09.2019
848 Clouds 29 1013 70 0 1.5 190 09:21 30.09.2019
849 Haze 29 1014 70 5000 2.6 170 08:51 30.09.2019
850 Haze 29 1014 70 5000 2.6 170 08:33 30.09.2019
851 Haze 27 1015 74 4000 2.1 220 07:58 30.09.2019
852 Haze 27 1015 74 4000 2.1 220 07:40 30.09.2019
853 Haze 27 1015 78 4000 2.1 190 07:18 30.09.2019
854 Haze 27 1015 78 4000 2.1 180 06:42 30.09.2019
855 Haze 26 1015 78 4000 2.6 200 05:56 30.09.2019
856 Haze 25 1014 88 4000 2.6 180 05:38 30.09.2019
857 Haze 23 1012 94 2000 1 190 02:50 30.09.2019
858 Haze 23 1012 94 2000 1 190 02:20 30.09.2019
859 Haze 23 1011 94 2000 1.14 248.786 00:57 30.09.2019
860 Haze 23 1012 100 3000 1 190 00:37 30.09.2019
861 Haze 23 1012 100 3000 1 190 00:18 30.09.2019
862 Haze 23 1012 100 3000 1 190 00:18 30.09.2019
863 Haze 23 1012 100 3000 1 190 00:18 30.09.2019
864 Haze 23 1012 100 3000 1.07 229.115 23:40 29.09.2019
865 Haze 23 1012 100 3000 1.07 229.115 23:20 29.09.2019
866 Haze 23 1013 100 3000 1.5 180 22:44 29.09.2019
867 Haze 23 1013 100 3000 1.5 180 22:25 29.09.2019
868 Haze 23 1013 100 3000 1.5 180 22:25 29.09.2019
869 Haze 23 1013 100 3000 1.5 180 22:25 29.09.2019
870 Haze 24 1014 94 3000 1 180 21:59 29.09.2019
871 Haze 24 1014 94 3000 1.5 180 21:39 29.09.2019
872 Haze 24 1014 94 3000 1.5 180 21:20 29.09.2019
873 Haze 24 1014 94 3000 1.5 180 21:20 29.09.2019
874 Haze 24 1015 94 3000 3.1 180 20:59 29.09.2019
875 Haze 24 1014 94 3000 1.98 220.265 20:41 29.09.2019
876 Haze 24 1014 94 3000 1.98 220.265 20:41 29.09.2019
877 Haze 24 1014 94 3000 1.52 219.443 20:19 29.09.2019
878 Haze 24 1014 94 3000 1.52 219.443 19:55 29.09.2019
879 Haze 24 1014 94 3000 1.52 219.443 19:36 29.09.2019
880 Haze 24 1014 94 3000 1.52 219.443 19:18 29.09.2019
881 Haze 24 1014 94 3000 1.52 219.443 18:55 29.09.2019
882 Haze 24 1014 94 3000 1.52 219.443 18:36 29.09.2019
883 Haze 24 1014 94 3000 2.74 222.234 18:18 29.09.2019
884 Haze 24 1014 94 3000 2.74 222.234 17:55 29.09.2019
885 Haze 24 1014 94 3000 2.74 222.234 17:36 29.09.2019
886 Haze 24 1014 94 3000 2.74 222.234 17:18 29.09.2019
887 Haze 24 1013 94 3000 2.74 222.234 16:41 29.09.2019
888 Haze 24 1013 94 3000 2.74 222.234 16:20 29.09.2019
889 Haze 24 1012 88 3000 2.74 222.234 15:59 29.09.2019
890 Haze 24 1013 94 3000 2.1 120 15:39 29.09.2019
891 Haze 24 1013 94 3000 2.1 120 15:19 29.09.2019
892 Haze 24 1012 88 3000 2.1 200 14:59 29.09.2019
893 Thunderstorm 26 1012 83 3000 4.6 200 14:38 29.09.2019
894 Thunderstorm 26 1012 83 3000 4.6 200 14:19 29.09.2019
895 Haze 29 1011 74 5000 2.1 220 13:57 29.09.2019
896 Haze 29 1011 74 5000 2.1 220 13:38 29.09.2019
897 Haze 29 1011 74 5000 2.1 220 13:18 29.09.2019
898 Haze 29 1011 70 5000 2.6 220 12:56 29.09.2019
899 Haze 30 1011 66 5000 3.6 220 12:38 29.09.2019
900 Haze 30 1011 66 5000 3.6 220 12:20 29.09.2019
901 Haze 30 1011 66 5000 4.1 230 11:41 29.09.2019
902 Haze 30 1011 66 5000 4.1 230 11:20 29.09.2019
903 Haze 30 1011 66 5000 4.1 230 11:20 29.09.2019
904 Haze 30 1012 66 5000 4.6 200 10:59 29.09.2019
905 Haze 30 1012 66 5000 3.6 210 10:40 29.09.2019
906 Haze 30 1012 66 5000 3.6 210 10:21 29.09.2019
907 Haze 30 1013 66 5000 4.1 210 09:59 29.09.2019
908 Haze 30 1013 70 5000 4.1 200 09:41 29.09.2019
909 Haze 30 1013 70 5000 4.1 200 09:20 29.09.2019
910 Haze 30 1014 70 4000 3.1 190 08:43 29.09.2019
911 Haze 30 1014 70 4000 3.1 190 08:22 29.09.2019
912 Haze 29 1014 70 4000 2.6 220 07:45 29.09.2019
913 Haze 29 1015 70 4000 3.1 220 07:27 29.09.2019
914 Haze 27 1015 83 4000 2.1 170 06:55 29.09.2019
915 Haze 27 1015 83 4000 2.1 170 06:32 29.09.2019
916 Haze 26 1014 88 3000 4.35 210.265 04:52 29.09.2019
917 Mist 25 1014 94 2000 4.35 210.265 04:24 29.09.2019
918 Haze 24 1013 94 2000 1 210 03:42 29.09.2019
919 Rain 24 1013 100 2000 2.92 203.781 02:25 29.09.2019
920 Rain 24 1012 100 2000 2.1 190 01:45 29.09.2019
921 Rain 24 1012 100 2000 1 210 01:20 29.09.2019
922 Haze 24 1012 100 2500 3.37 216.056 00:41 29.09.2019
923 Haze 24 1012 100 2500 2.85 211.167 00:19 29.09.2019
924 Haze 24 1012 100 2500 2.85 211.167 23:39 28.09.2019
925 Haze 24 1012 100 2500 2.85 211.167 23:20 28.09.2019
926 Haze 24 1013 100 2500 2.85 211.167 22:41 28.09.2019
927 Haze 24 1013 100 2500 2.85 211.167 22:41 28.09.2019
928 Haze 24 1013 100 2500 2.85 211.167 22:23 28.09.2019
929 Haze 24 1013 100 2500 2.85 211.167 22:23 28.09.2019
930 Haze 24 1013 94 2500 2.85 211.167 21:59 28.09.2019
931 Haze 24 1013 94 2500 2.85 211.167 21:40 28.09.2019
932 Haze 24 1013 94 2500 2.85 211.167 21:40 28.09.2019
933 Haze 24 1013 94 2500 2.31 194.911 21:21 28.09.2019
934 Haze 24 1014 94 2500 2.31 194.911 20:58 28.09.2019
935 Haze 24 1014 94 2500 1.83 228.72 20:40 28.09.2019
936 Haze 24 1014 94 2500 1.83 228.72 20:20 28.09.2019
937 Thunderstorm 24 1013 94 2000 1.83 228.72 19:57 28.09.2019
938 Thunderstorm 24 1014 94 2000 1.83 228.72 19:38 28.09.2019
939 Thunderstorm 24 1014 94 2000 1.83 228.72 19:20 28.09.2019
940 Thunderstorm 24 1013 94 2000 1.83 228.72 18:57 28.09.2019
941 Thunderstorm 25 1013 94 2000 2.1 300 18:39 28.09.2019
942 Thunderstorm 25 1013 94 2000 2.1 300 18:20 28.09.2019
943 Rain 25 1013 94 2000 2.6 230 17:56 28.09.2019
944 Haze 25 1013 88 2000 2.61 233.759 17:38 28.09.2019
945 Haze 25 1013 88 2000 2.61 233.759 17:19 28.09.2019
946 Haze 25 1013 88 2000 2.61 233.759 17:19 28.09.2019
947 Rain 25 1012 88 0 2.61 233.759 16:43 28.09.2019
948 Haze 28 1011 83 3000 1 200 16:25 28.09.2019
949 Haze 28 1011 83 3000 1 200 15:42 28.09.2019
950 Haze 28 1011 83 3000 1 200 15:23 28.09.2019
951 Haze 28 1011 83 3000 1 200 15:23 28.09.2019
952 Haze 28 1011 83 4000 1 170 14:58 28.09.2019
953 Haze 29 1010 79 4000 1 190 14:39 28.09.2019
954 Haze 29 1010 79 4000 1 190 14:21 28.09.2019
955 Haze 29 1010 70 5000 2.1 230 13:57 28.09.2019
956 Haze 29 1010 70 5000 2.6 200 13:38 28.09.2019
957 Haze 29 1010 70 5000 2.6 200 13:20 28.09.2019
958 Haze 30 1010 66 5000 1.5 220 12:45 28.09.2019
959 Haze 30 1010 66 5000 1.5 220 12:20 28.09.2019
960 Haze 30 1010 62 5000 3.1 220 11:56 28.09.2019
961 Haze 30 1010 66 5000 2.6 250 11:37 28.09.2019
962 Haze 30 1010 66 5000 2.6 250 11:18 28.09.2019
963 Haze 30 1010 66 5000 2.6 250 11:18 28.09.2019
964 Haze 29 1011 74 4000 3.6 250 10:42 28.09.2019
965 Haze 29 1011 74 4000 3.6 250 10:20 28.09.2019
966 Haze 29 1012 74 4000 3.1 220 09:56 28.09.2019
967 Haze 28 1012 78 4000 3.6 210 09:37 28.09.2019
968 Haze 28 1012 78 4000 3.6 210 09:18 28.09.2019
969 Haze 27 1013 83 3000 3.6 200 08:44 28.09.2019
970 Haze 27 1013 83 3000 3.6 200 08:26 28.09.2019
971 Haze 26 1014 88 2500 4.6 210 07:45 28.09.2019
972 Haze 25 1014 94 2500 2.1 210 07:21 28.09.2019
973 Rain 25 1014 94 2000 2.6 190 06:55 28.09.2019
974 Rain 24 1014 100 2000 2.1 180 06:31 28.09.2019
975 Rain 24 1014 100 2000 2.1 210 05:55 28.09.2019
976 Rain 24 1014 100 2000 2.6 210 05:20 28.09.2019
977 Rain 24 1014 94 2000 2.6 180 04:39 28.09.2019
978 Rain 24 1013 94 2500 3.7 200.158 03:56 28.09.2019
979 Haze 24 1013 94 3000 1.9 208.692 03:22 28.09.2019
980 Haze 24 1013 94 3000 1.9 208.692 02:48 28.09.2019
981 Haze 24 1013 94 3000 1.9 208.692 02:30 28.09.2019
982 Rain 24 1013 94 3000 1.9 208.692 01:48 28.09.2019
983 Rain 24 1012 94 3000 2.66 208.339 01:26 28.09.2019
984 Rain 24 1012 94 3000 1.5 150 00:55 28.09.2019
985 Rain 24 1013 94 3000 1.5 150 00:36 28.09.2019
986 Rain 25 1013 94 3000 1.5 150 23:58 27.09.2019
987 Rain 25 1013 94 3000 2.88 218.424 23:37 27.09.2019
988 Rain 25 1013 94 3000 2.88 218.424 23:19 27.09.2019
989 Rain 25 1013 94 3000 2.88 218.424 22:45 27.09.2019
990 Rain 25 1013 94 3000 2.88 218.424 22:45 27.09.2019
991 Rain 25 1013 94 3000 2.88 218.424 22:45 27.09.2019
992 Rain 25 1013 94 3000 2.88 218.424 22:19 27.09.2019
993 Haze 25 1014 94 3000 2.88 218.424 21:57 27.09.2019
994 Haze 25 1014 94 3000 2.88 218.424 21:37 27.09.2019
995 Haze 25 1014 94 3000 3.18 207.701 21:19 27.09.2019
996 Haze 25 1014 88 3000 3.18 207.701 20:56 27.09.2019
997 Haze 25 1014 88 3000 3.03 192.734 20:38 27.09.2019
998 Haze 25 1014 88 3000 3.03 192.734 20:19 27.09.2019
999 Haze 26 1014 83 3000 1 300 19:44 27.09.2019
1000 Haze 26 1014 83 3000 1 300 19:24 27.09.2019
1001 Haze 26 1014 88 3000 2.6 180 18:59 27.09.2019
1002 Haze 26 1014 83 3000 2.1 170 18:40 27.09.2019
1003 Haze 26 1014 83 3000 2.1 170 18:21 27.09.2019
1004 Haze 26 1014 83 3000 3.6 160 17:55 27.09.2019
1005 Haze 26 1014 88 3000 2.1 150 17:36 27.09.2019
1006 Haze 26 1014 88 3000 2.1 150 17:18 27.09.2019
1007 Haze 26 1013 88 3000 1.5 160 16:54 27.09.2019
1008 Haze 26 1013 88 3000 1.5 160 16:54 27.09.2019
1009 Haze 26 1013 88 4000 2.1 150 16:36 27.09.2019
1010 Haze 27 1012 83 4000 2.1 150 16:18 27.09.2019
1011 Haze 27 1012 83 4000 2.1 160 15:42 27.09.2019
1012 Haze 27 1012 83 4000 2.1 160 15:20 27.09.2019
1013 Haze 28 1012 78 5000 3.6 180 14:56 27.09.2019
1014 Haze 29 1011 70 5000 2.6 170 14:38 27.09.2019
1015 Haze 29 1011 70 5000 2.6 170 14:38 27.09.2019
1016 Haze 29 1011 70 5000 2.6 170 14:18 27.09.2019
1017 Haze 29 1011 74 5000 2.1 180 13:55 27.09.2019
1018 Haze 29 1011 70 4000 4.1 170 13:37 27.09.2019
1019 Haze 29 1011 70 4000 4.1 170 13:18 27.09.2019
1020 Haze 30 1012 70 4000 3.1 180 12:42 27.09.2019
1021 Haze 30 1012 66 5000 3.1 200 12:21 27.09.2019
1022 Haze 30 1012 66 5000 3.1 200 11:40 27.09.2019
1023 Haze 30 1012 66 5000 3.1 200 11:40 27.09.2019
1024 Haze 30 1012 66 5000 3.1 200 11:22 27.09.2019
1025 Haze 30 1012 66 5000 2.1 230 10:58 27.09.2019
1026 Haze 30 1012 66 5000 2.1 230 10:58 27.09.2019
1027 Haze 30 1013 70 5000 3.1 200 10:40 27.09.2019
1028 Haze 29 1013 66 5000 2.6 200 10:20 27.09.2019
1029 Haze 29 1014 70 5000 4.6 250 09:43 27.09.2019
1030 Haze 29 1014 70 5000 4.6 250 09:22 27.09.2019
1031 Clouds 28 1013 80 0 5.22 204.882 08:58 27.09.2019
1032 Clouds 28 1013 80 0 5.22 204.882 08:58 27.09.2019
1033 Haze 28 1015 78 4000 3.6 180 08:39 27.09.2019
1034 Haze 28 1015 78 4000 3.6 180 08:20 27.09.2019
1035 Haze 28 1016 78 4000 3.6 160 07:46 27.09.2019
1036 Haze 26 1016 83 4000 4.6 180 07:23 27.09.2019
1037 Haze 26 1016 83 3000 5.7 180 06:43 27.09.2019
1038 Haze 26 1016 83 3000 5.7 180 06:24 27.09.2019
1039 Haze 26 1017 83 3000 4.6 170 05:51 27.09.2019
1040 Haze 26 1016 83 3000 5.7 170 05:32 27.09.2019
1041 Haze 25 1015 88 3000 2.1 150 03:56 27.09.2019
1042 Haze 24 1015 94 3000 2.1 150 03:34 27.09.2019
1043 Haze 24 1014 94 3000 3.1 160 01:52 27.09.2019
1044 Haze 25 1014 88 3000 3.1 130 01:28 27.09.2019
1045 Haze 25 1014 88 3000 2.1 160 00:22 27.09.2019
1046 Haze 25 1014 88 3000 2.6 140 23:56 26.09.2019
1047 Haze 25 1014 88 3000 3.1 150 23:38 26.09.2019
1048 Haze 25 1014 88 3000 3.1 150 23:18 26.09.2019
1049 Haze 25 1014 88 3000 3.1 150 23:18 26.09.2019
1050 Haze 25 1014 88 3000 3.1 150 22:56 26.09.2019
1051 Haze 25 1014 88 3000 3.1 150 22:56 26.09.2019
1052 Haze 24 1014 94 3000 2.1 160 22:38 26.09.2019
1053 Haze 24 1014 94 3000 2.1 160 22:18 26.09.2019
1054 Haze 24 1014 94 3000 1.5 170 21:55 26.09.2019
1055 Haze 25 1014 88 3000 2.1 160 21:36 26.09.2019
1056 Haze 25 1014 88 3000 2.1 160 21:18 26.09.2019
1057 Haze 25 1014 88 3000 2.1 160 21:18 26.09.2019
1058 Haze 25 1015 88 3000 1 130 20:56 26.09.2019
1059 Haze 25 1015 88 3000 1.5 130 20:38 26.09.2019
1060 Haze 25 1015 88 3000 1.5 130 20:38 26.09.2019
1061 Haze 25 1015 88 3000 1.5 130 20:20 26.09.2019
1062 Haze 25 1015 88 3000 2.6 150 19:40 26.09.2019
1063 Haze 25 1015 88 3000 2.6 150 19:19 26.09.2019
1064 Haze 25 1015 88 3000 2.6 150 18:59 26.09.2019
1065 Haze 25 1015 88 3000 2.6 150 18:59 26.09.2019
1066 Haze 25 1014 88 3000 1 140 18:39 26.09.2019
1067 Haze 25 1014 88 3000 1 140 18:21 26.09.2019
1068 Haze 25 1014 88 3000 1 140 17:56 26.09.2019
1069 Haze 25 1014 88 3000 3.82 139.342 17:37 26.09.2019
1070 Haze 25 1014 88 3000 3.82 139.342 17:18 26.09.2019
1071 Haze 25 1013 88 3000 1 100 16:40 26.09.2019
1072 Haze 25 1013 88 3000 1 100 16:21 26.09.2019
1073 Haze 25 1013 88 4000 1 90 15:58 26.09.2019
1074 Haze 25 1012 94 4000 3.6 110 15:38 26.09.2019
1075 Haze 25 1012 94 4000 3.84 155.754 15:19 26.09.2019
1076 Haze 25 1012 94 4000 3.84 155.754 14:57 26.09.2019
1077 Haze 25 1012 94 4000 3.84 155.754 14:57 26.09.2019
1078 Haze 25 1012 94 4000 3.84 155.754 14:37 26.09.2019
1079 Haze 25 1012 94 4000 3.84 155.754 14:37 26.09.2019
1080 Haze 25 1012 94 4000 3.84 155.754 14:19 26.09.2019
1081 Haze 25 1011 94 3000 1 80 13:41 26.09.2019
1082 Haze 25 1011 94 3000 1 80 13:41 26.09.2019
1083 Thunderstorm 25 1011 94 2000 2.6 80 13:20 26.09.2019
1084 Thunderstorm 25 1011 94 2000 2.6 80 12:59 26.09.2019
1085 Thunderstorm 25 1011 94 2000 2.6 80 12:59 26.09.2019
1086 Haze 30 1011 70 4000 3.6 130 12:41 26.09.2019
1087 Haze 30 1011 70 4000 3.6 130 12:20 26.09.2019
1088 Haze 30 1011 66 4000 3.1 150 11:42 26.09.2019
1089 Haze 30 1011 66 4000 3.1 150 11:23 26.09.2019
1090 Haze 29 1012 74 4000 3.6 140 10:57 26.09.2019
1091 Haze 28 1012 78 4000 2.1 150 10:39 26.09.2019
1092 Haze 28 1012 78 4000 2.1 150 10:20 26.09.2019
1093 Haze 28 1013 74 4000 3.1 150 09:45 26.09.2019
1094 Haze 28 1013 74 4000 3.1 150 09:26 26.09.2019
1095 Haze 28 1014 74 4000 3.6 140 08:58 26.09.2019
1096 Haze 28 1014 74 4000 3.1 150 08:40 26.09.2019
1097 Haze 28 1014 74 4000 3.1 150 08:22 26.09.2019
1098 Haze 27 1014 83 3000 3.6 150 07:44 26.09.2019
1099 Haze 27 1014 83 3000 3.6 150 07:22 26.09.2019
1100 Haze 27 1015 78 3000 3.6 150 06:47 26.09.2019
1101 Haze 26 1015 83 3000 4.1 150 06:27 26.09.2019
1102 Haze 26 1015 83 3000 3.6 160 05:44 26.09.2019
1103 Haze 26 1015 83 3000 3.6 160 05:25 26.09.2019
1104 Haze 24 1014 94 2500 1.5 140 03:18 26.09.2019
1105 Haze 24 1013 94 2000 2.6 140 01:54 26.09.2019
1106 Haze 24 1013 94 2000 2.6 140 01:54 26.09.2019
1107 Haze 24 1012 94 2000 2.6 140 01:29 26.09.2019
1108 Haze 24 1012 94 2000 1 140 00:56 26.09.2019
1109 Haze 24 1012 94 2000 1 120 00:37 26.09.2019
1110 Haze 24 1012 94 2000 1 120 23:58 25.09.2019
1111 Haze 24 1012 94 2000 1 90 23:39 25.09.2019
1112 Haze 24 1012 94 2000 1 90 23:18 25.09.2019
1113 Haze 24 1012 94 2000 1 90 23:18 25.09.2019
1114 Haze 24 1012 94 2000 1 100 22:42 25.09.2019
1115 Haze 24 1012 94 2000 1 100 22:21 25.09.2019
1116 Drizzle 24 1013 94 2000 1 80 21:57 25.09.2019
1117 Drizzle 24 1013 94 2000 1 90 21:39 25.09.2019
1118 Drizzle 24 1013 94 2000 1 90 21:39 25.09.2019
1119 Drizzle 24 1013 94 2000 1 90 21:19 25.09.2019
1120 Haze 24 1013 94 2500 1 80 20:58 25.09.2019
1121 Haze 24 1013 94 2500 1 60 20:40 25.09.2019
1122 Haze 24 1013 94 2500 1 60 20:22 25.09.2019
1123 Haze 24 1013 94 2500 1 60 19:54 25.09.2019
1124 Haze 24 1013 94 2500 2.63 148.547 19:36 25.09.2019
1125 Haze 24 1013 94 2500 1 100 19:18 25.09.2019
1126 Haze 24 1013 94 2500 1 110 18:55 25.09.2019
1127 Haze 24 1013 94 2500 1 110 18:37 25.09.2019
1128 Haze 24 1013 94 2500 1 100 18:18 25.09.2019
1129 Haze 24 1012 94 2500 1 100 17:38 25.09.2019
1130 Haze 24 1012 94 2500 1 100 17:19 25.09.2019
1131 Haze 24 1012 94 2500 1.5 80 16:56 25.09.2019
1132 Haze 24 1011 94 2500 3.69 140.032 16:36 25.09.2019
1133 Haze 24 1011 94 2500 3.69 140.032 16:18 25.09.2019
1134 Haze 24 1010 94 2500 1.5 90 15:41 25.09.2019
1135 Haze 24 1010 94 2500 1.5 90 15:41 25.09.2019
1136 Haze 24 1010 94 2500 1.5 90 15:41 25.09.2019
1137 Haze 24 1010 94 2500 1.5 90 15:23 25.09.2019
1138 Haze 24 1010 94 2500 3.11 159.394 14:57 25.09.2019
1139 Haze 24 1010 94 2500 3.11 159.394 14:39 25.09.2019
1140 Haze 24 1010 94 2500 3.11 159.394 14:39 25.09.2019
1141 Haze 24 1010 94 2500 3.11 159.394 14:21 25.09.2019
1142 Rain 24 1009 94 2500 1 30 13:42 25.09.2019
1143 Rain 24 1009 94 2500 1 30 13:24 25.09.2019
1144 Rain 24 1009 94 2500 1 50 12:59 25.09.2019
1145 Rain 24 1009 94 2500 1 50 12:59 25.09.2019
1146 Rain 24 1009 94 2500 1 60 12:39 25.09.2019
1147 Rain 24 1009 94 2500 1 60 12:21 25.09.2019
1148 Thunderstorm 24 1009 94 2000 1 60 11:57 25.09.2019
1149 Thunderstorm 24 1009 94 2000 1 50 11:38 25.09.2019
1150 Thunderstorm 23 1010 100 2000 1 140 11:19 25.09.2019
1151 Thunderstorm 23 1010 100 2000 1 140 10:43 25.09.2019
1152 Thunderstorm 23 1010 100 2000 1 140 10:24 25.09.2019
1153 Thunderstorm 23 1011 94 1500 2.6 170 09:57 25.09.2019
1154 Thunderstorm 23 1011 94 0 2.1 130 09:37 25.09.2019
1155 Thunderstorm 23 1011 94 0 2.1 130 09:19 25.09.2019
1156 Clouds 27 1011 83 3000 3.62 188.242 08:44 25.09.2019
1157 Clouds 27 1011 83 3000 3.62 188.242 08:21 25.09.2019
1158 Haze 28 1011 78 4000 1.5 70 07:57 25.09.2019
1159 Haze 27 1012 83 4000 3.62 188.242 07:38 25.09.2019
1160 Haze 26 1012 88 4000 3.62 188.242 07:20 25.09.2019
1161 Haze 26 1012 88 3000 3.62 188.242 06:43 25.09.2019
1162 Haze 26 1012 88 3000 2.98 128.705 06:22 25.09.2019
1163 Haze 25 1012 94 3000 2.98 128.705 05:28 25.09.2019
1164 Drizzle 25 1011 94 3000 2.98 128.705 04:54 25.09.2019
1165 Rain 24 1009 94 2500 2.23 84.054 02:19 25.09.2019
1166 Rain 24 1008 94 2500 2.83 73.791 00:45 25.09.2019
1167 Rain 24 1008 94 2500 2.83 73.791 00:25 25.09.2019
1168 Rain 24 1008 94 2500 1.94 117.121 23:57 24.09.2019
1169 Rain 24 1008 94 2500 2.1 80 23:38 24.09.2019
1170 Rain 24 1008 94 2500 2.1 80 23:19 24.09.2019
1171 Thunderstorm 25 1009 94 2500 1.94 117.121 22:39 24.09.2019
1172 Thunderstorm 25 1009 94 2500 1.94 117.121 22:39 24.09.2019
1173 Thunderstorm 25 1009 94 2500 1.94 117.121 22:20 24.09.2019
1174 Thunderstorm 25 1009 94 2500 2.88 106.829 21:58 24.09.2019
1175 Thunderstorm 25 1009 94 2500 2.88 106.829 21:37 24.09.2019
1176 Thunderstorm 25 1009 94 2500 3.37 40.08 21:19 24.09.2019
1177 Thunderstorm 26 1010 88 2500 1.5 10 20:57 24.09.2019
1178 Haze 26 1010 88 2500 3.37 40.08 20:39 24.09.2019
1179 Haze 26 1010 88 2500 3.37 40.08 20:20 24.09.2019
1180 Haze 26 1010 88 2500 1.5 30 19:44 24.09.2019
1181 Haze 26 1010 88 2500 1.5 30 19:23 24.09.2019
1182 Haze 26 1010 88 2500 3.37 40.08 18:59 24.09.2019
1183 Haze 26 1010 88 2500 3.37 40.08 18:41 24.09.2019
1184 Haze 26 1010 88 2500 3.37 40.08 18:41 24.09.2019
1185 Haze 26 1010 88 2500 2.29 22.169 18:22 24.09.2019
1186 Haze 26 1010 88 2500 2.29 22.169 17:58 24.09.2019
1187 Haze 26 1010 88 2500 2.29 22.169 17:38 24.09.2019
1188 Haze 26 1010 88 2500 2.29 22.169 17:20 24.09.2019
1189 Haze 26 1009 88 2500 1 340 16:57 24.09.2019
1190 Haze 26 1009 88 2500 2.6 350 16:39 24.09.2019
1191 Haze 26 1009 88 2500 2.6 350 16:18 24.09.2019
1192 Haze 26 1009 88 2500 2.6 350 16:18 24.09.2019
1193 Haze 26 1008 83 2500 2.1 300 15:42 24.09.2019
1194 Haze 26 1008 83 2500 2.1 300 15:23 24.09.2019
1195 Haze 26 1008 83 2500 3.1 310 14:44 24.09.2019
1196 Haze 26 1008 83 2500 3.1 310 14:20 24.09.2019
1197 Haze 28 1007 78 2500 2.6 280 13:56 24.09.2019
1198 Haze 28 1007 78 2500 2.6 280 13:56 24.09.2019
1199 Haze 27 1007 83 2500 4.1 300 13:38 24.09.2019
1200 Haze 27 1007 83 2500 4.1 300 13:20 24.09.2019
1201 Haze 27 1007 83 2500 3.1 290 12:40 24.09.2019
1202 Haze 27 1007 83 2500 3.1 290 12:21 24.09.2019
1203 Haze 27 1008 88 2500 2.97 75.819 11:43 24.09.2019
1204 Haze 27 1008 88 2500 2.97 75.819 11:43 24.09.2019
1205 Haze 27 1008 88 2500 2.97 75.819 11:22 24.09.2019
1206 Haze 27 1007 88 2500 1.5 80 10:59 24.09.2019
1207 Thunderstorm 26 1008 94 2500 1 80 10:39 24.09.2019
1208 Thunderstorm 26 1008 94 2500 1 80 10:20 24.09.2019
1209 Haze 30 1009 74 5000 2.1 70 09:46 24.09.2019
1210 Thunderstorm 24 1009 100 2000 2.1 80 09:46 24.09.2019
1211 Haze 30 1009 74 5000 2.1 70 09:28 24.09.2019
1212 Haze 30 1010 74 5000 2.1 90 08:58 24.09.2019
1213 Haze 29 1010 74 5000 2.6 70 08:40 24.09.2019
1214 Haze 29 1010 74 5000 2.6 70 08:40 24.09.2019
1215 Haze 29 1010 74 5000 2.6 70 08:22 24.09.2019
1216 Haze 29 1011 79 4000 3.6 100 07:57 24.09.2019
1217 Haze 29 1012 79 4000 2.6 80 07:38 24.09.2019
1218 Haze 29 1012 79 5000 1.5 90 07:19 24.09.2019
1219 Haze 28 1012 83 5000 1.5 50 06:37 24.09.2019
1220 Haze 28 1012 83 5000 1.5 50 06:37 24.09.2019
1221 Haze 28 1012 78 5000 1.5 40 06:18 24.09.2019
1222 Haze 27 1011 83 5000 1.5 40 05:21 24.09.2019
1223 Haze 25 1010 88 3000 1 350 03:46 24.09.2019
1224 Haze 24 1010 94 3000 3.09 60.128 03:25 24.09.2019
1225 Haze 24 1009 94 3000 2.2 30.959 02:44 24.09.2019
1226 Haze 24 1009 94 3000 2.2 30.959 01:41 24.09.2019
1227 Haze 24 1008 94 3000 2.6 36.381 00:41 24.09.2019
1228 Haze 24 1008 94 3000 2.09 38.583 00:22 24.09.2019
1229 Haze 24 1009 94 3000 2.1 90 23:42 23.09.2019
1230 Haze 24 1009 94 3000 2.1 90 23:22 23.09.2019
1231 Haze 24 1009 94 3000 2.1 50 22:41 23.09.2019
1232 Haze 24 1009 94 3000 2.1 50 22:21 23.09.2019
1233 Thunderstorm 24 1010 94 2500 2.6 70 21:59 23.09.2019
1234 Thunderstorm 25 1011 88 2500 2.6 60 21:41 23.09.2019
1235 Thunderstorm 25 1011 88 2500 2.6 60 21:41 23.09.2019
1236 Thunderstorm 25 1011 88 2500 2.6 60 21:41 23.09.2019
1237 Thunderstorm 25 1011 88 2500 2.6 60 21:41 23.09.2019
1238 Thunderstorm 25 1011 88 2500 2.6 60 21:41 23.09.2019
1239 Thunderstorm 25 1011 88 2500 2.6 60 21:20 23.09.2019
1240 Haze 26 1011 88 3000 2.6 30 20:59 23.09.2019
1241 Haze 26 1011 88 3000 3.6 290 20:39 23.09.2019
1242 Haze 26 1011 88 3000 3.6 290 20:18 23.09.2019
1243 Haze 26 1011 88 3000 4.1 280 19:40 23.09.2019
1244 Haze 26 1011 88 3000 4.1 280 19:22 23.09.2019
1245 Haze 26 1011 88 3000 4.1 280 19:22 23.09.2019
1246 Haze 27 1011 83 3000 4.1 340 19:22 23.09.2019
1247 Haze 27 1011 83 3000 4.1 340 18:59 23.09.2019
1248 Haze 27 1011 83 3000 3.6 350 18:41 23.09.2019
1249 Haze 27 1011 88 3000 4.1 340 18:19 23.09.2019
1250 Haze 27 1011 88 3000 4.1 340 17:56 23.09.2019
1251 Haze 27 1011 88 3000 4.1 340 17:56 23.09.2019
1252 Haze 28 1011 83 3000 3.1 310 17:38 23.09.2019
1253 Haze 28 1011 83 3000 3.1 310 17:20 23.09.2019
1254 -273 0 0 0 0 0 16:55 23.09.2019
1255 Haze 28 1010 88 3000 1 320 16:36 23.09.2019
1256 Haze 28 1010 88 3000 1 320 16:36 23.09.2019
1257 Haze 27 1009 88 3000 2.28 349.217 16:18 23.09.2019
1258 Haze 27 1009 88 3000 2.28 349.217 16:18 23.09.2019
1259 Haze 27 1009 88 3000 2.28 349.217 15:55 23.09.2019
1260 Haze 27 1008 88 3000 2.28 349.217 15:37 23.09.2019
1261 Haze 27 1008 88 3000 1.68 0.682 15:18 23.09.2019
1262 Haze 28 1008 78 3000 1.68 0.682 14:40 23.09.2019
1263 Haze 28 1008 78 3000 1.68 0.682 14:20 23.09.2019
1264 Haze 28 1007 83 3000 1.5 260 13:58 23.09.2019
1265 Rain 28 1007 83 3000 1.5 250 13:38 23.09.2019
1266 Haze 31 1007 66 5000 2.53 46.775 13:18 23.09.2019
1267 Haze 31 1007 66 5000 2.53 46.775 12:43 23.09.2019
1268 Haze 32 1007 62 5000 1 180 12:23 23.09.2019
1269 Haze 32 1007 62 5000 1 180 11:57 23.09.2019
1270 Haze 31 1008 66 5000 1 290 11:39 23.09.2019
1271 Haze 31 1008 66 5000 1 290 11:20 23.09.2019
1272 Haze 30 1008 70 5000 3.1 290 10:49 23.09.2019
1273 Haze 31 1009 66 5000 2.1 100 10:21 23.09.2019
1274 Haze 31 1009 66 5000 0.99 222.121 09:56 23.09.2019
1275 Haze 31 1010 62 5000 2.1 130 09:37 23.09.2019
1276 Haze 31 1010 62 5000 2.1 130 09:19 23.09.2019
1277 Haze 31 1010 62 5000 2.1 130 09:19 23.09.2019
1278 Haze 30 1011 70 5000 1.65 113.098 08:44 23.09.2019
1279 Haze 30 1011 70 5000 1.65 113.098 08:25 23.09.2019
1280 Haze 30 1012 70 5000 1.65 113.098 07:47 23.09.2019
1281 Haze 30 1012 70 5000 1.5 80 07:27 23.09.2019
1282 Haze 29 1012 74 4000 2.04 53.552 06:24 23.09.2019
1283 Haze 28 1012 78 3000 2.04 53.552 05:47 23.09.2019
1284 Haze 26 1011 88 3000 2.04 53.552 05:19 23.09.2019
1285 Haze 26 1011 88 3000 2.04 53.552 04:54 23.09.2019
1286 Haze 25 1010 94 3000 1.26 42.393 02:36 23.09.2019
1287 Haze 25 1010 94 3000 1.26 42.393 02:36 23.09.2019
1288 Haze 25 1010 94 3000 1.69 35.935 00:42 23.09.2019
1289 Haze 25 1010 94 3000 0.8 60.503 00:22 23.09.2019
1290 Haze 25 1010 94 3000 0.8 60.503 23:50 22.09.2019
1291 Haze 25 1010 94 3000 0.8 60.503 23:32 22.09.2019
1292 Haze 25 1010 94 3000 1 60 22:57 22.09.2019
1293 Haze 26 1010 88 3000 1 60 22:38 22.09.2019
1294 Haze 26 1010 88 3000 1 60 22:20 22.09.2019
1295 Haze 26 1011 88 3000 1 80 21:43 22.09.2019
1296 Haze 26 1011 88 3000 1 80 21:43 22.09.2019
1297 Haze 26 1011 88 3000 1 80 21:22 22.09.2019
1298 Haze 26 1011 88 3000 1.13 91.215 20:55 22.09.2019
1299 Haze 26 1011 94 3000 0.21 175.815 20:36 22.09.2019
1300 Haze 26 1011 94 3000 0.21 175.815 20:18 22.09.2019
1301 Haze 26 1011 94 3000 0.21 175.815 19:41 22.09.2019
1302 Haze 26 1011 94 3000 0.21 175.815 19:22 22.09.2019
1303 Haze 27 1011 88 3000 0.21 175.815 18:59 22.09.2019
1304 Haze 27 1011 88 3000 0.21 175.815 18:39 22.09.2019
1305 Haze 27 1011 88 3000 0.21 175.815 18:39 22.09.2019
1306 Haze 27 1011 88 3000 0.29 122.593 18:19 22.09.2019
1307 Haze 27 1011 88 3000 0.29 122.593 17:57 22.09.2019
1308 Haze 27 1011 88 3000 0.29 122.593 17:39 22.09.2019
1309 Haze 27 1010 88 3000 0.29 122.593 17:18 22.09.2019
1310 Haze 28 1009 83 3000 0.29 122.593 16:44 22.09.2019
1311 Haze 28 1009 83 3000 0.29 122.593 16:25 22.09.2019
1312 Haze 28 1009 83 3000 0.29 122.593 15:47 22.09.2019
1313 Haze 29 1008 79 4000 1.5 270 15:29 22.09.2019
1314 Haze 30 1008 74 4000 0.7 207.766 14:59 22.09.2019
1315 Haze 30 1008 74 4000 0.7 207.766 14:59 22.09.2019
1316 Haze 30 1007 70 4000 0.7 207.766 14:40 22.09.2019
1317 Haze 30 1007 70 4000 0.7 207.766 14:22 22.09.2019
1318 Haze 30 1007 70 4000 0.7 207.766 13:55 22.09.2019
1319 Haze 30 1007 70 4000 0.7 207.766 13:36 22.09.2019
1320 Haze 30 1007 74 4000 1.32 215.558 13:18 22.09.2019
1321 Haze 29 1007 74 4000 1.32 215.558 12:42 22.09.2019
1322 Haze 29 1007 74 4000 2.12 186.871 12:22 22.09.2019
1323 Haze 29 1007 74 5000 2.12 186.871 11:56 22.09.2019
1324 Haze 30 1008 70 5000 2.12 186.871 11:38 22.09.2019
1325 Haze 30 1008 70 5000 2.12 186.871 11:19 22.09.2019
1326 Haze 30 1009 66 5000 1 240 10:43 22.09.2019
1327 Haze 30 1009 66 5000 1 240 10:20 22.09.2019
1328 Haze 30 1009 66 5000 1 240 09:57 22.09.2019
1329 Haze 30 1010 66 5000 1 150 09:37 22.09.2019
1330 Haze 30 1010 66 5000 1 150 09:19 22.09.2019
1331 Haze 29 1011 70 5000 1 130 08:43 22.09.2019
1332 Haze 29 1011 70 5000 1 130 08:23 22.09.2019
1333 Haze 28 1011 74 5000 1 190 07:52 22.09.2019
1334 Haze 27 1011 78 5000 1 110 07:33 22.09.2019
1335 Haze 27 1011 78 4000 1 170 06:59 22.09.2019
1336 Haze 26 1011 83 4000 1 180 06:38 22.09.2019
1337 Haze 25 1011 88 4000 1 50 05:19 22.09.2019
1338 Rain 24 1009 94 3000 1 30 02:45 22.09.2019
1339 Rain 24 1009 94 3000 1 30 02:25 22.09.2019
1340 Rain 24 1009 94 3000 1 60 01:53 22.09.2019
1341 Haze 24 1009 88 3000 0.61 111.454 00:55 22.09.2019
1342 Haze 24 1009 88 3000 0.61 111.454 00:32 22.09.2019
1343 Haze 24 1009 94 3000 1.5 100 23:56 21.09.2019
1344 Haze 25 1010 88 3000 1 70 23:38 21.09.2019
1345 Haze 25 1009 88 3000 1.5 70 22:57 21.09.2019
1346 Haze 25 1010 94 3000 2.1 100 22:36 21.09.2019
1347 Haze 25 1010 94 3000 2.1 100 22:18 21.09.2019
1348 Haze 25 1010 94 3000 0.34 215.006 21:41 21.09.2019
1349 Haze 25 1010 94 3000 1.98 206.72 21:19 21.09.2019
1350 Haze 25 1010 88 3000 1.98 206.72 20:56 21.09.2019
1351 Haze 25 1010 88 3000 1 40 20:37 21.09.2019
1352 Haze 25 1010 88 3000 1 40 20:18 21.09.2019
1353 Haze 25 1010 88 3000 1 40 20:18 21.09.2019
1354 Haze 25 1010 88 3000 1.5 90 19:46 21.09.2019
1355 Haze 25 1010 88 3000 1.5 90 19:21 21.09.2019
1356 Haze 27 1010 88 3000 1 250 18:42 21.09.2019
1357 Haze 27 1010 88 3000 1 250 18:22 21.09.2019
1358 Haze 27 1009 83 3000 2.18 118.372 17:44 21.09.2019
1359 Haze 27 1009 83 3000 2.18 118.372 17:24 21.09.2019
1360 Haze 27 1008 88 3000 2.18 118.372 16:58 21.09.2019
1361 Haze 27 1008 88 3000 2.18 118.372 16:40 21.09.2019
1362 Rain 27 1007 88 3000 1 130 16:20 21.09.2019
1363 Haze 28 1007 83 3000 1.5 220 15:45 21.09.2019
1364 Haze 28 1007 83 3000 1.5 220 15:23 21.09.2019
1365 Clouds 29 1006 79 0 2.1 230 14:50 21.09.2019
1366 Clouds 29 1006 79 0 2.1 200 14:31 21.09.2019
1367 Clouds 30 1006 70 0 1.5 200 13:55 21.09.2019
1368 Clouds 30 1006 74 0 1 190 13:37 21.09.2019
1369 Clouds 30 1005 70 0 1 120 13:18 21.09.2019
1370 Clouds 30 1005 70 0 1 120 12:55 21.09.2019
1371 Clouds 30 1006 70 0 1 130 12:36 21.09.2019
1372 Clouds 30 1006 70 6000 1.5 120 12:18 21.09.2019
1373 Clouds 30 1007 70 6000 1 80 11:42 21.09.2019
1374 Clouds 30 1007 70 6000 1 80 11:23 21.09.2019
1375 Clouds 30 1008 70 6000 1 40 10:43 21.09.2019
1376 Clouds 30 1008 70 6000 1 40 10:24 21.09.2019
1377 Clouds 30 1008 74 6000 1 60 09:58 21.09.2019
1378 Haze 29 1009 70 5000 1.5 120 09:39 21.09.2019
1379 Haze 29 1009 70 5000 1.5 120 09:20 21.09.2019
1380 Haze 29 1009 70 5000 1.5 120 09:20 21.09.2019
1381 Haze 29 1009 70 5000 2.29 170.933 08:52 21.09.2019
1382 Haze 28 1009 74 5000 1 80 08:27 21.09.2019
1383 Haze 27 1010 83 5000 2.1 110 07:42 21.09.2019
1384 Haze 27 1010 78 5000 1 110 07:23 21.09.2019
1385 Haze 27 1010 78 5000 1 110 06:57 21.09.2019
1386 Haze 26 1010 88 5000 1 90 06:32 21.09.2019
1387 Haze 25 1010 94 3000 2.24 127.868 05:32 21.09.2019
1388 Haze 24 1009 94 2500 2.24 127.868 04:36 21.09.2019
1389 Haze 24 1009 94 2000 1.14 116.969 02:38 21.09.2019
1390 Thunderstorm 24 1008 94 2000 1 100 02:20 21.09.2019
1391 Thunderstorm 24 1008 94 2000 1 130 01:45 21.09.2019
1392 Thunderstorm 24 1008 94 2500 1 140 00:43 21.09.2019
1393 Thunderstorm 24 1008 94 2500 1 140 00:19 21.09.2019
1394 Haze 26 1008 88 3000 3.1 100 23:42 20.09.2019
1395 Haze 26 1008 88 3000 3.1 100 23:24 20.09.2019
1396 Haze 26 1008 94 3000 1.36 136.844 22:41 20.09.2019
1397 Haze 26 1008 94 3000 1.36 136.844 22:23 20.09.2019
1398 Haze 26 1009 94 3000 1.36 136.844 21:57 20.09.2019
1399 Haze 26 1009 94 3000 1.36 136.844 21:37 20.09.2019
1400 Haze 26 1009 94 3000 1.4 133.614 21:19 20.09.2019
1401 Haze 26 1009 94 3000 1.4 133.614 20:55 20.09.2019
1402 Haze 26 1009 94 3000 1.78 128.484 20:37 20.09.2019
1403 Haze 26 1009 94 3000 1.78 128.484 20:18 20.09.2019
1404 Haze 27 1010 88 3000 1.78 128.484 19:42 20.09.2019
1405 Haze 27 1010 88 3000 1.78 128.484 19:21 20.09.2019
1406 Haze 27 1010 88 3000 1.78 128.484 18:57 20.09.2019
1407 Haze 27 1010 88 3000 1.78 128.484 18:37 20.09.2019
1408 Haze 27 1009 88 3000 1.71 99.528 18:18 20.09.2019
1409 Haze 27 1008 88 3000 1.71 99.528 17:44 20.09.2019
1410 Haze 27 1008 88 3000 1.71 99.528 17:25 20.09.2019
1411 Haze 27 1008 88 3000 1 110 16:43 20.09.2019
1412 Haze 27 1008 88 3000 1 110 16:21 20.09.2019
1413 Haze 28 1007 83 3000 1 100 15:58 20.09.2019
1414 Haze 28 1007 83 3000 1 100 15:58 20.09.2019
1415 Haze 28 1007 83 3000 1.71 99.528 15:40 20.09.2019
1416 Haze 28 1007 83 3000 2.91 130.779 15:22 20.09.2019
1417 Haze 30 1006 70 4000 1.5 90 14:43 20.09.2019
1418 Clouds 28 1005 82 0 2.91 130.779 14:19 20.09.2019
1419 Haze 29 1006 74 3000 1 110 13:48 20.09.2019
1420 Haze 29 1006 74 3000 1 110 13:29 20.09.2019
1421 Haze 29 1006 74 3000 1 110 12:58 20.09.2019
1422 Haze 30 1006 70 3000 1 90 12:37 20.09.2019
1423 Haze 30 1006 70 3000 1 90 12:37 20.09.2019
1424 Haze 30 1006 70 3000 3.1 110 12:19 20.09.2019
1425 Haze 30 1006 70 3000 3.1 110 12:19 20.09.2019
1426 Haze 30 1006 70 3000 3.1 110 12:19 20.09.2019
1427 Haze 30 1006 70 3000 3.1 110 11:50 20.09.2019
1428 Haze 31 1007 62 3000 2.6 120 11:22 20.09.2019
1429 Haze 31 1008 66 3000 3.1 120 10:57 20.09.2019
1430 Haze 31 1008 66 3000 3.1 120 10:57 20.09.2019
1431 Haze 29 1008 74 3000 27.8 250 10:39 20.09.2019
1432 Haze 29 1008 74 3000 27.8 250 10:19 20.09.2019
1433 Haze 30 1009 74 3000 2.1 60 09:38 20.09.2019
1434 Haze 30 1009 74 3000 2.1 60 09:18 20.09.2019
1435 Haze 30 1010 70 3000 3.1 100 08:43 20.09.2019
1436 Haze 30 1010 70 3000 3.1 100 08:43 20.09.2019
1437 Haze 30 1010 70 3000 3.1 100 08:25 20.09.2019
1438 Haze 30 1010 70 3000 3.1 90 07:48 20.09.2019
1439 Haze 29 1011 79 3000 2.1 130 07:28 20.09.2019
1440 Haze 28 1011 83 3000 1.5 140 06:45 20.09.2019
1441 Haze 28 1011 83 3000 1.5 140 06:45 20.09.2019
1442 Haze 28 1011 83 3000 1.5 140 06:27 20.09.2019
1443 Haze 27 1011 88 3000 2.1 120 05:57 20.09.2019
1444 Haze 25 1009 94 3000 1 80 03:46 20.09.2019
1445 Haze 25 1009 94 3000 1 80 03:21 20.09.2019
1446 Haze 25 1008 94 3000 1 90 01:45 20.09.2019
1447 Haze 25 1008 94 3000 1 90 01:45 20.09.2019
1448 Haze 25 1008 94 3000 1 90 01:24 20.09.2019
1449 Haze 25 1008 94 3000 1 90 01:24 20.09.2019
1450 Haze 25 1008 94 3000 1 60 00:31 20.09.2019
1451 Haze 25 1008 94 3000 1 50 23:46 19.09.2019
1452 Haze 25 1008 94 3000 1 50 23:24 19.09.2019
1453 Haze 25 1009 94 3000 1 50 22:57 19.09.2019
1454 Haze 25 1009 94 3000 1 60 22:38 19.09.2019
1455 Haze 25 1009 94 3000 1 60 22:19 19.09.2019
1456 Rain 25 1009 94 3000 1 50 21:56 19.09.2019
1457 Rain 25 1009 94 2500 1 60 21:37 19.09.2019
1458 Rain 25 1009 94 2500 1 60 21:18 19.09.2019
1459 Thunderstorm 25 1010 94 2000 3.1 100 20:43 19.09.2019
1460 Thunderstorm 25 1010 94 2000 3.1 100 20:22 19.09.2019
1461 Haze 26 1010 83 3000 2.1 80 19:56 19.09.2019
1462 Haze 26 1010 83 3000 1 90 19:38 19.09.2019
1463 Haze 26 1010 83 3000 2.1 100 19:19 19.09.2019
1464 Haze 26 1010 83 3000 2.1 100 19:19 19.09.2019
1465 Haze 26 1010 83 3000 2.1 100 19:19 19.09.2019
1466 Haze 26 1010 83 3000 2.1 100 19:19 19.09.2019
1467 Haze 26 1010 83 3000 3.6 80 18:43 19.09.2019
1468 Haze 26 1009 88 3000 1.5 50 18:24 19.09.2019
1469 Haze 26 1009 88 3000 1.5 50 17:57 19.09.2019
1470 Haze 26 1009 83 3000 1.53 55.217 17:39 19.09.2019
1471 Haze 26 1009 83 3000 1.53 55.217 17:21 19.09.2019
1472 Haze 27 1009 83 3000 1.53 55.217 16:57 19.09.2019
1473 Haze 27 1008 83 3000 1.53 55.217 16:38 19.09.2019
1474 Haze 27 1008 83 3000 1.53 55.217 16:18 19.09.2019
1475 Haze 28 1008 78 3000 1.53 55.217 15:38 19.09.2019
1476 Haze 29 1007 74 3000 1.5 60 15:18 19.09.2019
1477 Haze 29 1007 74 3000 1.5 60 14:42 19.09.2019
1478 Haze 29 1007 74 3000 1.5 60 14:23 19.09.2019
1479 Haze 30 1006 74 5000 3.1 80 13:59 19.09.2019
1480 Haze 30 1006 74 5000 3.1 80 13:39 19.09.2019
1481 Haze 30 1006 74 5000 3.1 80 13:39 19.09.2019
1482 Haze 30 1006 74 5000 3.1 80 13:19 19.09.2019
1483 Haze 30 1007 66 5000 2.6 70 12:39 19.09.2019
1484 Haze 30 1007 70 5000 2.6 50 12:19 19.09.2019
1485 Haze 30 1007 70 5000 2.6 50 11:56 19.09.2019
1486 Haze 30 1007 74 5000 2.6 60 11:38 19.09.2019
1487 Haze 30 1007 74 5000 2.6 60 11:19 19.09.2019
1488 Haze 29 1008 79 5000 3.1 80 10:40 19.09.2019
1489 Haze 29 1009 74 5000 2.6 40 10:22 19.09.2019
1490 Haze 29 1009 74 5000 2.6 40 09:58 19.09.2019
1491 Haze 29 1009 79 3000 2.1 60 09:40 19.09.2019
1492 Haze 29 1009 79 3000 2.1 60 09:20 19.09.2019
1493 Haze 28 1010 78 4000 2.1 40 08:52 19.09.2019
1494 Haze 29 1010 74 4000 1.5 70 08:27 19.09.2019
1495 Haze 28 1011 78 4000 2.6 80 07:46 19.09.2019
1496 Haze 28 1011 78 4000 2.6 80 07:46 19.09.2019
1497 Haze 28 1011 78 4000 2.6 80 07:25 19.09.2019
1498 Haze 27 1011 88 4000 3.1 70 06:59 19.09.2019
1499 Haze 27 1011 88 4000 3.1 70 06:59 19.09.2019
1500 Haze 27 1011 88 4000 2.1 70 06:40 19.09.2019
1501 Haze 27 1011 88 4000 2.1 70 06:21 19.09.2019
1502 Haze 27 1011 88 4000 2.1 70 06:21 19.09.2019
1503 Haze 26 1011 94 2500 2.1 50 05:49 19.09.2019
1504 Mist 25 1010 94 2000 4.23 88.454 04:23 19.09.2019
1505 Mist 24 1009 100 2000 3.6 56.522 03:20 19.09.2019
1506 Haze 24 1008 100 3000 3.6 56.522 01:40 19.09.2019
1507 Haze 24 1008 100 3000 4.18 62.872 01:19 19.09.2019
1508 Rain 24 1008 100 2500 4.18 62.872 00:43 19.09.2019
1509 Rain 24 1008 100 2500 4.18 62.872 00:43 19.09.2019
1510 Rain 24 1008 94 2500 4.58 36.082 00:20 19.09.2019
1511 Rain 24 1008 94 2500 4.58 36.082 23:38 18.09.2019
1512 Rain 24 1008 94 2500 4.58 36.082 23:19 18.09.2019
1513 Rain 23 1008 100 2500 1 80 22:41 18.09.2019
1514 Rain 23 1008 100 2500 1 80 22:19 18.09.2019
1515 Thunderstorm 23 1009 94 2000 1 80 21:57 18.09.2019
1516 Thunderstorm 23 1009 94 2000 1.5 50 21:39 18.09.2019
1517 Thunderstorm 23 1009 94 2000 1.5 50 21:18 18.09.2019
1518 Thunderstorm 23 1009 94 1000 2.6 120 20:57 18.09.2019
1519 Thunderstorm 23 1010 94 600 5.1 60 20:39 18.09.2019
1520 Haze 27 1010 88 3000 1.5 40 20:21 18.09.2019
1521 Haze 27 1010 88 3000 1.5 40 19:57 18.09.2019
1522 Haze 26 1010 94 3000 2.98 48.861 19:38 18.09.2019
1523 Haze 27 1009 88 3000 2.98 48.861 19:18 18.09.2019
1524 Haze 27 1009 88 3000 2.98 48.861 19:18 18.09.2019
1525 Haze 27 1009 88 3000 2.98 48.861 18:55 18.09.2019
1526 Haze 27 1009 88 4000 2.98 48.861 18:36 18.09.2019
1527 Haze 27 1009 88 4000 2.54 89.774 18:18 18.09.2019
1528 Haze 27 1009 88 4000 2.54 89.774 17:54 18.09.2019
1529 Haze 27 1009 88 4000 2.54 89.774 17:36 18.09.2019
1530 Haze 27 1009 88 4000 2.54 89.774 17:18 18.09.2019
1531 Haze 27 1008 88 4000 2.54 89.774 16:43 18.09.2019
1532 Haze 27 1008 88 4000 2.54 89.774 16:22 18.09.2019
1533 Haze 27 1008 88 4000 2.54 89.774 15:59 18.09.2019
1534 Haze 27 1008 88 4000 2.54 89.774 15:59 18.09.2019
1535 Haze 27 1008 88 4000 2.54 89.774 15:59 18.09.2019
1536 Haze 28 1007 83 4000 2.54 89.774 15:40 18.09.2019
1537 Haze 29 1007 79 5000 1.92 146.542 15:20 18.09.2019
1538 Haze 29 1007 79 5000 1.92 146.542 14:58 18.09.2019
1539 Haze 29 1007 74 5000 1.92 146.542 14:40 18.09.2019
1540 Haze 29 1007 74 5000 1.92 146.542 14:40 18.09.2019
1541 Haze 29 1007 74 5000 1.92 146.542 14:22 18.09.2019
1542 Haze 30 1007 70 5000 2.6 160 13:58 18.09.2019
1543 Haze 30 1006 70 5000 2.6 160 13:38 18.09.2019
1544 Haze 30 1006 70 3000 2.6 160 13:18 18.09.2019
1545 Haze 30 1006 70 3000 2.6 110 12:44 18.09.2019
1546 Haze 30 1006 70 3000 2.6 110 12:26 18.09.2019
1547 Haze 29 1007 74 3000 1.5 70 11:41 18.09.2019
1548 Haze 29 1007 74 3000 1.5 70 11:20 18.09.2019
1549 Haze 30 1008 70 3000 1.5 90 10:58 18.09.2019
1550 Haze 29 1008 74 3000 1.5 100 10:40 18.09.2019
1551 Haze 29 1008 74 3000 1.5 100 10:20 18.09.2019
1552 Haze 29 1008 74 3000 1.5 100 10:20 18.09.2019
1553 Haze 29 1009 74 3000 1 110 09:57 18.09.2019
1554 Haze 29 1009 74 3000 1 120 09:37 18.09.2019
1555 Haze 29 1009 74 3000 1 120 09:37 18.09.2019
1556 Haze 29 1009 74 3000 1 120 09:19 18.09.2019
1557 Haze 27 1009 83 3000 1 70 08:41 18.09.2019
1558 Haze 27 1009 83 3000 1 70 08:23 18.09.2019
1559 Haze 26 1009 88 3000 2.6 60 07:45 18.09.2019
1560 Haze 26 1009 88 3000 2.6 60 07:26 18.09.2019
1561 Haze 27 1009 83 3000 1 60 06:55 18.09.2019
1562 Haze 26 1009 88 2500 1.5 90 06:31 18.09.2019
1563 Haze 24 1009 94 2500 1 40 05:40 18.09.2019
1564 Haze 24 1009 94 2500 1 90 04:20 18.09.2019
1565 Haze 24 1007 94 2500 1 180 02:41 18.09.2019
1566 Haze 24 1007 94 2500 2.6 200 01:50 18.09.2019
1567 Thunderstorm 24 1006 100 2000 3.1 130 00:58 18.09.2019
1568 Thunderstorm 25 1006 94 2000 3.6 120 00:34 18.09.2019
1569 Thunderstorm 25 1006 100 2000 2.1 130 23:59 17.09.2019
1570 Thunderstorm 25 1005 100 2000 2.1 310 23:40 17.09.2019
1571 Thunderstorm 25 1005 100 2000 2.1 310 23:21 17.09.2019
1572 Thunderstorm 25 1005 100 2000 2.1 280 22:42 17.09.2019
1573 Thunderstorm 25 1005 100 2000 2.1 280 22:42 17.09.2019
1574 Thunderstorm 25 1005 100 2000 2.1 280 22:23 17.09.2019
1575 Thunderstorm 25 1006 94 2000 2.1 310 21:54 17.09.2019
1576 Thunderstorm 25 1006 94 1800 2.1 280 21:36 17.09.2019
1577 Thunderstorm 25 1006 94 1800 2.1 280 21:18 17.09.2019
1578 Thunderstorm 25 1006 94 1800 2.1 280 21:18 17.09.2019
1579 Haze 26 1006 94 2500 2.1 280 20:57 17.09.2019
1580 Haze 26 1006 94 2500 2.1 270 20:38 17.09.2019
1581 Haze 26 1006 94 2500 2.1 270 20:20 17.09.2019
1582 Haze 26 1006 94 2500 2.1 270 20:20 17.09.2019
1583 Haze 26 1006 94 2500 2.1 300 19:57 17.09.2019
1584 Haze 26 1006 94 2500 2.1 300 19:38 17.09.2019
1585 Haze 26 1006 94 2500 1.5 100 19:18 17.09.2019
1586 Haze 26 1007 94 2500 2.1 110 18:43 17.09.2019
1587 Haze 26 1007 94 2500 2.1 110 18:22 17.09.2019
1588 Haze 26 1006 94 2500 1.5 150 17:56 17.09.2019
1589 Haze 26 1006 94 2500 1.5 150 17:38 17.09.2019
1590 Haze 26 1006 94 2500 2.09 269.836 17:19 17.09.2019
1591 Haze 26 1006 88 2500 2.1 330 16:42 17.09.2019
1592 Haze 26 1005 83 1800 2.09 269.836 16:22 17.09.2019
1593 Haze 26 1005 83 1800 2.09 269.836 15:59 17.09.2019
1594 Haze 28 1004 88 3000 1 110 15:38 17.09.2019
1595 Haze 28 1004 88 3000 1 110 15:19 17.09.2019
1596 Haze 28 1004 88 3000 1 110 15:19 17.09.2019
1597 Haze 29 1004 83 4000 1.5 90 14:56 17.09.2019
1598 Haze 30 1003 74 4000 1 210 14:37 17.09.2019
1599 Haze 31 1003 70 4000 1 230 14:19 17.09.2019
1600 Haze 31 1003 70 4000 1 200 13:42 17.09.2019
1601 Haze 31 1003 70 4000 1 200 13:23 17.09.2019
1602 Haze 30 1003 74 4000 1 220 12:56 17.09.2019
1603 Haze 30 1003 74 4000 1 160 12:37 17.09.2019
1604 Haze 30 1004 74 4000 1 190 12:18 17.09.2019
1605 Haze 30 1004 74 4000 1 120 11:42 17.09.2019
1606 Haze 30 1004 74 4000 1 120 11:24 17.09.2019
1607 Haze 30 1004 74 4000 1 120 11:24 17.09.2019
1608 Haze 30 1004 74 4000 1 120 11:24 17.09.2019
1609 Haze 31 1005 70 5000 1.5 200 10:43 17.09.2019
1610 Haze 31 1005 70 5000 1.5 200 10:24 17.09.2019
1611 Haze 30 1006 74 5000 2.1 250 09:59 17.09.2019
1612 Haze 30 1006 74 5000 1 200 09:41 17.09.2019
1613 Haze 30 1006 74 5000 1 200 09:21 17.09.2019
1614 Haze 29 1007 79 5000 1 230 08:49 17.09.2019
1615 Haze 28 1007 78 4000 2.1 270 08:30 17.09.2019
1616 Haze 28 1007 83 3000 3.6 300 07:59 17.09.2019
1617 Haze 28 1008 78 3000 2.1 290 07:39 17.09.2019
1618 Haze 28 1008 78 3000 2.1 290 07:39 17.09.2019
1619 Haze 28 1008 78 3000 2.1 290 07:39 17.09.2019
1620 Haze 27 1007 88 3000 2.1 270 07:19 17.09.2019
1621 Haze 27 1007 88 2500 1.5 290 06:45 17.09.2019
1622 Mist 26 1007 94 2000 2.48 305.747 06:19 17.09.2019
1623 Mist 26 1007 88 2000 2.48 305.747 05:44 17.09.2019
1624 Mist 25 1006 94 2000 1.5 270 04:29 17.09.2019
1625 Mist 25 1005 94 2000 1.4 274.153 02:57 17.09.2019
1626 Haze 25 1005 94 2000 1.5 270 02:38 17.09.2019
1627 Haze 25 1005 94 2000 1.66 279.842 01:24 17.09.2019
1628 Haze 25 1004 94 2000 1.66 279.842 00:33 17.09.2019
1629 Haze 25 1005 94 2000 2.77 270.166 23:39 16.09.2019
1630 Haze 25 1005 94 2000 2.77 270.166 23:19 16.09.2019
1631 Haze 25 1005 94 2000 2.77 270.166 23:19 16.09.2019
1632 Haze 25 1005 100 2000 2.77 270.166 22:43 16.09.2019
1633 Haze 25 1005 100 2000 2.77 270.166 22:25 16.09.2019
1634 Haze 26 1006 94 2500 2.77 270.166 21:59 16.09.2019
1635 Haze 26 1006 94 2500 2.77 270.166 21:40 16.09.2019
1636 Haze 26 1006 94 2500 2.27 257.242 21:22 16.09.2019
1637 Haze 26 1006 94 2500 2.27 257.242 20:59 16.09.2019
1638 Haze 26 1006 94 2500 2.74 242.743 20:40 16.09.2019
1639 Haze 26 1006 94 2500 2.74 242.743 20:20 16.09.2019
1640 Haze 26 1006 94 2500 2.74 242.743 19:57 16.09.2019
1641 Haze 26 1006 94 2500 2.74 242.743 19:38 16.09.2019
1642 Haze 26 1006 94 2500 2.74 242.743 19:18 16.09.2019
1643 Haze 26 1006 94 2500 2.74 242.743 18:45 16.09.2019
1644 Haze 26 1006 94 2500 2.74 242.743 18:27 16.09.2019
1645 Haze 26 1006 94 2500 2.82 263.291 17:56 16.09.2019
1646 Haze 26 1006 94 2500 2.82 263.291 17:56 16.09.2019
1647 Haze 26 1006 94 2500 1.5 230 17:37 16.09.2019
1648 Haze 26 1006 94 2500 1.5 230 17:19 16.09.2019
1649 Haze 27 1005 88 2500 1.5 210 16:43 16.09.2019
1650 Haze 27 1005 88 2500 1.5 210 16:21 16.09.2019
1651 Haze 27 1005 88 2500 2.1 200 15:57 16.09.2019
1652 Haze 27 1004 88 2500 2.1 220 15:39 16.09.2019
1653 Haze 27 1004 88 2500 2.1 220 15:20 16.09.2019
1654 Haze 27 1004 88 2500 2.1 220 15:20 16.09.2019
1655 Haze 27 1004 88 2500 1 200 14:58 16.09.2019
1656 Haze 28 1004 83 2500 1.5 230 14:39 16.09.2019
1657 Haze 28 1004 83 2500 1.5 230 14:20 16.09.2019
1658 Haze 28 1003 83 2500 2.1 220 13:43 16.09.2019
1659 Haze 28 1003 83 2500 2.1 220 13:22 16.09.2019
1660 Haze 27 1004 88 2500 2.1 250 12:57 16.09.2019
1661 Rain 27 1004 88 2500 2.6 250 12:38 16.09.2019
1662 Haze 27 1004 88 3000 2.1 250 12:19 16.09.2019
1663 Haze 27 1005 88 3000 3.1 230 11:45 16.09.2019
1664 Haze 27 1005 88 3000 3.1 230 11:23 16.09.2019
1665 -273 0 0 0 0 0 10:56 16.09.2019
1666 Rain 25 1006 100 3000 2.1 220 10:37 16.09.2019
1667 Rain 25 1006 100 3000 2.1 220 10:18 16.09.2019
1668 Rain 25 1006 100 3000 2.1 220 10:18 16.09.2019
1669 Rain 26 1007 94 2000 3.6 270 09:41 16.09.2019
1670 Rain 26 1007 94 2000 3.6 270 09:41 16.09.2019
1671 Rain 26 1007 94 2000 3.6 270 09:21 16.09.2019
1672 Rain 26 1007 94 2000 4.1 270 08:53 16.09.2019
1673 Rain 26 1008 94 2000 3.1 260 08:34 16.09.2019
1674 Haze 27 1008 83 2500 4.6 270 07:59 16.09.2019
1675 Haze 27 1008 83 2500 4.6 280 07:40 16.09.2019
1676 Haze 27 1008 83 2500 3.1 250 07:20 16.09.2019
1677 Haze 27 1008 83 2500 4.6 290 06:49 16.09.2019
1678 Haze 27 1008 83 2500 4.6 290 06:31 16.09.2019
1679 Haze 26 1008 83 2500 3.1 290 05:57 16.09.2019
1680 Haze 26 1008 88 2500 1.5 250 05:39 16.09.2019
1681 Haze 26 1008 88 2500 1.5 230 04:57 16.09.2019
1682 Haze 25 1007 94 2500 1 240 03:35 16.09.2019
1683 Haze 25 1006 94 2000 1.5 220 00:57 16.09.2019
1684 Haze 25 1006 94 2000 1.5 220 00:57 16.09.2019
1685 Haze 25 1006 94 2000 1.5 220 00:36 16.09.2019
1686 Haze 24 1006 100 2000 1 210 00:18 16.09.2019
1687 Haze 24 1006 94 2500 2.6 180 23:38 15.09.2019
1688 Haze 24 1006 94 2500 2.6 180 23:19 15.09.2019
1689 Haze 24 1007 100 2500 2.6 210 22:39 15.09.2019
1690 Haze 24 1007 100 2500 2.6 210 22:20 15.09.2019
1691 Haze 24 1007 100 2500 2.6 210 21:56 15.09.2019
1692 Haze 25 1007 94 2500 2.6 210 21:38 15.09.2019
1693 Haze 25 1007 94 2500 2.6 210 21:19 15.09.2019
1694 Haze 25 1008 94 2500 2.6 240 20:45 15.09.2019
1695 Haze 25 1008 94 2500 2.6 240 20:26 15.09.2019
1696 Haze 25 1008 94 2500 2.6 240 20:26 15.09.2019
1697 Haze 25 1008 94 2500 2.6 240 20:26 15.09.2019
1698 Haze 25 1008 94 2500 2.6 250 19:56 15.09.2019
1699 Haze 25 1008 94 2500 3.1 220 19:38 15.09.2019
1700 Haze 25 1008 94 2500 2.6 240 19:19 15.09.2019
1701 Haze 26 1008 88 2500 4.1 280 18:40 15.09.2019
1702 Haze 26 1008 88 2500 4.1 280 18:22 15.09.2019
1703 Haze 26 1008 88 2500 2.1 240 17:43 15.09.2019
1704 Haze 26 1008 88 2500 2.1 240 17:22 15.09.2019
1705 Haze 26 1007 94 2500 2.1 260 16:58 15.09.2019
1706 Haze 26 1007 94 2500 1 230 16:40 15.09.2019
1707 Haze 26 1007 94 2500 1 230 16:22 15.09.2019
1708 Haze 26 1007 88 2500 1 260 15:56 15.09.2019
1709 Haze 26 1006 88 2500 1 300 15:37 15.09.2019
1710 Haze 26 1006 88 2500 1 300 15:18 15.09.2019
1711 Haze 28 1006 78 3000 3.1 260 14:43 15.09.2019
1712 Haze 28 1006 78 3000 3.1 260 14:23 15.09.2019
1713 Haze 28 1006 83 3000 1 260 13:55 15.09.2019
1714 Haze 28 1006 78 3000 2.6 280 13:37 15.09.2019
1715 Haze 27 1006 83 3000 1 260 13:19 15.09.2019
1716 Haze 27 1006 83 3000 2.1 270 12:42 15.09.2019
1717 Haze 27 1006 83 3000 2.1 270 12:23 15.09.2019
1718 Haze 27 1006 83 3000 1.5 290 11:54 15.09.2019
1719 Rain 27 1006 83 2500 1 330 11:36 15.09.2019
1720 Haze 28 1007 78 3000 2.1 250 11:18 15.09.2019
1721 Haze 28 1007 74 4000 3.1 260 10:41 15.09.2019
1722 Haze 29 1007 74 4000 4.1 280 10:22 15.09.2019
1723 Haze 29 1007 74 4000 4.1 280 09:57 15.09.2019
1724 Haze 29 1008 74 4000 3.6 280 09:36 15.09.2019
1725 Haze 29 1008 74 4000 3.6 280 09:18 15.09.2019
1726 Haze 27 1008 83 4000 2.1 180 08:41 15.09.2019
1727 Haze 27 1008 83 4000 2.1 180 08:19 15.09.2019
1728 Haze 28 1009 74 3000 1.5 210 07:47 15.09.2019
1729 Haze 26 1009 83 3000 2.6 240 06:46 15.09.2019
1730 Haze 26 1009 83 3000 2.6 240 06:27 15.09.2019
1731 Mist 24 1008 94 1500 2.1 180 03:20 15.09.2019
1732 Rain 24 1008 94 3000 1 180 02:20 15.09.2019
1733 Haze 24 1007 94 3000 1.5 170 01:37 15.09.2019
1734 Haze 24 1007 94 3000 3.71 231.916 00:57 15.09.2019
1735 Haze 24 1007 94 3000 3.71 231.916 00:57 15.09.2019
1736 Haze 24 1007 94 3000 3.71 231.916 00:37 15.09.2019
1737 Haze 24 1007 94 3000 1.5 200 00:19 15.09.2019
1738 Haze 24 1007 94 3000 1.5 200 23:56 14.09.2019
1739 Haze 24 1007 94 3000 1.5 190 23:38 14.09.2019
1740 Haze 24 1007 94 3000 1.5 190 23:38 14.09.2019
1741 Haze 24 1007 94 3000 1.5 190 23:38 14.09.2019
1742 Haze 24 1007 94 3000 1.5 190 23:19 14.09.2019
1743 Haze 24 1007 94 3000 1.5 200 22:55 14.09.2019
1744 Haze 24 1007 94 3000 1.5 170 22:37 14.09.2019
1745 Haze 24 1007 94 3000 1.5 170 22:18 14.09.2019
1746 Haze 24 1008 100 3000 1 200 21:40 14.09.2019
1747 Haze 24 1008 100 3000 1 200 21:21 14.09.2019
1748 Haze 24 1008 100 3000 1.5 200 20:58 14.09.2019
1749 Haze 24 1009 100 3000 1.5 180 20:39 14.09.2019
1750 Haze 24 1009 100 3000 2.1 200 20:21 14.09.2019
1751 Haze 24 1009 100 3000 2.1 200 19:47 14.09.2019
1752 Haze 24 1009 94 3000 1.5 170 19:22 14.09.2019
1753 Haze 24 1009 94 3000 1.5 200 18:58 14.09.2019
1754 Haze 25 1009 88 3000 1 190 18:38 14.09.2019
1755 Haze 25 1009 88 3000 1 190 18:20 14.09.2019
1756 Haze 24 1008 94 3000 1 200 17:44 14.09.2019
1757 Haze 24 1008 94 3000 1 200 17:24 14.09.2019
1758 Haze 24 1008 94 3000 1 180 16:54 14.09.2019
1759 Haze 25 1008 88 3000 1.5 180 16:36 14.09.2019
1760 Haze 25 1008 88 3000 1.5 180 16:18 14.09.2019
1761 Haze 25 1007 94 3000 1.5 200 15:41 14.09.2019
1762 Haze 25 1007 94 3000 1.5 200 15:22 14.09.2019
1763 Haze 26 1006 88 3000 4.45 266.467 14:45 14.09.2019
1764 Haze 26 1006 83 3000 4.45 266.467 14:20 14.09.2019
1765 Haze 26 1006 83 3000 4.45 266.467 13:56 14.09.2019
1766 Haze 26 1006 88 3000 2.6 200 13:38 14.09.2019
1767 Haze 26 1006 88 3000 2.6 200 13:20 14.09.2019
1768 Haze 25 1006 88 3000 2.6 200 12:45 14.09.2019
1769 Haze 25 1006 88 3000 2.6 200 12:22 14.09.2019
1770 Haze 25 1007 94 3000 3.1 230 11:41 14.09.2019
1771 Haze 25 1007 94 3000 3.1 230 11:20 14.09.2019
1772 Haze 25 1007 94 3000 2.6 200 10:40 14.09.2019
1773 Haze 25 1007 94 3000 2.6 200 10:21 14.09.2019
1774 Haze 25 1008 88 3000 4.1 220 09:58 14.09.2019
1775 Haze 25 1008 88 2000 2.6 220 09:40 14.09.2019
1776 Haze 25 1008 88 2000 2.6 220 09:20 14.09.2019
1777 Haze 24 1009 94 2000 2.1 200 08:48 14.09.2019
1778 Haze 24 1009 94 2000 2.1 200 08:26 14.09.2019
1779 Haze 24 1009 94 2000 2.6 190 07:49 14.09.2019
1780 Haze 23 1009 100 2500 2.6 200 07:29 14.09.2019
1781 Haze 24 1009 94 2500 3.1 200 06:53 14.09.2019
1782 Haze 24 1009 94 2500 3.1 200 06:31 14.09.2019
1783 Rain 24 1008 94 2000 2.6 220 05:27 14.09.2019
1784 Rain 23 1007 100 2000 1.5 210 03:47 14.09.2019
1785 Rain 23 1006 100 1500 1.5 210 02:55 14.09.2019
1786 Rain 23 1006 100 1500 1.5 210 02:55 14.09.2019
1787 Rain 23 1006 100 2500 1 220 01:59 14.09.2019
1788 Rain 23 1006 100 2500 1.5 210 01:39 14.09.2019
1789 Rain 23 1006 100 2500 1 210 01:18 14.09.2019
1790 Rain 23 1006 100 2500 1 210 00:39 14.09.2019
1791 Haze 24 1006 94 3000 1 220 00:21 14.09.2019
1792 Haze 24 1006 94 3000 1 220 00:21 14.09.2019
1793 Haze 24 1006 94 3000 1 220 00:21 14.09.2019
1794 Haze 24 1006 94 3000 1 220 00:21 14.09.2019
1795 Haze 24 1006 94 3000 1 220 00:21 14.09.2019
1796 Haze 24 1006 94 3000 1.5 190 23:38 13.09.2019
1797 Haze 24 1006 94 3000 1.5 190 23:38 13.09.2019
1798 Haze 24 1006 94 3000 1.5 190 23:19 13.09.2019
1799 Haze 24 1006 94 3000 1.5 190 22:59 13.09.2019
1800 Haze 24 1006 94 3000 1.5 190 22:39 13.09.2019
1801 Haze 24 1006 94 3000 1.5 190 22:20 13.09.2019
1802 Haze 24 1006 94 3000 1.5 190 21:55 13.09.2019
1803 Haze 24 1007 94 3000 1.5 190 21:37 13.09.2019
1804 Haze 24 1007 94 3000 1.5 190 21:18 13.09.2019
1805 Haze 24 1007 94 3000 1.5 190 20:55 13.09.2019
1806 Haze 24 1007 94 3000 1.5 190 20:36 13.09.2019
1807 Haze 24 1007 94 3000 1.5 190 20:18 13.09.2019
1808 Haze 24 1007 94 3000 1.5 190 19:42 13.09.2019
1809 Haze 25 1007 88 3000 1.5 190 19:21 13.09.2019
1810 Haze 25 1007 88 3000 1.5 190 18:58 13.09.2019
1811 Haze 25 1007 88 3000 1 190 18:37 13.09.2019
1812 Haze 25 1007 88 3000 1 190 18:37 13.09.2019
1813 Haze 25 1007 88 3000 1 200 18:19 13.09.2019
1814 Haze 25 1007 88 3000 1.5 200 17:43 13.09.2019
1815 Haze 25 1007 88 3000 1.5 200 17:19 13.09.2019
1816 Haze 25 1007 88 2500 2.1 190 16:54 13.09.2019
1817 Haze 25 1006 88 2500 2.1 200 16:36 13.09.2019
1818 Haze 25 1006 88 2500 2.1 200 16:18 13.09.2019
1819 Haze 25 1006 88 2500 2.6 230 15:40 13.09.2019
1820 Haze 25 1006 88 2500 2.6 230 15:21 13.09.2019
1821 Haze 25 1006 88 2500 2.6 230 15:21 13.09.2019
1822 Rain 26 1005 83 2500 3.6 250 14:44 13.09.2019
1823 Rain 26 1005 83 2500 3.6 250 14:44 13.09.2019
1824 Rain 26 1005 83 2500 3.6 250 14:23 13.09.2019
1825 Haze 26 1005 83 3000 3.6 260 13:58 13.09.2019
1826 Haze 28 1005 74 4000 4.1 250 13:39 13.09.2019
1827 Haze 28 1005 74 4000 3.6 220 13:21 13.09.2019
1828 Haze 29 1005 74 4000 3.6 190 12:44 13.09.2019
1829 Haze 29 1005 74 4000 3.6 190 12:23 13.09.2019
1830 Haze 28 1005 78 4000 4.1 210 11:56 13.09.2019
1831 Haze 29 1006 74 4000 2.1 220 11:20 13.09.2019
1832 Haze 28 1006 74 4000 4.1 200 10:41 13.09.2019
1833 Haze 28 1006 74 4000 4.1 200 10:41 13.09.2019
1834 Haze 28 1006 74 4000 4.1 200 10:20 13.09.2019
1835 Haze 27 1007 78 4000 4.6 200 09:47 13.09.2019
1836 Haze 27 1007 78 4000 4.6 200 09:26 13.09.2019
1837 Haze 28 1007 74 5000 4.6 200 08:59 13.09.2019
1838 Haze 28 1008 74 5000 3.6 240 08:41 13.09.2019
1839 Haze 28 1008 74 5000 3.6 240 08:21 13.09.2019
1840 Haze 27 1008 78 5000 4.6 230 07:56 13.09.2019
1841 Haze 27 1008 78 4000 5.1 200 07:38 13.09.2019
1842 Haze 25 1008 88 3000 4.6 200 06:49 13.09.2019
1843 Haze 25 1008 88 2500 4.6 200 05:50 13.09.2019
1844 Haze 25 1008 88 2500 4.6 200 05:19 13.09.2019
1845 Mist 24 1007 94 2000 1 200 03:41 13.09.2019
1846 Haze 24 1006 94 3000 1 180 02:48 13.09.2019
1847 Haze 24 1006 94 3000 1 180 02:18 13.09.2019
1848 Haze 24 1006 94 3000 1 180 02:18 13.09.2019
1849 Haze 24 1006 94 3000 2.51 228.503 01:35 13.09.2019
1850 Haze 24 1006 94 3000 2.6 220 00:58 13.09.2019
1851 Haze 24 1006 94 3000 1.5 220 00:31 13.09.2019
1852 Haze 24 1006 94 3000 2.6 210 23:40 12.09.2019
1853 Haze 24 1006 94 3000 2.6 210 23:22 12.09.2019
1854 Haze 24 1006 94 3000 3.05 246.165 22:43 12.09.2019
1855 Haze 24 1006 94 3000 3.05 246.165 22:24 12.09.2019
1856 Haze 24 1006 94 3000 1 210 21:58 12.09.2019
1857 Haze 25 1006 88 3000 1.5 210 21:39 12.09.2019
1858 Haze 25 1006 88 3000 1.5 210 21:39 12.09.2019
1859 Haze 25 1006 88 3000 1.5 210 21:20 12.09.2019
1860 Haze 25 1007 88 3000 1.5 210 20:58 12.09.2019
1861 Haze 25 1007 88 3000 1.5 210 20:40 12.09.2019
1862 Haze 25 1007 88 3000 1.5 210 20:20 12.09.2019
1863 Haze 25 1007 94 3000 1.5 240 19:56 12.09.2019
1864 Haze 25 1007 94 3000 2.6 240 19:36 12.09.2019
1865 Haze 25 1007 94 3000 1.5 220 19:18 12.09.2019
1866 Haze 25 1007 94 3000 3.1 240 18:38 12.09.2019
1867 Haze 25 1007 94 3000 2.6 230 18:20 12.09.2019
1868 Haze 25 1007 94 3000 2.6 230 17:57 12.09.2019
1869 Haze 26 1007 88 3000 2.6 230 17:38 12.09.2019
1870 Haze 26 1007 88 3000 2.6 230 17:19 12.09.2019
1871 Haze 26 1006 88 3000 2.1 250 16:42 12.09.2019
1872 Haze 26 1006 88 3000 2.1 250 16:22 12.09.2019
1873 Haze 25 1006 94 3000 1.5 190 15:55 12.09.2019
1874 Haze 25 1005 94 3000 1 200 15:36 12.09.2019
1875 Haze 25 1005 94 3000 1 200 15:18 12.09.2019
1876 Haze 26 1004 88 3000 1 210 14:41 12.09.2019
1877 Haze 26 1004 88 3000 1 210 14:21 12.09.2019
1878 Thunderstorm 26 1004 88 3000 3.6 260 13:40 12.09.2019
1879 Thunderstorm 26 1004 88 3000 3.6 260 13:21 12.09.2019
1880 Thunderstorm 28 1004 78 600 8.2 290 12:49 12.09.2019
1881 Thunderstorm 28 1004 78 600 8.2 290 12:20 12.09.2019
1882 Thunderstorm 28 1004 78 600 8.2 290 12:20 12.09.2019
1883 Thunderstorm 28 1004 78 600 8.2 290 12:20 12.09.2019
1884 Haze 28 1004 74 4000 3.1 230 11:59 12.09.2019
1885 Haze 28 1004 74 4000 3.1 240 11:40 12.09.2019
1886 Haze 28 1004 74 4000 3.1 240 11:21 12.09.2019
1887 Haze 28 1005 74 4000 3.1 260 10:56 12.09.2019
1888 Haze 28 1005 74 3000 4.1 260 10:37 12.09.2019
1889 Haze 28 1005 74 3000 4.1 260 10:37 12.09.2019
1890 Haze 28 1005 74 3000 4.1 260 10:18 12.09.2019
1891 Haze 28 1006 74 3000 3.1 280 09:42 12.09.2019
1892 Haze 28 1006 74 3000 3.1 280 09:20 12.09.2019
1893 Haze 28 1007 78 3000 1 260 08:45 12.09.2019
1894 Haze 28 1007 78 3000 1 260 08:45 12.09.2019
1895 Haze 28 1007 78 3000 1 260 08:25 12.09.2019
1896 Haze 27 1007 83 3000 1.5 260 07:56 12.09.2019
1897 Haze 27 1007 83 2500 1 250 07:36 12.09.2019
1898 Haze 27 1007 83 2500 1 260 07:18 12.09.2019
1899 Haze 26 1007 88 2500 1 260 06:46 12.09.2019
1900 Haze 26 1007 88 2500 1 250 06:18 12.09.2019
1901 Haze 25 1007 88 2500 1 250 05:42 12.09.2019
1902 Haze 25 1007 88 2500 1 250 05:19 12.09.2019
1903 Haze 25 1006 88 2500 1 220 03:46 12.09.2019
1904 Rain 25 1005 94 2500 1 220 01:44 12.09.2019
1905 Rain 25 1005 94 2500 1 220 01:26 12.09.2019
1906 Rain 25 1004 94 2500 1 230 00:50 12.09.2019
1907 Rain 25 1004 94 2500 1 230 00:29 12.09.2019
1908 Rain 25 1005 94 2500 1 240 23:44 11.09.2019
1909 Rain 25 1005 94 2500 1 240 23:25 11.09.2019
1910 Rain 25 1005 94 2500 1 230 22:58 11.09.2019
1911 Rain 25 1005 94 2500 1 240 22:38 11.09.2019
1912 Rain 25 1005 94 2500 1 240 22:20 11.09.2019
1913 Rain 25 1006 94 2500 1 210 21:58 11.09.2019
1914 Haze 25 1006 94 2500 1 200 21:40 11.09.2019
1915 Haze 25 1006 94 2500 1 200 21:22 11.09.2019
1916 Rain 25 1006 94 2000 1 220 20:55 11.09.2019
1917 Rain 25 1006 94 2000 1 220 20:37 11.09.2019
1918 Rain 25 1006 94 2000 1 220 20:18 11.09.2019
1919 Rain 25 1007 94 1500 1 180 19:55 11.09.2019
1920 Rain 25 1007 100 2500 1 220 19:37 11.09.2019
1921 Rain 25 1007 100 2500 1 220 19:37 11.09.2019
1922 Rain 25 1007 94 2500 1 170 19:18 11.09.2019
1923 Haze 25 1007 100 2500 1 200 18:42 11.09.2019
1924 Haze 25 1007 100 2500 1 200 18:23 11.09.2019
1925 Haze 26 1007 94 2500 1 220 17:58 11.09.2019
1926 Haze 25 1006 94 2500 1 200 17:39 11.09.2019
1927 Haze 25 1006 94 2500 1 200 17:20 11.09.2019
1928 Haze 25 1006 94 2500 1 210 16:54 11.09.2019
1929 Haze 25 1006 94 2500 1 210 16:54 11.09.2019
1930 Haze 26 1005 88 2500 1 210 16:36 11.09.2019
1931 Haze 26 1005 88 2500 1 210 16:18 11.09.2019
1932 Haze 26 1004 88 2500 2.1 210 15:45 11.09.2019
1933 Haze 26 1004 88 2500 2.1 210 15:22 11.09.2019
1934 Haze 26 1004 94 2500 1 240 14:57 11.09.2019
1935 Haze 26 1003 94 3000 1 220 14:37 11.09.2019
1936 Haze 26 1003 94 3000 1 220 14:18 11.09.2019
1937 Haze 26 1003 94 3000 1 210 13:54 11.09.2019
1938 Haze 26 1003 94 3000 1 210 13:54 11.09.2019
1939 -273 0 0 0 0 0 13:36 11.09.2019
1940 Haze 26 1003 94 3000 1 210 13:18 11.09.2019
1941 Haze 26 1004 94 3000 3.86 254.796 12:40 11.09.2019
1942 Haze 26 1004 94 3000 5.39 266.79 12:20 11.09.2019
1943 Haze 26 1004 94 3000 5.39 266.79 11:41 11.09.2019
1944 Haze 26 1004 94 3000 5.39 266.79 11:22 11.09.2019
1945 Haze 26 1004 94 3000 5.39 266.79 10:59 11.09.2019
1946 Rain 26 1005 94 3000 5.39 266.79 10:40 11.09.2019
1947 Rain 26 1006 94 3000 2.6 210 10:20 11.09.2019
1948 Haze 26 1006 94 3000 2.1 200 09:40 11.09.2019
1949 Haze 26 1006 94 3000 2.1 200 09:20 11.09.2019
1950 Haze 26 1006 94 3000 1 220 08:57 11.09.2019
1951 Haze 26 1006 94 3000 1 220 08:57 11.09.2019
1952 Haze 26 1006 88 4000 2.1 220 08:38 11.09.2019
1953 Haze 26 1006 88 4000 2.1 220 08:20 11.09.2019
1954 Haze 26 1006 88 4000 3.1 230 07:41 11.09.2019
1955 Haze 27 1006 83 4000 3.1 220 07:22 11.09.2019
1956 Haze 27 1006 83 4000 2.6 250 06:48 11.09.2019
1957 Haze 27 1006 83 4000 2.6 250 06:30 11.09.2019
1958 Haze 26 1006 88 4000 2.6 260 05:37 11.09.2019
1959 Haze 26 1006 88 4000 2.6 260 05:19 11.09.2019
1960 Clouds 26 1006 90 0 4.78 249.497 04:39 11.09.2019
1961 Clouds 26 1006 90 0 4.78 249.497 03:32 11.09.2019
1962 Haze 25 998 94 3000 1 200 02:42 11.09.2019
1963 Haze 25 1004 88 3000 2.1 220 01:53 11.09.2019
1964 Haze 26 1003 88 3000 2.6 210 00:50 11.09.2019
1965 Haze 26 1004 88 3000 1.5 230 00:21 11.09.2019
1966 Haze 26 1004 88 3000 1.5 230 00:21 11.09.2019
1967 Haze 26 1004 94 3000 1.5 190 23:41 10.09.2019
1968 Haze 26 1004 94 3000 1.5 190 23:23 10.09.2019
1969 Haze 26 1004 94 3000 1 200 22:59 10.09.2019
1970 Haze 26 1004 94 3000 1 190 22:41 10.09.2019
1971 Haze 26 1004 94 3000 1 190 22:19 10.09.2019
1972 Haze 26 1004 88 3000 1.5 240 22:19 10.09.2019
1973 Haze 26 1004 88 3000 1.5 240 21:55 10.09.2019
1974 Haze 26 1005 88 3000 1 230 21:37 10.09.2019
1975 Haze 26 1005 88 3000 1 230 21:18 10.09.2019
1976 Haze 26 1005 94 3000 1 130 20:57 10.09.2019
1977 Haze 26 1005 94 3000 2.1 200 20:38 10.09.2019
1978 Haze 26 1005 94 3000 1 190 20:19 10.09.2019
1979 Haze 26 1005 94 3000 1 190 19:55 10.09.2019
1980 Haze 26 1005 94 3000 1 180 19:37 10.09.2019
1981 Haze 26 1005 94 3000 1 180 19:37 10.09.2019
1982 Haze 26 1005 88 3000 1 240 19:18 10.09.2019
1983 Haze 26 1005 88 3000 1 240 18:46 10.09.2019
1984 Haze 26 1005 88 3000 1 240 18:46 10.09.2019
1985 Haze 26 1005 88 3000 1 240 18:23 10.09.2019
1986 Haze 26 1005 88 3000 2.1 290 17:59 10.09.2019
1987 Haze 26 1005 88 3000 2.1 290 17:59 10.09.2019
1988 Haze 26 1005 88 3000 2.1 290 17:59 10.09.2019
1989 -273 0 0 0 0 0 17:41 10.09.2019
1990 Thunderstorm 26 1005 88 3000 2.6 290 17:21 10.09.2019
1991 Thunderstorm 26 1004 94 3000 1.5 280 16:57 10.09.2019
1992 Thunderstorm 26 1004 94 3000 2.1 260 16:38 10.09.2019
1993 Thunderstorm 26 1004 94 3000 2.1 260 16:19 10.09.2019
1994 Thunderstorm 27 1003 83 3000 2.1 300 15:44 10.09.2019
1995 Thunderstorm 27 1003 83 3000 2.1 300 15:23 10.09.2019
1996 Rain 27 1002 88 3000 2.6 290 14:59 10.09.2019
1997 Rain 27 1002 88 3000 2.6 290 14:59 10.09.2019
1998 Haze 28 1001 83 3000 3.6 290 14:39 10.09.2019
1999 Haze 28 1001 83 3000 3.6 290 14:21 10.09.2019
2000 Haze 30 1001 70 3000 3.1 200 13:48 10.09.2019
2001 Haze 30 1001 70 4000 4.1 220 13:24 10.09.2019
2002 Haze 30 1001 70 4000 4.6 230 12:55 10.09.2019
2003 Haze 30 1001 70 4000 3.1 210 12:37 10.09.2019
2004 Haze 30 1001 70 4000 3.1 200 12:18 10.09.2019
2005 Haze 30 1002 74 4000 3.6 200 11:42 10.09.2019
2006 Haze 30 1002 74 4000 3.6 200 11:22 10.09.2019
2007 Haze 30 1002 70 5000 3.1 230 10:59 10.09.2019
2008 Haze 30 1002 70 5000 2.6 220 10:37 10.09.2019
2009 Haze 29 1003 79 5000 3.1 230 10:18 10.09.2019
2010 Haze 29 1003 79 5000 3.6 220 09:44 10.09.2019
2011 Haze 29 1003 74 5000 4.1 240 09:20 10.09.2019
2012 Haze 29 1003 74 5000 4.1 240 08:56 10.09.2019
2013 Haze 28 1004 78 5000 3.6 210 08:38 10.09.2019
2014 Haze 28 1004 78 5000 4.1 200 08:19 10.09.2019
2015 Haze 28 1004 78 5000 3.6 230 07:41 10.09.2019
2016 Haze 27 1004 83 5000 4.1 240 07:23 10.09.2019
2017 Haze 27 1004 83 5000 4.1 250 06:44 10.09.2019
2018 Haze 26 1004 83 5000 3.1 210 06:21 10.09.2019
2019 Haze 25 1004 94 3000 2.6 200 04:25 10.09.2019
2020 Haze 25 1003 88 3000 2.1 220 02:41 10.09.2019
2021 Haze 25 1003 88 3000 1 200 02:21 10.09.2019
2022 Haze 25 1003 88 3000 1 200 02:21 10.09.2019
2023 Haze 25 1003 88 3000 1 200 02:21 10.09.2019
2024 Haze 25 1003 88 3000 1 200 02:21 10.09.2019
2025 Haze 25 1003 88 3000 2.1 210 01:50 10.09.2019
2026 Haze 25 1003 88 3000 2.1 210 01:23 10.09.2019
2027 Haze 25 1002 94 3000 2.1 200 00:42 10.09.2019
2028 Haze 25 1002 94 3000 1.5 220 00:22 10.09.2019
2029 Haze 24 1003 94 3000 1 200 23:40 09.09.2019
2030 Haze 24 1003 94 3000 1 190 23:19 09.09.2019
2031 Haze 24 1003 94 3000 1 190 22:55 09.09.2019
2032 Haze 24 1003 94 3000 1 190 22:37 09.09.2019
2033 Haze 25 1003 94 3000 1 200 22:19 09.09.2019
2034 Haze 25 1003 94 3000 1 200 21:55 09.09.2019
2035 Haze 25 1003 94 3000 1 200 21:37 09.09.2019
2036 Haze 25 1003 94 3000 1 200 21:37 09.09.2019
2037 Haze 25 1003 94 3000 1 200 21:18 09.09.2019
2038 Haze 25 1003 94 3000 1 200 21:18 09.09.2019
2039 Haze 25 1003 94 3000 1 200 20:55 09.09.2019
2040 Haze 25 1003 94 3000 1 200 20:36 09.09.2019
2041 Haze 25 1004 94 3000 1 200 20:18 09.09.2019
2042 Haze 25 1004 94 3000 1 200 19:56 09.09.2019
2043 Haze 25 1004 94 3000 1 220 19:37 09.09.2019
2044 Haze 25 1004 94 3000 1 220 19:19 09.09.2019
2045 Haze 25 1003 94 3000 1 220 18:55 09.09.2019
2046 Haze 25 1003 94 3000 1 220 18:36 09.09.2019
2047 Haze 25 1003 94 3000 1 210 18:18 09.09.2019
2048 Haze 25 1003 94 3000 1 210 17:56 09.09.2019
2049 Haze 25 1003 94 3000 1 210 17:37 09.09.2019
2050 Haze 26 1003 88 3000 1.5 210 17:19 09.09.2019
2051 Haze 26 1002 88 3000 2.1 220 16:40 09.09.2019
2052 Haze 26 1001 88 3000 2.1 220 16:21 09.09.2019
2053 Haze 26 1001 88 3000 2.1 220 15:56 09.09.2019
2054 Haze 27 1002 88 3000 1.5 190 15:38 09.09.2019
2055 Haze 27 1001 88 3000 2.1 200 15:19 09.09.2019
2056 Haze 27 1001 88 3000 2.1 200 14:57 09.09.2019
2057 Haze 27 1001 88 3000 2.1 190 14:38 09.09.2019
2058 Haze 27 1001 88 3000 2.1 200 14:20 09.09.2019
2059 Haze 27 1000 88 3000 2.1 210 13:45 09.09.2019
2060 Rain 26 1000 88 3000 2.6 220 13:21 09.09.2019
2061 Rain 26 1000 88 3000 2.6 220 12:59 09.09.2019
2062 Rain 25 1001 94 3000 4.1 220 12:41 09.09.2019
2063 Rain 27 1001 83 3000 4.1 240 12:21 09.09.2019
2064 Rain 27 1001 83 3000 4.1 240 11:55 09.09.2019
2065 Rain 27 1001 83 3000 4.1 240 11:55 09.09.2019
2066 Haze 30 1001 70 5000 4.1 250 11:36 09.09.2019
2067 Haze 30 1001 70 5000 5.1 260 11:18 09.09.2019
2068 Haze 30 1002 70 5000 5.1 220 10:41 09.09.2019
2069 Haze 30 1002 70 5000 4.1 230 10:21 09.09.2019
2070 Haze 30 1002 70 5000 4.1 230 09:57 09.09.2019
2071 Haze 30 1003 70 5000 4.1 220 09:38 09.09.2019
2072 Haze 29 1003 74 5000 5.1 220 09:20 09.09.2019
2073 Haze 28 1004 78 5000 5.1 230 08:39 09.09.2019
2074 Haze 28 1004 78 5000 3.6 220 08:20 09.09.2019
2075 Haze 27 1005 83 5000 4.1 230 07:48 09.09.2019
2076 Haze 27 1004 83 5000 4.6 230 07:23 09.09.2019
2077 Haze 27 1004 83 5000 4.6 230 06:58 09.09.2019
2078 Drizzle 27 1004 78 4000 4.1 230 06:40 09.09.2019
2079 Haze 26 1004 83 4000 2.6 230 04:56 09.09.2019
2080 Haze 26 1004 83 4000 2.6 230 04:56 09.09.2019
2081 Haze 24 1003 94 3000 1 200 02:59 09.09.2019
2082 Haze 24 1003 94 3000 1 220 02:39 09.09.2019
2083 Haze 24 1002 94 3000 1 220 00:46 09.09.2019
2084 Haze 24 1002 94 3000 1.5 240 00:22 09.09.2019
2085 Haze 24 1003 94 3000 1.5 240 23:46 08.09.2019
2086 Haze 24 1003 94 3000 1.5 240 23:24 08.09.2019
2087 Haze 24 1003 94 3000 1.5 240 23:24 08.09.2019
2088 Haze 25 1003 88 3000 1.5 220 22:56 08.09.2019
2089 Haze 25 1003 94 3000 1.5 190 22:38 08.09.2019
2090 Haze 25 1003 94 3000 1.5 180 22:19 08.09.2019
2091 Haze 25 1003 94 3000 5.8 252.396 21:42 08.09.2019
2092 Haze 25 1003 94 3000 4.1 259.845 21:23 08.09.2019
2093 Haze 25 1003 94 3000 4.1 259.845 20:58 08.09.2019
2094 Haze 25 1004 94 3000 4.63 247.104 20:39 08.09.2019
2095 Haze 25 1004 94 3000 4.63 247.104 20:20 08.09.2019
2096 Haze 25 1004 94 3000 4.63 247.104 19:59 08.09.2019
2097 Haze 25 1004 94 3000 1.5 250 19:38 08.09.2019
2098 Haze 25 1005 94 3000 4.63 247.104 19:19 08.09.2019
2099 Haze 25 1005 94 3000 4.63 247.104 19:19 08.09.2019
2100 Haze 25 1005 94 3000 4.63 247.104 18:57 08.09.2019
2101 Haze 25 1005 94 3000 4.63 247.104 18:38 08.09.2019
2102 Haze 25 1004 100 3000 1 190 18:18 08.09.2019
2103 Haze 25 1004 100 3000 1 190 17:54 08.09.2019
2104 Haze 26 1004 94 3000 1 200 17:36 08.09.2019
2105 Haze 26 1004 94 3000 1.5 200 17:18 08.09.2019
2106 Haze 26 1004 94 3000 1.5 200 17:18 08.09.2019
2107 Haze 26 1003 94 4000 1 170 16:43 08.09.2019
2108 Haze 26 1003 94 4000 1 190 16:22 08.09.2019
2109 Haze 26 1003 94 4000 1 190 15:58 08.09.2019
2110 Haze 26 1002 88 4000 1 200 15:40 08.09.2019
2111 Haze 26 1002 94 4000 1.5 230 15:21 08.09.2019
2112 Haze 26 1002 94 4000 1.5 230 14:55 08.09.2019
2113 Haze 27 1001 83 4000 1.5 250 14:36 08.09.2019
2114 Haze 27 1002 83 4000 2.6 250 14:18 08.09.2019
2115 Haze 27 1002 83 4000 2.6 250 13:55 08.09.2019
2116 Haze 27 1001 83 4000 2.6 250 13:36 08.09.2019
2117 Haze 26 1002 88 4000 2.1 220 13:18 08.09.2019
2118 Haze 26 1002 88 4000 1.5 230 12:41 08.09.2019
2119 Haze 27 1002 83 4000 1.5 230 12:23 08.09.2019
2120 Haze 27 1002 83 4000 1.5 230 11:58 08.09.2019
2121 Haze 27 1002 83 4000 2.6 230 11:38 08.09.2019
2122 Haze 27 1002 83 4000 2.6 230 11:38 08.09.2019
2123 Haze 26 1002 88 4000 3.6 240 11:19 08.09.2019
2124 Haze 26 1002 88 4000 3.6 240 10:55 08.09.2019
2125 Haze 26 1003 88 4000 2.1 250 10:37 08.09.2019
2126 Haze 26 1003 88 3500 4.77 279.671 10:18 08.09.2019
2127 Rain 26 1004 88 3000 2.1 260 09:38 08.09.2019
2128 Rain 25 1004 94 3000 4.1 299.965 09:20 08.09.2019
2129 Rain 25 1004 94 3000 4.1 299.965 08:56 08.09.2019
2130 Rain 25 1004 94 3000 4.65 263.191 08:36 08.09.2019
2131 Rain 25 1004 94 2500 4.65 263.191 08:18 08.09.2019
2132 Rain 25 1005 100 2000 4.65 263.191 07:38 08.09.2019
2133 Rain 25 1005 100 2000 4.65 263.191 07:38 08.09.2019
2134 Rain 25 1005 100 2000 4.65 263.191 07:20 08.09.2019
2135 Rain 25 1005 100 2000 4.65 263.191 06:45 08.09.2019
2136 Rain 25 1004 100 2000 2.98 277.092 05:57 08.09.2019
2137 Rain 25 1004 100 2000 1 260 05:35 08.09.2019
2138 Rain 25 1003 100 2000 1.5 240 03:51 08.09.2019
2139 Rain 25 1003 100 2000 4.35 287.805 02:54 08.09.2019
2140 Rain 25 1002 100 2000 1 200 02:25 08.09.2019
2141 Rain 25 1001 94 2000 2.1 260 01:34 08.09.2019
2142 Rain 25 1001 94 2000 2.1 260 00:57 08.09.2019
2143 Rain 25 1001 94 2000 3.6 260 00:37 08.09.2019
2144 Rain 26 1001 94 2000 3.6 280 00:19 08.09.2019
2145 Rain 26 1002 94 2500 3.6 270 23:38 07.09.2019
2146 Rain 26 1002 94 2500 3.1 260 23:19 07.09.2019
2147 Rain 26 1002 94 2500 3.1 260 22:57 07.09.2019
2148 Rain 26 1002 94 2500 3.6 250 22:37 07.09.2019
2149 Rain 26 1003 94 2500 2.6 260 22:18 07.09.2019
2150 Haze 26 1003 94 2500 1.5 260 21:40 07.09.2019
2151 Haze 26 1003 94 2500 1.5 260 21:22 07.09.2019
2152 Haze 26 1004 94 2500 1.5 240 20:42 07.09.2019
2153 Haze 26 1004 94 2500 1.5 240 20:22 07.09.2019
2154 Haze 26 1004 94 2500 1.5 200 19:58 07.09.2019
2155 Rain 26 1004 94 2500 1.5 230 19:39 07.09.2019
2156 Rain 26 1003 94 2500 2.1 220 19:21 07.09.2019
2157 Rain 26 1003 94 2500 2.1 220 18:59 07.09.2019
2158 Rain 27 1004 88 2500 1.5 220 18:40 07.09.2019
2159 Rain 27 1004 88 2500 1.5 240 18:22 07.09.2019
2160 Rain 27 1004 88 2500 1.5 240 17:59 07.09.2019
2161 Haze 27 1003 88 3000 1.5 240 17:39 07.09.2019
2162 Haze 27 1003 88 3000 1.5 220 17:19 07.09.2019
2163 Haze 27 1003 88 3000 1.5 220 16:58 07.09.2019
2164 Haze 27 1003 88 3000 1.5 220 16:58 07.09.2019
2165 Haze 27 1003 88 3000 1.5 220 16:58 07.09.2019
2166 Haze 27 1003 88 3000 2.1 230 16:40 07.09.2019
2167 Haze 27 1002 88 3000 3.13 268.061 16:19 07.09.2019
2168 Haze 27 1001 88 3000 3.13 268.061 15:46 07.09.2019
2169 Haze 27 1001 88 3000 3.13 268.061 15:26 07.09.2019
2170 Haze 28 1001 83 4000 3.02 259.763 14:57 07.09.2019
2171 Haze 28 1000 83 4000 3.02 259.763 14:37 07.09.2019
2172 Haze 28 1000 83 4000 1.5 200 14:18 07.09.2019
2173 Haze 28 1000 83 4000 1.5 200 13:56 07.09.2019
2174 Haze 28 1000 83 4000 1.5 200 13:56 07.09.2019
2175 Haze 29 1000 79 4000 3.1 230 13:38 07.09.2019
2176 Haze 29 1000 79 4000 3.1 230 13:20 07.09.2019
2177 Haze 29 1000 79 4000 3.1 230 12:44 07.09.2019
2178 Haze 29 1000 79 4000 3.1 230 12:24 07.09.2019
2179 Haze 29 1001 79 4000 4.6 270 11:42 07.09.2019
2180 Haze 29 1001 79 4000 4.1 250 11:22 07.09.2019
2181 Haze 29 1001 79 4000 4.1 250 10:59 07.09.2019
2182 Haze 29 1001 79 4000 4.1 240 10:38 07.09.2019
2183 Haze 27 1002 88 3000 3.6 250 10:19 07.09.2019
2184 Haze 27 1003 88 3000 5.29 287.461 09:43 07.09.2019
2185 Haze 27 1003 88 3000 5.56 286.835 09:24 07.09.2019
2186 Haze 27 1003 88 3000 5.56 286.835 08:57 07.09.2019
2187 Haze 27 1003 88 3000 5.74 293.146 08:37 07.09.2019
2188 Haze 27 1003 88 3000 5.74 293.146 08:19 07.09.2019
2189 Haze 27 1003 88 3000 5.74 293.146 07:44 07.09.2019
2190 Haze 27 1003 88 3000 5.74 293.146 07:24 07.09.2019
2191 Haze 27 1003 88 3000 2.1 270 06:43 07.09.2019
2192 Haze 27 1003 88 3000 2.1 270 06:19 07.09.2019
2193 Haze 26 1002 94 3000 3.1 240 04:33 07.09.2019
2194 Haze 25 1001 94 3000 1 230 03:44 07.09.2019
2195 Haze 25 1001 94 3000 2.8 287.2 02:31 07.09.2019
2196 Haze 25 1000 94 3000 2.8 287.2 01:44 07.09.2019
2197 Haze 25 1000 94 3000 2.91 283.129 00:55 07.09.2019
2198 Haze 25 1000 94 3000 1.5 280 00:36 07.09.2019
2199 Haze 25 1000 94 3000 1 230 00:18 07.09.2019
2200 Haze 25 1001 94 3000 1 250 23:38 06.09.2019
2201 Haze 25 1001 94 3000 1 250 23:38 06.09.2019
2202 Haze 25 1001 94 3000 1 250 23:38 06.09.2019
2203 Haze 25 1001 94 3000 1 250 23:20 06.09.2019
2204 Haze 25 1001 94 3000 1 250 22:57 06.09.2019
2205 Haze 25 1001 94 3000 1 230 22:37 06.09.2019
2206 Haze 25 1001 94 3000 1 230 22:18 06.09.2019
2207 Haze 25 1001 94 3000 1 230 21:56 06.09.2019
2208 Haze 25 1001 94 3000 4.49 284.64 21:37 06.09.2019
2209 Haze 25 1002 94 3000 5.13 279.007 21:18 06.09.2019
2210 Haze 25 1002 94 3000 2.1 200 20:42 06.09.2019
2211 Haze 25 1002 94 3000 2.1 200 20:24 06.09.2019
2212 Haze 25 1002 94 3000 2.1 200 19:59 06.09.2019
2213 Haze 25 1002 94 3000 2.1 250 19:41 06.09.2019
2214 Haze 25 1002 94 3000 2.1 250 19:41 06.09.2019
2215 Haze 25 1002 94 3000 2.6 230 19:21 06.09.2019
2216 Haze 25 1002 94 3000 2.6 230 18:56 06.09.2019
2217 Haze 25 1002 94 3000 1 230 18:37 06.09.2019
2218 Haze 25 1002 94 3000 1 180 18:19 06.09.2019
2219 Haze 25 1002 94 3000 1 180 17:40 06.09.2019
2220 Haze 25 1001 94 3000 1 240 17:20 06.09.2019
2221 Haze 25 1001 94 3000 1 250 16:43 06.09.2019
2222 Haze 25 1001 100 3000 2.6 260 16:20 06.09.2019
2223 Haze 25 1001 100 3000 2.6 260 15:59 06.09.2019
2224 Rain 25 1001 94 3000 2.1 270 15:41 06.09.2019
2225 Rain 25 1001 94 3000 2.1 270 15:22 06.09.2019
2226 Rain 25 1001 94 3000 2.1 270 15:22 06.09.2019
2227 Rain 25 1000 94 3000 1.5 260 14:47 06.09.2019
2228 Thunderstorm 25 1000 94 3000 3.36 271.686 14:19 06.09.2019
2229 Thunderstorm 25 1000 94 3000 2.6 260 13:44 06.09.2019
2230 Thunderstorm 25 1000 94 3000 2.6 260 13:44 06.09.2019
2231 Thunderstorm 25 1000 94 1200 4.1 260 13:23 06.09.2019
2232 Thunderstorm 25 1000 94 1200 4.1 260 12:58 06.09.2019
2233 Thunderstorm 24 1000 100 1200 3.49 285.497 12:37 06.09.2019
2234 Thunderstorm 24 1000 100 800 20.6 210 12:18 06.09.2019
2235 Thunderstorm 24 1001 100 0 5.02 290.997 11:41 06.09.2019
2236 Thunderstorm 24 1001 100 0 5.02 290.997 11:23 06.09.2019
2237 Thunderstorm 24 1001 100 0 5.02 290.997 10:57 06.09.2019
2238 Thunderstorm 25 1000 94 1500 2.1 180 10:39 06.09.2019
2239 Thunderstorm 25 1000 94 1500 2.1 180 10:18 06.09.2019
2240 Thunderstorm 25 1001 94 1500 4.1 230 09:38 06.09.2019
2241 Thunderstorm 26 1001 94 2000 2.1 230 09:20 06.09.2019
2242 Thunderstorm 26 1001 94 2000 2.1 230 08:56 06.09.2019
2243 Haze 27 1000 88 3000 3.1 240 08:37 06.09.2019
2244 Haze 27 1001 88 3000 4.1 250 08:19 06.09.2019
2245 Haze 27 1001 88 3000 3.1 260 07:44 06.09.2019
2246 Haze 27 1001 88 3000 3.1 260 07:25 06.09.2019
2247 Haze 27 1001 88 3000 3.1 260 07:25 06.09.2019
2248 Mist 26 1002 94 2000 2.1 230 06:53 06.09.2019
2249 Mist 26 1002 94 2000 2.6 260 05:58 06.09.2019
2250 Mist 26 1001 94 1500 2.6 240 04:58 06.09.2019
2251 Mist 26 1001 94 2000 1.5 260 04:33 06.09.2019
2252 Haze 26 1000 94 2000 1.5 290 03:39 06.09.2019
2253 Haze 26 999 94 3000 2.1 280 01:49 06.09.2019
2254 Haze 26 1000 94 3000 1.5 260 00:23 06.09.2019
2255 Haze 26 1000 94 3000 3.53 268.151 23:44 05.09.2019
2256 Haze 26 1000 94 3000 3.53 268.151 23:24 05.09.2019
2257 Haze 26 1000 94 3000 3.53 268.151 22:47 05.09.2019
2258 Haze 26 1000 94 3000 3.53 268.151 22:28 05.09.2019
2259 Haze 26 1001 94 3000 1 210 21:58 05.09.2019
2260 Haze 26 1001 94 3000 3.53 268.151 21:40 05.09.2019
2261 Haze 26 1001 94 3000 2.43 267.243 21:21 05.09.2019
2262 Haze 26 1001 94 3000 2.43 267.243 20:58 05.09.2019
2263 Haze 26 1001 94 3000 2.69 283.85 20:40 05.09.2019
2264 Haze 26 1002 94 3000 1.5 200 20:22 05.09.2019
2265 Haze 26 1002 94 3000 1.5 200 20:00 05.09.2019
2266 Haze 26 1002 94 3000 2.69 283.85 19:41 05.09.2019
2267 Haze 26 1002 94 3000 2.69 283.85 19:22 05.09.2019
2268 Haze 26 1002 94 3000 2.69 283.85 18:56 05.09.2019
2269 Haze 26 1002 94 3000 2.69 283.85 18:38 05.09.2019
2270 Haze 26 1002 94 3000 1 220 18:18 05.09.2019
2271 Haze 26 1001 94 3000 2.1 200 17:41 05.09.2019
2272 Haze 26 1001 94 3000 2.1 200 17:22 05.09.2019
2273 Haze 27 1001 88 3000 1.5 250 16:58 05.09.2019
2274 Haze 27 1001 88 3000 1.5 170 16:40 05.09.2019
2275 Haze 26 1000 94 3000 2.1 170 16:19 05.09.2019
2276 Haze 27 1000 88 3000 2.6 250 15:41 05.09.2019
2277 Rain 26 999 94 3000 2.1 200 15:20 05.09.2019
2278 Rain 26 999 94 3000 2.1 200 14:59 05.09.2019
2279 Rain 26 1000 94 2500 1.5 160 14:40 05.09.2019
2280 Rain 26 999 94 2000 2.1 200 14:20 05.09.2019
2281 Rain 27 999 88 2000 2.6 240 13:43 05.09.2019
2282 Haze 30 999 79 2500 3.1 210 13:23 05.09.2019
2283 Haze 30 999 74 4000 3.1 200 12:54 05.09.2019
2284 Haze 30 999 74 4000 3.1 200 12:36 05.09.2019
2285 Haze 30 999 74 4000 3.1 200 12:36 05.09.2019
2286 Haze 30 999 79 4000 3.1 220 12:18 05.09.2019
2287 Haze 28 999 88 4000 2.6 230 11:43 05.09.2019
2288 Haze 29 1000 83 4000 2.6 230 11:19 05.09.2019
2289 Haze 31 1000 70 5000 2.1 250 10:42 05.09.2019
2290 Haze 31 1000 70 5000 2.1 250 10:23 05.09.2019
2291 Haze 31 1001 70 5000 2.1 260 09:58 05.09.2019
2292 Haze 31 1001 70 5000 2.6 250 09:40 05.09.2019
2293 Haze 30 1002 70 5000 1.5 280 09:18 05.09.2019
2294 Haze 29 1002 74 5000 1.5 270 08:46 05.09.2019
2295 Haze 29 1002 74 5000 1.5 270 08:46 05.09.2019
2296 Haze 29 1002 74 5000 1.5 270 08:26 05.09.2019
2297 Haze 29 1003 74 5000 2.1 280 07:46 05.09.2019
2298 Haze 29 1003 74 5000 2.1 280 07:28 05.09.2019
2299 Haze 28 1003 83 5000 2.1 280 06:58 05.09.2019
2300 Haze 28 1003 83 5000 2.6 280 06:32 05.09.2019
2301 Haze 27 1002 88 5000 2.1 250 05:51 05.09.2019
2302 Haze 27 1002 88 5000 2.1 250 05:32 05.09.2019
2303 Haze 26 1002 94 4000 2.1 240 04:53 05.09.2019
2304 Haze 25 1002 94 3000 1.5 220 04:28 05.09.2019
2305 Haze 24 1002 100 3000 2.54 268.24 03:40 05.09.2019
2306 Haze 24 1001 100 3000 2.59 279.179 02:53 05.09.2019
2307 Haze 24 1001 100 3000 2.59 279.179 02:27 05.09.2019
2308 Haze 24 1000 100 3000 3.19 259.547 01:37 05.09.2019
2309 Haze 24 1000 100 3000 3.19 259.547 00:46 05.09.2019
2310 Haze 24 1000 94 3000 4.53 260.346 00:21 05.09.2019
2311 Haze 24 1000 94 3000 4.53 260.346 23:56 04.09.2019
2312 Haze 24 1000 94 3000 4.53 260.346 23:37 04.09.2019
2313 Haze 24 1000 94 3000 4.53 260.346 23:18 04.09.2019
2314 Haze 24 1001 94 3000 4.53 260.346 22:42 04.09.2019
2315 Haze 24 1001 94 3000 4.53 260.346 22:19 04.09.2019
2316 Haze 24 1002 94 3000 6.51 270.643 21:40 04.09.2019
2317 Haze 24 1002 94 3000 2.9 251.903 21:20 04.09.2019
2318 Haze 24 1002 94 3000 2.9 251.903 21:20 04.09.2019
2319 Haze 24 1002 94 3000 2.9 251.903 20:57 04.09.2019
2320 Haze 24 1002 94 3000 2.9 251.903 20:39 04.09.2019
2321 Haze 25 1002 88 3000 2.1 280 20:19 04.09.2019
2322 Haze 25 1002 88 3000 2.1 280 19:57 04.09.2019
2323 Haze 25 1002 94 3000 2.1 280 19:38 04.09.2019
2324 Haze 24 1002 100 3000 2.9 251.903 19:19 04.09.2019
2325 Haze 24 1002 100 3000 2.9 251.903 18:39 04.09.2019
2326 Haze 24 1002 100 3000 2.9 251.903 18:39 04.09.2019
2327 Rain 24 1002 100 3000 3.27 276.772 18:20 04.09.2019
2328 Rain 24 1001 100 3000 3.27 276.772 17:54 04.09.2019
2329 Rain 24 1001 100 3000 3.27 276.772 17:36 04.09.2019
2330 Rain 24 1001 100 3000 3.27 276.772 17:36 04.09.2019
2331 Rain 24 1001 100 3000 3.27 276.772 17:18 04.09.2019
2332 Rain 24 1001 100 3000 3.27 276.772 16:42 04.09.2019
2333 Rain 25 1000 94 3000 3.27 276.772 16:24 04.09.2019
2334 Rain 25 1000 94 3000 3.27 276.772 15:56 04.09.2019
2335 Rain 25 1000 94 3000 1.5 290 15:38 04.09.2019
2336 Rain 25 1000 94 3000 1.5 260 15:20 04.09.2019
2337 Rain 25 1000 94 3000 1.5 260 15:20 04.09.2019
2338 Rain 25 1000 94 3000 1.5 260 14:55 04.09.2019
2339 Rain 25 1000 94 3000 1.5 260 14:55 04.09.2019
2340 Rain 25 999 94 3000 1.5 270 14:37 04.09.2019
2341 Rain 25 1000 94 3000 3.1 260 14:18 04.09.2019
2342 Thunderstorm 25 1000 94 2500 2.6 240 13:40 04.09.2019
2343 Thunderstorm 25 1000 94 1800 1.5 200 13:22 04.09.2019
2344 Thunderstorm 25 1000 94 1800 1.5 200 12:57 04.09.2019
2345 Thunderstorm 25 1000 94 1800 1.5 200 12:38 04.09.2019
2346 Thunderstorm 25 1000 94 1800 1.5 200 12:38 04.09.2019
2347 Thunderstorm 25 1000 94 2000 3.04 297.357 12:19 04.09.2019
2348 Thunderstorm 25 1000 94 2000 3.04 297.357 11:41 04.09.2019
2349 Thunderstorm 25 1000 94 2000 3.04 297.357 11:21 04.09.2019
2350 Thunderstorm 25 1000 94 2000 3.04 297.357 10:59 04.09.2019
2351 Thunderstorm 25 1000 94 2000 3.04 297.357 10:59 04.09.2019
2352 Thunderstorm 27 1000 88 2000 2.6 30 10:41 04.09.2019
2353 Thunderstorm 29 1001 83 3000 1.5 350 10:23 04.09.2019
2354 Haze 28 1001 88 2500 2.1 270 09:47 04.09.2019
2355 Haze 28 1001 88 2500 2.1 270 09:27 04.09.2019
2356 Haze 27 1002 94 2500 4.52 272.521 08:59 04.09.2019
2357 Haze 27 1002 94 2000 4.52 272.521 08:40 04.09.2019
2358 Haze 27 1003 94 2000 1.5 250 08:21 04.09.2019
2359 Rain 26 1003 94 2000 4.52 272.521 07:48 04.09.2019
2360 Rain 26 1003 94 2000 4.52 272.521 07:29 04.09.2019
2361 Mist 26 1003 94 2000 1.5 250 06:40 04.09.2019
2362 Rain 25 1003 100 2000 1.5 250 05:19 04.09.2019
2363 Rain 25 1003 100 1800 1 260 04:51 04.09.2019
2364 Haze 25 1002 100 2000 1.5 230 03:52 04.09.2019
2365 Rain 25 1001 94 2000 1.5 260 01:27 04.09.2019
2366 Rain 25 1001 94 2000 1.5 250 00:54 04.09.2019
2367 Rain 25 1001 94 2000 1.5 250 00:32 04.09.2019
2368 Rain 25 1002 100 2000 1.5 250 23:54 03.09.2019
2369 Rain 25 1002 100 2000 1.5 250 23:28 03.09.2019
2370 Rain 25 1002 100 1800 1.5 270 22:59 03.09.2019
2371 Rain 25 1003 100 1800 2.1 280 22:40 03.09.2019
2372 Rain 25 1003 100 1800 1.5 260 22:21 03.09.2019
2373 Rain 25 1003 100 1800 1.5 260 21:56 03.09.2019
2374 -273 0 0 0 0 0 21:56 03.09.2019
2375 Rain 25 1003 100 1800 1.5 260 21:36 03.09.2019
2376 Rain 25 1003 100 1800 2.1 240 21:18 03.09.2019
2377 Rain 25 1004 94 1800 1.5 210 20:42 03.09.2019
2378 Rain 25 1004 94 2000 1.5 190 20:24 03.09.2019
2379 Rain 25 1004 94 2000 1.5 190 20:24 03.09.2019
2380 Rain 25 1004 94 2000 1.5 190 19:56 03.09.2019
2381 Rain 25 1004 94 2000 1.5 190 19:56 03.09.2019
2382 Rain 25 1004 94 2000 1.5 190 19:38 03.09.2019
2383 Rain 25 1004 94 2000 1.5 200 19:19 03.09.2019
2384 Rain 25 1004 94 2000 1.5 170 18:45 03.09.2019
2385 Rain 25 1004 94 2000 2.64 267.544 18:27 03.09.2019
2386 Rain 25 1003 94 2000 3.73 260.255 17:59 03.09.2019
2387 Rain 25 1003 94 2000 3.73 260.255 17:40 03.09.2019
2388 Rain 25 1003 94 2000 3.73 260.255 17:19 03.09.2019
2389 Rain 25 1003 94 2000 3.73 260.255 16:58 03.09.2019
2390 Haze 25 1003 94 2000 3.73 260.255 16:38 03.09.2019
2391 Haze 25 1003 94 2000 3.73 260.255 16:19 03.09.2019
2392 -273 0 0 0 0 0 15:40 03.09.2019
2393 Rain 24 1002 94 2000 3.86 267.164 15:21 03.09.2019
2394 Rain 24 1002 94 2000 3.86 267.164 14:58 03.09.2019
2395 Rain 24 1002 94 2000 3.86 267.164 14:40 03.09.2019
2396 Rain 24 1002 100 2000 3.86 267.164 14:20 03.09.2019
2397 Rain 24 1002 100 2000 3.86 267.164 13:56 03.09.2019
2398 Thunderstorm 24 1002 100 2000 3.1 250 13:37 03.09.2019
2399 Thunderstorm 25 1002 94 1500 2.1 290 13:19 03.09.2019
2400 Thunderstorm 25 1002 94 1500 2.1 290 13:19 03.09.2019
2401 Thunderstorm 25 1002 94 2000 4.11 268.578 12:49 03.09.2019
2402 Thunderstorm 25 1002 94 2000 4.11 268.578 12:30 03.09.2019
2403 Haze 26 1002 94 2000 1 210 11:59 03.09.2019
2404 Rain 26 1002 94 2000 2.6 220 11:39 03.09.2019
2405 Rain 25 1003 100 2000 3.1 200 11:19 03.09.2019
2406 Rain 25 1003 94 2000 2.6 250 10:55 03.09.2019
2407 Rain 25 1003 94 2000 2.6 250 10:36 03.09.2019
2408 Rain 25 1003 88 2000 3.6 270 10:18 03.09.2019
2409 Haze 29 1003 79 3000 2.6 260 09:42 03.09.2019
2410 Haze 29 1004 79 3000 2.1 240 09:24 03.09.2019
2411 Haze 28 1005 88 3000 1 240 08:41 03.09.2019
2412 Haze 27 1005 94 3000 1 250 08:22 03.09.2019
2413 Haze 27 1005 94 3000 1 250 07:57 03.09.2019
2414 Haze 27 1005 88 3000 1 280 07:37 03.09.2019
2415 Haze 27 1005 88 3000 1 280 07:37 03.09.2019
2416 Haze 27 1005 88 3000 1.5 260 07:18 03.09.2019
2417 Haze 27 1005 88 3000 1 260 06:41 03.09.2019
2418 Mist 25 1003 100 1500 4.03 295.922 03:57 03.09.2019
2419 Mist 25 1003 94 1200 4.03 295.922 03:33 03.09.2019
2420 Haze 25 1003 100 2000 1.72 312.305 02:40 03.09.2019
2421 Drizzle 25 1003 100 2000 1.72 312.305 02:21 03.09.2019
2422 Rain 25 1003 100 2000 1.72 312.305 01:45 03.09.2019
2423 Rain 25 1003 100 2000 1.72 312.305 01:45 03.09.2019
2424 Rain 25 1004 94 2000 3.23 290.211 01:25 03.09.2019
2425 Rain 25 1004 94 2000 3.23 290.211 00:33 03.09.2019
2426 Rain 25 1004 100 2000 2.97 274.191 23:59 02.09.2019
2427 Rain 25 1004 94 2500 2.97 274.191 23:38 02.09.2019
2428 Rain 25 1004 100 2500 2.97 274.191 23:19 02.09.2019
2429 Rain 25 1004 94 2500 1 230 22:56 02.09.2019
2430 Rain 25 1004 100 2500 2.97 274.191 22:56 02.09.2019
2431 Rain 25 1004 94 2500 1 230 22:37 02.09.2019
2432 Haze 25 1004 94 2500 1 250 22:18 02.09.2019
2433 Haze 25 1004 94 2500 1 250 22:18 02.09.2019
2434 Haze 25 1004 94 2500 1 250 21:55 02.09.2019
2435 Haze 25 1004 94 2500 1 230 21:37 02.09.2019
2436 Haze 24 1005 100 2500 1 230 21:18 02.09.2019
2437 Haze 24 1005 100 2500 1 210 20:42 02.09.2019
2438 Haze 24 1005 100 2500 1 220 20:23 02.09.2019
2439 Haze 24 1005 100 2500 1 220 19:59 02.09.2019
2440 Haze 24 1005 100 2500 1 220 19:41 02.09.2019
2441 Haze 24 1005 94 2500 1 220 19:22 02.09.2019
2442 Thunderstorm 24 1005 94 2500 1 220 18:57 02.09.2019
2443 Thunderstorm 24 1005 94 2500 1 220 18:57 02.09.2019
2444 Thunderstorm 24 1005 94 2500 1 220 18:37 02.09.2019
2445 Thunderstorm 24 1005 94 2000 2.96 255.118 18:18 02.09.2019
2446 Thunderstorm 26 1005 88 1500 3.1 270 17:40 02.09.2019
2447 Thunderstorm 26 1005 88 1000 4.1 330 17:21 02.09.2019
2448 Thunderstorm 26 1005 88 1000 4.1 330 17:00 02.09.2019
2449 Thunderstorm 26 1004 88 1500 3.6 340 16:39 02.09.2019
2450 Thunderstorm 27 1003 88 3000 2.96 255.118 16:20 02.09.2019
2451 Haze 27 1003 88 4000 2.96 255.118 15:49 02.09.2019
2452 Haze 27 1003 88 4000 2.96 255.118 15:29 02.09.2019
2453 Haze 27 1003 88 4000 2.61 262.655 14:58 02.09.2019
2454 Haze 28 1002 88 4000 1 200 14:40 02.09.2019
2455 Haze 29 1002 79 4000 1 250 14:22 02.09.2019
2456 Haze 29 1002 79 4000 1 250 13:56 02.09.2019
2457 Haze 28 1002 83 4000 2.1 240 13:37 02.09.2019
2458 Haze 28 1002 83 4000 2.1 240 13:19 02.09.2019
2459 Haze 28 1002 83 3000 1.5 270 12:45 02.09.2019
2460 Haze 28 1002 83 3000 1.5 270 12:25 02.09.2019
2461 Haze 28 1002 83 3000 1.5 270 12:25 02.09.2019
2462 Haze 28 1003 83 3000 2.6 250 11:58 02.09.2019
2463 Rain 27 1003 88 3000 1 250 11:39 02.09.2019
2464 Rain 27 1003 88 3000 2.1 250 11:21 02.09.2019
2465 Rain 27 1003 88 3000 2.1 250 10:57 02.09.2019
2466 Rain 27 1004 88 3000 1.5 240 10:38 02.09.2019
2467 Rain 27 1004 88 3000 1.5 240 10:38 02.09.2019
2468 Rain 26 1004 94 3000 1.5 240 10:19 02.09.2019
2469 Rain 26 1005 94 2500 1.5 260 09:46 02.09.2019
2470 Rain 26 1005 94 2500 1.5 260 09:22 02.09.2019
2471 Rain 26 1006 94 2500 1 170 08:45 02.09.2019
2472 Rain 26 1006 94 2500 1 170 08:24 02.09.2019
2473 Rain 26 1006 94 2500 2.1 220 07:59 02.09.2019
2474 Rain 26 1007 94 2500 1 220 07:40 02.09.2019
2475 Rain 26 1007 94 2500 1 230 07:21 02.09.2019
2476 Rain 26 1006 88 2500 1.5 240 06:44 02.09.2019
2477 -273 0 0 0 0 0 06:25 02.09.2019
2478 Haze 25 1006 94 2500 2.1 240 05:47 02.09.2019
2479 Haze 25 1006 94 2500 1.5 250 05:18 02.09.2019
2480 Haze 25 1004 94 3000 1.5 220 02:59 02.09.2019
2481 Haze 25 1004 94 3000 1 220 01:45 02.09.2019
2482 Haze 26 1003 88 3000 2.1 270 00:47 02.09.2019
2483 Haze 26 1003 88 3000 2.1 270 00:28 02.09.2019
2484 Haze 25 1003 94 3000 1.5 200 23:43 01.09.2019
2485 Haze 26 1003 94 3000 1.5 200 23:22 01.09.2019
2486 Haze 26 1003 94 3000 1.5 200 22:58 01.09.2019
2487 Haze 26 1004 94 3000 4.66 249.42 22:39 01.09.2019
2488 Haze 26 1004 94 3000 4.66 249.42 22:39 01.09.2019
2489 Haze 26 1004 94 3000 4.66 249.42 22:19 01.09.2019
2490 Haze 26 1004 94 3000 4.66 249.42 21:57 01.09.2019
2491 Haze 26 1004 94 3000 2.74 251.492 21:37 01.09.2019
2492 Haze 26 1005 94 3000 4.65 222.839 21:19 01.09.2019
2493 Haze 26 1005 94 3000 4.65 222.839 20:56 01.09.2019
2494 Haze 26 1005 94 3000 1 210 20:36 01.09.2019
2495 Haze 27 1005 88 3000 2.1 210 20:18 01.09.2019
2496 Haze 27 1005 88 3000 2.1 210 19:55 01.09.2019
2497 -273 0 0 0 0 0 19:55 01.09.2019
2498 Haze 27 1005 88 3000 2.1 210 19:37 01.09.2019
2499 Haze 27 1005 88 3000 2.1 210 19:18 01.09.2019
2500 Haze 27 1005 88 3000 4.65 222.839 18:41 01.09.2019
2501 Haze 27 1004 88 3000 1 170 18:23 01.09.2019
2502 Haze 27 1004 88 3000 1 140 17:55 01.09.2019
2503 Haze 27 1004 88 3000 1 140 17:36 01.09.2019
2504 Haze 27 1004 88 3000 1 140 17:36 01.09.2019
2505 Haze 27 1003 88 3000 1.5 170 17:18 01.09.2019
2506 Haze 27 1003 88 3000 1.5 160 16:39 01.09.2019
2507 Haze 28 1003 88 3000 1 180 16:18 01.09.2019
2508 Haze 28 1002 88 3000 1 180 15:45 01.09.2019
2509 Haze 28 1002 88 3000 1 180 15:26 01.09.2019
2510 Haze 29 1001 83 3000 1 160 14:55 01.09.2019
2511 Haze 29 1001 83 3000 1 160 14:37 01.09.2019
2512 Haze 29 1000 83 3000 1 160 14:18 01.09.2019
2513 Haze 29 1001 89 3000 0.5 130 13:41 01.09.2019
2514 Haze 28 1001 88 2500 1.5 160 13:23 01.09.2019
2515 Haze 28 1001 88 2500 1.5 160 12:55 01.09.2019
2516 Haze 28 1001 88 2500 1.5 160 12:55 01.09.2019
2517 Rain 27 1001 94 2500 1.5 130 12:36 01.09.2019
2518 Rain 27 1001 94 2500 1 90 12:18 01.09.2019
2519 Rain 28 1002 88 2000 1.5 170 11:39 01.09.2019
2520 Haze 29 1003 79 4000 2.6 170 11:19 01.09.2019
2521 Haze 30 1003 74 4000 2.6 160 10:46 01.09.2019
2522 Haze 30 1003 74 4000 2.6 160 10:46 01.09.2019
2523 Haze 30 1003 74 4000 2.6 160 10:24 01.09.2019
2524 Haze 30 1003 74 4000 2.1 220 09:59 01.09.2019
2525 Haze 29 1004 79 4000 2.1 230 09:41 01.09.2019
2526 Haze 29 1004 79 4000 2.1 230 09:22 01.09.2019
2527 Haze 28 1005 78 3000 1 260 08:43 01.09.2019
2528 Haze 28 1005 78 3000 1 260 08:22 01.09.2019
2529 Haze 27 1005 88 3000 1 220 07:46 01.09.2019
2530 Haze 27 1005 88 3000 1 190 07:22 01.09.2019
2531 Haze 26 1005 94 2500 1 210 06:39 01.09.2019
2532 Haze 26 1004 94 2500 1 220 05:59 01.09.2019
2533 Haze 26 1004 94 2500 1 220 05:59 01.09.2019
2534 Haze 26 1004 94 2000 1 240 05:27 01.09.2019
2535 Mist 25 1003 94 1500 3.86 301.917 04:19 01.09.2019
2536 Mist 25 1003 94 1500 3.86 301.917 03:37 01.09.2019
2537 Rain 25 1003 94 2000 2.96 297.179 02:40 01.09.2019
2538 Rain 24 1002 100 2000 2.96 297.179 02:22 01.09.2019
2539 Rain 24 1002 100 2000 1.5 200 01:30 01.09.2019
2540 Rain 24 1002 100 2000 2.4 310.902 00:59 01.09.2019
2541 Rain 24 1002 100 2000 2.4 310.902 00:40 01.09.2019
2542 Rain 24 1002 100 2000 2.8 279.146 00:20 01.09.2019
2543 Haze 24 1002 100 3000 2.8 279.146 23:43 31.08.2019
2544 Haze 24 1002 94 3000 2.8 279.146 23:21 31.08.2019
2545 Haze 24 1002 94 3000 2.8 279.146 22:55 31.08.2019
2546 Haze 24 1002 94 3000 2.8 279.146 22:37 31.08.2019
2547 Haze 24 1003 94 3000 2.8 279.146 22:19 31.08.2019
2548 Haze 24 1003 94 3000 2.8 279.146 21:44 31.08.2019
2549 Haze 24 1003 94 3000 2.6 190 21:22 31.08.2019
2550 Haze 24 1003 94 3000 2.6 190 20:59 31.08.2019
2551 Haze 25 1003 94 3000 2.38 258.775 20:41 31.08.2019
2552 Haze 25 1003 94 3000 2.38 258.775 20:22 31.08.2019
2553 Haze 25 1003 94 3000 2.38 258.775 19:41 31.08.2019
2554 Haze 25 1003 94 3000 2.38 258.775 19:22 31.08.2019
2555 Haze 25 1003 94 3000 2.38 258.775 18:56 31.08.2019
2556 Haze 25 1003 94 3000 2.38 258.775 18:37 31.08.2019
2557 Haze 25 1002 94 3000 2.91 258.335 18:19 31.08.2019
2558 Haze 25 1002 94 3000 2.91 258.335 17:54 31.08.2019
2559 Haze 25 1002 94 3000 2.91 258.335 17:36 31.08.2019
2560 Haze 25 1002 94 3000 2.91 258.335 17:36 31.08.2019
2561 Haze 25 1002 94 3000 1.5 210 17:18 31.08.2019
2562 Haze 25 1001 94 3000 2.91 258.335 16:42 31.08.2019
2563 Haze 25 1001 94 3000 2.91 258.335 16:23 31.08.2019
2564 Haze 25 1001 94 3000 1 220 15:59 31.08.2019
2565 Haze 25 1000 94 3000 1 240 15:40 31.08.2019
2566 Haze 25 1000 94 3000 1 230 15:18 31.08.2019
2567 Haze 25 999 94 3000 1.5 240 14:42 31.08.2019
2568 Haze 25 999 94 3000 1.5 240 14:24 31.08.2019
2569 Haze 25 999 94 3000 1.5 270 13:57 31.08.2019
2570 Thunderstorm 25 999 94 2000 1.5 260 13:38 31.08.2019
2571 Thunderstorm 24 1000 94 1000 1.5 260 13:19 31.08.2019
2572 Thunderstorm 25 1000 94 800 4.1 50 12:42 31.08.2019
2573 Thunderstorm 27 1000 88 1000 3.6 330 12:21 31.08.2019
2574 Thunderstorm 27 1000 88 1000 3.6 330 11:59 31.08.2019
2575 Haze 31 1000 74 4000 4.6 190 11:41 31.08.2019
2576 Haze 31 1000 74 4000 4.6 190 11:41 31.08.2019
2577 Haze 32 1000 66 5000 1.5 190 11:23 31.08.2019
2578 Haze 32 1000 66 5000 1.5 190 10:55 31.08.2019
2579 Haze 31 1001 70 3000 2.96 264.438 10:36 31.08.2019
2580 Haze 31 1001 66 3000 1.5 240 10:18 31.08.2019
2581 Haze 30 1002 74 3000 1.5 330 09:40 31.08.2019
2582 Haze 29 1002 79 2500 1.5 250 09:21 31.08.2019
2583 Haze 29 1003 79 2500 2.1 240 08:45 31.08.2019
2584 Haze 29 1003 79 2500 2.1 240 08:45 31.08.2019
2585 Haze 29 1003 79 2500 2.1 240 08:27 31.08.2019
2586 Haze 29 1003 79 2500 2.1 300 07:58 31.08.2019
2587 Haze 28 1003 83 2500 3.45 267.038 07:37 31.08.2019
2588 Haze 27 1003 88 2500 3.45 267.038 07:18 31.08.2019
2589 Haze 26 1003 94 2500 3.45 267.038 06:26 31.08.2019
2590 Drizzle 26 1003 94 2000 2.1 280 05:50 31.08.2019
2591 Drizzle 26 1003 94 2000 2.1 280 05:27 31.08.2019
2592 Mist 26 1003 94 2000 2.17 255.222 04:28 31.08.2019
2593 Mist 25 1002 94 2000 1 230 03:42 31.08.2019
2594 Mist 25 1001 94 2000 1.5 230 02:22 31.08.2019
2595 Mist 25 1002 94 2000 1.5 230 01:47 31.08.2019
2596 Mist 25 1002 100 2000 1.5 240 01:28 31.08.2019
2597 Mist 25 1002 100 2000 1.5 230 00:46 31.08.2019
2598 Mist 25 1002 100 2000 1.5 230 00:46 31.08.2019
2599 Mist 25 1002 100 2000 1.84 316.412 00:27 31.08.2019
2600 Mist 25 1002 94 2000 2.48 319.293 23:49 30.08.2019
2601 Mist 25 1002 94 2000 2.48 319.293 23:19 30.08.2019
2602 Mist 25 1002 94 2000 2.48 319.293 22:58 30.08.2019
2603 Haze 25 1003 100 2500 2.48 319.293 22:38 30.08.2019
2604 Haze 25 1002 94 2500 2.48 319.293 22:19 30.08.2019
2605 Haze 25 1002 94 2500 2.48 319.293 21:56 30.08.2019
2606 Haze 25 1003 100 2500 3.41 315.737 21:36 30.08.2019
2607 Haze 25 1003 100 2500 3.77 311.137 21:18 30.08.2019
2608 Haze 25 1003 100 2500 3.77 311.137 21:18 30.08.2019
2609 Haze 25 1003 100 2500 3.77 311.137 20:55 30.08.2019
2610 Haze 25 1003 94 2500 3.77 311.137 20:37 30.08.2019
2611 Thunderstorm 25 1003 100 2500 3.77 311.137 20:18 30.08.2019
2612 Thunderstorm 25 1003 100 2500 3.77 311.137 19:41 30.08.2019
2613 Thunderstorm 25 1003 100 2500 3.77 311.137 19:22 30.08.2019
2614 Haze 25 1003 100 2500 1.5 250 18:59 30.08.2019
2615 Haze 25 1003 100 2500 1.5 250 18:41 30.08.2019
2616 Haze 25 1003 100 2500 1.5 210 18:22 30.08.2019
2617 Haze 25 1003 100 2500 1.5 170 17:56 30.08.2019
2618 Haze 25 1003 100 2500 1.5 170 17:38 30.08.2019
2619 Haze 25 1002 94 2500 3.2 312.48 17:18 30.08.2019
2620 Clouds 25 1002 100 0 3.2 312.48 16:44 30.08.2019
2621 Clouds 25 1002 100 0 3.2 312.48 16:25 30.08.2019
2622 Rain 25 1001 94 2500 3.2 312.48 15:55 30.08.2019
2623 Rain 25 1001 94 2000 3.2 312.48 15:36 30.08.2019
2624 Rain 25 1002 100 2000 3.18 295.261 15:18 30.08.2019
2625 Thunderstorm 25 1001 94 2000 3.1 300 14:42 30.08.2019
2626 Thunderstorm 25 1001 94 2000 3.1 300 14:23 30.08.2019
2627 Thunderstorm 25 1001 94 2000 3.18 295.261 13:45 30.08.2019
2628 Thunderstorm 25 1001 94 2000 3.15 299.548 13:23 30.08.2019
2629 Thunderstorm 25 1001 94 2000 3.15 299.548 12:59 30.08.2019
2630 Thunderstorm 25 1002 94 1500 3.15 299.548 12:41 30.08.2019
2631 Thunderstorm 25 1002 94 1500 2.6 340 12:22 30.08.2019
2632 Thunderstorm 26 1002 88 2500 2.6 220 11:43 30.08.2019
2633 Thunderstorm 26 1002 88 2500 2.6 220 11:25 30.08.2019
2634 Thunderstorm 26 1002 88 2500 2.6 220 10:57 30.08.2019
2635 Haze 31 1002 70 3000 3.1 300 10:36 30.08.2019
2636 Haze 31 1003 66 3000 3.66 290.325 10:18 30.08.2019
2637 Rain 31 1003 66 3000 1.5 290 09:42 30.08.2019
2638 Haze 31 1004 70 4000 1.5 310 09:20 30.08.2019
2639 Haze 31 1004 70 4000 1.5 310 08:57 30.08.2019
2640 Haze 30 1005 70 4000 2.1 290 08:38 30.08.2019
2641 Haze 30 1005 74 4000 2.6 300 08:20 30.08.2019
2642 Haze 30 1005 74 4000 2.6 300 07:42 30.08.2019
2643 Haze 29 1005 74 4000 3.1 280 07:23 30.08.2019
2644 Haze 29 1005 74 4000 2.1 310 06:47 30.08.2019
2645 Haze 29 1005 74 4000 2.1 310 06:29 30.08.2019
2646 Haze 28 1005 83 4000 2.1 290 05:54 30.08.2019
2647 Haze 25 1004 100 3000 4.1 329.36 04:20 30.08.2019
2648 Haze 25 1004 100 3000 4.1 329.36 04:20 30.08.2019
2649 Haze 25 1004 100 3000 4.1 329.36 03:38 30.08.2019
2650 Haze 25 1004 100 3000 4.1 329.36 03:38 30.08.2019
2651 Haze 25 1004 100 3000 3.47 326.2 03:18 30.08.2019
2652 Haze 25 1004 100 3000 3.47 326.2 02:29 30.08.2019
2653 Haze 26 1004 94 3000 3.54 324.065 01:30 30.08.2019
2654 Haze 25 1004 100 3000 3.54 324.065 00:45 30.08.2019
2655 Haze 25 1004 100 3000 3.16 303.433 00:18 30.08.2019
2656 Haze 25 1004 100 3000 3.16 303.433 23:41 29.08.2019
2657 Haze 25 1004 100 3000 3.16 303.433 23:21 29.08.2019
2658 Haze 25 1004 100 3000 3.16 303.433 23:21 29.08.2019
2659 Haze 25 1005 100 3000 3.16 303.433 22:44 29.08.2019
2660 Haze 25 1005 100 3000 3.16 303.433 22:26 29.08.2019
2661 Haze 25 1005 100 3000 2.53 299.512 21:57 29.08.2019
2662 Haze 26 1005 94 3000 2.53 299.512 21:39 29.08.2019
2663 Haze 26 1006 94 3000 2.79 302.86 21:21 29.08.2019
2664 Haze 26 1006 94 3000 2.79 302.86 21:21 29.08.2019
2665 Haze 26 1006 94 3000 2.79 302.86 20:54 29.08.2019
2666 Haze 26 1006 94 3000 2.79 302.86 20:36 29.08.2019
2667 Haze 26 1006 94 3000 2.79 302.86 20:18 29.08.2019
2668 Haze 26 1006 94 3000 2.79 302.86 19:46 29.08.2019
2669 Haze 26 1006 94 3000 2.79 302.86 19:25 29.08.2019
2670 Haze 26 1006 94 3000 2.79 302.86 18:45 29.08.2019
2671 Haze 26 1006 94 3000 1.99 297.441 18:21 29.08.2019
2672 Haze 26 1006 94 3000 1.99 297.441 17:58 29.08.2019
2673 Haze 26 1006 94 3000 1.99 297.441 17:39 29.08.2019
2674 Haze 26 1006 94 3000 1.99 297.441 17:20 29.08.2019
2675 Haze 26 1005 94 3000 1.99 297.441 16:59 29.08.2019
2676 Rain 26 1005 94 3000 1.99 297.441 16:40 29.08.2019
2677 Rain 26 1005 94 3000 1.99 297.441 16:22 29.08.2019
2678 Rain 26 1005 94 3000 1.99 297.441 16:22 29.08.2019
2679 Rain 25 1004 100 2000 1 200 15:40 29.08.2019
2680 Rain 30 1003 74 1200 3.1 310 15:21 29.08.2019
2681 Rain 30 1003 74 1200 3.1 310 14:57 29.08.2019
2682 Rain 30 1003 74 1200 3.1 310 14:37 29.08.2019
2683 Haze 30 1002 74 4000 2.6 200 14:19 29.08.2019
2684 Haze 30 1002 74 4000 2.6 200 13:55 29.08.2019
2685 Haze 30 1002 74 5000 1.5 250 13:37 29.08.2019
2686 Haze 30 1003 74 5000 2.6 260 13:18 29.08.2019
2687 Haze 30 1003 74 5000 2.6 260 12:55 29.08.2019
2688 Haze 30 1003 74 5000 1 340 12:36 29.08.2019
2689 Haze 29 1005 70 5000 3.1 280 12:18 29.08.2019
2690 Haze 29 1005 70 5000 3.1 280 11:41 29.08.2019
2691 Haze 29 1005 70 4000 2.6 270 11:20 29.08.2019
2692 Haze 29 1005 70 4000 2.6 270 10:57 29.08.2019
2693 Haze 27 1006 83 4000 3.65 264.729 10:38 29.08.2019
2694 Haze 27 1007 83 3000 2.1 270 10:19 29.08.2019
2695 Haze 26 1007 83 3000 3.1 290 09:41 29.08.2019
2696 Haze 26 1008 83 3000 3.6 310 09:18 29.08.2019
2697 Haze 26 1008 83 3000 2.1 310 08:45 29.08.2019
2698 Haze 26 1008 83 3000 2.1 310 08:25 29.08.2019
2699 Haze 26 1009 83 3000 2.1 340 07:54 29.08.2019
2700 Haze 26 1009 83 3000 2.1 300 07:34 29.08.2019
2701 Haze 26 1009 83 3000 2.1 300 07:34 29.08.2019
2702 Haze 26 1009 83 3000 2.6 310 06:57 29.08.2019
2703 Rain 25 1009 88 3000 3.1 320 06:37 29.08.2019
2704 Haze 26 1008 83 3000 1.5 330 05:52 29.08.2019
2705 Haze 26 1008 83 3000 3.6 310 05:21 29.08.2019
2706 Haze 26 1008 83 3000 2.6 310 04:47 29.08.2019
2707 Haze 26 1008 83 3000 2.6 310 04:26 29.08.2019
2708 Haze 25 1006 94 3000 0.81 303.16 01:54 29.08.2019
2709 Haze 25 1006 94 3000 1.31 332.733 01:35 29.08.2019
2710 Haze 25 1006 94 3000 1.31 332.733 00:47 29.08.2019
2711 Haze 26 1006 88 3000 1.8 305.868 00:23 29.08.2019
2712 Haze 26 1006 88 3000 1.8 305.868 23:57 28.08.2019
2713 Haze 26 1006 88 3000 1.8 305.868 23:38 28.08.2019
2714 Haze 26 1006 88 3000 1.8 305.868 23:19 28.08.2019
2715 Haze 26 1007 88 3000 1.8 305.868 22:40 28.08.2019
2716 Haze 26 1007 88 3000 1.8 305.868 22:19 28.08.2019
2717 Haze 26 1007 88 3000 1.78 306.6 21:59 28.08.2019
2718 Haze 26 1007 88 3000 1.78 306.6 21:41 28.08.2019
2719 Haze 26 1007 88 3000 2.14 259.393 21:22 28.08.2019
2720 Haze 25 1007 94 3000 2.14 259.393 20:56 28.08.2019
2721 Haze 25 1007 94 3000 2.14 259.393 20:38 28.08.2019
2722 Haze 26 1007 88 3000 2.14 259.393 20:19 28.08.2019
2723 Haze 26 1007 88 3000 2.14 259.393 19:42 28.08.2019
2724 Haze 26 1007 88 3000 2.14 259.393 19:21 28.08.2019
2725 Haze 26 1006 88 3000 1 210 18:57 28.08.2019
2726 Haze 26 1006 88 3000 1 210 18:37 28.08.2019
2727 Haze 27 1006 83 3000 1.5 210 18:18 28.08.2019
2728 Haze 27 1006 83 3000 1.5 250 17:38 28.08.2019
2729 Haze 27 1006 83 3000 2.82 243.571 17:19 28.08.2019
2730 Haze 27 1005 83 3000 1.5 200 16:44 28.08.2019
2731 Haze 27 1005 83 3000 1.5 200 16:23 28.08.2019
2732 Haze 27 1005 83 3000 1.5 200 15:59 28.08.2019
2733 Haze 28 1005 78 4000 1.5 210 15:37 28.08.2019
2734 Haze 28 1004 78 4000 2.1 200 15:19 28.08.2019
2735 Haze 28 1004 78 4000 2.1 200 14:57 28.08.2019
2736 Haze 29 1004 74 4000 2.6 200 14:38 28.08.2019
2737 Haze 29 1004 74 4000 2.6 200 14:20 28.08.2019
2738 Haze 29 1004 74 4000 2.6 200 13:58 28.08.2019
2739 Haze 29 1004 74 4000 2.6 180 13:37 28.08.2019
2740 Haze 30 1004 66 4000 3.1 210 13:19 28.08.2019
2741 Haze 30 1004 70 4000 3.1 210 12:42 28.08.2019
2742 Haze 30 1005 70 4000 4.1 220 12:23 28.08.2019
2743 Haze 30 1005 70 4000 4.1 220 11:55 28.08.2019
2744 Haze 30 1005 70 4000 2.6 230 11:36 28.08.2019
2745 Haze 30 1005 66 4000 3.6 220 11:18 28.08.2019
2746 Haze 30 1006 66 4000 3.1 220 10:41 28.08.2019
2747 Haze 29 1006 70 4000 3.6 240 10:21 28.08.2019
2748 Haze 29 1006 70 4000 3.6 240 09:59 28.08.2019
2749 Haze 29 1007 70 4000 3.6 240 09:40 28.08.2019
2750 Haze 29 1007 70 4000 3.1 250 09:19 28.08.2019
2751 Haze 28 1007 74 4000 2.6 260 08:39 28.08.2019
2752 Haze 27 1007 78 3000 2.1 260 08:20 28.08.2019
2753 Haze 27 1007 78 3000 1.5 290 07:42 28.08.2019
2754 Haze 27 1007 78 3000 2.1 280 07:24 28.08.2019
2755 Haze 26 1007 83 3000 2.1 260 06:55 28.08.2019
2756 Haze 26 1007 83 3000 2.1 260 06:36 28.08.2019
2757 Haze 25 1006 83 3000 1.5 240 05:43 28.08.2019
2758 Haze 23 1005 100 3000 1.5 190 02:50 28.08.2019
2759 Haze 23 1005 100 3000 1.5 200 01:32 28.08.2019
2760 Haze 23 1005 100 3000 2.84 231.041 00:59 28.08.2019
2761 Haze 23 1005 100 3000 1 170 00:40 28.08.2019
2762 Haze 24 1005 94 3000 1 180 23:59 27.08.2019
2763 Haze 24 1005 94 3000 2.61 257.111 23:39 27.08.2019
2764 Haze 24 1004 94 3000 1 200 23:21 27.08.2019
2765 Haze 24 1005 94 3000 1 190 22:43 27.08.2019
2766 Haze 24 1005 94 3000 1 190 22:23 27.08.2019
2767 Haze 24 1005 94 3000 1 210 21:58 27.08.2019
2768 Haze 24 1005 94 3000 1 210 21:58 27.08.2019
2769 Haze 24 1005 94 3000 3.46 252.968 21:39 27.08.2019
2770 Haze 24 1005 88 3000 4.64 248.405 21:21 27.08.2019
2771 Haze 24 1005 88 3000 4.64 248.405 20:59 27.08.2019
2772 Haze 24 1006 94 3000 1 270 20:40 27.08.2019
2773 Haze 24 1006 94 3000 1.5 240 20:20 27.08.2019
2774 Haze 24 1006 94 3000 1.5 240 19:56 27.08.2019
2775 Haze 24 1006 94 3000 2.1 230 19:38 27.08.2019
2776 Haze 24 1006 94 3000 2.1 230 19:20 27.08.2019
2777 Haze 25 1006 88 3000 1 230 18:42 27.08.2019
2778 Haze 25 1005 88 3000 2.1 230 18:19 27.08.2019
2779 Haze 24 1005 88 3000 1.5 230 17:56 27.08.2019
2780 Haze 24 1005 88 3000 1.5 230 17:38 27.08.2019
2781 Haze 24 1004 94 3000 2.1 230 17:19 27.08.2019
2782 Haze 24 1004 88 3000 1.5 260 16:47 27.08.2019
2783 Haze 24 1004 88 3000 1.5 260 16:28 27.08.2019
2784 Haze 24 1003 88 3000 3.1 240 15:57 27.08.2019
2785 Haze 25 1003 88 3000 2.6 230 15:39 27.08.2019
2786 Haze 25 1003 88 3000 2.1 230 15:20 27.08.2019
2787 Haze 25 1003 88 3000 2.1 230 14:43 27.08.2019
2788 Haze 25 1003 88 3000 2.1 230 14:24 27.08.2019
2789 Haze 25 1003 88 3000 3.1 210 13:59 27.08.2019
2790 Haze 25 1003 83 3000 4.1 220 13:41 27.08.2019
2791 Haze 25 1003 83 3000 3.6 220 13:20 27.08.2019
2792 Haze 26 1003 83 3000 4.1 230 12:42 27.08.2019
2793 Haze 26 1003 83 4000 4.1 210 12:20 27.08.2019
2794 Haze 26 1003 78 4000 4.1 220 11:57 27.08.2019
2795 Haze 26 1003 78 4000 4.1 220 11:37 27.08.2019
2796 Haze 26 1002 83 4000 4.1 240 11:18 27.08.2019
2797 Haze 26 1002 83 4000 4.1 240 11:18 27.08.2019
2798 Haze 26 1003 83 4000 3.1 230 10:41 27.08.2019
2799 Haze 26 1004 83 4000 2.6 220 10:19 27.08.2019
2800 Haze 26 1004 83 4000 2.6 220 10:19 27.08.2019
2801 Haze 26 1004 83 4000 2.6 220 09:55 27.08.2019
2802 Haze 26 1004 78 4000 2.6 250 09:36 27.08.2019
2803 Haze 27 1005 78 4000 3.1 250 09:18 27.08.2019
2804 Haze 27 1005 78 4000 3.1 250 08:42 27.08.2019
2805 Haze 26 1005 78 3000 2.6 260 08:23 27.08.2019
2806 Haze 25 1005 83 3000 4.1 240 07:42 27.08.2019
2807 Haze 25 1005 83 3000 3.1 240 07:20 27.08.2019
2808 Haze 25 1005 83 3000 3.1 240 06:58 27.08.2019
2809 Haze 25 1005 83 3000 4.6 250 06:37 27.08.2019
2810 Haze 25 1005 83 3000 3.6 260 06:18 27.08.2019
2811 Haze 24 1005 88 3000 1.5 230 05:24 27.08.2019
2812 Haze 23 1004 94 3000 1.5 220 03:42 27.08.2019
2813 Haze 24 1003 88 3000 2.1 240 02:26 27.08.2019
2814 Haze 24 1003 88 3000 2.1 240 01:45 27.08.2019
2815 Haze 24 1003 88 3000 2.1 240 01:23 27.08.2019
2816 Haze 24 1003 88 3000 1.5 240 00:46 27.08.2019
2817 Haze 24 1003 88 3000 1 250 00:25 27.08.2019
2818 Haze 24 1003 88 3000 2.1 230 23:40 26.08.2019
2819 Haze 24 1003 88 3000 2.1 230 23:21 26.08.2019
2820 Haze 24 1003 88 3000 2.1 230 22:54 26.08.2019
2821 Haze 24 1003 88 3000 2.6 220 22:36 26.08.2019
2822 Haze 24 1003 88 3000 2.6 220 22:18 26.08.2019
2823 Haze 24 1004 88 3000 1.5 220 21:39 26.08.2019
2824 Haze 24 1004 88 3000 1.5 220 21:20 26.08.2019
2825 Haze 24 1004 94 3000 1.5 220 20:57 26.08.2019
2826 Haze 24 1005 94 3000 1.5 230 20:38 26.08.2019
2827 Haze 24 1005 94 3000 1.5 230 20:19 26.08.2019
2828 Haze 24 1005 94 3000 2.1 230 19:44 26.08.2019
2829 Haze 24 1005 94 3000 2.1 230 19:20 26.08.2019
2830 Haze 24 1005 94 3000 1.5 240 18:59 26.08.2019
2831 Haze 24 1005 94 3000 1.5 240 18:38 26.08.2019
2832 Haze 24 1004 94 3000 1 230 18:20 26.08.2019
2833 Haze 24 1004 94 3000 1 230 17:55 26.08.2019
2834 Haze 24 1004 94 3000 1.5 220 17:37 26.08.2019
2835 Haze 25 1003 88 3000 2.1 230 17:18 26.08.2019
2836 Haze 25 1003 88 3000 2.1 230 16:55 26.08.2019
2837 Haze 25 1003 88 3000 3.6 220 16:37 26.08.2019
2838 Haze 25 1003 88 3000 3.1 230 16:18 26.08.2019
2839 Haze 25 1003 88 3000 3.1 230 15:41 26.08.2019
2840 Haze 25 1003 88 3000 3.1 230 15:21 26.08.2019
2841 Haze 26 1003 83 3000 4.6 240 14:45 26.08.2019
2842 Haze 26 1003 83 3000 4.6 240 14:23 26.08.2019
2843 Haze 26 1003 83 3000 4.1 260 13:59 26.08.2019
2844 Haze 26 1003 83 3000 4.6 250 13:38 26.08.2019
2845 Haze 27 1002 78 3000 3.6 230 13:19 26.08.2019
2846 Haze 27 1002 78 3000 3.6 260 12:43 26.08.2019
2847 Haze 27 1002 78 3000 3.6 260 12:24 26.08.2019
2848 Haze 27 1003 78 3000 3.1 270 11:56 26.08.2019
2849 Haze 27 1003 83 3000 3.6 250 11:36 26.08.2019
2850 Haze 27 1003 83 3000 3.6 250 11:18 26.08.2019
2851 Haze 27 1003 78 3000 3.1 240 10:42 26.08.2019
2852 Haze 27 1003 78 3000 3.1 240 10:21 26.08.2019
2853 Drizzle 26 1003 83 3000 3.1 250 09:57 26.08.2019
2854 Drizzle 26 1003 83 3000 3.1 250 09:57 26.08.2019
2855 Drizzle 26 1004 88 3000 3.1 250 09:37 26.08.2019
2856 Drizzle 26 1004 88 3000 3.1 250 09:19 26.08.2019
2857 Haze 26 1004 88 3000 4.1 250 08:42 26.08.2019
2858 Haze 26 1004 88 3000 4.1 250 08:22 26.08.2019
2859 Haze 25 1004 94 3000 2.6 250 07:59 26.08.2019
2860 Haze 25 1005 94 3000 3.1 240 07:40 26.08.2019
2861 Haze 25 1005 94 3000 3.1 240 07:21 26.08.2019
2862 Rain 25 1005 94 2000 3.1 240 06:41 26.08.2019
2863 Rain 25 1005 94 2000 3.1 240 06:21 26.08.2019
2864 Rain 24 1005 100 2000 3.1 230 05:48 26.08.2019
2865 Rain 24 1004 94 2000 1.5 200 04:25 26.08.2019
2866 Rain 24 1003 94 2500 2.1 240 02:51 26.08.2019
2867 Haze 24 1002 94 3000 3.1 270 01:27 26.08.2019
2868 Haze 24 1002 94 3000 3.1 270 00:48 26.08.2019
2869 Haze 24 1002 94 3000 3.1 270 00:28 26.08.2019
2870 Haze 24 1002 94 3000 3.1 270 23:58 25.08.2019
2871 Haze 25 1002 88 3000 3.1 270 23:39 25.08.2019
2872 Haze 25 1002 88 3000 3.1 270 23:18 25.08.2019
2873 Haze 25 1002 88 3000 2.1 280 22:54 25.08.2019
2874 Haze 25 1003 88 3000 2.6 260 22:36 25.08.2019
2875 Haze 25 1003 88 3000 2.6 260 22:36 25.08.2019
2876 Haze 25 1003 88 3000 1.5 240 22:18 25.08.2019
2877 Haze 25 1003 88 3000 1.5 240 21:41 25.08.2019
2878 Haze 25 1003 88 3000 1.5 240 21:19 25.08.2019
2879 Haze 25 1004 88 3000 1 230 20:59 25.08.2019
2880 Haze 25 1004 88 3000 1 230 20:39 25.08.2019
2881 Haze 25 1004 88 3000 1 230 20:19 25.08.2019
2882 -273 0 0 0 0 0 19:55 25.08.2019
2883 Haze 25 1005 88 3000 2.6 240 19:37 25.08.2019
2884 Haze 25 1005 88 3000 2.6 240 19:37 25.08.2019
2885 Haze 25 1005 88 3000 2.6 240 19:18 25.08.2019
2886 -273 0 0 0 0 0 18:55 25.08.2019
2887 Haze 25 1005 88 3000 2.1 230 18:55 25.08.2019
2888 Haze 25 1005 88 3000 2.1 230 18:37 25.08.2019
2889 Haze 25 1004 88 3000 1 250 18:18 25.08.2019
2890 Haze 25 1004 88 3000 2.1 250 17:40 25.08.2019
2891 Haze 25 1004 88 3000 2.1 250 17:21 25.08.2019
2892 Haze 25 1003 88 3000 3.1 230 16:43 25.08.2019
2893 Haze 25 1003 88 3000 3.1 230 16:23 25.08.2019
2894 Haze 25 1003 88 3000 2.1 240 15:57 25.08.2019
2895 Haze 26 1003 83 3000 3.6 250 15:39 25.08.2019
2896 Haze 26 1003 83 3000 3.6 250 15:20 25.08.2019
2897 Haze 26 1002 88 3000 3.69 292.107 14:40 25.08.2019
2898 Haze 26 1002 88 3000 3.69 292.107 14:22 25.08.2019
2899 Haze 26 1002 88 3000 3.1 240 13:46 25.08.2019
2900 Haze 26 1002 88 3000 3.1 240 13:22 25.08.2019
2901 Haze 26 1002 83 3000 4.1 250 12:56 25.08.2019
2902 Haze 26 1002 88 3000 3.1 250 12:38 25.08.2019
2903 Haze 26 1002 88 3000 3.1 250 12:20 25.08.2019
2904 Haze 25 1002 88 3000 4.1 260 11:56 25.08.2019
2905 Rain 25 1002 88 2000 4.1 250 11:36 25.08.2019
2906 Rain 25 1002 88 2000 4.1 250 11:18 25.08.2019
2907 Rain 24 1003 94 1800 3.6 230 10:41 25.08.2019
2908 Rain 24 1003 94 1800 3.6 230 10:21 25.08.2019
2909 Rain 25 1004 88 1800 4.6 260 09:59 25.08.2019
2910 Rain 26 1004 88 1800 3.6 260 09:41 25.08.2019
2911 Rain 26 1004 88 1800 3.6 260 09:22 25.08.2019
2912 Haze 25 1005 88 3000 4.1 260 08:44 25.08.2019
2913 Haze 25 1005 88 3000 4.1 260 08:22 25.08.2019
2914 Haze 25 1005 94 2000 2.6 240 07:45 25.08.2019
2915 Haze 25 1005 94 2000 2.6 240 07:23 25.08.2019
2916 Rain 24 1005 94 1000 3.1 260 06:31 25.08.2019
2917 Haze 25 1005 94 2000 2.1 250 04:58 25.08.2019
2918 Rain 24 1004 94 2000 2.6 260 03:37 25.08.2019
2919 Rain 24 1004 94 2000 4.1 280 02:40 25.08.2019
2920 Haze 25 1004 88 3000 2.1 290 01:42 25.08.2019
2921 Haze 25 1003 88 3000 2.1 270 00:40 25.08.2019
2922 Haze 25 1003 88 3000 2.1 270 00:21 25.08.2019
2923 Haze 25 1003 88 3000 1.5 290 23:52 24.08.2019
2924 Haze 25 1004 88 3000 1.5 260 23:23 24.08.2019
2925 Haze 25 1004 88 3000 3.11 281.916 22:56 24.08.2019
2926 Haze 25 1004 88 3000 3.11 281.916 22:38 24.08.2019
2927 Haze 25 1004 88 3000 3.11 281.916 22:19 24.08.2019
2928 Haze 25 1004 88 3000 3.11 281.916 21:56 24.08.2019
2929 Haze 25 1005 88 3000 1.5 230 21:38 24.08.2019
2930 Haze 25 1005 88 3000 1.5 230 21:19 24.08.2019
2931 Haze 25 1005 88 3000 1.5 230 20:55 24.08.2019
2932 Haze 25 1005 88 3000 1.5 240 20:37 24.08.2019
2933 Haze 25 1005 88 3000 1.5 240 20:18 24.08.2019
2934 Haze 25 1005 88 3000 1.5 240 20:18 24.08.2019
2935 Haze 25 1006 88 3000 3.63 294.585 19:55 24.08.2019
2936 Rain 25 1006 88 3000 1.5 260 19:37 24.08.2019
2937 Rain 25 1006 88 3000 2.1 250 19:18 24.08.2019
2938 Haze 25 1006 88 3000 3.6 270 18:41 24.08.2019
2939 Haze 25 1006 88 3000 3.6 270 18:21 24.08.2019
2940 Haze 25 1005 88 3000 2.6 260 17:44 24.08.2019
2941 Haze 25 1005 88 3000 2.6 260 17:24 24.08.2019
2942 Haze 25 1005 88 3000 2.1 230 16:51 24.08.2019
2943 Haze 25 1004 88 3000 1.5 260 16:21 24.08.2019
2944 Rain 26 1004 83 3000 4.1 270 15:59 24.08.2019
2945 Rain 26 1004 83 3000 4.1 270 15:59 24.08.2019
2946 Haze 26 1003 83 3000 4.6 280 15:40 24.08.2019
2947 Haze 26 1003 83 3000 4.6 280 15:22 24.08.2019
2948 Haze 27 1003 78 3000 5.1 270 14:43 24.08.2019
2949 Haze 27 1003 78 3000 5.1 270 14:22 24.08.2019
2950 Haze 26 1003 88 3000 2.6 240 13:57 24.08.2019
2951 Haze 26 1003 88 3000 2.6 240 13:57 24.08.2019
2952 Haze 25 1003 94 3000 2.6 250 13:39 24.08.2019
2953 Haze 25 1003 94 3000 2.6 250 13:21 24.08.2019
2954 Rain 25 1003 94 3000 2.6 240 12:55 24.08.2019
2955 Rain 25 1003 94 3000 4.1 240 12:37 24.08.2019
2956 Rain 25 1004 88 3000 5.7 250 12:19 24.08.2019
2957 Haze 27 1004 78 4000 6.2 260 11:43 24.08.2019
2958 Haze 27 1004 78 4000 6.2 260 11:22 24.08.2019
2959 Haze 28 1005 69 4000 6.7 260 10:52 24.08.2019
2960 Haze 29 1005 74 4000 4.1 250 10:24 24.08.2019
2961 Haze 29 1006 74 4000 5.7 270 09:45 24.08.2019
2962 Haze 29 1006 74 4000 5.7 270 09:22 24.08.2019
2963 Haze 29 1006 74 4000 7.2 260 08:58 24.08.2019
2964 Haze 28 1006 78 4000 4.6 260 08:40 24.08.2019
2965 Haze 28 1006 78 4000 4.6 260 08:21 24.08.2019
2966 Haze 28 1007 78 3000 4.6 280 07:49 24.08.2019
2967 Haze 28 1007 78 3000 4.6 280 07:27 24.08.2019
2968 Haze 27 1007 83 3000 3.1 270 06:29 24.08.2019
2969 Haze 26 1006 83 3000 3.1 280 05:42 24.08.2019
2970 Drizzle 25 1006 88 2500 2.6 260 04:46 24.08.2019
2971 Haze 25 1005 88 3000 4.1 280 03:37 24.08.2019
2972 Haze 25 1005 88 3000 2.99 303.887 02:26 24.08.2019
2973 Haze 25 1004 88 3000 2.1 280 01:31 24.08.2019
2974 Haze 25 1004 88 3000 2.1 280 00:53 24.08.2019
2975 Haze 25 1004 88 3000 1.5 270 00:26 24.08.2019
2976 Haze 25 1005 88 3000 2.84 295.825 23:58 23.08.2019
2977 Haze 25 1005 88 3000 2.84 295.825 23:37 23.08.2019
2978 Haze 25 1005 88 3000 2.84 295.825 23:18 23.08.2019
2979 Haze 25 1005 83 3000 2.84 295.825 22:42 23.08.2019
2980 Haze 25 1005 83 3000 2.84 295.825 22:23 23.08.2019
2981 Haze 25 1006 88 3000 2.1 280 21:40 23.08.2019
2982 Haze 25 1006 88 3000 2.1 280 21:21 23.08.2019
2983 Haze 26 1006 78 3000 2.1 270 20:57 23.08.2019
2984 Haze 26 1006 78 3000 2.1 270 20:38 23.08.2019
2985 Haze 26 1006 78 3000 2.1 270 20:19 23.08.2019
2986 Haze 26 1006 78 3000 2.1 270 20:19 23.08.2019
2987 Haze 26 1007 78 3000 3.1 280 19:43 23.08.2019
2988 Haze 26 1007 78 3000 3.1 280 19:18 23.08.2019
2989 Haze 26 1006 78 3000 3.1 290 18:46 23.08.2019
2990 Haze 26 1006 78 3000 3.1 290 18:28 23.08.2019
2991 Haze 26 1006 78 3000 3.6 280 17:56 23.08.2019
2992 Haze 27 1006 78 3000 3.1 270 17:38 23.08.2019
2993 Haze 27 1006 78 3000 3.1 270 17:20 23.08.2019
2994 Rain 25 1004 85 0 5 309.892 16:47 23.08.2019
2995 Rain 25 1004 85 0 5 309.892 16:29 23.08.2019
2996 Haze 29 1004 70 3000 4.6 280 15:56 23.08.2019
2997 Haze 29 1004 70 3000 4.6 280 15:37 23.08.2019
2998 Haze 29 1004 70 3000 4.6 280 15:19 23.08.2019
2999 Haze 29 1004 70 3000 4.1 290 14:41 23.08.2019
3000 Haze 29 1004 70 3000 4.1 290 14:21 23.08.2019
3001 Haze 29 1003 74 3000 5.7 280 13:57 23.08.2019
3002 Haze 30 1003 70 4000 5.7 290 13:39 23.08.2019
3003 Haze 30 1003 70 4000 5.7 290 13:20 23.08.2019
3004 Haze 31 1003 66 4000 5.1 280 12:57 23.08.2019
3005 Haze 30 1003 70 4000 5.1 280 12:38 23.08.2019
3006 Haze 30 1003 70 4000 4.6 280 12:20 23.08.2019
3007 Haze 30 1003 70 4000 4.6 280 11:55 23.08.2019
3008 Haze 30 1003 70 4000 4.6 280 11:55 23.08.2019
3009 Haze 31 1003 62 4000 6.2 290 11:36 23.08.2019
3010 Haze 31 1004 62 4000 6.7 300 11:18 23.08.2019
3011 Haze 31 1004 62 4000 5.7 290 10:42 23.08.2019
3012 Haze 31 1004 62 4000 5.7 290 10:21 23.08.2019
3013 Haze 31 1005 62 4000 4.6 300 09:56 23.08.2019
3014 Haze 30 1005 66 4000 5.1 300 09:38 23.08.2019
3015 Haze 30 1005 66 4000 5.1 300 09:18 23.08.2019
3016 Haze 30 1006 66 4000 5.7 300 08:40 23.08.2019
3017 Haze 30 1006 66 4000 5.7 300 08:19 23.08.2019
3018 Haze 29 1007 70 4000 6.2 300 07:43 23.08.2019
3019 Haze 29 1007 70 4000 6.2 300 07:24 23.08.2019
3020 Haze 28 1007 74 3000 5.7 310 06:57 23.08.2019
3021 Haze 27 1006 78 3000 5.1 310 06:37 23.08.2019
3022 Haze 27 1006 78 3000 4.6 300 06:19 23.08.2019
3023 Haze 26 1006 83 2500 3.1 300 05:33 23.08.2019
3024 Haze 25 1006 88 2500 3.6 290 04:20 23.08.2019
3025 Haze 25 1005 88 2500 3.6 290 02:53 23.08.2019
3026 Haze 25 1005 83 2500 2.1 310 02:22 23.08.2019
3027 Haze 25 1004 83 2500 3.1 300 01:39 23.08.2019
3028 Haze 25 1004 88 2500 3.1 300 00:45 23.08.2019
3029 Haze 25 1004 88 2500 3.1 300 00:19 23.08.2019
3030 Haze 24 1004 94 2500 1.5 280 23:47 22.08.2019
3031 Haze 24 1004 94 2500 1.5 280 23:24 22.08.2019
3032 Haze 25 1005 88 2500 1 300 22:56 22.08.2019
3033 Haze 25 1005 88 2500 1.5 300 22:38 22.08.2019
3034 Haze 25 1005 88 2500 1 300 22:19 22.08.2019
3035 Haze 25 1005 88 2500 1 300 21:55 22.08.2019
3036 Haze 25 1005 88 2500 2.6 320 21:36 22.08.2019
3037 Haze 25 1005 88 2500 2.6 320 21:18 22.08.2019
3038 Rain 25 1006 88 2000 2.6 310 20:54 22.08.2019
3039 Rain 25 1006 88 2000 2.6 310 20:54 22.08.2019
3040 Rain 24 1006 94 2000 2.6 300 20:36 22.08.2019
3041 Rain 24 1006 94 2000 2.6 300 20:18 22.08.2019
3042 Rain 24 1006 94 2000 1.5 330 19:40 22.08.2019
3043 Rain 24 1006 94 2000 1.5 330 19:21 22.08.2019
3044 Rain 24 1006 94 2000 2.1 320 18:59 22.08.2019
3045 Rain 25 1006 88 2000 2.1 310 18:40 22.08.2019
3046 Rain 25 1006 88 2000 2.1 310 18:20 22.08.2019
3047 Rain 24 1005 88 2000 3.6 320 17:57 22.08.2019
3048 Rain 24 1005 88 2000 3.6 320 17:57 22.08.2019
3049 Rain 24 1005 88 2000 3.6 320 17:39 22.08.2019
3050 Rain 24 1006 94 2000 2.6 350 17:19 22.08.2019
3051 Rain 25 1005 94 2500 1.5 320 16:56 22.08.2019
3052 Rain 25 1005 94 2500 1.5 320 16:37 22.08.2019
3053 Rain 25 1005 94 2500 1.5 320 16:19 22.08.2019
3054 Rain 25 1005 94 2500 1.5 320 16:19 22.08.2019
3055 Rain 25 1003 88 4000 1.5 50 15:42 22.08.2019
3056 Rain 25 1003 88 4000 1.5 50 15:42 22.08.2019
3057 Rain 25 1003 88 4000 1.5 50 15:42 22.08.2019
3058 Rain 25 1003 88 4000 1.5 50 15:42 22.08.2019
3059 Rain 25 1003 88 4000 1.5 50 15:24 22.08.2019
3060 Rain 25 1003 88 4000 1.5 50 15:24 22.08.2019
3061 Rain 26 1003 83 4000 2.6 350 14:59 22.08.2019
3062 Rain 26 1003 83 4000 2.6 350 14:59 22.08.2019
3063 Rain 26 1003 83 4000 2.6 350 14:59 22.08.2019
3064 Rain 26 1003 83 4000 2.6 350 14:59 22.08.2019
3065 Haze 27 1003 78 4000 3.6 360 14:41 22.08.2019
3066 Haze 27 1003 78 4000 3.6 360 14:22 22.08.2019
3067 Haze 27 1003 78 4000 3.6 30 13:58 22.08.2019
3068 Haze 32 1003 55 4000 4.1 320 13:39 22.08.2019
3069 Haze 32 1003 55 4000 4.1 320 13:19 22.08.2019
3070 Haze 32 1002 59 4000 3.1 320 12:56 22.08.2019
3071 Haze 31 1003 58 4000 5.1 300 12:38 22.08.2019
3072 Haze 32 1003 59 4000 4.6 310 12:19 22.08.2019
3073 Haze 32 1003 59 4000 4.6 290 11:42 22.08.2019
3074 Haze 32 1003 59 4000 4.6 290 11:20 22.08.2019
3075 Haze 31 1003 62 4000 4.6 290 10:58 22.08.2019
3076 Haze 32 1004 59 4000 4.6 290 10:40 22.08.2019
3077 Haze 32 1004 59 4000 4.6 290 10:21 22.08.2019
3078 Haze 31 1005 62 4000 5.1 290 09:56 22.08.2019
3079 Haze 31 1005 62 4000 5.1 300 09:38 22.08.2019
3080 Haze 31 1005 62 4000 5.1 300 09:20 22.08.2019
3081 Haze 30 1006 66 4000 3.6 300 08:42 22.08.2019
3082 Haze 30 1006 66 4000 3.6 300 08:22 22.08.2019
3083 Haze 29 1006 70 5000 4.6 290 07:58 22.08.2019
3084 Haze 29 1006 70 5000 4.6 290 07:39 22.08.2019
3085 Haze 29 1006 70 5000 4.6 300 07:19 22.08.2019
3086 Haze 28 1006 74 5000 6.2 290 06:47 22.08.2019
3087 Haze 28 1006 74 5000 6.2 290 06:22 22.08.2019
3088 Haze 27 1006 78 4000 6.2 290 05:29 22.08.2019
3089 Haze 25 1005 83 3000 3.6 290 03:44 22.08.2019
3090 Haze 25 1005 83 3000 3.6 290 02:37 22.08.2019
3091 Haze 25 1005 83 3000 3.1 290 01:39 22.08.2019
3092 Haze 25 1005 83 3000 3.1 290 00:57 22.08.2019
3093 Haze 25 1005 83 3000 3.1 280 00:39 22.08.2019
3094 Haze 25 1005 83 3000 3.1 290 00:20 22.08.2019
3095 Haze 25 1005 83 3000 2.6 290 23:42 21.08.2019
3096 Haze 25 1005 83 3000 2.6 290 23:24 21.08.2019
3097 Haze 25 1005 83 3000 1.5 260 22:58 21.08.2019
3098 Haze 25 1005 83 3000 2.1 250 22:40 21.08.2019
3099 Haze 25 1005 83 3000 2.1 250 22:20 21.08.2019
3100 Haze 25 1005 88 3000 2.1 280 21:56 21.08.2019
3101 Haze 25 1006 88 3000 2.1 280 21:38 21.08.2019
3102 Rain 25 1006 83 3000 1.5 280 21:19 21.08.2019
3103 Rain 25 1006 83 3000 1.5 280 20:56 21.08.2019
3104 Rain 25 1006 88 3000 3.23 303.39 20:37 21.08.2019
3105 Rain 25 1007 83 3000 1.5 260 20:19 21.08.2019
3106 Drizzle 26 1007 83 3000 2.6 280 19:42 21.08.2019
3107 Drizzle 26 1007 83 3000 2.6 280 19:24 21.08.2019
3108 Drizzle 26 1007 88 3000 1.5 270 18:57 21.08.2019
3109 Haze 26 1007 88 3000 3.23 303.39 18:38 21.08.2019
3110 Haze 26 1007 88 3000 1 130 18:20 21.08.2019
3111 Haze 26 1006 88 3000 3.46 305.553 17:45 21.08.2019
3112 Haze 26 1006 88 3000 3.46 305.553 17:22 21.08.2019
3113 Haze 26 1006 88 3000 1 110 16:58 21.08.2019
3114 Drizzle 26 1006 83 3000 1 120 16:39 21.08.2019
3115 Drizzle 26 1006 83 3000 1 120 16:20 21.08.2019
3116 Haze 27 1005 83 3000 2.1 50 15:56 21.08.2019
3117 Haze 29 1005 79 3000 1 270 15:38 21.08.2019
3118 Haze 29 1005 79 3000 1 270 15:19 21.08.2019
3119 Haze 30 1004 74 3000 1.5 290 15:19 21.08.2019
3120 Haze 30 1004 74 3000 1.5 290 15:19 21.08.2019
3121 Haze 30 1004 74 3000 1.5 290 14:55 21.08.2019
3122 Haze 30 1004 70 3000 2.1 290 14:37 21.08.2019
3123 Haze 30 1004 70 3000 2.1 320 14:18 21.08.2019
3124 Haze 30 1004 70 3000 2.1 320 13:43 21.08.2019
3125 Haze 30 1004 70 3000 2.1 320 13:20 21.08.2019
3126 Haze 30 1004 70 3000 3.1 300 12:58 21.08.2019
3127 Haze 31 1004 66 3000 4.6 310 12:40 21.08.2019
3128 Haze 31 1004 66 3000 4.6 310 12:20 21.08.2019
3129 Haze 31 1004 66 3000 5.1 300 11:45 21.08.2019
3130 Haze 31 1004 66 3000 5.1 300 11:24 21.08.2019
3131 Haze 31 1005 66 3000 4.1 310 10:59 21.08.2019
3132 Haze 30 1005 70 3000 5.1 310 10:40 21.08.2019
3133 Haze 30 1005 70 3000 5.1 310 10:22 21.08.2019
3134 Haze 30 1006 74 3000 3.6 310 09:58 21.08.2019
3135 Rain 29 1006 79 3000 5.1 300 09:40 21.08.2019
3136 Rain 29 1006 79 3000 5.1 300 09:21 21.08.2019
3137 Haze 31 1007 70 4000 6.2 290 08:50 21.08.2019
3138 Haze 31 1007 70 4000 6.2 290 08:26 21.08.2019
3139 Haze 30 1007 74 4000 4.1 280 07:56 21.08.2019
3140 Haze 29 1007 74 4000 5.1 280 07:37 21.08.2019
3141 Haze 29 1007 70 4000 5.1 290 07:18 21.08.2019
3142 Haze 28 1007 74 4000 5.1 290 06:44 21.08.2019
3143 Haze 27 1007 78 4000 2.6 300 06:19 21.08.2019
3144 Haze 27 1006 78 3000 2.1 260 05:29 21.08.2019
3145 Haze 26 1006 83 3000 2.6 270 04:51 21.08.2019
3146 Haze 25 1005 88 3000 2.6 310 02:44 21.08.2019
3147 Haze 25 1005 83 3000 2.1 310 01:36 21.08.2019
3148 Haze 25 1005 83 3000 1.5 300 00:43 21.08.2019
3149 Haze 25 1005 83 3000 1.5 300 00:21 21.08.2019
3150 Haze 26 1005 83 3000 3.1 290 23:45 20.08.2019
3151 Haze 26 1005 83 3000 3.1 290 23:45 20.08.2019
3152 Haze 26 1005 83 3000 3.1 290 23:20 20.08.2019
3153 Haze 26 1005 88 3000 3.1 290 22:59 20.08.2019
3154 Haze 26 1006 88 3000 3.1 290 22:40 20.08.2019
3155 Haze 26 1006 88 3000 3.1 290 22:22 20.08.2019
3156 Haze 26 1006 88 3000 2.1 280 21:58 20.08.2019
3157 Drizzle 26 1006 88 3000 1.5 280 21:39 20.08.2019
3158 Drizzle 26 1006 88 3000 1.5 280 21:20 20.08.2019
3159 Drizzle 26 1007 88 3000 1.5 290 20:59 20.08.2019
3160 Drizzle 26 1007 88 3000 1.5 290 20:59 20.08.2019
3161 Haze 26 1007 88 3000 3.85 300.681 20:41 20.08.2019
3162 Haze 26 1007 88 3000 3.85 300.681 20:22 20.08.2019
3163 Haze 26 1008 88 3000 1.5 160 19:40 20.08.2019
3164 Haze 26 1008 88 3000 1.5 160 19:22 20.08.2019
3165 Haze 26 1008 88 3000 1.5 160 19:22 20.08.2019
3166 Haze 26 1008 88 3000 1.5 170 18:57 20.08.2019
3167 Haze 27 1007 78 3000 2.1 260 18:39 20.08.2019
3168 Haze 27 1007 78 3000 2.1 260 18:39 20.08.2019
3169 Haze 27 1007 78 3000 2.1 260 18:19 20.08.2019
3170 Haze 27 1007 78 3000 2.1 260 17:57 20.08.2019
3171 Haze 27 1007 78 3000 2.1 260 17:38 20.08.2019
3172 Haze 27 1007 83 3000 2.1 240 17:19 20.08.2019
3173 Haze 27 1006 83 3000 2.1 260 16:44 20.08.2019
3174 Haze 27 1006 83 3000 2.1 260 16:26 20.08.2019
3175 Haze 27 1006 78 3000 1.5 310 15:56 20.08.2019
3176 Haze 27 1005 78 3000 2.6 300 15:37 20.08.2019
3177 Haze 27 1005 78 4000 3.6 300 15:18 20.08.2019
3178 Haze 28 1004 74 4000 4.1 300 14:42 20.08.2019
3179 Haze 28 1004 78 4000 2.6 320 14:22 20.08.2019
3180 Haze 28 1004 78 4000 2.6 320 13:57 20.08.2019
3181 Haze 29 1004 74 4000 5.1 300 13:38 20.08.2019
3182 Haze 29 1004 74 4000 5.7 310 13:20 20.08.2019
3183 Haze 30 1005 66 4000 6.2 300 12:51 20.08.2019
3184 Haze 30 1005 66 4000 6.2 300 12:30 20.08.2019
3185 Haze 31 1005 66 4000 6.7 300 11:58 20.08.2019
3186 Haze 31 1006 66 5000 5.1 320 11:38 20.08.2019
3187 Haze 31 1006 66 5000 6.7 300 11:19 20.08.2019
3188 Haze 31 1006 66 5000 6.7 300 11:19 20.08.2019
3189 Haze 31 1006 66 5000 6.7 300 11:19 20.08.2019
3190 Haze 31 1006 66 5000 6.7 300 10:57 20.08.2019
3191 Haze 31 1006 66 5000 6.7 300 10:57 20.08.2019
3192 Haze 31 1006 66 5000 6.7 300 10:57 20.08.2019
3193 Haze 31 1006 70 5000 5.1 310 10:38 20.08.2019
3194 Haze 30 1007 70 5000 5.7 290 10:19 20.08.2019
3195 Haze 30 1008 70 5000 6.2 300 09:43 20.08.2019
3196 Haze 30 1008 70 5000 6.2 300 09:25 20.08.2019
3197 Haze 30 1008 70 5000 5.7 290 08:57 20.08.2019
3198 Haze 30 1008 70 5000 6.2 300 08:39 20.08.2019
3199 Haze 29 1008 79 5000 6.2 290 08:20 20.08.2019
3200 Haze 29 1008 79 5000 6.2 290 07:41 20.08.2019
3201 Haze 29 1008 74 5000 4.6 290 07:22 20.08.2019
3202 Haze 29 1008 74 5000 4.6 290 06:59 20.08.2019
3203 -273 0 0 0 0 0 06:25 20.08.2019
3204 Haze 27 1008 83 4000 5.1 290 06:25 20.08.2019
3205 Haze 27 1008 83 3000 2.1 270 05:49 20.08.2019
3206 Haze 26 1008 88 2500 2.1 240 04:57 20.08.2019
3207 Haze 25 1007 94 2500 1.5 270 03:52 20.08.2019
3208 Rain 25 1007 94 2500 2.1 280 02:36 20.08.2019
3209 Haze 24 1007 94 3000 1 270 01:36 20.08.2019
3210 Haze 24 1007 94 2500 2.1 290 00:51 20.08.2019
3211 Haze 24 1007 94 2500 2.1 290 00:31 20.08.2019
3212 Haze 24 1007 94 2500 1 260 23:57 19.08.2019
3213 Haze 24 1007 94 2500 1 220 23:38 19.08.2019
3214 Haze 24 1007 94 2500 1 240 23:18 19.08.2019
3215 Haze 25 1007 88 2500 1 240 22:41 19.08.2019
3216 Haze 25 1008 88 2500 2.6 250 22:22 19.08.2019
3217 Haze 25 1008 88 2500 2.6 250 21:58 19.08.2019
3218 Rain 24 1008 94 2500 1.5 250 21:39 19.08.2019
3219 Rain 24 1008 94 2500 1.5 250 21:21 19.08.2019
3220 Rain 24 1008 94 2500 1.5 250 20:59 19.08.2019
3221 Rain 24 1009 94 2500 1 210 20:39 19.08.2019
3222 Rain 24 1009 94 2500 1 210 20:39 19.08.2019
3223 Rain 24 1009 94 2500 1 210 20:20 19.08.2019
3224 Rain 24 1009 94 2500 1 210 19:58 19.08.2019
3225 Rain 25 1009 88 2500 2.1 250 19:39 19.08.2019
3226 Rain 25 1009 88 2500 2.1 250 19:19 19.08.2019
3227 Rain 25 1009 88 2500 2.1 250 19:19 19.08.2019
3228 Haze 25 1008 94 2500 1 190 18:44 19.08.2019
3229 Haze 25 1008 94 2500 1.5 200 18:26 19.08.2019
3230 Haze 25 1008 94 2500 1.5 200 17:58 19.08.2019
3231 Rain 25 1008 94 2000 1.5 200 17:40 19.08.2019
3232 Rain 25 1007 94 2500 1 190 17:20 19.08.2019
3233 Rain 25 1007 94 2500 1 190 16:58 19.08.2019
3234 Rain 25 1007 94 2500 1 190 16:37 19.08.2019
3235 Haze 25 1007 94 2500 2.1 190 16:19 19.08.2019
3236 Haze 26 1006 94 2500 1.5 200 15:55 19.08.2019
3237 Haze 25 1006 94 2500 3.09 283.735 15:36 19.08.2019
3238 Haze 25 1006 94 2500 3.88 307.268 15:18 19.08.2019
3239 Rain 31 1006 66 800 6.2 300 14:40 19.08.2019
3240 Rain 31 1006 66 800 6.2 300 14:21 19.08.2019
3241 Rain 31 1006 66 800 6.2 300 13:57 19.08.2019
3242 Rain 31 1006 66 800 6.2 300 13:57 19.08.2019
3243 Haze 31 1005 66 4000 2.1 290 13:37 19.08.2019
3244 Haze 31 1005 66 4000 2.1 290 13:19 19.08.2019
3245 Haze 32 1005 59 4000 2.6 240 12:44 19.08.2019
3246 Haze 32 1005 59 4000 2.6 240 12:24 19.08.2019
3247 Haze 31 1006 66 4000 3.6 260 11:59 19.08.2019
3248 Haze 31 1006 62 4000 3.6 260 11:37 19.08.2019
3249 Haze 31 1006 62 4000 3.6 260 11:19 19.08.2019
3250 Haze 30 1007 70 4000 4.6 270 10:40 19.08.2019
3251 Haze 30 1008 66 5000 2.6 280 10:19 19.08.2019
3252 Haze 30 1008 66 5000 2.6 280 09:59 19.08.2019
3253 Haze 31 1008 62 5000 2.6 310 09:41 19.08.2019
3254 Haze 31 1008 62 5000 2.6 310 09:21 19.08.2019
3255 Haze 29 1009 70 4000 2.6 310 08:54 19.08.2019
3256 Haze 29 1009 70 4000 2.6 280 08:36 19.08.2019
3257 Haze 29 1009 70 4000 2.6 280 08:18 19.08.2019
3258 Haze 29 1010 70 4000 2.1 320 07:42 19.08.2019
3259 Haze 29 1010 70 4000 2.1 320 07:23 19.08.2019
3260 Haze 27 1010 78 4000 4.1 300 06:42 19.08.2019
3261 Haze 27 1009 78 4000 2.6 260 06:18 19.08.2019
3262 Haze 25 1008 88 4000 1.5 270 04:46 19.08.2019
3263 Haze 25 1008 88 3000 2.1 250 03:59 19.08.2019
3264 Haze 25 1008 88 3000 1.5 200 03:19 19.08.2019
3265 Haze 25 1007 83 3000 2.1 290 01:46 19.08.2019
3266 Haze 25 1007 83 3000 2.6 280 00:59 19.08.2019
3267 Haze 25 1007 83 3000 1.5 270 00:37 19.08.2019
3268 Haze 25 1007 83 3000 2.1 290 00:18 19.08.2019
3269 Haze 26 1007 83 3000 1.5 300 23:40 18.08.2019
3270 Haze 26 1007 83 3000 1.5 300 23:20 18.08.2019
3271 Haze 26 1007 83 3000 1.5 300 23:20 18.08.2019
3272 Haze 26 1007 83 4000 1.5 290 22:40 18.08.2019
3273 Haze 26 1007 83 4000 1.5 290 22:22 18.08.2019
3274 Haze 26 1007 83 4000 1 300 21:57 18.08.2019
3275 Haze 26 1008 83 4000 1 280 21:39 18.08.2019
3276 Haze 26 1008 83 4000 1 280 21:20 18.08.2019
3277 Haze 26 1008 83 4000 3.1 290 20:57 18.08.2019
3278 Haze 27 1009 78 4000 1.5 260 20:38 18.08.2019
3279 Haze 27 1009 78 4000 1.5 260 20:20 18.08.2019
3280 Haze 27 1009 78 5000 4.1 300 19:42 18.08.2019
3281 Haze 27 1009 78 5000 4.1 300 19:23 18.08.2019
3282 Haze 28 1009 74 5000 5.1 290 18:57 18.08.2019
3283 Haze 28 1008 78 5000 2.6 290 18:39 18.08.2019
3284 Haze 28 1008 78 5000 2.6 290 18:21 18.08.2019
3285 Haze 28 1008 78 5000 2.6 250 17:54 18.08.2019
3286 Haze 28 1008 74 5000 2.6 230 17:36 18.08.2019
3287 Haze 28 1008 74 5000 2.6 230 17:18 18.08.2019
3288 Haze 29 1007 70 5000 1.5 220 16:43 18.08.2019
3289 Haze 29 1007 70 5000 1.5 220 16:23 18.08.2019
3290 Haze 29 1006 70 5000 3.1 240 15:59 18.08.2019
3291 Haze 30 1006 66 5000 2.1 250 15:39 18.08.2019
3292 Haze 30 1006 66 5000 2.1 250 15:20 18.08.2019
3293 Clouds 31 1006 58 6000 2.6 270 14:57 18.08.2019
3294 Clouds 32 1005 59 6000 2.6 250 14:38 18.08.2019
3295 Clouds 32 1005 59 6000 2.6 250 14:19 18.08.2019
3296 Clouds 32 1005 59 6000 3.6 270 13:56 18.08.2019
3297 Clouds 32 1005 55 6000 3.1 280 13:38 18.08.2019
3298 Clouds 32 1005 55 6000 3.1 280 13:19 18.08.2019
3299 Clouds 32 1006 52 6000 4.1 280 12:44 18.08.2019
3300 Clouds 32 1006 52 6000 4.1 280 12:22 18.08.2019
3301 Clouds 32 1006 55 6000 2.6 280 11:55 18.08.2019
3302 Clouds 32 1006 59 6000 1.5 320 11:37 18.08.2019
3303 Clouds 32 1006 59 6000 1.5 320 11:18 18.08.2019
3304 Clouds 32 1007 55 6000 1 340 10:41 18.08.2019
3305 Clouds 32 1007 59 6000 4.1 290 10:21 18.08.2019
3306 Clouds 32 1007 59 6000 4.1 290 09:51 18.08.2019
3307 Clouds 30 1008 66 6000 3.6 290 09:23 18.08.2019
3308 Clouds 30 1008 66 6000 3.6 290 08:55 18.08.2019
3309 Clouds 30 1009 62 6000 3.1 290 08:37 18.08.2019
3310 Clouds 29 1009 70 6000 3.6 280 08:18 18.08.2019
3311 Clouds 30 1009 62 6000 5.1 290 07:44 18.08.2019
3312 Clouds 30 1009 62 6000 5.1 290 07:25 18.08.2019
3313 Haze 29 1009 66 5000 5.1 300 05:48 18.08.2019
3314 Haze 27 1008 74 5000 2.6 300 04:53 18.08.2019
3315 Haze 25 1007 88 4000 2.1 290 03:36 18.08.2019
3316 Haze 25 1007 88 3000 1.5 280 02:46 18.08.2019
3317 Haze 25 1007 88 3000 1.5 280 02:23 18.08.2019
3318 Haze 25 1006 88 3000 2.1 300 01:31 18.08.2019
3319 Haze 25 1006 88 3000 2.1 300 00:56 18.08.2019
3320 Haze 25 1006 88 3000 1.5 290 00:37 18.08.2019
3321 Haze 25 1006 88 3000 1.5 290 00:18 18.08.2019
3322 Rain 26 1005 82 0 1.94 264.398 23:56 17.08.2019
3323 Haze 26 1006 88 3000 1 250 23:36 17.08.2019
3324 Haze 25 1007 94 3000 1.94 264.398 23:18 17.08.2019
3325 Haze 25 1007 94 3000 1.94 264.398 23:18 17.08.2019
3326 Haze 26 1007 88 3000 1.94 264.398 22:42 17.08.2019
3327 Haze 26 1007 88 3000 1.94 264.398 22:23 17.08.2019
3328 Haze 26 1007 88 3000 1.94 264.398 21:59 17.08.2019
3329 Haze 26 1007 88 3000 1 260 21:40 17.08.2019
3330 Haze 26 1007 88 3000 1 260 21:21 17.08.2019
3331 Haze 26 1007 88 3000 2.27 272.671 20:40 17.08.2019
3332 Haze 27 1007 83 3000 1 230 20:21 17.08.2019
3333 Haze 27 1007 83 3000 1 230 19:57 17.08.2019
3334 Haze 27 1007 83 3000 2.1 230 19:39 17.08.2019
3335 Haze 27 1007 83 3000 2.1 230 19:20 17.08.2019
3336 Haze 27 1007 83 3000 2.1 230 19:20 17.08.2019
3337 Haze 28 1007 78 3000 1.5 230 18:41 17.08.2019
3338 Haze 28 1007 74 3000 1 240 18:19 17.08.2019
3339 Haze 28 1007 74 3000 1 240 17:58 17.08.2019
3340 Haze 28 1006 78 3000 2.85 260.994 17:40 17.08.2019
3341 Haze 28 1006 78 3000 2.85 260.994 17:21 17.08.2019
3342 Haze 28 1006 78 3000 2.85 260.994 17:21 17.08.2019
3343 Haze 28 1006 83 3000 2.85 260.994 16:45 17.08.2019
3344 Haze 28 1006 83 3000 2.85 260.994 16:26 17.08.2019
3345 Haze 29 1005 74 3000 1 270 15:59 17.08.2019
3346 Haze 30 1005 66 4000 1.5 280 15:39 17.08.2019
3347 Haze 30 1005 66 4000 1.5 280 15:20 17.08.2019
3348 Haze 30 1005 70 4000 2.1 230 14:41 17.08.2019
3349 Haze 30 1005 70 4000 2.1 230 14:41 17.08.2019
3350 Haze 30 1005 70 4000 2.1 230 14:41 17.08.2019
3351 Haze 30 1005 70 4000 2.1 230 14:23 17.08.2019
3352 Haze 31 1005 66 4000 1.5 210 13:49 17.08.2019
3353 Haze 31 1004 66 4000 2.6 210 13:23 17.08.2019
3354 Haze 31 1004 66 4000 2.6 210 13:23 17.08.2019
3355 Haze 31 1005 66 4000 2.6 170 12:58 17.08.2019
3356 Haze 31 1005 62 4000 2.1 230 12:40 17.08.2019
3357 Haze 31 1005 62 4000 2.1 230 12:19 17.08.2019
3358 Haze 31 1006 62 4000 2.6 260 11:45 17.08.2019
3359 Haze 31 1006 62 4000 2.6 260 11:21 17.08.2019
3360 Haze 31 1006 58 4000 2.6 230 10:57 17.08.2019
3361 Haze 31 1006 58 4000 2.6 230 10:57 17.08.2019
3362 Haze 31 1006 62 5000 2.1 240 10:39 17.08.2019
3363 Haze 31 1006 62 5000 2.1 240 10:19 17.08.2019
3364 Haze 31 1007 62 5000 1.5 240 09:48 17.08.2019
3365 Haze 31 1007 62 5000 2.6 270 09:29 17.08.2019
3366 Haze 30 1008 66 5000 2.6 240 08:54 17.08.2019
3367 Haze 29 1008 70 5000 3.1 230 08:25 17.08.2019
3368 Haze 29 1008 70 5000 2.6 230 07:51 17.08.2019
3369 Haze 29 1008 70 5000 2.6 230 07:21 17.08.2019
3370 Haze 29 1008 74 5000 2.1 240 06:53 17.08.2019
3371 Haze 27 1007 78 4000 2.6 250 05:32 17.08.2019
3372 Haze 25 1007 88 4000 1.5 230 04:29 17.08.2019
3373 Haze 24 1006 94 4000 1 180 03:20 17.08.2019
3374 Haze 25 1005 88 4000 2.77 261.326 01:46 17.08.2019
3375 Haze 25 1005 88 4000 2.98 262.973 01:27 17.08.2019
3376 Haze 25 1005 88 4000 1 200 00:54 17.08.2019
3377 Haze 25 1006 88 4000 1 200 00:28 17.08.2019
3378 Haze 25 1006 88 4000 1 200 23:50 16.08.2019
3379 Haze 25 1006 88 4000 1.5 170 23:27 16.08.2019
3380 Haze 25 1006 88 4000 1.5 180 22:56 16.08.2019
3381 Haze 26 1006 83 4000 1.5 220 22:38 16.08.2019
3382 Haze 26 1006 83 4000 1.5 220 22:19 16.08.2019
3383 Haze 26 1007 88 4000 2.1 220 21:40 16.08.2019
3384 Haze 26 1007 88 4000 1.5 220 21:20 16.08.2019
3385 Haze 26 1007 88 4000 1.5 220 21:20 16.08.2019
3386 Haze 26 1007 88 4000 1.5 220 20:56 16.08.2019
3387 Haze 27 1007 83 4000 1.5 240 20:37 16.08.2019
3388 Haze 27 1007 83 4000 1.5 240 20:18 16.08.2019
3389 Haze 27 1007 78 4000 2.1 240 19:41 16.08.2019
3390 Haze 27 1007 78 4000 2.1 240 19:22 16.08.2019
3391 Haze 27 1006 83 4000 2.1 250 18:43 16.08.2019
3392 Haze 27 1006 83 4000 2.1 250 18:25 16.08.2019
3393 Haze 27 1006 83 4000 2.1 250 18:25 16.08.2019
3394 Haze 27 1006 83 4000 2.6 220 17:56 16.08.2019
3395 Haze 27 1005 83 4000 1.5 200 17:37 16.08.2019
3396 Haze 27 1005 83 4000 1.5 210 17:18 16.08.2019
3397 Haze 28 1005 78 4000 1.5 190 16:41 16.08.2019
3398 Haze 28 1005 78 4000 1.5 190 16:21 16.08.2019
3399 Haze 28 1005 78 4000 1.5 190 16:21 16.08.2019
3400 Haze 28 1004 78 4000 1.5 200 15:58 16.08.2019
3401 Haze 29 1004 70 4000 2.1 210 15:39 16.08.2019
3402 Haze 29 1004 70 4000 2.1 210 15:21 16.08.2019
3403 Haze 30 1003 66 4000 2.6 220 14:57 16.08.2019
3404 Haze 31 1003 62 4000 3.1 220 14:38 16.08.2019
3405 Haze 31 1003 62 4000 3.1 220 14:18 16.08.2019
3406 Haze 31 1003 62 4000 3.1 210 13:41 16.08.2019
3407 Haze 31 1003 62 4000 3.1 210 13:23 16.08.2019
3408 Haze 31 1004 62 5000 4.1 200 12:56 16.08.2019
3409 Haze 31 1004 66 5000 3.6 240 12:37 16.08.2019
3410 Haze 32 1005 59 5000 3.6 250 12:19 16.08.2019
3411 Haze 31 1005 66 5000 2.1 220 11:41 16.08.2019
3412 Haze 31 1005 66 5000 2.1 220 11:23 16.08.2019
3413 Haze 31 1006 62 5000 5.1 240 10:43 16.08.2019
3414 Haze 31 1006 62 5000 5.1 240 10:22 16.08.2019
3415 Haze 30 1006 66 5000 3.6 230 09:55 16.08.2019
3416 Haze 30 1007 66 5000 3.6 230 09:37 16.08.2019
3417 Clouds 30 1007 66 6000 4.6 240 09:18 16.08.2019
3418 Clouds 30 1007 66 6000 3.6 220 08:40 16.08.2019
3419 Clouds 30 1007 66 6000 3.6 220 08:21 16.08.2019
3420 Clouds 29 1007 74 6000 3.6 190 07:52 16.08.2019
3421 Clouds 29 1008 70 6000 4.1 220 07:30 16.08.2019
3422 Clouds 29 1008 74 6000 4.6 200 06:56 16.08.2019
3423 Clouds 28 1007 78 6000 3.6 230 06:19 16.08.2019
3424 Clouds 27 1007 83 6000 3.6 230 05:36 16.08.2019
3425 Haze 24 1007 94 3000 1 160 03:22 16.08.2019
3426 Haze 24 1006 94 3000 1.5 190 01:59 16.08.2019
3427 Haze 24 1006 94 3000 1 210 01:29 16.08.2019
3428 Haze 24 1006 94 3000 1 220 00:57 16.08.2019
3429 Haze 25 1006 88 3000 1.5 210 00:39 16.08.2019
3430 Haze 25 1006 88 3000 2.1 180 00:18 16.08.2019
3431 Haze 25 1006 88 3000 2.1 210 23:42 15.08.2019
3432 Haze 25 1006 88 3000 2.1 210 23:20 15.08.2019
3433 Haze 25 1006 88 3000 2.1 210 22:57 15.08.2019
3434 Haze 25 1006 94 3000 1.5 190 22:38 15.08.2019
3435 Haze 25 1006 94 3000 1.5 190 22:20 15.08.2019
3436 Haze 26 1007 88 3000 1 190 21:40 15.08.2019
3437 Haze 26 1007 88 3000 1 190 21:40 15.08.2019
3438 Haze 26 1007 88 3000 1 190 21:20 15.08.2019
3439 Haze 26 1007 88 3000 1 190 20:59 15.08.2019
3440 Haze 26 1007 88 3000 1.5 200 20:41 15.08.2019
3441 Haze 26 1007 88 3000 1.5 200 20:21 15.08.2019
3442 Haze 26 1007 88 3000 1.5 200 19:56 15.08.2019
3443 Haze 26 1007 88 3000 1 190 19:38 15.08.2019
3444 Haze 26 1007 88 3000 1 190 19:19 15.08.2019
3445 Haze 26 1007 88 3000 1 180 18:45 15.08.2019
3446 Haze 26 1007 88 3000 1 180 18:22 15.08.2019
3447 Haze 26 1006 88 3000 1.5 200 17:56 15.08.2019
3448 Haze 26 1006 88 3000 1.5 190 17:37 15.08.2019
3449 Haze 26 1006 88 3000 1.5 190 17:37 15.08.2019
3450 Haze 26 1006 88 3000 1.5 190 17:19 15.08.2019
3451 Haze 27 1006 83 3000 1.5 190 16:48 15.08.2019
3452 Haze 27 1005 83 3000 1.5 190 16:27 15.08.2019
3453 Haze 29 1004 70 3000 4.1 250 15:56 15.08.2019
3454 Haze 29 1004 70 3000 4.1 250 15:38 15.08.2019
3455 Haze 29 1004 70 3000 4.1 250 15:19 15.08.2019
3456 Haze 30 1004 66 4000 4.1 230 14:42 15.08.2019
3457 Haze 30 1004 66 4000 4.1 230 14:23 15.08.2019
3458 Haze 30 1004 66 4000 4.6 230 13:57 15.08.2019
3459 Haze 30 1003 70 4000 4.1 230 13:39 15.08.2019
3460 Haze 30 1004 66 4000 4.6 220 13:20 15.08.2019
3461 Haze 30 1004 66 4000 4.6 220 12:56 15.08.2019
3462 Haze 30 1004 66 4000 5.1 240 12:38 15.08.2019
3463 Haze 30 1004 66 4000 5.1 240 12:18 15.08.2019
3464 Haze 30 1004 70 4000 4.6 230 11:57 15.08.2019
3465 Haze 29 1005 74 4000 4.6 230 11:36 15.08.2019
3466 Haze 29 1005 74 4000 4.6 230 11:18 15.08.2019
3467 Haze 30 1005 70 4000 4.1 230 10:39 15.08.2019
3468 Haze 30 1005 70 4000 4.1 230 10:39 15.08.2019
3469 Haze 30 1005 70 4000 4.1 230 10:20 15.08.2019
3470 Haze 30 1006 66 4000 5.1 240 09:45 15.08.2019
3471 Haze 30 1006 66 4000 5.1 240 09:24 15.08.2019
3472 Haze 29 1006 70 4000 5.1 220 08:57 15.08.2019
3473 Haze 29 1007 70 4000 5.7 250 08:37 15.08.2019
3474 Haze 29 1007 70 4000 5.7 250 08:19 15.08.2019
3475 Haze 29 1007 74 4000 5.7 250 07:44 15.08.2019
3476 Haze 29 1007 74 4000 5.7 250 07:26 15.08.2019
3477 Haze 28 1007 78 4000 6.2 250 06:54 15.08.2019
3478 Haze 27 1007 83 4000 5.1 240 06:33 15.08.2019
3479 Haze 27 1007 83 3000 5.1 240 05:48 15.08.2019
3480 Haze 26 1007 88 2500 5.1 220 05:28 15.08.2019
3481 Haze 25 1006 94 2500 3.1 210 04:34 15.08.2019
3482 Haze 24 1006 100 2000 2.6 190 03:39 15.08.2019
3483 Haze 24 1005 100 2000 2.6 180 02:44 15.08.2019
3484 Haze 24 1004 100 2000 2.6 180 01:52 15.08.2019
3485 Haze 24 1004 100 2000 2.6 180 01:30 15.08.2019
3486 Haze 24 1004 94 3000 1.5 180 00:41 15.08.2019
3487 Haze 24 1004 94 3000 1.5 180 00:21 15.08.2019
3488 Haze 24 1005 94 3000 1.5 170 23:57 14.08.2019
3489 Haze 24 1005 94 3000 1.5 180 23:37 14.08.2019
3490 Haze 24 1005 94 3000 1.5 180 23:19 14.08.2019
3491 Haze 24 1005 94 3000 1.5 180 23:19 14.08.2019
3492 Haze 24 1005 94 3000 1.5 180 22:56 14.08.2019
3493 Haze 24 1005 94 3000 1.5 200 22:38 14.08.2019
3494 Haze 24 1005 94 3000 1.5 200 22:19 14.08.2019
3495 Haze 25 1005 88 3000 1.5 230 21:55 14.08.2019
3496 Haze 25 1006 88 3000 2.6 220 21:36 14.08.2019
3497 Haze 25 1006 88 3000 2.6 220 21:18 14.08.2019
3498 Haze 25 1006 88 3000 3.1 240 20:41 14.08.2019
3499 Haze 25 1006 88 3000 3.1 240 20:41 14.08.2019
3500 Haze 25 1006 88 3000 3.1 240 20:21 14.08.2019
3501 Haze 25 1007 94 3000 2.1 230 19:56 14.08.2019
3502 Haze 25 1007 94 3000 2.6 220 19:37 14.08.2019
3503 Haze 25 1007 94 3000 2.1 210 19:19 14.08.2019
3504 Haze 25 1007 94 3000 2.1 210 18:56 14.08.2019
3505 Haze 25 1006 94 3000 2.1 190 18:38 14.08.2019
3506 Haze 25 1006 94 3000 2.1 190 18:38 14.08.2019
3507 Haze 25 1006 94 3000 2.1 190 18:19 14.08.2019
3508 Haze 25 1006 94 3000 2.1 190 17:56 14.08.2019
3509 Haze 25 1006 94 3000 2.1 190 17:36 14.08.2019
3510 Haze 25 1006 94 3000 2.1 190 17:18 14.08.2019
3511 Drizzle 25 1004 94 3000 1.5 180 16:41 14.08.2019
3512 Drizzle 25 1004 94 3000 1.5 180 16:20 14.08.2019
3513 Drizzle 25 1003 94 3000 2.1 230 15:44 14.08.2019
3514 Drizzle 25 1003 94 3000 2.1 230 15:44 14.08.2019
3515 Drizzle 25 1003 94 3000 2.1 230 15:22 14.08.2019
3516 Drizzle 26 1003 88 3000 3.1 250 14:59 14.08.2019
3517 Drizzle 26 1003 88 3000 2.6 260 14:39 14.08.2019
3518 Drizzle 26 1002 88 3000 3.6 260 14:19 14.08.2019
3519 Drizzle 26 1002 88 3000 3.6 260 14:19 14.08.2019
3520 Drizzle 26 1002 88 3000 3.6 260 13:55 14.08.2019
3521 Drizzle 26 1003 88 3000 3.1 260 13:37 14.08.2019
3522 Drizzle 26 1003 88 3000 3.1 260 13:18 14.08.2019
3523 Drizzle 25 1003 94 3000 3.6 260 12:55 14.08.2019
3524 Drizzle 26 1003 88 3000 2.6 260 12:36 14.08.2019
3525 Drizzle 26 1003 88 3000 3.1 260 12:18 14.08.2019
3526 Drizzle 26 1004 88 3000 3.6 260 11:43 14.08.2019
3527 Drizzle 26 1004 88 3000 3.6 260 11:22 14.08.2019
3528 Drizzle 26 1004 83 3000 4.1 270 10:46 14.08.2019
3529 Drizzle 26 1004 83 3000 4.1 270 10:25 14.08.2019
3530 Drizzle 26 1004 83 3000 4.1 270 10:25 14.08.2019
3531 Drizzle 26 1004 83 3000 4.1 260 09:59 14.08.2019
3532 Drizzle 26 1005 88 3000 3.1 260 09:41 14.08.2019
3533 Drizzle 26 1005 88 3000 3.1 260 09:20 14.08.2019
3534 Drizzle 26 1005 88 3000 3.6 260 08:42 14.08.2019
3535 Drizzle 26 1005 88 3000 3.6 260 08:24 14.08.2019
3536 Rain 25 1006 94 3000 3.1 250 07:55 14.08.2019
3537 Rain 25 1006 94 3000 2.1 270 07:35 14.08.2019
3538 Rain 25 1006 94 3000 2.6 250 06:50 14.08.2019
3539 Rain 25 1005 94 3000 3.1 260 06:23 14.08.2019
3540 Rain 24 1005 94 3000 3.1 260 05:28 14.08.2019
3541 Rain 24 1004 100 2500 2.1 230 03:40 14.08.2019
3542 Rain 24 1003 100 2500 1.5 240 02:36 14.08.2019
3543 Rain 24 1003 100 2500 2.1 240 01:55 14.08.2019
3544 Rain 24 1003 100 2500 2.1 260 01:21 14.08.2019
3545 Rain 24 1002 100 3000 2.1 260 23:56 13.08.2019
3546 Rain 25 1003 94 3000 2.6 260 23:37 13.08.2019
3547 Rain 25 1003 94 3000 2.6 260 23:18 13.08.2019
3548 Rain 25 1003 94 3000 2.6 250 22:43 13.08.2019
3549 Rain 25 1003 94 3000 2.6 250 22:24 13.08.2019
3550 Rain 25 1004 94 3000 2.1 250 21:59 13.08.2019
3551 Rain 25 1004 94 3000 1.5 240 21:39 13.08.2019
3552 Rain 25 1004 94 3000 1.5 240 21:19 13.08.2019
3553 Rain 25 1004 94 3000 1.5 230 20:58 13.08.2019
3554 Rain 25 1004 94 3000 1.5 230 20:39 13.08.2019
3555 Rain 25 1004 94 3000 1.5 230 20:19 13.08.2019
3556 Rain 25 1005 94 3000 2.1 230 19:54 13.08.2019
3557 Rain 25 1005 94 3000 2.1 230 19:54 13.08.2019
3558 Rain 25 1005 94 3000 2.1 240 19:36 13.08.2019
3559 Rain 25 1005 94 3000 2.6 240 19:18 13.08.2019
3560 Rain 25 1005 94 3000 2.6 240 18:41 13.08.2019
3561 Rain 25 1005 94 3000 2.1 240 18:21 13.08.2019
3562 Rain 25 1004 94 3000 2.1 200 17:43 13.08.2019
3563 Rain 25 1004 94 3000 2.1 200 17:43 13.08.2019
3564 Rain 25 1004 94 3000 2.1 200 17:23 13.08.2019
3565 Rain 25 1004 94 3000 2.1 200 16:58 13.08.2019
3566 Rain 25 1004 94 3000 1.5 200 16:40 13.08.2019
3567 Rain 25 1004 94 3000 1.5 200 16:21 13.08.2019
3568 Rain 25 1003 94 3000 2.1 210 15:59 13.08.2019
3569 Rain 25 1003 94 3000 2.1 210 15:38 13.08.2019
3570 Rain 25 1003 94 3000 2.1 210 15:19 13.08.2019
3571 Rain 25 1003 88 3000 2.1 240 14:43 13.08.2019
3572 Rain 26 1003 83 3000 2.6 240 14:20 13.08.2019
3573 Rain 26 1003 83 3000 2.6 240 13:58 13.08.2019
3574 Rain 26 1003 83 3000 2.6 240 13:58 13.08.2019
3575 Rain 26 1002 83 3000 2.6 230 13:39 13.08.2019
3576 Rain 26 1002 83 3000 2.6 250 13:18 13.08.2019
3577 Rain 26 1002 83 3000 2.6 250 12:56 13.08.2019
3578 Rain 26 1003 83 3000 2.6 250 12:38 13.08.2019
3579 Rain 26 1003 83 3000 2.6 250 12:18 13.08.2019
3580 Haze 27 1003 78 3000 5.1 270 11:42 13.08.2019
3581 Haze 27 1003 78 3000 5.1 270 11:22 13.08.2019
3582 Haze 28 1003 74 3000 4.1 270 10:57 13.08.2019
3583 Haze 28 1003 74 3000 4.1 270 10:38 13.08.2019
3584 Haze 28 1003 74 3000 4.1 270 10:19 13.08.2019
3585 Haze 27 1004 78 3000 5.1 290 09:45 13.08.2019
3586 Haze 27 1004 78 3000 5.1 290 09:24 13.08.2019
3587 Haze 27 1004 78 3000 5.1 290 09:24 13.08.2019
3588 Haze 27 1004 78 3000 2.6 300 08:57 13.08.2019
3589 Haze 27 1005 83 3000 4.1 280 08:39 13.08.2019
3590 Haze 27 1005 83 3000 4.1 280 08:20 13.08.2019
3591 Haze 27 1005 83 2500 5.1 270 07:42 13.08.2019
3592 Haze 27 1005 83 2500 5.1 270 07:21 13.08.2019
3593 Drizzle 26 1005 88 2000 4.6 270 06:43 13.08.2019
3594 Drizzle 25 1004 94 2000 4.1 280 05:53 13.08.2019
3595 Drizzle 25 1003 94 2000 3.1 310 04:36 13.08.2019
3596 Drizzle 26 1002 88 2500 2.6 270 02:22 13.08.2019
3597 Haze 26 1002 88 2000 2.1 260 01:29 13.08.2019
3598 Drizzle 26 1002 88 2000 1.5 260 00:48 13.08.2019
3599 Drizzle 26 1002 88 2000 1.5 260 00:22 13.08.2019
3600 Drizzle 27 1002 83 2000 2.1 250 23:43 12.08.2019
3601 Drizzle 27 1002 83 2000 2.1 250 23:21 12.08.2019
3602 Haze 27 1003 78 2000 2.1 280 22:41 12.08.2019
3603 Haze 27 1003 78 2000 2.1 280 22:20 12.08.2019
3604 Haze 27 1003 78 2000 2.6 280 21:57 12.08.2019
3605 Haze 27 1003 78 3000 2.6 280 21:38 12.08.2019
3606 Haze 27 1003 78 3000 2.6 280 21:20 12.08.2019
3607 Haze 27 1003 83 3000 2.1 280 20:59 12.08.2019
3608 Haze 27 1004 83 3000 2.1 260 20:41 12.08.2019
3609 Haze 27 1004 83 3000 2.1 260 20:20 12.08.2019
3610 Haze 28 1004 78 3000 2.6 280 19:57 12.08.2019
3611 Haze 28 1004 74 3000 3.1 280 19:39 12.08.2019
3612 Haze 28 1004 74 3000 3.1 280 19:20 12.08.2019
3613 Haze 28 1004 74 3000 2.1 290 18:56 12.08.2019
3614 Haze 29 1005 70 3000 2.1 280 18:38 12.08.2019
3615 Haze 29 1005 70 3000 2.1 280 18:19 12.08.2019
3616 Haze 29 1004 70 3000 2.1 280 17:48 12.08.2019
3617 Haze 29 1004 70 3000 2.6 270 17:29 12.08.2019
3618 Haze 29 1004 70 3000 2.6 270 16:58 12.08.2019
3619 Haze 29 1003 74 3000 1.5 250 16:39 12.08.2019
3620 Haze 29 1003 74 3000 1.5 250 16:20 12.08.2019
3621 Haze 29 1002 70 3000 2.1 260 15:59 12.08.2019
3622 Haze 30 1002 66 3000 2.6 280 15:41 12.08.2019
3623 -273 0 0 0 0 0 15:41 12.08.2019
3624 Haze 30 1002 66 3000 2.6 280 15:21 12.08.2019
3625 Haze 31 1002 62 3000 2.6 290 14:57 12.08.2019
3626 Haze 31 1002 62 3000 5.1 260 14:39 12.08.2019
3627 Haze 31 1002 62 3000 5.1 260 14:20 12.08.2019
3628 Haze 31 1002 62 3000 5.1 260 14:20 12.08.2019
3629 Haze 31 1002 62 3000 3.1 300 13:47 12.08.2019
3630 Haze 31 1002 62 3000 3.1 300 13:47 12.08.2019
3631 Haze 31 1002 62 3000 3.1 300 13:24 12.08.2019
3632 Haze 32 1002 59 3000 4.1 320 12:59 12.08.2019
3633 Haze 32 1002 59 4000 3.1 300 12:40 12.08.2019
3634 Haze 32 1002 59 4000 3.1 300 12:18 12.08.2019
3635 Haze 32 1002 59 4000 3.1 300 12:18 12.08.2019
3636 Haze 32 1003 59 4000 2.6 300 11:42 12.08.2019
3637 Haze 32 1003 59 4000 2.6 300 11:42 12.08.2019
3638 Haze 32 1003 59 4000 2.6 300 11:23 12.08.2019
3639 Haze 31 1004 62 4000 3.1 270 10:43 12.08.2019
3640 Haze 31 1004 62 4000 3.1 270 10:23 12.08.2019
3641 Haze 31 1004 58 5000 4.1 280 09:56 12.08.2019
3642 Haze 31 1004 58 5000 4.1 280 09:56 12.08.2019
3643 -273 0 0 0 0 0 09:38 12.08.2019
3644 Haze 31 1005 62 5000 5.1 280 09:19 12.08.2019
3645 Haze 31 1005 62 5000 5.1 280 09:19 12.08.2019
3646 Haze 31 1005 62 5000 4.6 290 08:58 12.08.2019
3647 Haze 30 1005 66 5000 5.1 290 08:38 12.08.2019
3648 Haze 30 1005 66 5000 5.1 290 08:19 12.08.2019
3649 Haze 30 1006 66 5000 5.1 290 07:52 12.08.2019
3650 Haze 30 1006 66 5000 5.1 290 07:27 12.08.2019
3651 Haze 29 1006 70 5000 5.1 280 06:50 12.08.2019
3652 Haze 27 1006 78 5000 4.1 290 05:39 12.08.2019
3653 Haze 25 1004 88 3000 1 240 02:44 12.08.2019
3654 Haze 25 1004 88 3000 1 250 01:55 12.08.2019
3655 Haze 25 1004 88 3000 1 230 01:21 12.08.2019
3656 Haze 26 1004 78 3000 1.5 220 00:58 12.08.2019
3657 Haze 26 1004 78 3000 1.5 280 00:38 12.08.2019
3658 Haze 26 1004 78 3000 1.5 280 00:19 12.08.2019
3659 Haze 26 1004 78 3000 1 260 23:42 11.08.2019
3660 Haze 26 1004 78 3000 1 260 23:42 11.08.2019
3661 Haze 26 1004 78 3000 1 260 23:21 11.08.2019
3662 Haze 26 1004 78 3000 2.6 290 22:59 11.08.2019
3663 Haze 26 1005 78 3000 2.6 290 22:40 11.08.2019
3664 Haze 26 1005 78 3000 2.6 290 22:19 11.08.2019
3665 Haze 26 1005 83 3000 2.1 280 21:59 11.08.2019
3666 Haze 27 1005 78 3000 2.1 280 21:40 11.08.2019
3667 Haze 27 1005 78 3000 2.1 280 21:40 11.08.2019
3668 Haze 27 1005 78 3000 2.1 280 21:21 11.08.2019
3669 Haze 26 1006 88 3000 2.1 280 20:56 11.08.2019
3670 Haze 26 1006 88 3000 1 230 20:38 11.08.2019
3671 Haze 26 1006 88 3000 1 230 20:19 11.08.2019
3672 Haze 27 1006 83 3000 1 210 19:42 11.08.2019
3673 Haze 27 1006 83 3000 1 210 19:19 11.08.2019
3674 Haze 27 1005 83 3000 1 280 18:41 11.08.2019
3675 Haze 27 1004 83 3000 1.5 280 18:22 11.08.2019
3676 Haze 27 1004 83 3000 1.5 280 17:58 11.08.2019
3677 Haze 27 1004 83 3000 1.5 280 17:58 11.08.2019
3678 Haze 27 1004 83 3000 1.5 260 17:40 11.08.2019
3679 Haze 27 1004 78 3000 1.5 240 17:20 11.08.2019
3680 Haze 27 1004 78 3000 1.5 240 16:56 11.08.2019
3681 Haze 28 1003 74 3000 1.5 300 16:38 11.08.2019
3682 Haze 28 1003 74 3000 1.5 300 16:18 11.08.2019
3683 Haze 29 1003 66 3000 4.1 300 15:43 11.08.2019
3684 Haze 29 1003 66 3000 4.1 300 15:24 11.08.2019
3685 Haze 29 1003 70 4000 4.1 290 14:58 11.08.2019
3686 Haze 29 1003 70 4000 3.6 260 14:39 11.08.2019
3687 Haze 29 1003 70 4000 3.6 260 14:19 11.08.2019
3688 Haze 28 1003 74 3000 3.6 270 13:44 11.08.2019
3689 Haze 28 1003 74 3000 3.6 270 13:25 11.08.2019
3690 Haze 29 1003 70 4000 3.6 300 12:49 11.08.2019
3691 Haze 32 1003 59 5000 3.6 250 12:25 11.08.2019
3692 Haze 32 1003 59 5000 3.1 270 11:57 11.08.2019
3693 Haze 32 1003 62 5000 3.1 260 11:38 11.08.2019
3694 Haze 32 1003 62 5000 3.1 260 11:20 11.08.2019
3695 Haze 32 1003 62 5000 3.1 260 10:55 11.08.2019
3696 Haze 32 1004 62 5000 3.6 270 10:36 11.08.2019
3697 Haze 31 1004 62 5000 3.6 250 10:18 11.08.2019
3698 Haze 32 1004 62 5000 3.6 270 10:18 11.08.2019
3699 Haze 31 1005 66 5000 4.1 270 09:40 11.08.2019
3700 Haze 31 1005 66 5000 4.1 270 09:21 11.08.2019
3701 Haze 31 1005 66 5000 4.1 270 08:48 11.08.2019
3702 Haze 30 1006 66 5000 4.1 270 08:28 11.08.2019
3703 Haze 30 1006 70 5000 3.1 260 07:56 11.08.2019
3704 Haze 29 1006 74 5000 3.1 280 07:26 11.08.2019
3705 Haze 28 1006 74 5000 2.6 270 06:45 11.08.2019
3706 Haze 28 1006 74 5000 3.1 250 05:58 11.08.2019
3707 Haze 25 1005 88 3500 1 260 03:56 11.08.2019
3708 Haze 25 1004 88 3000 0.5 260 02:49 11.08.2019
3709 Haze 25 1003 88 3000 2.1 270 01:43 11.08.2019
3710 Haze 25 1003 88 3000 2.1 270 01:20 11.08.2019
3711 Haze 26 1003 88 2500 2.1 220 00:48 11.08.2019
3712 Haze 26 1003 88 2500 2.1 220 00:28 11.08.2019
3713 Haze 26 1004 94 2500 2.1 200 23:47 10.08.2019
3714 Haze 26 1004 94 2500 2.1 200 23:28 10.08.2019
3715 Haze 26 1004 94 2500 2.85 276.511 22:44 10.08.2019
3716 Haze 26 1004 94 2500 2.85 276.511 22:44 10.08.2019
3717 Haze 26 1004 94 2500 2.85 276.511 22:26 10.08.2019
3718 Haze 25 1004 100 3000 2.85 276.511 21:58 10.08.2019
3719 Haze 26 1005 88 3000 2.85 276.511 21:39 10.08.2019
3720 Haze 26 1005 88 3000 2.83 262.599 21:20 10.08.2019
3721 Haze 26 1004 88 3000 2.83 262.599 20:56 10.08.2019
3722 Haze 26 1004 94 3000 2.83 262.599 20:37 10.08.2019
3723 Haze 26 1004 94 3000 2.83 262.599 20:18 10.08.2019
3724 Haze 26 1004 94 3000 2.83 262.599 19:40 10.08.2019
3725 Haze 26 1004 94 3000 2.83 262.599 19:21 10.08.2019
3726 Haze 26 1004 94 3000 2.83 262.599 18:42 10.08.2019
3727 Haze 26 1004 94 3000 2.21 245.209 18:23 10.08.2019
3728 Haze 26 1004 88 2500 2.21 245.209 17:55 10.08.2019
3729 Haze 26 1003 94 2500 2.21 245.209 17:36 10.08.2019
3730 Haze 26 1003 94 2500 2.21 245.209 17:18 10.08.2019
3731 Haze 26 1003 94 2000 2.21 245.209 16:42 10.08.2019
3732 Haze 26 1003 94 2000 2.21 245.209 16:20 10.08.2019
3733 Haze 27 1002 88 2000 1.5 80 15:43 10.08.2019
3734 Haze 27 1002 88 2000 1.5 80 15:21 10.08.2019
3735 Rain 27 1002 88 2000 3.6 310 14:43 10.08.2019
3736 Rain 27 1002 88 2000 3.6 310 14:19 10.08.2019
3737 Haze 30 1001 74 3000 2.6 190 13:40 10.08.2019
3738 Haze 30 1001 74 3000 2.6 190 13:19 10.08.2019
3739 Haze 30 1002 79 3000 1.5 80 12:44 10.08.2019
3740 Haze 30 1002 79 3000 1.5 80 12:23 10.08.2019
3741 Rain 28 1002 88 4000 2.1 330 11:58 10.08.2019
3742 Haze 29 1002 74 5000 1.5 210 11:39 10.08.2019
3743 Haze 29 1002 74 5000 1.5 210 11:21 10.08.2019
3744 Haze 30 1003 70 5000 3.6 200 10:39 10.08.2019
3745 Haze 30 1003 70 5000 3.6 200 10:20 10.08.2019
3746 Haze 29 1003 74 5000 3.1 230 10:00 10.08.2019
3747 Haze 29 1003 79 5000 3.1 230 09:39 10.08.2019
3748 Haze 29 1003 79 5000 3.1 230 09:21 10.08.2019
3749 Haze 29 1004 70 5000 3.1 230 08:39 10.08.2019
3750 Haze 29 1004 70 5000 3.1 230 08:20 10.08.2019
3751 Haze 29 1004 74 4000 3.1 230 07:53 10.08.2019
3752 Haze 28 1004 78 4000 5.1 250 07:27 10.08.2019
3753 Haze 28 1004 74 4000 3.6 240 06:48 10.08.2019
3754 Haze 27 1004 83 4000 2.6 210 06:21 10.08.2019
3755 Haze 26 1004 88 4000 4.1 180 05:24 10.08.2019
3756 Haze 25 1003 94 4000 2.1 170 04:26 10.08.2019
3757 Haze 24 1002 94 2500 2.6 220.862 02:54 10.08.2019
3758 Haze 24 1002 94 3000 2.6 220.862 02:23 10.08.2019
3759 Haze 24 1001 94 3000 2.6 220.862 01:41 10.08.2019
3760 Haze 24 1001 94 3000 2.35 220.525 01:21 10.08.2019
3761 Haze 24 1001 94 3000 2.35 220.525 00:46 10.08.2019
3762 Haze 24 1001 94 3000 3.31 212.236 00:22 10.08.2019
3763 Haze 24 1002 94 3000 3.31 212.236 23:44 09.08.2019
3764 Haze 24 1002 94 3000 3.31 212.236 23:23 09.08.2019
3765 Haze 24 1002 94 3000 3.31 212.236 22:57 09.08.2019
3766 Haze 24 1002 94 3000 1.5 190 22:38 09.08.2019
3767 Haze 24 1002 94 3000 1.5 190 22:20 09.08.2019
3768 Haze 25 1003 88 4000 2.1 180 21:41 09.08.2019
3769 Haze 25 1003 88 4000 2.1 180 21:23 09.08.2019
3770 Haze 25 1003 88 4000 1.5 190 20:59 09.08.2019
3771 Haze 25 1003 88 4000 2.6 180 20:40 09.08.2019
3772 Haze 25 1003 88 4000 2.6 180 20:21 09.08.2019
3773 Haze 25 1003 94 4000 2.1 180 19:56 09.08.2019
3774 Haze 25 1003 94 4000 1 180 19:38 09.08.2019
3775 Haze 25 1003 94 4000 1 180 19:18 09.08.2019
3776 Haze 26 1002 88 4000 1.5 180 18:40 09.08.2019
3777 Haze 26 1002 88 4000 1.5 180 18:22 09.08.2019
3778 Haze 26 1002 88 4000 1.5 180 17:56 09.08.2019
3779 Haze 26 1002 88 4000 1.5 180 17:56 09.08.2019
3780 Haze 26 1002 88 4000 2.1 180 17:38 09.08.2019
3781 Haze 26 1002 88 4000 2.1 180 17:19 09.08.2019
3782 Haze 26 1001 88 4000 1.5 180 16:40 09.08.2019
3783 Haze 26 1001 88 4000 1.5 180 16:21 09.08.2019
3784 Haze 26 1000 88 4000 1.5 170 15:56 09.08.2019
3785 Haze 27 1000 88 4000 1.5 190 15:37 09.08.2019
3786 Haze 27 1000 88 4000 1.5 190 15:19 09.08.2019
3787 Haze 27 999 83 4000 2.1 230 14:44 09.08.2019
3788 -273 0 0 0 0 0 14:22 09.08.2019
3789 Haze 27 999 88 3000 4.1 220 13:57 09.08.2019
3790 Haze 27 999 83 3000 4.1 220 13:39 09.08.2019
3791 Haze 27 999 83 3000 4.1 220 13:19 09.08.2019
3792 Haze 27 999 83 3000 4.1 220 12:45 09.08.2019
3793 Haze 27 999 83 3000 4.1 220 12:23 09.08.2019
3794 Haze 27 999 83 3000 5.1 190 11:57 09.08.2019
3795 -273 0 0 0 0 0 11:37 09.08.2019
3796 Haze 27 999 83 3000 5.1 190 11:18 09.08.2019
3797 Rain 27 1000 83 2000 5.1 170 10:40 09.08.2019
3798 Rain 27 1000 83 2000 5.1 170 10:21 09.08.2019
3799 Rain 25 1000 94 2000 4.1 210 09:45 09.08.2019
3800 Rain 25 1000 94 2000 4.1 210 09:20 09.08.2019
3801 Haze 26 1000 83 2500 6.7 210 08:56 09.08.2019
3802 Rain 25 1000 88 2000 4.1 210 08:37 09.08.2019
3803 Rain 25 1000 88 2000 5.1 210 08:18 09.08.2019
3804 Rain 24 1000 94 2000 5.1 210 07:43 09.08.2019
3805 Rain 24 1000 94 2000 5.1 210 07:22 09.08.2019
3806 Rain 24 1000 94 2000 5.7 220 06:55 09.08.2019
3807 Rain 24 999 94 1500 6.2 220 06:27 09.08.2019
3808 Rain 24 999 94 1500 5.7 210 05:50 09.08.2019
3809 Rain 23 997 100 2000 5.1 220 03:19 09.08.2019
3810 Rain 23 996 100 1500 4.6 240 01:45 09.08.2019
3811 Rain 23 996 100 1000 6.2 220 00:45 09.08.2019
3812 Rain 23 996 100 1000 6.2 220 00:45 09.08.2019
3813 Rain 23 996 100 1000 6.2 220 00:26 09.08.2019
3814 Rain 23 996 100 1500 6.7 210 23:59 08.08.2019
3815 Rain 23 996 100 1500 6.7 210 23:59 08.08.2019
3816 Rain 23 996 100 1500 6.7 210 23:59 08.08.2019
3817 Rain 23 996 100 1500 3.6 220 23:38 08.08.2019
3818 Rain 23 996 100 1500 3.6 220 23:19 08.08.2019
3819 Rain 23 996 100 1200 5.1 230 22:57 08.08.2019
3820 Rain 23 996 100 1200 4.1 220 22:37 08.08.2019
3821 Rain 23 996 100 1200 4.1 220 22:37 08.08.2019
3822 Rain 23 996 100 1200 4.1 220 22:18 08.08.2019
3823 Drizzle 23 996 100 2000 5.1 220 21:56 08.08.2019
3824 Drizzle 23 996 100 2000 5.1 220 21:38 08.08.2019
3825 Drizzle 23 996 100 2000 5.1 220 21:19 08.08.2019
3826 Rain 24 997 88 2000 6.2 240 20:42 08.08.2019
3827 Rain 24 997 88 2000 6.2 240 20:22 08.08.2019
3828 Rain 24 997 88 2000 5.1 240 19:57 08.08.2019
3829 Rain 23 997 94 2000 5.7 250 19:38 08.08.2019
3830 Rain 23 997 94 2000 5.7 250 19:19 08.08.2019
3831 Rain 23 997 94 2000 5.7 250 19:19 08.08.2019
3832 Rain 23 996 94 2000 7.2 250 18:41 08.08.2019
3833 Rain 23 996 94 2000 7.2 250 18:22 08.08.2019
3834 Rain 23 996 100 1500 5.1 250 17:55 08.08.2019
3835 Rain 23 996 94 1500 3.6 250 17:36 08.08.2019
3836 Rain 23 996 94 1500 3.6 250 17:18 08.08.2019
3837 Rain 23 995 100 1500 5.1 230 16:42 08.08.2019
3838 Rain 23 995 100 1500 5.1 230 16:24 08.08.2019
3839 Rain 24 995 94 1200 6.2 230 15:58 08.08.2019
3840 Rain 23 994 100 800 7.2 250 15:39 08.08.2019
3841 Rain 23 994 100 800 7.2 250 15:39 08.08.2019
3842 Rain 24 994 94 1500 4.1 250 15:20 08.08.2019
3843 Rain 24 994 94 1500 4.1 250 15:20 08.08.2019
3844 Rain 23 993 100 1000 7.2 250 14:41 08.08.2019
3845 Rain 23 993 100 1000 7.2 250 14:22 08.08.2019
3846 Rain 24 993 94 1000 5.1 240 13:57 08.08.2019
3847 Rain 24 993 94 1000 7.2 260 13:36 08.08.2019
3848 Rain 24 993 94 0 6.7 260 13:18 08.08.2019
3849 Rain 24 993 94 2000 4.6 250 12:39 08.08.2019
3850 Rain 24 993 94 3000 4.6 250 12:19 08.08.2019
3851 Rain 24 993 94 3000 4.6 250 12:19 08.08.2019
3852 Rain 24 993 94 3000 4.6 250 12:19 08.08.2019
3853 Rain 24 994 94 2500 5.7 240 11:47 08.08.2019
3854 Rain 24 994 94 2500 5.7 240 11:26 08.08.2019
3855 Rain 24 994 94 2500 6.2 240 10:57 08.08.2019
3856 Rain 24 994 94 2500 6.2 240 10:57 08.08.2019
3857 Rain 25 994 94 2500 6.7 240 10:39 08.08.2019
3858 Rain 24 994 100 2500 5.7 240 10:20 08.08.2019
3859 Rain 24 994 94 2500 5.7 250 09:43 08.08.2019
3860 Rain 24 994 94 2500 5.7 250 09:23 08.08.2019
3861 Rain 24 995 94 1000 5.1 250 08:44 08.08.2019
3862 Rain 24 995 94 1000 5.1 250 08:23 08.08.2019
3863 Rain 25 995 88 2500 6.7 260 07:58 08.08.2019
3864 Rain 25 996 88 3000 4.1 250 07:39 08.08.2019
3865 Rain 25 996 88 3000 4.1 250 07:19 08.08.2019
3866 Rain 25 996 88 800 4.6 240 06:45 08.08.2019
3867 Haze 25 996 88 4000 4.6 250 06:18 08.08.2019
3868 Haze 25 996 88 4000 4.1 240 05:42 08.08.2019
3869 Haze 24 995 94 3000 2.6 240 04:39 08.08.2019
3870 Rain 24 995 93 0 6.18 261.613 03:48 08.08.2019
3871 Rain 24 995 94 3000 4.1 240 01:59 08.08.2019
3872 Rain 24 995 94 3000 4.1 230 01:20 08.08.2019
3873 Rain 24 995 94 3000 2.6 230 00:25 08.08.2019
3874 Rain 24 995 94 3000 3.1 250 23:40 07.08.2019
3875 Rain 24 995 94 3000 3.1 250 23:18 07.08.2019
3876 Rain 25 996 94 3000 3.1 250 22:41 07.08.2019
3877 Rain 25 996 94 3000 3.1 250 22:21 07.08.2019
3878 Rain 25 996 94 3000 1.5 260 21:58 07.08.2019
3879 Haze 25 997 94 3000 2.1 240 21:40 07.08.2019
3880 Haze 25 997 94 3000 2.1 240 21:21 07.08.2019
3881 Haze 25 997 94 3000 2.6 250 20:59 07.08.2019
3882 Haze 25 997 88 3000 1.5 230 20:41 07.08.2019
3883 Haze 25 997 88 3000 1.5 230 20:22 07.08.2019
3884 Haze 25 998 88 3000 3.1 240 19:56 07.08.2019
3885 Haze 25 998 88 3000 2.1 200 19:37 07.08.2019
3886 Haze 25 998 88 3000 2.1 200 19:37 07.08.2019
3887 Haze 25 998 88 3000 2.1 200 19:18 07.08.2019
3888 Haze 25 998 88 3000 2.1 240 18:40 07.08.2019
3889 Haze 25 998 88 3000 2.1 240 18:20 07.08.2019
3890 Haze 25 997 88 3000 2.1 260 17:56 07.08.2019
3891 Haze 25 997 88 3000 2.1 260 17:56 07.08.2019
3892 Haze 25 997 88 3000 2.1 260 17:38 07.08.2019
3893 Haze 25 997 88 3000 2.1 260 17:19 07.08.2019
3894 Haze 25 997 88 3000 3.1 250 16:56 07.08.2019
3895 Haze 25 997 88 3000 3.1 250 16:56 07.08.2019
3896 Haze 25 997 88 3000 3.1 250 16:56 07.08.2019
3897 Haze 25 996 88 3000 3.1 250 16:37 07.08.2019
3898 Haze 25 996 88 3000 3.1 250 16:19 07.08.2019
3899 Haze 26 995 83 4000 4.1 260 15:42 07.08.2019
3900 Haze 26 995 83 4000 4.1 260 15:20 07.08.2019
3901 Haze 26 995 83 4000 5.7 260 14:50 07.08.2019
3902 Haze 26 995 88 3000 4.1 270 14:30 07.08.2019
3903 Haze 26 995 88 3000 6.2 270 13:59 07.08.2019
3904 Haze 27 995 83 3000 6.2 260 13:39 07.08.2019
3905 Haze 27 995 83 3000 6.2 260 13:19 07.08.2019
3906 Haze 27 996 83 3000 5.1 260 12:57 07.08.2019
3907 Rain 27 997 88 3000 7.7 260 12:38 07.08.2019
3908 Rain 27 997 88 3000 7.7 260 12:19 07.08.2019
3909 Rain 27 997 83 2500 7.2 270 11:55 07.08.2019
3910 Rain 27 997 88 2500 2.6 280 11:37 07.08.2019
3911 Rain 27 997 88 2500 2.6 280 11:18 07.08.2019
3912 Drizzle 27 998 83 3000 6.2 260 10:40 07.08.2019
3913 Drizzle 27 998 83 3000 6.2 260 10:20 07.08.2019
3914 Drizzle 27 998 83 2500 5.1 270 09:48 07.08.2019
3915 Drizzle 27 998 83 2500 5.1 270 09:24 07.08.2019
3916 Drizzle 27 999 88 2500 4.1 260 08:59 07.08.2019
3917 Drizzle 26 999 94 2500 4.1 260 08:41 07.08.2019
3918 Drizzle 26 999 94 2500 4.1 260 08:23 07.08.2019
3919 Rain 26 999 88 2000 3.6 270 07:50 07.08.2019
3920 Haze 27 999 83 3000 3.6 270 07:29 07.08.2019
3921 Haze 26 999 88 3000 2.1 290 06:43 07.08.2019
3922 Haze 26 999 88 3000 2.1 290 06:21 07.08.2019
3923 Haze 25 999 94 3000 4.1 270 05:40 07.08.2019
3924 Rain 25 998 94 3000 3.6 270 03:26 07.08.2019
3925 Rain 25 997 94 2000 4.6 270 02:51 07.08.2019
3926 Rain 25 997 94 2000 6.7 270 02:30 07.08.2019
3927 Rain 25 997 94 2000 4.1 280 01:48 07.08.2019
3928 Rain 25 997 94 2000 4.1 280 00:53 07.08.2019
3929 Rain 24 997 100 1500 2.6 280 00:23 07.08.2019
3930 Rain 24 997 100 1500 3.1 250 23:48 06.08.2019
3931 Rain 24 998 100 0 4.1 290 23:23 06.08.2019
3932 Rain 24 998 100 1500 4.6 260 22:59 06.08.2019
3933 Rain 25 998 94 1500 4.6 280 22:40 06.08.2019
3934 Rain 25 998 94 1500 4.6 280 22:20 06.08.2019
3935 Rain 25 999 94 2500 5.1 260 21:56 06.08.2019
3936 Haze 26 999 88 2500 4.1 260 21:38 06.08.2019
3937 Haze 26 999 88 2500 4.1 260 21:18 06.08.2019
3938 Haze 26 999 88 2500 3.1 250 20:42 06.08.2019
3939 Haze 26 999 88 2500 3.1 250 20:23 06.08.2019
3940 Haze 26 999 88 2500 2.6 260 19:48 06.08.2019
3941 Haze 26 1000 88 2500 3.1 250 19:29 06.08.2019
3942 Haze 26 999 88 2500 2.1 240 18:57 06.08.2019
3943 Drizzle 26 1000 88 2500 2.1 250 18:38 06.08.2019
3944 Drizzle 26 1000 88 2500 1 240 18:19 06.08.2019
3945 Drizzle 26 1000 88 2500 1 240 17:56 06.08.2019
3946 Drizzle 26 999 88 2500 1.5 230 17:37 06.08.2019
3947 Drizzle 26 999 88 2500 1.5 230 17:18 06.08.2019
3948 Drizzle 27 998 83 2500 1.5 270 16:42 06.08.2019
3949 Drizzle 27 998 83 2500 1.5 270 16:24 06.08.2019
3950 Haze 27 998 83 2500 1.5 290 15:58 06.08.2019
3951 Haze 27 998 83 2500 3.6 260 15:39 06.08.2019
3952 Rain 27 998 83 2500 2.6 290 15:20 06.08.2019
3953 Haze 27 998 88 2500 1.5 290 14:45 06.08.2019
3954 Haze 27 998 88 2500 1.5 290 14:26 06.08.2019
3955 Haze 28 997 78 2500 3.1 310 13:58 06.08.2019
3956 Haze 28 997 78 3000 3.1 280 13:40 06.08.2019
3957 Haze 28 997 78 3000 3.1 280 13:22 06.08.2019
3958 Haze 28 997 78 3000 1.5 310 12:58 06.08.2019
3959 Haze 28 998 78 3000 2.6 280 12:39 06.08.2019
3960 Haze 28 998 78 3000 2.6 280 12:21 06.08.2019
3961 Haze 28 998 78 3000 1.5 280 11:43 06.08.2019
3962 Haze 28 998 78 3000 1.5 280 11:19 06.08.2019
3963 Haze 29 998 79 3000 2.1 280 10:56 06.08.2019
3964 Haze 28 999 83 4000 2.6 250 10:37 06.08.2019
3965 Haze 28 999 83 4000 3.1 250 10:19 06.08.2019
3966 Haze 28 1000 83 4000 3.6 270 09:40 06.08.2019
3967 Haze 28 1000 83 4000 3.6 270 09:20 06.08.2019
3968 Haze 28 1000 83 4000 3.1 300 08:48 06.08.2019
3969 Haze 28 1000 83 4000 5.1 270 08:26 06.08.2019
3970 Haze 27 1000 83 4000 4.1 260 07:47 06.08.2019
3971 Haze 27 1000 83 4000 4.1 260 07:23 06.08.2019
3972 Haze 27 1001 83 4000 3.1 260 06:43 06.08.2019
3973 Haze 26 1001 88 4000 2.1 260 05:55 06.08.2019
3974 Haze 26 1000 88 4000 3.6 240 04:35 06.08.2019
3975 Haze 25 999 88 3000 1.5 230 01:59 06.08.2019
3976 Haze 25 999 88 3000 2.1 250 01:24 06.08.2019
3977 Haze 25 999 94 3000 1.5 240 00:37 06.08.2019
3978 Haze 25 999 94 3000 3.1 250 23:47 05.08.2019
3979 Haze 25 999 94 3000 3.6 250 23:19 05.08.2019
3980 Haze 25 1000 94 3000 3.6 240 22:42 05.08.2019
3981 Haze 25 1000 94 3000 3.6 240 22:23 05.08.2019
3982 Haze 26 1000 88 3000 3.1 250 21:56 05.08.2019
3983 Haze 26 1000 88 3000 3.6 270 21:37 05.08.2019
3984 Haze 26 1000 88 3000 3.6 270 21:19 05.08.2019
3985 Haze 26 1000 94 3000 2.1 260 20:55 05.08.2019
3986 Haze 26 1000 94 3000 1 230 20:37 05.08.2019
3987 Haze 26 1000 94 3000 1 230 20:18 05.08.2019
3988 Haze 26 1000 94 3000 2.1 230 19:43 05.08.2019
3989 Haze 26 1000 94 3000 2.1 230 19:23 05.08.2019
3990 Haze 26 1000 94 3000 2.6 230 18:57 05.08.2019
3991 Haze 27 1000 88 3000 2.6 230 18:39 05.08.2019
3992 Haze 27 1000 88 3000 2.6 240 18:18 05.08.2019
3993 Haze 27 999 88 3000 1.5 200 17:41 05.08.2019
3994 Haze 27 999 88 3000 1.5 200 17:22 05.08.2019
3995 Haze 27 999 88 3000 1.5 230 16:46 05.08.2019
3996 Haze 27 999 88 3000 1.5 230 16:25 05.08.2019
3997 Haze 27 998 94 3000 2.6 250 15:46 05.08.2019
3998 Haze 27 998 94 3000 2.6 250 15:28 05.08.2019
3999 Haze 27 998 94 3000 6.42 248.329 14:59 05.08.2019
4000 Haze 27 998 94 3000 6.42 248.329 14:38 05.08.2019
4001 Haze 27 998 94 3000 6.42 248.329 14:19 05.08.2019
4002 Haze 27 999 94 3000 1 80 13:43 05.08.2019
4003 Haze 27 999 94 3000 1 80 13:22 05.08.2019
4004 Haze 27 999 88 2500 7.67 255.755 12:46 05.08.2019
4005 Haze 27 999 88 2500 1 270 12:20 05.08.2019
4006 Rain 27 1000 88 2000 3.1 240 11:46 05.08.2019
4007 Rain 27 1000 88 2000 3.1 240 11:27 05.08.2019
4008 Haze 27 1000 88 3000 2.6 230 10:58 05.08.2019
4009 Haze 28 1000 83 4000 2.6 200 10:40 05.08.2019
4010 Haze 28 1000 83 4000 2.6 200 10:21 05.08.2019
4011 Haze 27 1001 83 3000 2.6 250 09:40 05.08.2019
4012 Haze 27 1001 83 3000 2.6 250 09:21 05.08.2019
4013 Haze 27 1001 83 3000 3.6 240 08:47 05.08.2019
4014 Haze 27 1001 83 3000 3.6 240 08:25 05.08.2019
4015 Haze 27 1001 83 3000 4.1 250 07:54 05.08.2019
4016 Haze 26 1001 83 3000 4.6 240 07:31 05.08.2019
4017 Haze 26 1001 94 3000 4.6 250 06:59 05.08.2019
4018 Haze 26 1001 94 3000 4.1 240 06:29 05.08.2019
4019 Haze 25 1001 88 3000 5.1 250 05:41 05.08.2019
4020 -273 0 0 0 0 0 04:56 05.08.2019
4021 Haze 25 1000 88 3000 3.6 250 03:56 05.08.2019
4022 Haze 24 1000 94 3000 2.6 250 03:20 05.08.2019
4023 Haze 25 1000 88 0 3.1 240 02:26 05.08.2019
4024 Haze 25 1000 88 3000 2.6 240 01:32 05.08.2019
4025 Haze 24 1000 94 3000 2.1 240 00:41 05.08.2019
4026 Haze 24 1000 94 3000 2.1 240 00:21 05.08.2019
4027 Haze 24 1000 94 3000 2.6 240 23:44 04.08.2019
4028 Haze 24 1000 94 3000 2.6 240 23:24 04.08.2019
4029 Haze 24 1000 94 3000 4.6 250 22:58 04.08.2019
4030 Haze 25 1000 88 3000 4.1 250 22:38 04.08.2019
4031 Haze 25 1000 88 3000 4.1 250 22:20 04.08.2019
4032 Haze 25 1000 88 3000 4.1 250 21:59 04.08.2019
4033 Haze 25 1001 94 3000 3.6 240 21:41 04.08.2019
4034 Haze 25 1001 94 3000 3.6 240 21:41 04.08.2019
4035 Haze 25 1001 94 3000 3.6 240 21:20 04.08.2019
4036 Haze 25 1001 94 3000 3.1 230 20:43 04.08.2019
4037 Haze 25 1001 94 3000 3.1 230 20:19 04.08.2019
4038 Rain 24 1001 100 2500 3.1 200 19:56 04.08.2019
4039 Rain 24 1001 100 2500 1.5 200 19:37 04.08.2019
4040 Rain 25 1001 94 2500 3.6 210 19:18 04.08.2019
4041 Rain 25 1001 94 2000 3.1 230 18:42 04.08.2019
4042 Haze 27 1001 88 3000 1 160 18:20 04.08.2019
4043 Haze 26 1000 94 3000 5.42 232.921 17:44 04.08.2019
4044 Haze 26 1000 94 3000 5.42 232.921 17:24 04.08.2019
4045 Haze 27 1000 88 3000 1.5 280 16:55 04.08.2019
4046 Haze 27 1000 88 3000 2.1 230 16:36 04.08.2019
4047 Haze 27 1000 88 3000 2.1 230 16:18 04.08.2019
4048 Haze 27 999 88 4000 2.1 180 15:39 04.08.2019
4049 Haze 27 999 88 4000 2.1 180 15:20 04.08.2019
4050 Haze 27 999 88 4000 2.6 190 14:44 04.08.2019
4051 Haze 27 999 88 4000 2.6 190 14:26 04.08.2019
4052 Haze 29 999 74 4000 2.1 200 13:47 04.08.2019
4053 Haze 29 999 74 4000 2.1 200 13:27 04.08.2019
4054 Clouds 29 999 74 6000 3.1 230 12:57 04.08.2019
4055 Clouds 29 1000 74 6000 3.6 210 12:39 04.08.2019
4056 Clouds 29 1000 74 6000 3.6 210 12:21 04.08.2019
4057 Clouds 29 1000 74 6000 3.6 240 11:49 04.08.2019
4058 Clouds 28 1001 78 6000 3.6 220 11:23 04.08.2019
4059 Clouds 29 1001 74 6000 4.1 240 10:51 04.08.2019
4060 Clouds 28 1001 78 6000 4.6 220 10:23 04.08.2019
4061 Clouds 28 1002 74 6000 4.6 230 09:47 04.08.2019
4062 Clouds 28 1002 78 6000 5.1 220 09:27 04.08.2019
4063 Clouds 28 1003 78 6000 5.1 240 08:59 04.08.2019
4064 Haze 27 1003 83 5000 5.1 230 08:38 04.08.2019
4065 Haze 27 1003 78 5000 5.1 220 07:56 04.08.2019
4066 Haze 27 1003 83 5000 5.1 220 07:37 04.08.2019
4067 Haze 26 1003 83 5000 3.6 220 06:43 04.08.2019
4068 Haze 26 1003 83 5000 3.6 220 06:19 04.08.2019
4069 Haze 24 1003 94 3000 1.5 200 03:38 04.08.2019
4070 Haze 24 1002 94 3000 2.6 210 01:55 04.08.2019
4071 Haze 24 1002 94 3000 2.6 190 01:32 04.08.2019
4072 Haze 24 1002 94 3000 2.6 200 00:42 04.08.2019
4073 Haze 24 1002 94 3000 2.6 200 00:24 04.08.2019
4074 Haze 24 1001 94 3000 2.6 200 23:55 03.08.2019
4075 Haze 24 1002 100 3000 2.1 200 23:36 03.08.2019
4076 Haze 24 1002 100 3000 2.1 200 23:18 03.08.2019
4077 Haze 24 1002 100 3000 2.1 210 22:39 03.08.2019
4078 Haze 24 1002 100 3000 2.1 210 22:19 03.08.2019
4079 Haze 25 1003 94 3000 2.1 210 21:39 03.08.2019
4080 Haze 25 1003 94 3000 2.1 210 21:21 03.08.2019
4081 Haze 25 1003 94 3000 2.6 200 20:45 03.08.2019
4082 Haze 25 1003 94 3000 2.6 200 20:24 03.08.2019
4083 Haze 25 1003 94 3000 2.1 210 19:55 03.08.2019
4084 Haze 25 1003 94 3000 3.1 190 19:36 03.08.2019
4085 Haze 25 1003 94 3000 3.1 190 19:18 03.08.2019
4086 Haze 25 1003 94 3000 3.1 200 18:40 03.08.2019
4087 Haze 25 1003 94 3000 3.1 200 18:21 03.08.2019
4088 Haze 25 1002 94 2500 3.1 220 17:42 03.08.2019
4089 Rain 25 1002 94 2500 3.1 210 17:19 03.08.2019
4090 Rain 25 1002 100 2500 2.6 190 16:38 03.08.2019
4091 Rain 25 1001 94 2000 3.1 200 16:20 03.08.2019
4092 Rain 25 1001 94 2000 3.1 190 15:46 03.08.2019
4093 Rain 25 1001 94 2000 3.1 190 15:26 03.08.2019
4094 Rain 25 1001 94 2500 3.1 220 14:48 03.08.2019
4095 Rain 25 1001 94 2500 3.1 230 14:24 03.08.2019
4096 Rain 25 1000 94 2500 3.6 230 13:57 03.08.2019
4097 Haze 26 1000 88 2500 4.1 190 13:37 03.08.2019
4098 Haze 26 1000 88 2500 4.1 190 13:37 03.08.2019
4099 Haze 26 1000 88 4000 5.7 210 13:19 03.08.2019
4100 Haze 26 1001 88 4000 4.1 220 12:41 03.08.2019
4101 Haze 26 1001 88 4000 4.1 220 12:23 03.08.2019
4102 Haze 26 1001 88 4000 5.1 220 11:52 03.08.2019
4103 Haze 26 1001 88 4000 4.6 220 11:34 03.08.2019
4104 Haze 26 1002 88 4000 3.6 200 10:46 03.08.2019
4105 Haze 26 1002 88 4000 3.6 200 10:24 03.08.2019
4106 Haze 26 1002 88 4000 5.7 240 09:45 03.08.2019
4107 Haze 26 1002 88 4000 5.7 240 09:24 03.08.2019
4108 Haze 25 1002 94 4000 5.7 250 08:56 03.08.2019
4109 Rain 25 1002 94 4000 4.1 220 08:21 03.08.2019
4110 Rain 24 1002 100 2500 4.1 220 07:38 03.08.2019
4111 Rain 24 1002 94 2000 4.6 240 06:40 03.08.2019
4112 Rain 24 1002 94 1500 4.1 240 05:47 03.08.2019
4113 Haze 25 1001 94 2500 3.1 240 02:43 03.08.2019
4114 Haze 25 1000 88 2500 3.1 220 01:54 03.08.2019
4115 Haze 25 1000 88 2500 3.6 250 00:56 03.08.2019
4116 Haze 25 1000 88 2500 3.6 230 00:29 03.08.2019
4117 Haze 25 1001 88 2500 4.6 240 23:41 02.08.2019
4118 Haze 25 1001 88 2500 4.1 230 23:19 02.08.2019
4119 Haze 25 1001 88 2500 4.1 230 22:57 02.08.2019
4120 Haze 25 1001 88 2500 4.1 230 22:57 02.08.2019
4121 Haze 25 1001 88 2500 3.1 240 22:39 02.08.2019
4122 Haze 25 1001 88 2500 3.1 240 22:20 02.08.2019
4123 Haze 25 1001 88 2500 3.6 240 21:55 02.08.2019
4124 Haze 25 1001 88 2500 3.6 250 21:36 02.08.2019
4125 Haze 25 1001 88 2500 3.6 250 21:18 02.08.2019
4126 Rain 25 1002 94 2000 3.6 250 20:41 02.08.2019
4127 Rain 25 1002 94 2000 3.6 250 20:21 02.08.2019
4128 Rain 25 1002 94 2000 3.1 250 19:49 02.08.2019
4129 Rain 25 1003 100 2000 2.1 200 19:28 02.08.2019
4130 Rain 25 1002 100 2000 1.5 200 18:45 02.08.2019
4131 Rain 25 1002 100 2000 1.5 200 18:27 02.08.2019
4132 Rain 25 1002 100 2000 1.5 200 17:48 02.08.2019
4133 Rain 25 1002 100 2000 1.5 200 17:26 02.08.2019
4134 Rain 25 1002 100 2000 1.5 180 16:59 02.08.2019
4135 Rain 25 1001 100 2000 1.5 160 16:39 02.08.2019
4136 Rain 25 1001 100 2000 1.5 160 16:19 02.08.2019
4137 Rain 25 1000 100 2000 3.1 240 15:44 02.08.2019
4138 Rain 25 1000 100 2000 3.1 240 15:20 02.08.2019
4139 Rain 25 1000 100 2000 1.5 240 14:47 02.08.2019
4140 Rain 25 1000 100 2000 1.5 240 14:19 02.08.2019
4141 Rain 25 1000 94 2000 2.6 260 13:50 02.08.2019
4142 Rain 25 1000 94 2000 2.6 260 13:29 02.08.2019
4143 Rain 25 1000 94 1500 3.6 260 12:47 02.08.2019
4144 Rain 25 1000 94 1500 3.6 260 12:24 02.08.2019
4145 Rain 25 1000 94 1200 4.1 270 11:58 02.08.2019
4146 Rain 25 1000 94 1200 5.1 280 11:39 02.08.2019
4147 Rain 25 1000 94 1200 3.6 280 11:21 02.08.2019
4148 Rain 25 1001 94 0 3.6 280 10:43 02.08.2019
4149 Rain 25 1001 94 0 3.6 280 10:23 02.08.2019
4150 Rain 25 1001 94 1200 4.1 270 09:52 02.08.2019
4151 Rain 26 1001 88 3000 4.1 270 09:29 02.08.2019
4152 Haze 27 1001 83 4000 4.1 270 08:53 02.08.2019
4153 Haze 27 1001 78 4000 4.1 270 08:25 02.08.2019
4154 Haze 27 1002 78 4000 4.1 270 07:52 02.08.2019
4155 Haze 27 1002 78 3000 5.1 260 07:34 02.08.2019
4156 Haze 26 1002 83 3000 3.6 260 06:55 02.08.2019
4157 Haze 26 1002 83 3000 3.6 260 06:26 02.08.2019
4158 Haze 25 1002 94 3000 2.6 240 05:38 02.08.2019
4159 Drizzle 24 1001 94 2500 1.5 230 03:31 02.08.2019
4160 Haze 25 1000 88 3000 2.6 270 02:37 02.08.2019
4161 Haze 25 1001 88 3000 1.5 250 00:54 02.08.2019
4162 Haze 25 1001 88 3000 1.5 240 00:20 02.08.2019
4163 Haze 25 1001 88 3000 2.1 250 23:43 01.08.2019
4164 Drizzle 25 1001 94 3000 1.5 250 23:19 01.08.2019
4165 Drizzle 25 1002 94 3000 2.1 240 22:41 01.08.2019
4166 Drizzle 25 1002 94 3000 2.1 240 22:21 01.08.2019
4167 Drizzle 25 1002 94 3000 1.5 230 21:54 01.08.2019
4168 Drizzle 25 1002 94 3000 2.1 250 21:36 01.08.2019
4169 Drizzle 25 1002 94 3000 2.1 250 21:18 01.08.2019
4170 Haze 25 1003 94 3000 2.1 250 20:41 01.08.2019
4171 Haze 25 1003 94 3000 2.1 250 20:22 01.08.2019
4172 Haze 26 1003 88 3000 2.6 240 19:44 01.08.2019
4173 Haze 26 1003 88 3000 2.1 230 19:22 01.08.2019
4174 Haze 26 1003 88 3000 2.6 230 18:46 01.08.2019
4175 Haze 26 1003 88 3000 2.6 230 18:25 01.08.2019
4176 Haze 26 1003 94 3000 2.1 240 17:56 01.08.2019
4177 Haze 26 1002 88 3000 1.5 220 17:38 01.08.2019
4178 Haze 26 1002 88 3000 2.1 230 17:19 01.08.2019
4179 Haze 26 1002 88 3000 1.5 200 16:44 01.08.2019
4180 Haze 26 1002 88 3000 1.5 200 16:21 01.08.2019
4181 Haze 26 1001 88 3000 1.5 250 15:42 01.08.2019
4182 Haze 26 1001 88 3000 1.5 250 15:20 01.08.2019
4183 Drizzle 26 1001 88 3000 1.5 230 14:44 01.08.2019
4184 Drizzle 26 1001 88 3000 1.5 230 14:21 01.08.2019
4185 Haze 27 1001 83 4000 1.5 250 13:58 01.08.2019
4186 Haze 27 1001 83 4000 2.6 260 13:40 01.08.2019
4187 Haze 27 1001 83 4000 2.6 260 13:21 01.08.2019
4188 Haze 27 1001 83 4000 2.6 240 12:49 01.08.2019
4189 Haze 27 1001 78 4000 4.6 260 12:28 01.08.2019
4190 Haze 27 1002 83 4000 4.6 260 11:55 01.08.2019
4191 Haze 27 1002 78 4000 4.1 260 11:36 01.08.2019
4192 Haze 27 1002 78 4000 2.6 250 11:18 01.08.2019
4193 Haze 27 1003 94 3000 4.1 240 10:41 01.08.2019
4194 Haze 27 1003 94 3000 4.1 240 10:41 01.08.2019
4195 Haze 27 1003 94 3000 4.1 240 10:22 01.08.2019
4196 Haze 27 1003 83 3000 4.1 260 09:50 01.08.2019
4197 Haze 26 1003 88 3000 2.1 240 09:23 01.08.2019
4198 Haze 26 1004 88 3000 3.1 230 08:50 01.08.2019
4199 Haze 26 1004 88 3000 3.1 230 08:22 01.08.2019
4200 Haze 26 1004 88 3000 3.1 230 07:55 01.08.2019
4201 Haze 26 1004 88 3000 3.6 220 07:29 01.08.2019
4202 Haze 25 1004 88 3000 3.6 230 06:58 01.08.2019
4203 Haze 25 1004 88 3000 3.6 240 06:36 01.08.2019
4204 Haze 25 1004 88 3000 3.6 220 05:32 01.08.2019
4205 Rain 24 1003 88 2000 2.1 240 02:36 01.08.2019
4206 Haze 24 1003 88 2000 3.1 240 01:25 01.08.2019
4207 Rain 24 1003 88 2000 3.6 240 00:27 01.08.2019
4208 Rain 24 1003 88 2000 2.1 220 23:57 31.07.2019
4209 Rain 24 1003 88 2000 2.1 220 23:39 31.07.2019
4210 Rain 24 1003 88 2000 2.1 230 23:19 31.07.2019
4211 Rain 24 1003 88 2000 2.6 230 22:44 31.07.2019
4212 Rain 24 1003 88 2000 2.6 230 22:44 31.07.2019
4213 Rain 24 1003 88 2000 2.6 230 22:24 31.07.2019
4214 Rain 24 1003 88 2000 2.6 230 22:24 31.07.2019
4215 Rain 24 1004 94 2000 2.1 220 21:41 31.07.2019
4216 Rain 24 1004 94 2000 2.1 220 21:23 31.07.2019
4217 Rain 24 1004 94 2000 2.1 210 20:49 31.07.2019
4218 Rain 24 1004 94 2000 2.1 220 20:24 31.07.2019
4219 Rain 23 1004 100 2000 2.1 200 19:49 31.07.2019
4220 Rain 24 1005 94 2000 1.5 220 19:31 31.07.2019
4221 Rain 24 1004 94 2000 1.5 250 18:58 31.07.2019
4222 Rain 24 1004 88 2000 2.6 240 18:37 31.07.2019
4223 Rain 24 1004 88 2000 3.1 240 18:18 31.07.2019
4224 Rain 24 1004 88 2000 3.6 240 17:44 31.07.2019
4225 Rain 24 1004 88 2000 3.6 240 17:20 31.07.2019
4226 Rain 24 1003 88 2000 3.6 260 16:54 31.07.2019
4227 Rain 24 1003 88 2000 4.6 250 16:27 31.07.2019
4228 Rain 24 1003 94 2000 4.6 250 15:58 31.07.2019
4229 Rain 24 1002 94 2500 5.1 250 15:38 31.07.2019
4230 Rain 24 1002 94 2500 5.1 250 15:20 31.07.2019
4231 Rain 24 1002 94 2500 5.7 250 14:42 31.07.2019
4232 Rain 24 1002 94 2500 5.7 250 14:19 31.07.2019
4233 Rain 24 1002 94 2500 4.6 240 13:55 31.07.2019
4234 Rain 25 1002 88 2500 5.1 260 13:36 31.07.2019
4235 Rain 25 1002 88 2500 5.1 260 13:18 31.07.2019
4236 Rain 24 1002 100 1500 6.2 260 13:18 31.07.2019
4237 Rain 24 1002 100 1500 5.1 250 12:40 31.07.2019
4238 Rain 24 1002 100 1500 5.1 250 12:21 31.07.2019
4239 Rain 24 1003 100 2000 6.7 230 11:39 31.07.2019
4240 Rain 24 1003 100 2000 6.7 230 11:20 31.07.2019
4241 Rain 24 1004 94 2000 3.6 230 10:45 31.07.2019
4242 Rain 24 1004 94 2000 3.6 230 10:21 31.07.2019
4243 Haze 24 1004 94 4000 6.2 240 09:58 31.07.2019
4244 Haze 24 1004 94 4000 4.1 220 09:39 31.07.2019
4245 Haze 24 1004 94 4000 4.1 220 09:39 31.07.2019
4246 Haze 24 1004 94 4000 4.1 220 09:21 31.07.2019
4247 Rain 24 1005 94 2000 4.6 240 08:42 31.07.2019
4248 Rain 24 1005 94 2000 4.6 240 08:22 31.07.2019
4249 Haze 23 1005 100 3000 4.1 220 07:40 31.07.2019
4250 Haze 23 1005 100 3000 4.1 220 07:22 31.07.2019
4251 Rain 24 1004 83 3000 6.2 250 04:56 31.07.2019
4252 Drizzle 23 1003 88 3000 4.6 240 03:29 31.07.2019
4253 Rain 23 1003 94 2000 4.6 220 00:30 31.07.2019
4254 Rain 23 1003 88 2000 5.1 250 23:42 30.07.2019
4255 Rain 23 1003 88 2000 5.1 250 23:20 30.07.2019
4256 Drizzle 23 1003 88 2000 4.6 250 22:46 30.07.2019
4257 Drizzle 23 1003 88 2000 4.6 250 22:25 30.07.2019
4258 Rain 23 1003 88 2000 5.7 250 21:57 30.07.2019
4259 Rain 23 1004 94 2000 4.1 240 21:36 30.07.2019
4260 Rain 23 1004 94 2000 4.1 240 21:18 30.07.2019
4261 Rain 23 1004 94 2000 4.1 210 20:43 30.07.2019
4262 Rain 23 1004 94 2000 4.1 210 20:24 30.07.2019
4263 Rain 23 1004 100 2000 5.1 230 19:58 30.07.2019
4264 Rain 23 1004 100 2000 5.1 230 19:39 30.07.2019
4265 Rain 23 1004 100 2000 4.1 250 18:58 30.07.2019
4266 Rain 24 1004 94 2000 4.6 230 18:38 30.07.2019
4267 Rain 24 1003 94 2000 4.1 210 18:18 30.07.2019
4268 Rain 24 1003 94 2000 4.1 240 17:41 30.07.2019
4269 Rain 24 1003 94 2000 4.1 240 17:19 30.07.2019
4270 Rain 24 1003 94 2000 4.1 240 17:19 30.07.2019
4271 Rain 24 1003 94 2000 4.6 240 16:51 30.07.2019
4272 Rain 24 1002 94 2000 4.1 230 16:21 30.07.2019
4273 Rain 24 1002 100 2000 5.1 250 15:58 30.07.2019
4274 Rain 24 1001 100 1500 4.1 220 15:37 30.07.2019
4275 Rain 24 1001 100 1500 4.1 220 15:18 30.07.2019
4276 Rain 24 1000 100 1000 4.6 240 14:42 30.07.2019
4277 Rain 24 1000 100 1000 4.6 240 14:20 30.07.2019
4278 Rain 24 1000 100 1500 4.1 200 13:47 30.07.2019
4279 Rain 24 1000 100 1500 4.1 200 13:29 30.07.2019
4280 Rain 23 1000 100 800 5.7 210 12:58 30.07.2019
4281 Rain 24 1000 100 1000 4.1 240 12:39 30.07.2019
4282 Rain 24 1000 100 1000 4.1 240 12:21 30.07.2019
4283 Rain 24 1000 100 800 4.1 210 11:40 30.07.2019
4284 Rain 24 1000 100 800 4.1 210 11:20 30.07.2019
4285 Rain 24 1001 100 800 4.1 210 10:46 30.07.2019
4286 Rain 24 1001 100 800 4.1 210 10:27 30.07.2019
4287 Rain 24 1001 100 0 4.1 220 09:50 30.07.2019
4288 Rain 24 1001 100 0 3.1 220 09:31 30.07.2019
4289 Rain 24 1001 100 1200 3.1 230 08:53 30.07.2019
4290 Rain 24 1002 100 1200 3.1 220 08:31 30.07.2019
4291 Rain 24 1002 100 800 4.1 240 07:47 30.07.2019
4292 Rain 24 1002 100 800 4.1 240 07:29 30.07.2019
4293 Rain 24 1002 94 2000 4.1 230 06:48 30.07.2019
4294 Rain 24 1002 94 2000 4.1 230 06:21 30.07.2019
4295 Drizzle 24 1001 94 2000 3.1 240 05:33 30.07.2019
4296 Haze 25 999 88 2000 3.6 260 02:31 30.07.2019
4297 Rain 25 999 88 2000 3.6 270 01:19 30.07.2019
4298 Rain 24 999 100 2000 3.1 260 00:21 30.07.2019
4299 Rain 25 999 94 2000 2.6 240 23:45 29.07.2019
4300 Rain 25 999 94 2000 2.6 240 23:26 29.07.2019
4301 Rain 25 999 94 2000 2.6 240 22:57 29.07.2019
4302 Rain 25 1000 94 2000 2.1 230 22:38 29.07.2019
4303 Rain 25 1000 94 2000 2.1 230 22:20 29.07.2019
4304 Rain 25 1000 94 2000 2.1 230 21:56 29.07.2019
4305 Rain 24 1000 100 2000 2.1 240 21:37 29.07.2019
4306 Rain 24 1000 100 2000 2.1 240 21:18 29.07.2019
4307 Rain 25 1000 94 2000 3.1 230 20:48 29.07.2019
4308 Rain 25 1000 94 2000 2.6 240 20:24 29.07.2019
4309 Rain 25 1001 94 2000 2.6 250 19:56 29.07.2019
4310 Rain 25 1001 94 2000 3.1 260 19:37 29.07.2019
4311 Rain 25 1001 94 2000 3.1 260 19:19 29.07.2019
4312 Rain 25 1001 94 2000 2.6 240 18:42 29.07.2019
4313 Rain 25 1001 94 2000 2.6 240 18:22 29.07.2019
4314 Rain 25 1001 94 2000 2.1 230 17:51 29.07.2019
4315 Rain 25 1000 94 2000 2.6 250 17:33 29.07.2019
4316 Rain 25 1000 94 2000 2.6 250 16:58 29.07.2019
4317 Rain 25 1000 94 2000 3.1 240 16:39 29.07.2019
4318 Rain 25 1000 94 2000 3.1 240 16:21 29.07.2019
4319 Rain 25 1000 94 2000 3.6 250 15:50 29.07.2019
4320 Rain 25 998 94 2000 5.1 240 15:31 29.07.2019
4321 Rain 25 998 94 2000 5.1 260 14:46 29.07.2019
4322 Rain 25 998 94 2000 5.1 260 14:21 29.07.2019
4323 Rain 25 998 100 1200 3.6 290 13:59 29.07.2019
4324 Drizzle 25 998 94 3000 3.6 290 13:41 29.07.2019
4325 Drizzle 25 998 94 3000 3.6 290 13:22 29.07.2019
4326 Drizzle 26 998 88 3000 5.1 280 12:42 29.07.2019
4327 Drizzle 26 998 88 3000 5.1 280 12:22 29.07.2019
4328 Drizzle 27 998 83 4000 3.6 280 11:42 29.07.2019
4329 Drizzle 27 998 83 4000 3.6 280 11:21 29.07.2019
4330 Haze 28 999 83 4000 5.1 280 10:45 29.07.2019
4331 Haze 28 999 83 4000 5.1 280 10:24 29.07.2019
4332 Haze 28 999 83 4000 4.1 290 09:45 29.07.2019
4333 Haze 28 999 83 4000 4.1 290 09:25 29.07.2019
4334 Haze 28 1000 83 4000 3.6 270 08:57 29.07.2019
4335 Haze 28 1000 83 4000 3.1 270 08:28 29.07.2019
4336 Haze 26 1000 94 4000 2.6 290 07:56 29.07.2019
4337 Haze 26 1001 94 4000 2.6 280 07:32 29.07.2019
4338 Haze 26 1000 94 4000 3.6 270 06:44 29.07.2019
4339 Mist 25 1000 100 3000 4.1 270 05:39 29.07.2019
4340 Rain 25 1000 94 3000 4.1 280 04:35 29.07.2019
4341 Rain 24 999 100 1500 3.1 270 01:55 29.07.2019
4342 Rain 24 998 100 1500 3.1 270 01:37 29.07.2019
4343 Rain 24 999 100 1500 3.1 280 00:59 29.07.2019
4344 Rain 24 999 100 1500 2.6 270 00:32 29.07.2019
4345 Rain 24 999 100 1500 4.1 260 23:51 28.07.2019
4346 Rain 24 999 100 1500 2.6 250 23:33 28.07.2019
4347 Rain 24 999 100 2000 4.1 250 22:57 28.07.2019
4348 Haze 25 1000 94 3000 2.6 270 22:36 28.07.2019
4349 Haze 25 1000 94 3000 2.6 270 22:18 28.07.2019
4350 Haze 25 1000 94 3000 3.6 260 21:42 28.07.2019
4351 Haze 25 1000 94 3000 3.6 260 21:18 28.07.2019
4352 Drizzle 25 1001 94 3000 2.1 220 20:43 28.07.2019
4353 Drizzle 25 1001 94 3000 2.1 220 20:43 28.07.2019
4354 Drizzle 25 1001 94 3000 2.1 220 20:24 28.07.2019
4355 Haze 25 1001 100 3000 3.1 240 19:42 28.07.2019
4356 Haze 25 1001 100 3000 3.1 240 19:21 28.07.2019
4357 Haze 25 1001 100 3000 3.1 230 18:47 28.07.2019
4358 Haze 25 1001 100 3000 3.1 230 18:29 28.07.2019
4359 Haze 25 1001 100 3000 2.6 220 17:58 28.07.2019
4360 Haze 25 1001 100 3000 3.1 220 17:39 28.07.2019
4361 Haze 25 1001 100 3000 3.1 220 17:19 28.07.2019
4362 Haze 25 1000 100 3000 3.6 230 16:46 28.07.2019
4363 Haze 25 1000 100 3000 3.6 230 16:25 28.07.2019
4364 Rain 25 1000 100 2000 2.6 240 15:49 28.07.2019
4365 Rain 25 1000 100 2000 2.6 240 15:27 28.07.2019
4366 Rain 25 999 100 2000 2.1 240 14:56 28.07.2019
4367 Rain 25 999 100 1500 2.6 220 14:37 28.07.2019
4368 Haze 25 999 100 2500 3.6 240 14:18 28.07.2019
4369 Rain 26 999 94 2000 3.6 240 13:40 28.07.2019
4370 Rain 26 999 94 2000 3.6 240 13:21 28.07.2019
4371 Rain 26 1000 94 2000 1.5 240 12:46 28.07.2019
4372 Rain 26 1000 94 2000 1.5 240 12:28 28.07.2019
4373 Rain 26 1000 94 2000 2.1 270 11:51 28.07.2019
4374 Rain 26 1000 94 1500 5.1 260 11:31 28.07.2019
4375 Rain 26 1000 100 1500 3.6 270 10:59 28.07.2019
4376 Rain 26 1001 100 1500 4.1 270 10:38 28.07.2019
4377 Rain 26 1001 100 1500 4.1 270 10:19 28.07.2019
4378 Rain 26 1002 100 1500 1.5 280 09:40 28.07.2019
4379 Rain 26 1002 100 1500 1.5 280 09:22 28.07.2019
4380 Rain 24 1002 93 0 4.51 307.241 08:42 28.07.2019
4381 Rain 25 1002 94 1500 2.1 260 08:22 28.07.2019
4382 Rain 25 1002 94 1500 2.1 260 07:44 28.07.2019
4383 Rain 25 1002 94 1500 2.1 260 07:25 28.07.2019
4384 Rain 25 1002 100 1000 1.5 280 06:36 28.07.2019
4385 Rain 25 1002 100 1200 3.1 280 05:21 28.07.2019
4386 Rain 24 1000 100 2000 2.6 250 02:39 28.07.2019
4387 Drizzle 23 1000 100 2000 3.1 250 01:43 28.07.2019
4388 Drizzle 23 1000 100 2000 3.1 220 00:56 28.07.2019
4389 Drizzle 23 1000 100 2000 2.6 230 00:37 28.07.2019
4390 Rain 23 1000 100 2000 2.6 220 23:53 27.07.2019
4391 Rain 24 1000 94 2500 2.6 230 23:28 27.07.2019
4392 Rain 24 1001 94 2500 2.6 260 22:47 27.07.2019
4393 Rain 24 1001 94 2500 2.6 260 22:28 27.07.2019
4394 Rain 24 1001 94 2500 4.1 270 21:59 27.07.2019
4395 Rain 24 1002 94 2500 4.1 250 21:37 27.07.2019
4396 Rain 24 1002 94 2500 4.1 250 21:18 27.07.2019
4397 Haze 24 1002 94 3000 2.6 230 20:44 27.07.2019
4398 Haze 24 1002 94 3000 2.1 210 20:19 27.07.2019
4399 Haze 24 1003 94 3000 1 220 19:41 27.07.2019
4400 Haze 24 1003 94 3000 1 220 19:22 27.07.2019
4401 Drizzle 24 1003 100 3000 1.5 220 18:48 27.07.2019
4402 Drizzle 24 1003 100 3000 1.5 220 18:30 27.07.2019
4403 Drizzle 24 1002 100 3000 1.5 220 17:52 27.07.2019
4404 Drizzle 24 1002 100 3000 3.1 250 17:32 27.07.2019
4405 Rain 24 1001 100 3000 2.1 210 16:56 27.07.2019
4406 Rain 24 1001 100 3000 2.6 200 16:37 27.07.2019
4407 Rain 24 1001 100 3000 2.6 200 16:18 27.07.2019
4408 Rain 24 1000 100 3000 3.1 240 15:43 27.07.2019
4409 Rain 25 1000 88 2500 4.1 250 15:19 27.07.2019
4410 Rain 25 1000 88 2000 4.1 270 14:45 27.07.2019
4411 Rain 25 1000 88 2000 4.1 270 14:26 27.07.2019
4412 Rain 26 1000 100 1200 4.1 270 13:50 27.07.2019
4413 Rain 26 1000 100 500 5.1 290 13:24 27.07.2019
4414 Rain 28 999 88 2500 3.1 240 12:51 27.07.2019
4415 Haze 28 999 88 4000 5.7 230 12:32 27.07.2019
4416 Haze 27 1000 88 4000 5.7 230 11:57 27.07.2019
4417 Haze 27 1000 88 4000 5.7 230 11:38 27.07.2019
4418 Haze 27 1000 88 4000 5.7 230 11:20 27.07.2019
4419 Haze 27 1000 88 4000 5.7 250 10:41 27.07.2019
4420 Haze 27 1000 88 4000 5.7 250 10:21 27.07.2019
4421 Haze 26 1002 94 4000 4.6 250 09:41 27.07.2019
4422 Haze 26 1002 94 4000 4.6 250 09:23 27.07.2019
4423 Haze 26 1002 94 4000 4.1 230 08:49 27.07.2019
4424 Rain 26 1002 94 2500 4.1 220 08:29 27.07.2019
4425 Rain 26 1003 94 2500 4.1 220 07:55 27.07.2019
4426 Rain 26 1003 94 2500 4.1 220 07:29 27.07.2019
4427 Rain 26 1003 94 2500 2.6 220 06:56 27.07.2019
4428 Rain 25 1003 100 1200 3.1 230 06:31 27.07.2019
4429 Rain 24 1002 100 1500 2.6 220 05:52 27.07.2019
4430 Rain 24 1002 100 1500 3.1 230 05:24 27.07.2019
4431 Rain 24 1001 100 2000 2.6 210 04:33 27.07.2019
4432 Rain 24 1001 100 1200 2.1 240 03:28 27.07.2019
4433 Rain 24 1000 100 2000 2.6 240 02:40 27.07.2019
4434 Rain 24 1000 94 2000 3.6 260 01:48 27.07.2019
4435 Rain 24 1000 94 2000 3.6 260 01:21 27.07.2019
4436 Rain 23 1000 100 2000 3.1 240 00:32 27.07.2019
4437 Rain 24 1001 94 2000 3.1 270 23:54 26.07.2019
4438 Haze 25 1001 94 3000 5.1 250 23:33 26.07.2019
4439 Haze 25 1001 94 3000 5.1 250 23:33 26.07.2019
4440 Haze 25 1001 94 3000 4.1 250 22:57 26.07.2019
4441 Haze 25 1001 94 3000 4.1 250 22:38 26.07.2019
4442 Haze 25 1001 94 3000 4.1 250 22:20 26.07.2019
4443 Haze 26 1002 88 3000 3.6 230 21:49 26.07.2019
4444 Haze 26 1002 88 3000 3.6 230 21:20 26.07.2019
4445 Haze 26 1002 94 3000 3.6 200 20:43 26.07.2019
4446 Haze 26 1002 94 3000 3.6 200 20:24 26.07.2019
4447 Haze 26 1003 94 3000 3.1 200 19:44 26.07.2019
4448 Haze 26 1003 94 3000 3.1 200 19:25 26.07.2019
4449 Haze 26 1003 94 3000 2.6 210 18:58 26.07.2019
4450 Haze 26 1003 94 3000 3.6 200 18:37 26.07.2019
4451 Haze 26 1003 94 3000 3.6 200 18:19 26.07.2019
4452 Haze 26 1002 94 3000 3.1 190 17:46 26.07.2019
4453 Haze 26 1002 94 3000 3.1 190 17:19 26.07.2019
4454 Haze 27 1002 88 3000 2.6 200 16:57 26.07.2019
4455 Haze 27 1001 88 3000 2.6 200 16:38 26.07.2019
4456 Haze 27 1001 88 3000 2.6 200 16:19 26.07.2019
4457 Haze 28 1001 83 3000 4.6 210 15:55 26.07.2019
4458 Haze 28 1001 83 3000 4.6 210 15:36 26.07.2019
4459 Haze 28 1001 83 3000 4.6 210 15:18 26.07.2019
4460 Haze 29 1000 79 3000 4.6 260 14:42 26.07.2019
4461 Haze 29 1000 79 3000 4.6 260 14:22 26.07.2019
4462 Haze 29 1000 79 3000 4.1 250 13:40 26.07.2019
4463 Haze 29 1000 79 3000 4.1 250 13:22 26.07.2019
4464 Haze 29 1001 79 3000 4.1 260 12:48 26.07.2019
4465 Rain 28 1001 88 3000 5.7 260 12:20 26.07.2019
4466 Rain 28 1001 88 3000 4.1 250 11:40 26.07.2019
4467 Rain 28 1001 88 3000 4.1 250 11:20 26.07.2019
4468 Rain 28 1002 83 3000 5.1 250 10:57 26.07.2019
4469 Rain 28 1002 83 2500 4.6 250 10:38 26.07.2019
4470 Rain 28 1003 83 2500 4.6 250 09:55 26.07.2019
4471 Rain 26 1003 94 2500 3.6 260 09:37 26.07.2019
4472 Rain 27 1003 88 2500 4.1 250 08:57 26.07.2019
4473 Rain 27 1003 88 2500 4.1 250 08:57 26.07.2019
4474 Rain 26 1004 94 2500 3.6 260 08:39 26.07.2019
4475 Rain 26 1004 94 2500 3.6 260 08:20 26.07.2019
4476 Haze 26 1004 94 2500 4.6 270 07:33 26.07.2019
4477 Haze 26 1004 94 2500 5.1 260 06:56 26.07.2019
4478 Rain 25 1004 100 2500 3.1 240 05:23 26.07.2019
4479 Rain 25 1003 100 2500 3.1 240 04:29 26.07.2019
4480 Rain 25 1003 100 2500 2.6 220 03:43 26.07.2019
4481 Rain 24 1002 100 2000 1.5 220 01:45 26.07.2019
4482 Rain 24 1002 100 2000 1 230 00:49 26.07.2019
4483 Rain 25 1002 100 2000 1 230 00:23 26.07.2019
4484 Rain 25 1002 100 2000 5.62 266.111 23:25 25.07.2019
4485 Rain 25 1003 100 2000 2.1 250 22:59 25.07.2019
4486 Rain 25 1003 100 2000 2.1 250 22:59 25.07.2019
4487 Rain 25 1004 100 1000 3.1 260 22:40 25.07.2019
4488 Rain 25 1004 100 1000 3.1 260 22:21 25.07.2019
4489 Rain 25 1003 100 2500 1.5 210 21:46 25.07.2019
4490 Rain 25 1003 100 2500 1.5 210 21:22 25.07.2019
4491 Rain 25 1004 100 2500 4.63 297.837 20:49 25.07.2019
4492 Rain 25 1004 100 2500 4.63 297.837 20:30 25.07.2019
4493 Rain 25 1004 94 2500 1 230 19:54 25.07.2019
4494 Thunderstorm 25 1005 94 2500 1 100 19:36 25.07.2019
4495 Rain 28 1003 74 0 4.63 297.837 19:18 25.07.2019
4496 Thunderstorm 25 1005 100 2500 0.5 320 18:39 25.07.2019
4497 Thunderstorm 25 1004 100 2500 1.5 320 18:21 25.07.2019
4498 Thunderstorm 25 1004 100 2500 1.5 320 17:45 25.07.2019
4499 Thunderstorm 25 1004 100 2500 1.5 320 17:25 25.07.2019
4500 Thunderstorm 24 1003 100 2500 1.5 290 16:47 25.07.2019
4501 Thunderstorm 24 1002 100 2500 1.5 260 16:29 25.07.2019
4502 Thunderstorm 26 1002 94 1500 1.5 200 15:58 25.07.2019
4503 Haze 28 1002 100 1000 2.1 80 15:36 25.07.2019
4504 Haze 28 1002 100 1000 2.1 80 15:18 25.07.2019
4505 Haze 32 1001 62 3000 1 210 14:41 25.07.2019
4506 Haze 32 1001 62 3000 1 210 14:22 25.07.2019
4507 Haze 34 1000 59 4000 3.6 250 13:44 25.07.2019
4508 Haze 34 1000 59 4000 3.6 250 13:25 25.07.2019
4509 Haze 33 1001 63 5000 5.1 250 12:46 25.07.2019
4510 Haze 33 1001 63 5000 5.1 250 12:27 25.07.2019
4511 Haze 34 1001 59 4000 4.1 220 11:43 25.07.2019
4512 Haze 34 1001 59 4000 4.1 220 11:23 25.07.2019
4513 Haze 33 1003 63 5000 2.6 220 10:46 25.07.2019
4514 Haze 33 1003 63 5000 2.6 220 10:26 25.07.2019
4515 Haze 34 1003 59 5000 2.6 240 09:57 25.07.2019
4516 Haze 34 1004 59 5000 3.1 240 09:39 25.07.2019
4517 Haze 32 1004 66 5000 3.6 260 08:54 25.07.2019
4518 Haze 32 1005 66 5000 1 290 08:36 25.07.2019
4519 Haze 30 1005 74 5000 3.1 270 07:49 25.07.2019
4520 Haze 30 1005 74 5000 2.6 250 07:26 25.07.2019
4521 Haze 29 1005 79 4000 4.1 260 06:40 25.07.2019
4522 Haze 28 1005 78 4000 1 260 05:37 25.07.2019
4523 Haze 28 1005 83 4000 4.1 260 04:55 25.07.2019
4524 Haze 27 1003 88 4000 1 250 03:32 25.07.2019
4525 Haze 26 1002 88 4000 1 240 01:27 25.07.2019
4526 Haze 27 1003 83 4000 1 230 00:37 25.07.2019
4527 Haze 27 1003 83 4000 2.1 230 00:18 25.07.2019
4528 Haze 27 1003 83 4000 1.5 230 23:43 24.07.2019
4529 Haze 27 1003 83 4000 1.5 230 23:24 24.07.2019
4530 Haze 27 1003 83 4000 1.5 210 22:45 24.07.2019
4531 Haze 27 1003 83 4000 1.5 210 22:23 24.07.2019
4532 Haze 28 1003 78 4000 2.6 200 21:56 24.07.2019
4533 Haze 28 1004 78 4000 1.5 200 21:38 24.07.2019
4534 Haze 28 1004 78 4000 1.5 200 21:19 24.07.2019
4535 Haze 28 1004 78 4000 4.61 169.673 20:47 24.07.2019
4536 Haze 28 1004 78 4000 1 210 20:29 24.07.2019
4537 Haze 28 1004 78 4000 1 190 19:59 24.07.2019
4538 Haze 28 1004 78 4000 1 190 19:59 24.07.2019
4539 Haze 28 1004 78 4000 1 190 19:40 24.07.2019
4540 Haze 28 1004 78 4000 1 190 19:20 24.07.2019
4541 Haze 28 1004 78 4000 4.61 169.673 18:43 24.07.2019
4542 Haze 28 1004 78 4000 2.64 197.761 18:24 24.07.2019
4543 Haze 29 1003 74 4000 2.64 197.761 17:48 24.07.2019
4544 Haze 29 1003 74 4000 2.64 197.761 17:23 24.07.2019
4545 Haze 30 1003 70 4000 2.64 197.761 16:57 24.07.2019
4546 Haze 30 1002 66 4000 2.64 197.761 16:39 24.07.2019
4547 Haze 30 1002 66 4000 2.64 197.761 16:20 24.07.2019
4548 Haze 31 1001 62 4000 2.64 197.761 15:37 24.07.2019
4549 Haze 31 1001 62 4000 3.71 230.798 15:19 24.07.2019
4550 Haze 32 1001 55 4000 3.6 180 14:45 24.07.2019
4551 Haze 32 1001 55 4000 3.6 180 14:21 24.07.2019
4552 Haze 36 1000 53 4000 3.71 230.798 13:40 24.07.2019
4553 Haze 36 1000 53 4000 4.2 245.655 13:19 24.07.2019
4554 Haze 35 1000 50 5000 1 240 12:53 24.07.2019
4555 Haze 35 1001 50 5000 1 210 12:34 24.07.2019
4556 Haze 35 1001 53 5000 3.6 230 11:55 24.07.2019
4557 Haze 35 1002 53 5000 2.1 260 11:36 24.07.2019
4558 Haze 35 1002 53 5000 2.1 260 11:18 24.07.2019
4559 Haze 36 1003 53 5000 3.6 260 10:39 24.07.2019
4560 Haze 35 1003 53 5000 2.1 220 10:18 24.07.2019
4561 Haze 35 1003 56 5000 4.1 220 09:43 24.07.2019
4562 Haze 35 1003 56 5000 4.1 220 09:22 24.07.2019
4563 Haze 34 1004 59 5000 2.6 270 08:43 24.07.2019
4564 Haze 34 1004 59 5000 2.6 270 08:22 24.07.2019
4565 Haze 33 1004 63 5000 1.5 270 07:46 24.07.2019
4566 Haze 31 1004 74 5000 1.5 230 07:20 24.07.2019
4567 Haze 31 1004 70 5000 1.5 220 06:28 24.07.2019
4568 Haze 30 1004 74 4000 3.1 200 05:22 24.07.2019
4569 Haze 27 1003 88 4000 2.45 185.319 01:49 24.07.2019
4570 Haze 28 1003 83 4000 2.58 204.055 00:58 24.07.2019
4571 Haze 28 1002 83 4000 2.58 204.055 00:39 24.07.2019
4572 Haze 28 1002 83 4000 4.16 186.79 23:52 23.07.2019
4573 Haze 28 1002 83 4000 4.16 186.79 23:26 23.07.2019
4574 Haze 28 1002 83 4000 4.16 186.79 22:59 23.07.2019
4575 Haze 29 1002 79 4000 4.16 186.79 22:37 23.07.2019
4576 Haze 29 1002 79 4000 4.16 186.79 22:18 23.07.2019
4577 Haze 29 1002 79 4000 4.16 186.79 22:18 23.07.2019
4578 Haze 29 1003 79 4000 4.16 186.79 21:44 23.07.2019
4579 Haze 29 1003 79 4000 4.16 186.79 21:44 23.07.2019
4580 Haze 29 1003 79 4000 4.88 171.345 21:26 23.07.2019
4581 Haze 29 1003 79 4000 4.3 174.128 20:49 23.07.2019
4582 Haze 29 1003 79 4000 4.3 174.128 20:29 23.07.2019
4583 Haze 29 1004 74 4000 4.3 174.128 19:44 23.07.2019
4584 Haze 29 1004 74 4000 4.3 174.128 19:24 23.07.2019
4585 Haze 30 1003 70 4000 4.3 174.128 18:57 23.07.2019
4586 Haze 30 1003 70 4000 4.3 174.128 18:39 23.07.2019
4587 Haze 30 1003 66 4000 2.12 181.758 18:19 23.07.2019
4588 Haze 30 1003 66 4000 1.5 200 17:42 23.07.2019
4589 Haze 30 1003 66 4000 1.5 200 17:42 23.07.2019
4590 Haze 30 1003 66 4000 1.5 200 17:21 23.07.2019
4591 Haze 32 1002 59 4000 2.12 181.758 16:44 23.07.2019
4592 Haze 32 1002 59 4000 2.12 181.758 16:26 23.07.2019
4593 Haze 33 1001 59 4000 1 200 15:51 23.07.2019
4594 Haze 33 1001 59 4000 1 200 15:32 23.07.2019
4595 Haze 35 1000 50 4000 3.1 200 14:55 23.07.2019
4596 Haze 35 1000 50 5000 3.1 160 14:36 23.07.2019
4597 Haze 35 1000 50 5000 3.1 160 14:18 23.07.2019
4598 Haze 35 1000 50 5000 0.5 150 13:42 23.07.2019
4599 Haze 35 1000 50 5000 0.5 150 13:23 23.07.2019
4600 Haze 35 1000 53 5000 0.5 170 12:59 23.07.2019
4601 Haze 35 1001 53 5000 1 130 12:41 23.07.2019
4602 Haze 35 1001 53 5000 1 130 12:21 23.07.2019
4603 Haze 35 1002 53 5000 1 150 11:41 23.07.2019
4604 Haze 35 1002 53 5000 1 150 11:21 23.07.2019
4605 Haze 35 1002 56 5000 1 250 10:49 23.07.2019
4606 Haze 35 1002 56 5000 1 250 10:22 23.07.2019
4607 Haze 34 1003 59 5000 1.5 200 09:43 23.07.2019
4608 Haze 34 1003 59 5000 1.5 200 09:22 23.07.2019
4609 Haze 33 1003 63 5000 1.5 160 08:44 23.07.2019
4610 Haze 33 1003 63 5000 1.5 160 08:20 23.07.2019
4611 Haze 32 1004 66 5000 2.6 180 07:59 23.07.2019
4612 Haze 32 1004 62 5000 3.1 230 07:37 23.07.2019
4613 Haze 32 1004 70 5000 2.1 190 06:52 23.07.2019
4614 Haze 31 1004 74 5000 2.6 180 06:34 23.07.2019
4615 Haze 31 1004 74 5000 2.6 180 06:34 23.07.2019
4616 Haze 28 1003 83 5000 3.11 186.216 04:27 23.07.2019
4617 Haze 27 1002 88 3000 2.29 190.397 01:40 23.07.2019
4618 Haze 27 1002 88 3000 2.27 191.538 00:41 23.07.2019
4619 Haze 28 1002 83 3000 3.15 181.291 00:19 23.07.2019
4620 Haze 28 1002 83 3000 3.15 181.291 23:39 22.07.2019
4621 Haze 28 1002 83 3000 3.15 181.291 23:19 22.07.2019
4622 Haze 28 1002 83 3000 3.15 181.291 22:45 22.07.2019
4623 Haze 28 1002 83 3000 3.15 181.291 22:23 22.07.2019
4624 Haze 28 1003 83 3000 3.15 181.291 21:44 22.07.2019
4625 Haze 28 1003 83 3000 3.85 169.061 21:23 22.07.2019
4626 Haze 29 1003 83 3000 4.43 169.283 20:57 22.07.2019
4627 Haze 29 1003 83 3000 4.43 169.283 20:33 22.07.2019
4628 Haze 29 1003 79 3000 4.43 169.283 19:59 22.07.2019
4629 Haze 29 1003 79 3000 4.43 169.283 19:40 22.07.2019
4630 Haze 29 1003 79 3000 4.43 169.283 19:21 22.07.2019
4631 Haze 30 1003 74 3000 4.43 169.283 18:48 22.07.2019
4632 Haze 30 1003 74 3000 3.85 153.788 18:28 22.07.2019
4633 Haze 31 1003 66 3000 3.85 153.788 17:59 22.07.2019
4634 Haze 31 1003 66 3000 3.85 153.788 17:38 22.07.2019
4635 Haze 31 1003 66 4000 3.85 153.788 17:20 22.07.2019
4636 Haze 31 1002 66 5000 3.85 153.788 16:40 22.07.2019
4637 Haze 31 1002 66 5000 3.85 153.788 16:21 22.07.2019
4638 Haze 31 1002 66 5000 1.5 140 16:21 22.07.2019
4639 Haze 33 1001 59 5000 1.5 140 15:44 22.07.2019
4640 Haze 33 1001 59 5000 1.5 140 15:21 22.07.2019
4641 Haze 33 1001 59 5000 2.1 160 14:45 22.07.2019
4642 Haze 33 1001 59 5000 2.1 160 14:26 22.07.2019
4643 Haze 33 1001 63 5000 24.2 160 13:52 22.07.2019
4644 Haze 34 1001 59 5000 1.5 150 13:33 22.07.2019
4645 Haze 34 1001 59 5000 2.1 180 12:56 22.07.2019
4646 Haze 34 1001 59 5000 1 180 12:36 22.07.2019
4647 Haze 34 1001 59 5000 2.6 180 11:57 22.07.2019
4648 Haze 33 1002 63 5000 3.1 160 11:39 22.07.2019
4649 Haze 33 1002 63 5000 3.1 160 11:20 22.07.2019
4650 Haze 33 1003 63 5000 1.5 190 10:38 22.07.2019
4651 Haze 33 1003 63 5000 1.5 190 10:20 22.07.2019
4652 Haze 32 1003 70 5000 3.6 180 09:40 22.07.2019
4653 Haze 32 1003 70 5000 3.6 180 09:21 22.07.2019
4654 Haze 31 1005 70 5000 3.1 180 08:40 22.07.2019
4655 Haze 31 1005 70 5000 3.1 180 08:22 22.07.2019
4656 Haze 31 1005 70 5000 2.1 200 07:53 22.07.2019
4657 Haze 31 1004 74 5000 2.6 180 07:31 22.07.2019
4658 Haze 29 1005 79 5000 3.6 170 05:51 22.07.2019
4659 Haze 26 1002 94 3000 3.63 180.221 03:46 22.07.2019
4660 Haze 26 1003 94 2500 2.35 164.781 01:44 22.07.2019
4661 Haze 26 1003 94 2500 2.46 178.766 00:50 22.07.2019
4662 Haze 26 1003 94 2500 2.46 178.766 00:50 22.07.2019
4663 Haze 27 1003 94 2500 4.13 167.996 00:22 22.07.2019
4664 Haze 27 1003 94 2500 4.13 167.996 23:50 21.07.2019
4665 Haze 27 1003 94 2500 4.13 167.996 22:59 21.07.2019
4666 Haze 27 1003 94 2500 4.13 167.996 22:40 21.07.2019
4667 Haze 27 1003 94 2500 4.13 167.996 22:21 21.07.2019
4668 Haze 27 1004 94 2500 4.13 167.996 21:49 21.07.2019
4669 Haze 27 1004 94 2500 4.13 167.996 21:26 21.07.2019
4670 Haze 28 1004 88 2500 3.07 171.566 20:59 21.07.2019
4671 Haze 28 1004 88 2500 3.97 171.707 20:41 21.07.2019
4672 Haze 28 1004 88 2500 3.97 171.707 20:22 21.07.2019
4673 Haze 28 1004 94 2500 3.97 171.707 19:52 21.07.2019
4674 Haze 28 1004 94 2500 3.97 171.707 19:29 21.07.2019
4675 Haze 28 1004 94 2500 3.97 171.707 18:54 21.07.2019
4676 Haze 28 1004 94 2500 3.97 171.707 18:35 21.07.2019
4677 Haze 28 1004 88 2500 3.13 165.329 17:58 21.07.2019
4678 Haze 28 1003 88 2500 3.13 165.329 17:40 21.07.2019
4679 Haze 28 1003 88 2500 3.13 165.329 17:19 21.07.2019
4680 Haze 29 1002 83 2500 3.13 165.329 16:41 21.07.2019
4681 Haze 29 1002 83 2500 3.13 165.329 16:22 21.07.2019
4682 Haze 28 1001 83 2500 3.13 165.329 15:42 21.07.2019
4683 Haze 28 1001 83 2500 3.24 184.387 15:21 21.07.2019
4684 Haze 29 1001 79 3000 1.5 40 14:51 21.07.2019
4685 Rain 29 1001 79 1500 1.5 150 14:25 21.07.2019
4686 Haze 32 1001 66 3000 2.6 180 13:53 21.07.2019
4687 Haze 32 1001 62 4000 2.1 170 13:34 21.07.2019
4688 Haze 33 1001 63 4000 1 170 12:58 21.07.2019
4689 Haze 32 1001 70 4000 3.86 198.881 12:39 21.07.2019
4690 Haze 32 1001 70 4000 4.94 191.906 12:20 21.07.2019
4691 Haze 32 1003 66 4000 4.94 191.906 11:45 21.07.2019
4692 Haze 32 1003 66 4000 4.94 191.906 11:26 21.07.2019
4693 Haze 31 1003 70 4000 4.94 191.906 10:43 21.07.2019
4694 Haze 31 1003 70 4000 4.94 191.906 10:24 21.07.2019
4695 Haze 31 1003 74 4000 4.94 191.906 09:54 21.07.2019
4696 Haze 31 1004 74 4000 4.94 191.906 09:34 21.07.2019
4697 Haze 30 1004 79 4000 4.06 165.827 08:49 21.07.2019
4698 Haze 30 1004 79 4000 1 170 08:49 21.07.2019
4699 Haze 30 1004 79 4000 4.06 165.827 08:28 21.07.2019
4700 Haze 29 1004 79 4000 1.5 180 07:53 21.07.2019
4701 Haze 29 1004 79 4000 4.06 165.827 07:18 21.07.2019
4702 Haze 28 1004 83 4000 2.1 140 05:56 21.07.2019
4703 Haze 28 1003 83 3000 1 140 03:50 21.07.2019
4704 Haze 26 1003 94 3000 1.81 139.433 01:51 21.07.2019
4705 Haze 26 1003 94 3000 2.06 143.926 00:44 21.07.2019
4706 Haze 26 1003 94 3000 2.94 162.287 00:20 21.07.2019
4707 Haze 26 1002 94 3000 2.94 162.287 23:44 20.07.2019
4708 Haze 26 1002 94 3000 2.94 162.287 23:21 20.07.2019
4709 Haze 27 1002 94 3000 2.94 162.287 22:49 20.07.2019
4710 Thunderstorm 27 1002 94 3000 1.5 210 22:23 20.07.2019
4711 Thunderstorm 27 1003 94 3000 2.1 180 21:58 20.07.2019
4712 Thunderstorm 27 1003 94 3000 2.6 130 21:39 20.07.2019
4713 Thunderstorm 27 1003 94 3000 2.6 130 21:21 20.07.2019
4714 Haze 28 1003 88 3000 2.41 174.831 20:42 20.07.2019
4715 Haze 28 1003 88 3000 2.41 174.831 20:42 20.07.2019
4716 Haze 28 1003 88 3000 2.41 174.831 20:21 20.07.2019
4717 Haze 28 1003 94 3000 2.41 174.831 19:46 20.07.2019
4718 Haze 28 1003 94 3000 2.41 174.831 19:46 20.07.2019
4719 Haze 28 1003 94 3000 2.41 174.831 19:23 20.07.2019
4720 Haze 28 1002 88 3000 2.41 174.831 18:44 20.07.2019
4721 Haze 28 1002 88 3000 0.92 164.106 18:22 20.07.2019
4722 Haze 27 1002 94 3000 0.92 164.106 17:55 20.07.2019
4723 Haze 28 1000 83 3000 1.5 170 17:25 20.07.2019
4724 Thunderstorm 28 1000 83 2500 2.1 340 16:45 20.07.2019
4725 Thunderstorm 28 1000 83 2500 2.1 340 16:27 20.07.2019
4726 Thunderstorm 29 1000 89 2500 1.5 340 15:58 20.07.2019
4727 Haze 29 1000 89 2500 0.92 164.106 15:39 20.07.2019
4728 Haze 29 1000 89 2500 2.95 295.104 15:20 20.07.2019
4729 Haze 30 1000 89 2500 2.95 295.104 14:48 20.07.2019
4730 Haze 29 1000 89 2500 2.95 295.104 14:28 20.07.2019
4731 Thunderstorm 28 1000 94 2500 2.95 295.104 13:41 20.07.2019
4732 Thunderstorm 28 1000 94 2500 0.5 98.919 13:23 20.07.2019
4733 Haze 34 1000 59 4000 3.1 70 12:59 20.07.2019
4734 Haze 34 1000 59 4000 3.1 70 12:26 20.07.2019
4735 Haze 33 1001 66 4000 3.1 50 11:59 20.07.2019
4736 Haze 33 1001 63 4000 2.6 50 11:40 20.07.2019
4737 Haze 33 1002 63 4000 3.14 89.508 11:19 20.07.2019
4738 Haze 33 1003 63 4000 3.14 89.508 10:37 20.07.2019
4739 Haze 33 1003 63 4000 3.14 89.508 10:19 20.07.2019
4740 Haze 32 1003 66 4000 3.14 89.508 09:45 20.07.2019
4741 Haze 32 1003 66 4000 2.46 112.048 09:24 20.07.2019
4742 Haze 31 1004 74 4000 0.82 138.401 08:47 20.07.2019
4743 Haze 32 1004 70 4000 0.82 138.401 08:20 20.07.2019
4744 Haze 31 1004 74 4000 0.82 138.401 07:26 20.07.2019
4745 Haze 29 1004 79 3000 0.82 138.401 06:43 20.07.2019
4746 Haze 26 1004 88 3000 1.52 25.637 04:58 20.07.2019
4747 Haze 25 1003 94 3000 1.52 25.637 04:30 20.07.2019
4748 Haze 26 1002 94 3000 1.3 305.215 01:22 20.07.2019
4749 Haze 26 1002 94 3000 1.3 305.215 00:49 20.07.2019
4750 Haze 26 1002 94 3000 1.3 305.215 00:26 20.07.2019
4751 Haze 26 1001 94 3000 1.49 311.496 23:49 19.07.2019
4752 Haze 25 1001 100 3000 1.49 311.496 23:27 19.07.2019
4753 Haze 24 1002 100 3000 1.49 311.496 22:52 19.07.2019
4754 Rain 25 1002 94 2500 1.49 311.496 22:26 19.07.2019
4755 Rain 25 1002 94 2500 1.49 311.496 21:59 19.07.2019
4756 Thunderstorm 25 1003 94 2000 1 320 21:39 19.07.2019
4757 Thunderstorm 25 1003 94 2000 1 320 21:21 19.07.2019
4758 Rain 26 1005 94 2000 2.72 262.82 20:42 19.07.2019
4759 Rain 26 1005 94 2000 2.72 262.82 20:23 19.07.2019
4760 Rain 26 1004 88 2000 2.72 262.82 19:39 19.07.2019
4761 Rain 26 1004 88 2000 2.72 262.82 18:55 19.07.2019
4762 Rain 26 1003 88 2500 2.72 262.82 18:36 19.07.2019
4763 Rain 25 1003 94 2000 1.5 250 18:18 19.07.2019
4764 Thunderstorm 25 1003 94 1500 1.5 280 17:41 19.07.2019
4765 Thunderstorm 25 1003 94 1500 1.5 280 17:23 19.07.2019
4766 Thunderstorm 25 1002 100 1500 5.1 300 16:47 19.07.2019
4767 Thunderstorm 25 1002 100 1500 5.1 300 16:24 19.07.2019
4768 Haze 34 1000 52 4000 1 320 15:47 19.07.2019
4769 Haze 34 1000 52 4000 1 320 15:29 19.07.2019
4770 Haze 34 1000 52 4000 1 300 14:55 19.07.2019
4771 Haze 35 1000 50 4000 3.1 260 14:37 19.07.2019
4772 Haze 35 1000 50 5000 1 240 14:19 19.07.2019
4773 Haze 35 1000 53 5000 1 280 13:42 19.07.2019
4774 Haze 35 1000 53 5000 1 280 13:22 19.07.2019
4775 Haze 35 1000 53 5000 1 280 12:48 19.07.2019
4776 Haze 35 1000 53 5000 1 280 12:28 19.07.2019
4777 Haze 34 1001 59 5000 1.5 200 11:47 19.07.2019
4778 Haze 34 1002 59 5000 1 270 11:19 19.07.2019
4779 Haze 34 1002 59 5000 1 270 10:57 19.07.2019
4780 Haze 34 1002 59 5000 1 270 10:57 19.07.2019
4781 Haze 34 1002 59 5000 1 270 10:38 19.07.2019
4782 Haze 33 1003 63 5000 1.5 270 10:18 19.07.2019
4783 Haze 32 1003 66 5000 1 260 09:43 19.07.2019
4784 Haze 32 1003 66 5000 1 260 09:22 19.07.2019
4785 Haze 32 1004 66 5000 1 250 08:50 19.07.2019
4786 Haze 31 1004 74 5000 1 240 08:28 19.07.2019
4787 Haze 29 1004 79 5000 2.1 220 07:33 19.07.2019
4788 Haze 28 1004 83 3000 2.1 220 06:33 19.07.2019
4789 Haze 26 1003 88 3000 1.47 168.95 02:58 19.07.2019
4790 Haze 26 1002 88 3000 1.5 10 01:42 19.07.2019
4791 Haze 26 1002 88 3000 2.1 10 00:47 19.07.2019
4792 Haze 26 1002 88 3000 2.6 350 23:59 18.07.2019
4793 Haze 26 1002 88 3000 2.1 360 23:40 18.07.2019
4794 Haze 26 1002 88 3000 2.1 360 23:22 18.07.2019
4795 Haze 26 1002 88 3000 2.1 360 23:22 18.07.2019
4796 Haze 25 1003 94 3000 0.58 123.36 22:42 18.07.2019
4797 Haze 25 1003 94 3000 0.58 123.36 22:20 18.07.2019
4798 Haze 26 1003 88 3000 0.58 123.36 21:52 18.07.2019
4799 Haze 25 1004 94 3000 0.58 123.36 21:34 18.07.2019
4800 Rain 25 1004 94 3000 1.5 210 20:57 18.07.2019
4801 Rain 25 1005 94 3000 2.1 200 20:38 18.07.2019
4802 Rain 25 1005 94 3000 3.6 230 20:18 18.07.2019
4803 Rain 25 1005 94 3000 4.1 240 19:46 18.07.2019
4804 Rain 25 1005 94 3000 4.1 240 19:21 18.07.2019
4805 Rain 25 1005 88 3000 1 130 18:49 18.07.2019
4806 Rain 25 1005 88 3000 1 130 18:21 18.07.2019
4807 Rain 25 1005 88 3000 2.1 100 17:45 18.07.2019
4808 Rain 25 1005 88 3000 2.1 100 17:45 18.07.2019
4809 Rain 25 1005 88 3000 2.1 100 17:25 18.07.2019
4810 Rain 27 1004 78 3000 4.1 90 16:58 18.07.2019
4811 Haze 30 1003 70 3000 2.1 310 16:40 18.07.2019
4812 Haze 32 1001 55 3000 2.6 10 16:19 18.07.2019
4813 Haze 32 1001 55 3000 2.6 10 15:53 18.07.2019
4814 Haze 32 1001 55 3000 2.6 10 15:35 18.07.2019
4815 Haze 33 1001 52 3000 5.1 340 14:55 18.07.2019
4816 Haze 34 1000 52 3000 2.6 320 14:36 18.07.2019
4817 Haze 33 999 55 3000 1.5 60 13:52 18.07.2019
4818 Haze 32 1000 62 3000 2.1 80 13:31 18.07.2019
4819 Haze 32 1000 59 3000 3.6 80 12:57 18.07.2019
4820 Haze 32 1000 59 3000 3.6 80 12:37 18.07.2019
4821 Haze 37 1001 44 5000 1 40 12:18 18.07.2019
4822 Haze 37 1001 44 5000 1 40 11:47 18.07.2019
4823 Haze 37 1001 44 5000 1 40 11:26 18.07.2019
4824 Haze 36 1001 47 5000 1.5 80 10:51 18.07.2019
4825 Haze 37 1003 42 5000 2.6 40 09:51 18.07.2019
4826 Haze 37 1003 42 5000 2.6 40 09:27 18.07.2019
4827 Haze 36 1004 44 5000 3.1 330 08:55 18.07.2019
4828 Haze 36 1004 47 5000 2.1 20 08:25 18.07.2019
4829 Haze 36 1004 47 5000 2.1 20 07:59 18.07.2019
4830 Haze 36 1004 47 5000 2.1 20 07:37 18.07.2019
4831 Haze 35 1004 47 5000 3.1 360 06:55 18.07.2019
4832 Haze 33 1004 52 4000 3.1 330 06:33 18.07.2019
4833 Haze 30 1004 62 4000 1.5 300 03:56 18.07.2019
4834 Haze 29 1003 62 4000 1.5 310 02:51 18.07.2019
4835 Haze 29 1003 62 4000 1.5 320 01:36 18.07.2019
4836 Haze 31 1003 55 4000 1.5 320 00:23 18.07.2019
4837 Haze 31 1003 55 4000 1 320 23:40 17.07.2019
4838 Haze 30 1003 58 4000 1 320 23:18 17.07.2019
4839 Haze 30 1003 58 4000 1.5 320 22:41 17.07.2019
4840 Haze 31 1003 55 4000 1 310 22:22 17.07.2019
4841 Haze 31 1003 55 4000 1 310 21:58 17.07.2019
4842 Haze 31 1003 55 4000 1 310 21:38 17.07.2019
4843 Haze 32 1004 52 4000 1 310 21:19 17.07.2019
4844 Haze 32 1004 52 4000 1 310 20:55 17.07.2019
4845 Haze 32 1004 52 4000 1.5 320 20:37 17.07.2019
4846 Haze 33 1004 49 4000 1 310 20:18 17.07.2019
4847 Haze 34 1004 46 4000 1.5 340 19:41 17.07.2019
4848 Haze 34 1004 46 4000 1.5 340 19:20 17.07.2019
4849 Haze 34 1004 46 5000 2.1 350 18:45 17.07.2019
4850 Haze 35 1003 41 5000 1 280 18:21 17.07.2019
4851 Haze 35 1003 41 5000 1 280 17:57 17.07.2019
4852 Haze 35 1003 41 5000 1 280 17:39 17.07.2019
4853 Haze 34 1003 46 5000 2.6 260 17:20 17.07.2019
4854 Haze 35 1002 41 5000 2.1 260 16:40 17.07.2019
4855 Haze 36 1002 39 5000 3.1 270 16:19 17.07.2019
4856 Haze 36 1002 39 5000 3.1 270 15:51 17.07.2019
4857 Haze 36 1002 39 5000 3.1 270 15:29 17.07.2019
4858 Haze 37 1001 37 5000 4.6 270 14:56 17.07.2019
4859 Haze 37 1001 37 5000 3.1 270 14:38 17.07.2019
4860 Haze 38 1001 37 5000 1.5 290 14:19 17.07.2019
4861 Haze 38 1001 35 5000 2.6 310 13:45 17.07.2019
4862 Haze 38 1001 35 5000 2.6 310 13:25 17.07.2019
4863 Haze 37 1002 39 5000 3.6 280 12:44 17.07.2019
4864 Haze 38 1002 35 5000 2.6 260 12:23 17.07.2019
4865 Haze 38 1002 35 5000 2.6 260 11:57 17.07.2019
4866 Haze 37 1003 37 5000 2.6 250 11:38 17.07.2019
4867 Haze 37 1003 39 5000 2.6 310 11:19 17.07.2019
4868 Haze 36 1004 44 5000 1.5 330 10:43 17.07.2019
4869 Haze 36 1004 44 5000 2.1 340 10:20 17.07.2019
4870 Haze 36 1004 47 5000 4.1 280 09:44 17.07.2019
4871 Haze 36 1004 47 5000 4.1 280 09:26 17.07.2019
4872 Haze 35 1005 50 5000 2.1 280 08:44 17.07.2019
4873 Haze 35 1005 50 5000 2.1 280 08:22 17.07.2019
4874 Haze 34 1006 52 5000 2.6 310 07:51 17.07.2019
4875 Haze 33 1006 55 5000 4.1 320 07:27 17.07.2019
4876 Haze 33 1006 55 5000 4.1 320 06:58 17.07.2019
4877 Haze 32 1006 59 5000 3.6 320 06:31 17.07.2019
4878 Haze 32 1006 59 5000 3.6 320 05:59 17.07.2019
4879 Haze 30 1006 66 4000 3.1 330 05:32 17.07.2019
4880 Clear 30 1005 59 0 5.55 304.374 04:48 17.07.2019
4881 Clear 30 1005 59 0 5.55 304.374 03:39 17.07.2019
4882 Haze 29 1004 66 4000 1 310 02:25 17.07.2019
4883 Haze 29 1004 66 4000 1.5 310 01:28 17.07.2019
4884 Haze 29 1004 66 4000 1.5 310 00:59 17.07.2019
4885 Haze 29 1004 62 4000 1.5 310 00:37 17.07.2019
4886 Haze 29 1004 62 4000 1.5 310 00:19 17.07.2019
4887 Haze 30 1004 58 4000 1.5 310 23:41 16.07.2019
4888 Haze 29 1004 66 4000 1.5 310 23:20 16.07.2019
4889 Haze 30 1004 62 4000 3.37 290.04 22:43 16.07.2019
4890 Haze 30 1005 58 4000 1 300 22:24 16.07.2019
4891 Haze 31 1005 55 4000 1.5 310 21:48 16.07.2019
4892 Haze 31 1005 55 4000 1.5 310 21:25 16.07.2019
4893 Haze 31 1005 55 4000 1 310 20:59 16.07.2019
4894 Haze 31 1005 55 4000 1 310 20:40 16.07.2019
4895 Haze 31 1005 55 4000 1 310 20:22 16.07.2019
4896 Haze 31 1005 55 4000 1.5 300 19:54 16.07.2019
4897 Haze 32 1005 52 4000 1.5 310 19:30 16.07.2019
4898 Haze 33 1005 49 4000 2.6 300 18:58 16.07.2019
4899 Haze 33 1005 49 4000 3.1 300 18:39 16.07.2019
4900 Haze 33 1004 46 4000 2.1 270 18:20 16.07.2019
4901 Haze 33 1004 46 4000 2.1 270 18:20 16.07.2019
4902 Haze 33 1004 46 4000 2.6 250 17:44 16.07.2019
4903 Haze 33 1004 46 4000 2.6 250 17:44 16.07.2019
4904 Haze 33 1003 46 4000 3.1 240 17:24 16.07.2019
4905 Haze 34 1003 44 5000 3.6 240 16:49 16.07.2019
4906 Haze 34 1003 44 5000 3.6 240 16:25 16.07.2019
4907 Haze 35 1003 39 5000 3.1 270 15:57 16.07.2019
4908 Haze 36 1003 39 5000 2.6 270 15:38 16.07.2019
4909 Haze 36 1002 41 5000 4.1 260 15:19 16.07.2019
4910 Haze 36 1002 41 5000 5.1 260 14:46 16.07.2019
4911 Haze 36 1002 41 5000 5.1 260 14:28 16.07.2019
4912 Haze 37 1002 39 5000 2.6 290 13:57 16.07.2019
4913 Haze 37 1002 39 5000 2.6 290 13:57 16.07.2019
4914 Haze 37 1002 39 5000 3.6 260 13:37 16.07.2019
4915 Haze 37 1003 39 5000 4.1 260 13:18 16.07.2019
4916 Haze 37 1003 42 5000 4.6 250 12:42 16.07.2019
4917 Haze 36 1004 44 5000 3.6 250 12:19 16.07.2019
4918 Haze 37 1004 42 5000 3.1 250 11:45 16.07.2019
4919 Haze 37 1004 42 5000 3.1 250 11:25 16.07.2019
4920 Haze 36 1004 44 5000 1 230 10:59 16.07.2019
4921 Haze 36 1005 44 5000 2.1 340 10:41 16.07.2019
4922 Haze 35 1005 47 5000 2.1 240 10:19 16.07.2019
4923 Haze 35 1005 47 5000 2.1 240 09:43 16.07.2019
4924 Haze 34 1006 49 5000 2.6 320 09:20 16.07.2019
4925 Haze 34 1006 49 5000 1.5 330 08:47 16.07.2019
4926 Haze 34 1006 49 5000 1.5 330 08:27 16.07.2019
4927 Haze 34 1006 49 5000 1.5 330 08:27 16.07.2019
4928 Haze 32 1006 55 5000 2.6 280 07:51 16.07.2019
4929 Haze 32 1006 55 5000 2.6 280 07:32 16.07.2019
4930 Haze 32 1006 59 5000 4.1 270 06:58 16.07.2019
4931 Haze 31 1006 58 5000 5.1 270 06:36 16.07.2019
4932 Haze 30 1006 62 5000 3.1 300 05:51 16.07.2019
4933 Haze 30 1006 62 5000 3.1 300 05:26 16.07.2019
4934 Haze 29 1005 66 5000 2.1 300 04:34 16.07.2019
4935 Haze 28 1005 69 5000 1.5 290 03:42 16.07.2019
4936 Haze 29 1004 66 5000 1.5 290 02:44 16.07.2019
4937 Haze 29 1004 66 5000 1.5 290 02:22 16.07.2019
4938 Haze 29 1003 66 5000 1.5 290 01:24 16.07.2019
4939 Haze 30 1003 62 5000 1.5 300 00:23 16.07.2019
4940 Haze 30 1003 62 5000 1.5 290 23:58 15.07.2019
4941 Haze 30 1003 62 5000 1.5 290 23:38 15.07.2019
4942 Haze 31 1003 58 5000 1.5 300 23:18 15.07.2019
4943 Haze 31 1003 58 5000 1.5 300 22:43 15.07.2019
4944 Haze 31 1004 58 5000 2.1 300 22:20 15.07.2019
4945 Haze 31 1004 58 5000 2.1 300 22:20 15.07.2019
4946 Haze 31 1004 58 5000 2.1 300 21:57 15.07.2019
4947 Haze 31 1004 58 5000 1.5 300 21:38 15.07.2019
4948 Haze 31 1004 58 5000 1.5 300 21:19 15.07.2019
4949 Haze 31 1004 58 5000 2.1 320 20:42 15.07.2019
4950 Haze 31 1004 58 5000 2.1 300 20:22 15.07.2019
4951 Haze 31 1004 58 5000 2.1 300 19:56 15.07.2019
4952 Haze 32 1004 55 5000 2.6 280 19:38 15.07.2019
4953 Haze 32 1004 52 5000 2.1 280 19:18 15.07.2019
4954 Haze 32 1003 52 5000 2.1 270 18:43 15.07.2019
4955 Haze 32 1003 52 5000 2.1 270 18:20 15.07.2019
4956 Haze 32 1003 52 5000 2.1 270 17:56 15.07.2019
4957 Haze 32 1003 52 5000 2.6 250 17:37 15.07.2019
4958 Haze 33 1002 49 5000 1.5 250 17:19 15.07.2019
4959 Haze 33 1002 49 5000 2.1 260 16:40 15.07.2019
4960 Haze 33 1002 49 5000 2.1 260 16:21 15.07.2019
4961 Haze 33 1002 49 5000 2.1 260 16:21 15.07.2019
4962 Haze 34 1001 46 5000 2.1 260 15:59 15.07.2019
4963 Haze 35 1001 44 5000 3.1 260 15:38 15.07.2019
4964 Haze 35 1001 44 5000 2.6 270 15:20 15.07.2019
4965 Haze 36 1001 41 5000 3.6 270 14:45 15.07.2019
4966 Haze 36 1001 41 5000 3.6 270 14:27 15.07.2019
4967 Haze 36 1001 44 5000 3.6 280 13:57 15.07.2019
4968 Haze 36 1001 41 5000 2.1 290 13:36 15.07.2019
4969 Haze 36 1001 44 5000 4.6 260 13:18 15.07.2019
4970 Haze 36 1002 41 5000 4.6 270 12:42 15.07.2019
4971 Haze 36 1002 44 5000 5.7 270 12:22 15.07.2019
4972 Haze 35 1003 47 5000 4.1 260 11:43 15.07.2019
4973 Haze 35 1003 47 5000 1.5 300 11:25 15.07.2019
4974 Haze 35 1003 47 5000 4.1 260 11:25 15.07.2019
4975 Haze 35 1003 47 5000 4.1 280 10:48 15.07.2019
4976 Haze 35 1003 47 5000 4.1 280 10:29 15.07.2019
4977 Haze 33 1004 59 5000 3.6 290 09:55 15.07.2019
4978 Haze 33 1004 59 5000 3.6 290 09:36 15.07.2019
4979 Haze 33 1004 59 5000 3.6 290 09:18 15.07.2019
4980 Haze 33 1005 59 5000 4.1 270 08:41 15.07.2019
4981 Haze 33 1005 59 5000 4.1 270 08:23 15.07.2019
4982 Haze 33 1005 59 5000 4.1 270 08:23 15.07.2019
4983 Haze 32 1005 59 5000 3.1 290 07:41 15.07.2019
4984 Haze 31 1005 62 5000 3.1 300 07:19 15.07.2019
4985 Haze 31 1005 62 5000 3.1 300 06:39 15.07.2019
4986 Haze 29 1005 70 5000 2.1 300 05:49 15.07.2019
4987 Haze 29 1005 70 5000 2.1 300 05:29 15.07.2019
4988 Haze 28 1004 69 4000 2.6 260 04:43 15.07.2019
4989 Haze 26 1003 88 4000 2.6 220 03:48 15.07.2019
4990 Haze 26 1003 83 4000 1.5 200 02:45 15.07.2019
4991 Haze 26 1003 83 4000 1.5 200 01:44 15.07.2019
4992 Haze 26 1003 83 4000 1.5 200 01:26 15.07.2019
4993 Haze 27 1003 78 4000 2.1 230 00:51 15.07.2019
4994 Haze 27 1003 78 4000 2.6 210 00:20 15.07.2019
4995 Haze 27 1003 78 4000 2.6 210 23:55 14.07.2019
4996 Haze 27 1003 78 4000 2.6 210 23:36 14.07.2019
4997 Haze 27 1003 78 4000 2.6 210 23:36 14.07.2019
4998 Haze 28 1003 74 4000 2.6 210 23:18 14.07.2019
4999 Haze 28 1003 74 4000 2.6 210 23:18 14.07.2019
5000 Haze 27 1003 78 4000 2.6 200 22:41 14.07.2019
5001 Haze 27 1003 78 4000 2.6 200 22:22 14.07.2019
5002 Haze 27 1003 78 4000 2.6 200 22:22 14.07.2019
5003 Haze 28 1004 74 4000 2.6 200 21:59 14.07.2019
5004 Haze 28 1004 74 4000 2.6 200 21:41 14.07.2019
5005 Haze 28 1004 74 4000 2.1 210 21:18 14.07.2019
5006 Haze 28 1004 74 4000 2.1 210 20:55 14.07.2019
5007 Haze 28 1004 74 4000 1 210 20:36 14.07.2019
5008 Haze 29 1005 74 4000 1.5 240 20:18 14.07.2019
5009 Haze 29 1005 70 4000 1 250 19:43 14.07.2019
5010 Haze 29 1005 70 4000 1 250 19:24 14.07.2019
5011 Haze 30 1004 66 4000 1 270 18:57 14.07.2019
5012 Haze 30 1004 66 4000 1 270 18:38 14.07.2019
5013 Haze 30 1004 66 4000 1 270 18:18 14.07.2019
5014 Haze 30 1004 66 4000 1.5 310 17:47 14.07.2019
5015 Haze 31 1004 58 4000 1.5 290 17:20 14.07.2019
5016 Haze 31 1003 58 4000 1.5 300 16:46 14.07.2019
5017 Haze 31 1003 58 4000 1.5 300 16:24 14.07.2019
5018 Haze 32 1003 55 4000 3.1 310 15:54 14.07.2019
5019 Haze 32 1003 59 4000 3.1 220 15:29 14.07.2019
5020 Haze 31 1003 62 4000 2.6 310 14:49 14.07.2019
5021 Haze 31 1003 62 4000 2.6 310 14:21 14.07.2019
5022 Haze 30 1003 66 5000 2.6 340 13:49 14.07.2019
5023 Haze 30 1003 66 5000 2.6 340 13:26 14.07.2019
5024 Haze 31 1004 62 4000 4.1 300 12:59 14.07.2019
5025 Haze 34 1003 52 4000 7.7 280 12:40 14.07.2019
5026 Haze 36 1003 44 5000 3.1 280 12:21 14.07.2019
5027 Haze 35 1003 47 5000 4.1 260 11:52 14.07.2019
5028 Haze 35 1003 47 5000 4.1 260 11:22 14.07.2019
5029 Haze 34 1005 52 5000 4.1 250 10:50 14.07.2019
5030 Haze 34 1005 52 5000 4.1 250 10:23 14.07.2019
5031 Haze 34 1005 52 5000 4.1 240 09:55 14.07.2019
5032 Haze 34 1006 52 5000 4.6 270 09:37 14.07.2019
5033 Haze 34 1006 52 5000 4.6 310 09:18 14.07.2019
5034 Haze 33 1006 55 5000 4.6 300 08:41 14.07.2019
5035 Haze 33 1006 55 5000 3.6 290 07:56 14.07.2019
5036 Haze 33 1006 55 5000 3.6 290 07:34 14.07.2019
5037 Haze 31 1007 62 5000 3.6 290 06:23 14.07.2019
5038 Haze 29 1007 70 4000 4.6 280 05:43 14.07.2019
5039 Haze 28 1005 74 4000 3.6 280 03:45 14.07.2019
5040 Haze 28 1005 74 4000 3.6 280 03:27 14.07.2019
5041 Haze 29 1005 70 4000 4.1 260 02:38 14.07.2019
5042 Haze 29 1005 70 4000 4.1 270 02:20 14.07.2019
5043 Haze 29 1004 70 4000 4.1 270 01:30 14.07.2019
5044 Haze 29 1004 70 4000 2.1 250 00:55 14.07.2019
5045 Haze 30 1004 66 4000 4.6 270 00:36 14.07.2019
5046 Haze 29 1004 70 4000 2.6 260 00:18 14.07.2019
5047 Haze 30 1004 66 4000 3.6 280 23:41 13.07.2019
5048 Haze 30 1004 66 4000 3.6 270 23:22 13.07.2019
5049 Haze 29 1005 66 4000 3.1 230 22:43 13.07.2019
5050 Haze 29 1005 66 4000 3.1 230 22:22 13.07.2019
5051 Haze 30 1005 62 4000 4.1 300 21:49 13.07.2019
5052 Haze 30 1005 62 4000 4.1 300 21:22 13.07.2019
5053 Haze 31 1005 58 4000 3.6 280 20:53 13.07.2019
5054 Haze 31 1006 58 4000 3.6 260 20:34 13.07.2019
5055 Haze 30 1006 62 4000 2.1 260 19:54 13.07.2019
5056 Haze 31 1006 58 4000 3.1 250 19:31 13.07.2019
5057 Haze 31 1006 55 4000 3.1 250 18:59 13.07.2019
5058 Haze 32 1006 55 4000 3.1 250 18:39 13.07.2019
5059 Haze 32 1006 55 4000 2.1 260 18:19 13.07.2019
5060 Haze 33 1005 55 4000 3.6 260 17:37 13.07.2019
5061 Haze 33 1005 55 4000 3.6 260 17:19 13.07.2019
5062 Haze 33 1005 55 4000 3.6 260 17:19 13.07.2019
5063 Haze 34 1005 49 4000 3.6 270 16:44 13.07.2019
5064 Haze 34 1005 49 4000 3.6 270 16:25 13.07.2019
5065 Haze 35 1004 47 4000 2.6 300 15:48 13.07.2019
5066 Haze 35 1004 47 4000 2.6 300 15:24 13.07.2019
5067 Haze 35 1004 47 4000 4.6 250 14:56 13.07.2019
5068 Haze 35 1004 47 5000 7.2 260 14:37 13.07.2019
5069 Haze 35 1003 47 5000 4.1 270 14:18 13.07.2019
5070 Haze 35 1004 47 5000 3.6 280 13:42 13.07.2019
5071 Haze 35 1004 50 5000 5.1 270 13:19 13.07.2019
5072 Haze 35 1004 50 5000 6.2 250 12:41 13.07.2019
5073 Haze 35 1005 47 5000 4.1 280 12:23 13.07.2019
5074 Haze 35 1005 47 5000 4.1 280 11:57 13.07.2019
5075 Clouds 34 1005 52 6000 4.1 260 11:20 13.07.2019
5076 Clouds 34 1005 52 6000 4.1 260 11:20 13.07.2019
5077 Clouds 34 1005 52 6000 4.1 260 10:57 13.07.2019
5078 Clouds 34 1005 52 6000 5.7 270 10:39 13.07.2019
5079 Clouds 34 1007 52 6000 5.1 270 10:20 13.07.2019
5080 Clouds 34 1007 52 6000 6.2 260 09:41 13.07.2019
5081 Clouds 33 1007 55 6000 5.1 270 09:22 13.07.2019
5082 Clouds 33 1007 55 6000 5.7 260 08:47 13.07.2019
5083 Clouds 33 1007 55 6000 5.7 260 08:26 13.07.2019
5084 Haze 32 1008 59 5000 5.1 260 07:31 13.07.2019
5085 Haze 31 1008 62 5000 5.1 250 06:55 13.07.2019
5086 Haze 31 1008 62 5000 5.1 280 06:29 13.07.2019
5087 Haze 29 1007 74 5000 4.1 260 05:38 13.07.2019
5088 Haze 29 1007 74 4000 3.6 240 04:36 13.07.2019
5089 Haze 28 1007 78 4000 3.1 240 04:18 13.07.2019
5090 Haze 27 1006 83 4000 2.6 220 03:40 13.07.2019
5091 Haze 27 1006 83 4000 2.1 210 02:28 13.07.2019
5092 Haze 27 1005 88 4000 2.1 210 01:44 13.07.2019
5093 Haze 27 1005 88 4000 2.6 200 01:20 13.07.2019
5094 Haze 27 1005 88 4000 2.6 200 00:57 13.07.2019
5095 Haze 27 1005 88 4000 1.5 210 00:20 13.07.2019
5096 Haze 28 1005 83 4000 2.1 210 23:49 12.07.2019
5097 Haze 28 1005 83 4000 2.1 210 23:30 12.07.2019
5098 Haze 28 1005 78 4000 2.6 190 22:56 12.07.2019
5099 Haze 28 1005 83 4000 2.6 190 22:38 12.07.2019
5100 Haze 29 1006 79 4000 2.6 200 22:18 12.07.2019
5101 Haze 29 1006 74 4000 1.5 210 21:41 12.07.2019
5102 Haze 29 1006 74 4000 1.5 210 21:19 12.07.2019
5103 Haze 29 1006 74 4000 2.1 210 20:43 12.07.2019
5104 Haze 29 1006 74 4000 2.1 210 20:21 12.07.2019
5105 Haze 30 1007 66 4000 2.1 210 19:42 12.07.2019
5106 Haze 30 1007 66 4000 2.1 210 19:24 12.07.2019
5107 Haze 31 1006 62 4000 1.5 220 18:46 12.07.2019
5108 Haze 31 1006 62 4000 2.1 240 18:22 12.07.2019
5109 Haze 31 1006 62 4000 2.1 240 17:55 12.07.2019
5110 Haze 31 1006 62 4000 2.1 230 17:30 12.07.2019
5111 Haze 32 1006 59 4000 1.5 250 16:59 12.07.2019
5112 Haze 33 1004 55 4000 1.5 280 16:27 12.07.2019
5113 Haze 33 1005 55 4000 1.5 280 15:57 12.07.2019
5114 Haze 34 1004 49 4000 1.5 290 15:37 12.07.2019
5115 Haze 34 1004 52 4000 1 340 15:18 12.07.2019
5116 Haze 34 1004 52 4000 1.5 260 14:44 12.07.2019
5117 Haze 34 1003 52 4000 3.6 270 14:21 12.07.2019
5118 Haze 35 1003 53 4000 3.1 280 13:46 12.07.2019
5119 Haze 35 1003 53 4000 3.1 280 13:23 12.07.2019
5120 Haze 35 1004 50 5000 4.1 280 12:42 12.07.2019
5121 Haze 35 1004 53 5000 2.1 290 12:23 12.07.2019
5122 Haze 35 1005 53 5000 4.6 260 11:47 12.07.2019
5123 Haze 35 1005 53 5000 4.6 260 11:24 12.07.2019
5124 Haze 34 1005 56 5000 4.1 260 10:58 12.07.2019
5125 Haze 34 1005 56 5000 4.1 260 10:40 12.07.2019
5126 Haze 33 1006 59 5000 3.6 280 10:22 12.07.2019
5127 Haze 33 1006 59 5000 3.6 280 09:51 12.07.2019
5128 Haze 33 1006 59 5000 3.6 270 09:25 12.07.2019
5129 Haze 33 1006 55 5000 4.1 280 08:47 12.07.2019
5130 Haze 32 1006 62 5000 4.1 280 08:23 12.07.2019
5131 Haze 32 1006 62 5000 4.1 270 07:47 12.07.2019
5132 Haze 32 1006 62 5000 4.1 270 07:29 12.07.2019
5133 Haze 31 1006 66 5000 5.1 260 06:30 12.07.2019
5134 Haze 29 1006 74 4000 5.7 250 05:52 12.07.2019
5135 Haze 28 1006 83 4000 3.1 240 04:52 12.07.2019
5136 Haze 26 1004 88 4000 3.1 220 01:54 12.07.2019
5137 Haze 27 1004 88 4000 2.6 240 01:34 12.07.2019
5138 Haze 27 1004 88 4000 3.1 240 00:37 12.07.2019
5139 Haze 27 1004 88 4000 3.6 240 00:18 12.07.2019
5140 Haze 27 1004 88 4000 2.6 220 23:42 11.07.2019
5141 Haze 27 1004 88 4000 2.6 210 23:21 11.07.2019
5142 Haze 27 1004 88 4000 2.6 200 22:45 11.07.2019
5143 Haze 27 1004 88 4000 2.6 200 22:24 11.07.2019
5144 Haze 27 1005 88 4000 3.1 210 21:45 11.07.2019
5145 Haze 28 1005 83 4000 2.6 230 21:21 11.07.2019
5146 Haze 28 1005 83 4000 2.6 230 20:59 11.07.2019
5147 Haze 28 1005 83 4000 2.1 200 20:41 11.07.2019
5148 Haze 28 1006 83 4000 2.6 220 20:22 11.07.2019
5149 Haze 28 1006 83 4000 2.6 220 19:55 11.07.2019
5150 Haze 29 1006 79 4000 3.1 220 19:37 11.07.2019
5151 Haze 29 1005 79 4000 3.1 220 19:19 11.07.2019
5152 Haze 29 1005 79 4000 4.1 210 18:40 11.07.2019
5153 Haze 29 1005 79 4000 4.1 210 18:21 11.07.2019
5154 Haze 30 1004 74 3000 3.1 200 17:47 11.07.2019
5155 Haze 30 1004 74 3000 3.1 200 17:28 11.07.2019
5156 Haze 30 1003 74 3000 3.6 210 16:53 11.07.2019
5157 Haze 31 1003 70 3000 3.1 200 16:25 11.07.2019
5158 Haze 31 1003 70 4000 2.6 210 15:57 11.07.2019
5159 Haze 31 1003 70 4000 3.6 210 15:38 11.07.2019
5160 Haze 32 1003 66 4000 2.1 230 15:19 11.07.2019
5161 Haze 33 1002 59 4000 4.1 260 14:44 11.07.2019
5162 Haze 33 1002 59 4000 4.1 260 14:23 11.07.2019
5163 Haze 33 1002 59 4000 4.1 250 13:47 11.07.2019
5164 Haze 33 1002 59 4000 4.1 250 13:29 11.07.2019
5165 Haze 34 1002 56 4000 3.1 250 12:56 11.07.2019
5166 Haze 33 1002 66 4000 3.6 200 12:37 11.07.2019
5167 Haze 33 1002 63 4000 3.6 230 12:18 11.07.2019
5168 Haze 33 1002 63 4000 3.6 230 12:18 11.07.2019
5169 Haze 33 1003 63 4000 4.6 240 11:41 11.07.2019
5170 Haze 33 1003 63 4000 4.6 240 11:22 11.07.2019
5171 Haze 33 1004 63 4000 3.1 270 10:46 11.07.2019
5172 Haze 33 1004 63 4000 4.1 260 10:19 11.07.2019
5173 Haze 32 1004 66 5000 4.1 260 09:48 11.07.2019
5174 Haze 32 1004 66 5000 4.1 260 09:29 11.07.2019
5175 Haze 32 1005 66 5000 3.1 270 08:53 11.07.2019
5176 Haze 32 1005 66 5000 3.1 270 08:27 11.07.2019
5177 Haze 31 1005 70 5000 4.1 250 07:55 11.07.2019
5178 Haze 31 1005 70 5000 4.1 260 07:36 11.07.2019
5179 Haze 29 1005 79 5000 4.1 240 06:41 11.07.2019
5180 Haze 28 1004 78 5000 3.1 230 05:53 11.07.2019
5181 Haze 28 1004 78 5000 3.1 230 05:30 11.07.2019
5182 Haze 27 1004 88 5000 3.1 230 04:55 11.07.2019
5183 Haze 26 1002 88 3000 2.1 210 02:41 11.07.2019
5184 Haze 26 1002 88 3000 2.6 210 01:41 11.07.2019
5185 Haze 27 1001 83 3000 2.6 210 00:30 11.07.2019
5186 Haze 27 1001 83 3000 3.6 220 23:38 10.07.2019
5187 Haze 28 1001 78 3000 4.1 220 23:20 10.07.2019
5188 Haze 28 1001 78 3000 3.1 220 22:48 10.07.2019
5189 Haze 28 1001 78 3000 3.1 220 22:22 10.07.2019
5190 Haze 28 1002 88 3000 1 190 21:48 10.07.2019
5191 Haze 28 1002 88 3000 1 190 21:28 10.07.2019
5192 Haze 29 1003 79 3000 2.6 190 20:58 10.07.2019
5193 Haze 29 1003 79 3000 2.1 210 20:39 10.07.2019
5194 Haze 29 1003 79 3000 2.1 200 20:19 10.07.2019
5195 Haze 29 1003 79 3000 2.1 200 19:53 10.07.2019
5196 Haze 29 1003 79 3000 2.1 200 19:22 10.07.2019
5197 Haze 29 1003 79 3000 2.1 200 18:58 10.07.2019
5198 Haze 29 1002 79 3000 1.5 220 18:39 10.07.2019
5199 Haze 29 1002 79 3000 1 200 18:21 10.07.2019
5200 Haze 30 1002 70 3000 1.5 210 17:41 10.07.2019
5201 Haze 31 1001 66 3000 1.5 210 17:21 10.07.2019
5202 Haze 31 1001 66 3000 1.5 210 16:38 10.07.2019
5203 Haze 31 1001 66 4000 2.1 210 16:18 10.07.2019
5204 Haze 32 1000 62 4000 2.1 220 15:45 10.07.2019
5205 Haze 32 1000 62 4000 2.1 220 15:21 10.07.2019
5206 Haze 33 1000 59 5000 4.1 220 14:41 10.07.2019
5207 Haze 33 1000 59 5000 3.1 220 14:23 10.07.2019
5208 Haze 33 1000 59 5000 4.1 220 13:52 10.07.2019
5209 Haze 33 1000 59 5000 3.6 220 13:19 10.07.2019
5210 Haze 33 1000 59 5000 3.6 220 13:19 10.07.2019
5211 Haze 33 1000 59 5000 3.6 220 12:58 10.07.2019
5212 Haze 33 1000 59 5000 3.6 220 12:58 10.07.2019
5213 Haze 33 1000 59 5000 3.6 220 12:58 10.07.2019
5214 Haze 33 1000 59 5000 3.1 230 12:38 10.07.2019
5215 Haze 33 1000 59 5000 3.1 230 12:38 10.07.2019
5216 Haze 33 1001 63 5000 4.1 220 12:19 10.07.2019
5217 Haze 32 1001 66 5000 3.6 240 11:46 10.07.2019
5218 Haze 32 1001 66 5000 3.6 240 11:21 10.07.2019
5219 Haze 32 1002 66 5000 4.1 240 10:46 10.07.2019
5220 Haze 32 1002 66 5000 6.2 230 10:21 10.07.2019
5221 Haze 32 1002 66 5000 3.6 230 09:44 10.07.2019
5222 Haze 31 1003 74 5000 4.1 250 09:21 10.07.2019
5223 Haze 31 1003 74 5000 4.1 250 08:52 10.07.2019
5224 Haze 31 1003 74 5000 4.1 250 08:52 10.07.2019
5225 Haze 31 1003 74 5000 4.1 250 08:52 10.07.2019
5226 Haze 31 1003 70 5000 5.1 230 08:29 10.07.2019
5227 Haze 30 1003 74 5000 4.1 250 07:55 10.07.2019
5228 Haze 30 1003 79 5000 3.6 220 07:32 10.07.2019
5229 Haze 30 1003 79 5000 3.6 220 07:32 10.07.2019
5230 Haze 29 1003 79 5000 4.6 200 06:56 10.07.2019
5231 Haze 27 1003 88 3000 3.1 220 05:59 10.07.2019
5232 Haze 26 1003 94 3000 4.1 210 04:38 10.07.2019
5233 Haze 25 1003 100 3000 3.6 200 03:40 10.07.2019
5234 Haze 26 1001 94 3000 2.1 200 00:47 10.07.2019
5235 Haze 26 1001 94 3000 2.1 200 00:26 10.07.2019
5236 Haze 26 1002 94 3000 2.1 200 23:41 09.07.2019
5237 Haze 26 1002 94 3000 3.1 200 23:21 09.07.2019
5238 Haze 26 1002 94 3000 3.1 200 22:41 09.07.2019
5239 Haze 26 1002 94 3000 3.1 200 22:22 09.07.2019
5240 Haze 26 1002 94 3000 3.1 210 21:56 09.07.2019
5241 Haze 26 1003 94 3000 3.1 210 21:38 09.07.2019
5242 Rain 26 1003 94 3000 2.1 190 21:19 09.07.2019
5243 Rain 26 1003 94 3000 1 210 20:43 09.07.2019
5244 Rain 26 1003 94 3000 1 210 20:24 09.07.2019
5245 Rain 26 1003 94 3000 1.5 210 19:40 09.07.2019
5246 Rain 26 1003 94 3000 1 240 19:21 09.07.2019
5247 Rain 26 1003 94 3000 1 220 18:45 09.07.2019
5248 Rain 26 1003 94 3000 1 220 18:45 09.07.2019
5249 Rain 26 1003 94 2500 1 210 18:23 09.07.2019
5250 Rain 26 1003 88 2500 1.5 210 17:55 09.07.2019
5251 Rain 26 1003 88 2500 1.5 210 17:37 09.07.2019
5252 Rain 26 1003 88 2000 5.1 250 17:18 09.07.2019
5253 Rain 28 1002 83 2500 1 250 16:46 09.07.2019
5254 Rain 28 1002 83 2500 1 250 16:24 09.07.2019
5255 Rain 31 1001 70 2500 3.1 240 15:49 09.07.2019
5256 Rain 31 1001 70 2500 3.1 240 15:29 09.07.2019
5257 Haze 32 1000 66 5000 4.1 220 14:47 09.07.2019
5258 Haze 32 1000 66 5000 4.1 220 14:47 09.07.2019
5259 Haze 32 1000 66 5000 4.1 220 14:25 09.07.2019
5260 Haze 33 1000 59 5000 6.2 260 13:59 09.07.2019
5261 Haze 33 1000 59 5000 6.7 250 13:40 09.07.2019
5262 Haze 33 1000 59 5000 6.2 260 13:20 09.07.2019
5263 Haze 33 1000 59 5000 4.1 300 12:40 09.07.2019
5264 Haze 33 1000 59 5000 6.7 260 12:19 09.07.2019
5265 Haze 33 1000 59 5000 6.7 260 11:57 09.07.2019
5266 Rain 31 999 64 0 6.26 256.841 11:38 09.07.2019
5267 Haze 32 1002 66 4000 6.2 280 11:20 09.07.2019
5268 Haze 32 1002 66 4000 6.2 280 10:48 09.07.2019
5269 Haze 32 1002 66 4000 6.2 280 10:26 09.07.2019
5270 Haze 31 1002 66 4000 5.1 260 09:39 09.07.2019
5271 Haze 31 1003 70 4000 5.1 250 09:20 09.07.2019
5272 Haze 31 1003 70 4000 5.1 250 09:20 09.07.2019
5273 Haze 31 1003 70 4000 5.1 250 08:45 09.07.2019
5274 Haze 30 1003 74 4000 5.7 230 08:21 09.07.2019
5275 Clouds 26 999 84 0 6.79 257.895 03:52 05.07.2019
5276 Haze 26 999 94 3000 3.1 220 03:24 05.07.2019
5277 Haze 26 999 94 3000 3.1 220 02:54 05.07.2019
5278 Haze 26 999 94 3000 3.1 220 02:36 05.07.2019
5279 Haze 26 999 94 3000 2.1 220 01:37 05.07.2019
5280 Haze 27 999 83 3000 3.1 240 00:54 05.07.2019
5281 Haze 27 999 83 3000 3.1 260 00:33 05.07.2019
5282 Haze 27 999 83 3000 3.1 270 23:47 04.07.2019
5283 Haze 27 999 88 3000 3.1 270 23:20 04.07.2019
5284 Haze 27 999 88 3000 2.6 250 22:43 04.07.2019
5285 Haze 27 999 88 3000 2.6 250 22:24 04.07.2019
5286 Haze 27 999 88 3000 2.6 230 21:55 04.07.2019
5287 Haze 27 1000 88 3000 2.1 240 21:36 04.07.2019
5288 Haze 27 1000 88 3000 2.6 220 21:18 04.07.2019
5289 Haze 27 1000 88 3000 3.1 230 20:39 04.07.2019
5290 Haze 27 1001 88 3000 3.1 220 20:20 04.07.2019
5291 Haze 27 1001 83 3000 2.6 230 19:42 04.07.2019
5292 Haze 27 1001 83 3000 2.1 230 19:22 04.07.2019
5293 Haze 27 1001 88 3000 2.1 230 18:57 04.07.2019
5294 Haze 27 1001 88 3000 2.1 230 18:39 04.07.2019
5295 Haze 27 1000 88 3000 3.1 240 18:20 04.07.2019
5296 Haze 28 1000 83 3000 3.1 230 17:43 04.07.2019
5297 Haze 29 1000 79 3000 3.1 220 17:19 04.07.2019
5298 Haze 29 999 79 3000 2.6 280 15:57 04.07.2019
5299 Haze 29 999 79 3000 45.8 270 15:39 04.07.2019
5300 Haze 29 999 79 3000 4.6 270 15:19 04.07.2019
5301 Haze 29 999 83 3000 3.1 280 14:44 04.07.2019
5302 Haze 29 999 83 3000 3.1 280 14:25 04.07.2019
5303 Haze 29 999 83 3000 33.4 260 13:59 04.07.2019
5304 Haze 29 999 83 3000 2.6 270 13:41 04.07.2019
5305 Rain 28 999 88 3000 2.6 260 13:22 04.07.2019
5306 Rain 27 999 94 3000 5.1 260 12:40 04.07.2019
5307 Rain 27 1000 88 1500 5.7 250 12:21 04.07.2019
5308 Rain 27 1000 88 1500 5.7 250 11:59 04.07.2019
5309 Rain 28 1000 88 2500 3.6 280 11:38 04.07.2019
5310 Rain 28 1000 83 0 4.6 280 11:19 04.07.2019
5311 Rain 29 1000 79 3000 4.6 270 10:40 04.07.2019
5312 Rain 29 1000 79 3000 4.6 240 10:20 04.07.2019
5313 Rain 28 1000 88 2500 4.6 230 09:41 04.07.2019
5314 Haze 29 1000 79 5000 4.6 230 09:21 04.07.2019
5315 Haze 29 1000 79 5000 4.6 230 08:56 04.07.2019
5316 Haze 29 1000 79 5000 4.6 230 08:56 04.07.2019
5317 Haze 29 1000 83 5000 5.7 240 08:22 04.07.2019
5318 Haze 29 1001 79 4000 5.7 230 07:43 04.07.2019
5319 Haze 28 1001 83 3000 3.6 240 07:22 04.07.2019
5320 Haze 28 1001 83 3000 4.6 240 06:39 04.07.2019
5321 Haze 27 1001 88 3000 4.1 240 05:50 04.07.2019
5322 Haze 27 1001 88 3000 4.1 240 05:31 04.07.2019
5323 Rain 26 1000 94 2000 2.6 230 02:41 04.07.2019
5324 Rain 26 1000 94 2000 2.6 230 01:41 04.07.2019
5325 Rain 26 1000 94 2000 3.1 230 01:19 04.07.2019
5326 Rain 25 1000 94 2000 3.6 230 23:56 03.07.2019
5327 Rain 25 1000 94 2000 4.1 250 23:36 03.07.2019
5328 Rain 25 1000 94 2000 3.6 250 23:18 03.07.2019
5329 Rain 25 1001 94 2000 3.6 250 22:39 03.07.2019
5330 Haze 26 1001 88 2500 3.1 230 22:21 03.07.2019
5331 Haze 26 1001 88 2500 3.1 230 21:56 03.07.2019
5332 Haze 26 1001 88 2500 3.1 240 21:37 03.07.2019
5333 Haze 26 1001 88 2500 3.1 240 21:37 03.07.2019
5334 Haze 26 1001 88 2500 3.6 250 21:19 03.07.2019
5335 Haze 26 1001 88 2500 4.1 200 20:41 03.07.2019
5336 Haze 26 1001 88 2500 4.1 200 20:23 03.07.2019
5337 Rain 26 1002 88 2500 3.1 250 19:50 03.07.2019
5338 Rain 26 1002 88 2500 3.1 250 19:31 03.07.2019
5339 Rain 25 1001 94 2500 4.6 250 18:47 03.07.2019
5340 Rain 25 1001 94 2500 4.6 250 18:25 03.07.2019
5341 Rain 25 1001 94 2000 4.6 250 17:55 03.07.2019
5342 Rain 25 1001 94 2000 4.6 250 17:36 03.07.2019
5343 Rain 25 1001 94 2000 4.1 240 17:18 03.07.2019
5344 Rain 25 1001 94 2000 4.1 260 16:43 03.07.2019
5345 Rain 25 1000 94 2000 4.1 230 16:20 03.07.2019
5346 Rain 25 1000 94 2000 4.1 240 15:47 03.07.2019
5347 Rain 25 1000 94 2000 4.1 240 15:29 03.07.2019
5348 Rain 25 1000 94 2000 3.6 230 14:52 03.07.2019
5349 Rain 25 1000 100 1500 4.1 250 14:24 03.07.2019
5350 Rain 25 1000 100 1500 4.1 250 13:57 03.07.2019
5351 Rain 26 1000 94 1500 5.7 260 13:32 03.07.2019
5352 Rain 27 1000 88 3000 6.2 260 12:54 03.07.2019
5353 Rain 27 1000 88 3000 5.1 250 12:21 03.07.2019
5354 Rain 27 1000 88 3000 5.1 250 11:58 03.07.2019
5355 Rain 27 1000 88 3000 6.2 260 11:39 03.07.2019
5356 Rain 27 1000 88 4000 5.1 260 11:20 03.07.2019
5357 Rain 28 1000 83 4000 5.1 250 10:41 03.07.2019
5358 Rain 28 1000 83 4000 5.1 250 10:22 03.07.2019
5359 Haze 28 1000 83 3000 6.2 240 09:42 03.07.2019
5360 Haze 28 1001 83 3000 5.7 270 09:21 03.07.2019
5361 Haze 28 1001 83 3000 5.7 270 08:53 03.07.2019
5362 Haze 28 1001 83 3000 5.7 270 08:32 03.07.2019
5363 Haze 27 1001 83 3000 3.6 260 07:57 03.07.2019
5364 Haze 27 1001 88 3000 6.7 250 07:36 03.07.2019
5365 Rain 26 1000 88 2000 5.1 240 06:52 03.07.2019
5366 Haze 26 1000 88 3000 5.1 250 05:53 03.07.2019
5367 Haze 26 1000 88 3000 4.6 250 05:21 03.07.2019
5368 Haze 25 1000 94 3000 3.1 180 03:36 03.07.2019
5369 Haze 25 999 94 3000 3.6 180 02:38 03.07.2019
5370 Rain 24 999 100 2500 2.6 190 01:23 03.07.2019
5371 Rain 24 999 100 2500 2.1 340 00:57 03.07.2019
5372 Rain 24 999 92 0 8.14 257.87 00:36 03.07.2019
5373 Rain 24 999 94 2500 4.6 360 23:48 02.07.2019
5374 Rain 24 999 94 2500 4.6 360 23:21 02.07.2019
5375 Rain 24 999 94 2500 4.6 360 22:59 02.07.2019
5376 Rain 24 999 100 2000 3.1 360 22:41 02.07.2019
5377 Rain 24 999 100 2000 3.1 360 22:22 02.07.2019
5378 Rain 25 1000 94 2500 1.5 360 21:56 02.07.2019
5379 Rain 25 1000 94 2500 1.5 360 21:37 02.07.2019
5380 Haze 26 1000 94 3000 1 360 21:18 02.07.2019
5381 Haze 26 1000 94 3000 1 360 20:41 02.07.2019
5382 Haze 28 1000 78 3000 3.6 170 20:23 02.07.2019
5383 Haze 29 1000 74 3000 3.1 170 19:45 02.07.2019
5384 Haze 29 1000 74 3000 3.1 170 19:25 02.07.2019
5385 Haze 29 1000 74 3000 3.1 170 19:00 02.07.2019
5386 Haze 29 1000 74 3000 4.1 170 18:41 02.07.2019
5387 Haze 29 1000 74 3000 4.1 170 18:41 02.07.2019
5388 Haze 29 1000 74 3000 4.1 170 18:18 02.07.2019
5389 Haze 29 999 79 3000 2.6 150 17:38 02.07.2019
5390 Haze 29 999 79 3000 2.1 150 17:20 02.07.2019
5391 Haze 29 999 79 3000 2.1 140 16:46 02.07.2019
5392 Haze 29 999 79 3000 2.1 140 16:27 02.07.2019
5393 Haze 30 998 79 3000 3.1 140 15:42 02.07.2019
5394 Haze 30 998 79 3000 2.1 160 15:24 02.07.2019
5395 Haze 30 998 79 3000 2.1 160 14:49 02.07.2019
5396 Haze 30 998 79 3000 2.1 160 14:30 02.07.2019
5397 Haze 30 998 74 3000 2.1 160 13:45 02.07.2019
5398 Haze 30 998 84 3000 2.6 140 13:20 02.07.2019
5399 Rain 30 998 84 3000 2.1 160 12:46 02.07.2019
5400 Rain 30 998 79 3000 2.1 160 12:25 02.07.2019
5401 Rain 29 1000 83 3000 2.6 210 11:57 02.07.2019
5402 Rain 29 1000 83 3000 2.6 210 11:39 02.07.2019
5403 Rain 29 1000 83 3000 2.6 230 11:18 02.07.2019
5404 Haze 29 1000 83 3000 3.1 210 10:44 02.07.2019
5405 Haze 28 1000 88 3000 3.6 250 10:24 02.07.2019
5406 Haze 27 1001 94 3000 5.1 240 09:44 02.07.2019
5407 Rain 26 1002 100 2000 3.1 220 09:21 02.07.2019
5408 Rain 26 1002 94 2000 3.1 220 08:42 02.07.2019
5409 Rain 26 1002 94 2000 4.1 240 08:20 02.07.2019
5410 Rain 26 1002 94 2000 4.1 240 07:53 02.07.2019
5411 Rain 25 1002 100 2000 2.6 240 07:21 02.07.2019
5412 Rain 25 1002 100 2000 2.6 240 07:21 02.07.2019
5413 Rain 25 1002 100 1500 1.5 240 06:47 02.07.2019
5414 Rain 25 1002 94 2000 2.6 250 06:25 02.07.2019
5415 Haze 24 1001 100 2500 3.6 240 04:39 02.07.2019
5416 Thunderstorm 22 1000 100 2500 0.5 90 01:27 02.07.2019
5417 Thunderstorm 23 1001 94 1200 3.1 120 23:47 01.07.2019
5418 Thunderstorm 23 1001 94 1200 3.1 120 23:20 01.07.2019
5419 Thunderstorm 25 1001 88 2500 2.1 80 22:45 01.07.2019
5420 Thunderstorm 25 1001 88 2500 2.1 80 22:27 01.07.2019
5421 Thunderstorm 27 1001 94 3000 2.1 230 21:47 01.07.2019
5422 Thunderstorm 27 1001 94 3000 2.1 230 21:26 01.07.2019
5423 Thunderstorm 27 1001 94 3000 3.1 180 20:51 01.07.2019
5424 Haze 28 1002 88 3000 1 190 20:22 01.07.2019
5425 Haze 28 1002 88 3000 1 190 19:58 01.07.2019
5426 Haze 28 1001 88 4000 2.1 200 19:40 01.07.2019
5427 Haze 28 1001 88 4000 2.1 190 19:21 01.07.2019
5428 Haze 28 1001 83 4000 1.5 200 18:52 01.07.2019
5429 Haze 28 1001 83 4000 1.5 200 18:30 01.07.2019
5430 Haze 28 1001 83 4000 2.1 210 17:57 01.07.2019
5431 Haze 28 1001 83 4000 2.1 210 17:57 01.07.2019
5432 Haze 28 1000 83 4000 2.1 200 17:39 01.07.2019
5433 Haze 28 1000 83 4000 2.1 200 17:19 01.07.2019
5434 Haze 29 1000 79 4000 2.1 210 16:46 01.07.2019
5435 Haze 29 1000 79 4000 2.1 210 16:25 01.07.2019
5436 Haze 29 999 79 4000 3.1 210 15:46 01.07.2019
5437 Haze 29 999 79 4000 3.1 210 15:26 01.07.2019
5438 Haze 29 998 79 4000 3.1 210 14:45 01.07.2019
5439 Haze 29 998 79 4000 4.1 220 14:24 01.07.2019
5440 Haze 29 998 79 4000 4.1 220 13:55 01.07.2019
5441 Haze 29 999 79 4000 3.6 220 13:37 01.07.2019
5442 Haze 29 999 79 4000 3.1 210 13:18 01.07.2019
5443 Haze 29 1000 79 4000 2.6 210 12:40 01.07.2019
5444 Haze 29 1000 79 4000 2.6 210 12:40 01.07.2019
5445 Haze 29 1000 83 4000 4.1 220 12:22 01.07.2019
5446 Haze 29 1000 83 4000 4.1 220 11:56 01.07.2019
5447 Haze 29 1000 83 4000 4.1 220 11:56 01.07.2019
5448 Haze 29 1000 79 4000 2.6 260 11:37 01.07.2019
5449 Haze 29 1001 79 3000 3.1 250 11:18 01.07.2019
5450 Haze 29 1001 79 5000 3.1 260 10:41 01.07.2019
5451 Haze 29 1001 79 5000 3.1 260 10:20 01.07.2019
5452 Haze 29 1001 74 5000 3.1 250 09:41 01.07.2019
5453 Haze 29 1001 74 5000 3.1 250 09:23 01.07.2019
5454 Haze 30 1002 74 5000 3.6 260 08:39 01.07.2019
5455 Haze 30 1002 74 5000 3.6 260 08:21 01.07.2019
5456 Haze 29 1002 79 4000 4.1 290 07:33 01.07.2019
5457 Haze 28 1002 83 3000 2.6 330 06:41 01.07.2019
5458 Haze 25 1002 94 3000 1.5 310 04:31 01.07.2019
5459 Rain 24 1002 94 2000 3.1 360 00:54 01.07.2019
5460 Rain 24 1002 94 2000 3.1 360 00:31 01.07.2019
5461 Rain 24 1002 94 2000 5.7 360 23:58 30.06.2019
5462 Rain 24 1002 94 2000 5.1 360 23:24 30.06.2019
5463 Rain 24 1002 100 2000 3.1 350 22:54 30.06.2019
5464 Rain 24 1002 100 2000 2.6 360 22:23 30.06.2019
5465 Thunderstorm 24 1002 100 2000 1 240 21:57 30.06.2019
5466 Thunderstorm 24 1003 100 2000 1.5 240 21:38 30.06.2019
5467 Thunderstorm 24 1003 100 2000 1 240 21:18 30.06.2019
5468 Thunderstorm 24 1003 100 1500 1 80 20:41 30.06.2019
5469 Thunderstorm 24 1003 100 1500 1 80 20:22 30.06.2019
5470 Thunderstorm 24 1004 94 500 4.6 90 19:48 30.06.2019
5471 Thunderstorm 24 1004 94 500 4.6 90 19:25 30.06.2019
5472 Thunderstorm 29 1002 79 3000 2.6 240 18:47 30.06.2019
5473 Haze 30 1001 74 3000 3.6 250 18:22 30.06.2019
5474 Haze 30 1001 74 3000 4.1 240 17:40 30.06.2019
5475 Haze 30 1001 79 3000 4.1 230 17:19 30.06.2019
5476 Haze 31 1000 70 3000 3.6 260 16:52 30.06.2019
5477 Haze 31 1000 70 3000 3.6 260 16:33 30.06.2019
5478 Haze 31 1000 70 3000 5.7 270 15:55 30.06.2019
5479 Haze 31 999 70 3000 5.7 250 15:36 30.06.2019
5480 Haze 32 999 62 4000 4.6 270 15:18 30.06.2019
5481 Haze 32 999 66 4000 5.7 270 14:43 30.06.2019
5482 Haze 32 998 66 4000 5.7 270 14:22 30.06.2019
5483 Haze 32 998 66 4000 6.2 270 13:42 30.06.2019
5484 Haze 33 999 63 5000 4.6 260 13:20 30.06.2019
5485 Haze 33 999 63 5000 5.7 270 12:45 30.06.2019
5486 Haze 33 999 63 5000 5.7 270 12:45 30.06.2019
5487 Haze 33 999 63 5000 5.7 270 12:23 30.06.2019
5488 Haze 33 1000 59 5000 3.1 280 11:47 30.06.2019
5489 Haze 33 1000 59 5000 3.1 280 11:22 30.06.2019
5490 Haze 33 1000 63 5000 4.1 300 10:56 30.06.2019
5491 Haze 32 1001 66 5000 3.6 270 10:37 30.06.2019
5492 Haze 32 1001 66 5000 3.6 270 10:18 30.06.2019
5493 Haze 32 1001 66 5000 3.6 270 10:18 30.06.2019
5494 Haze 31 1002 70 5000 3.6 220 09:43 30.06.2019
5495 Haze 31 1002 70 5000 3.6 220 09:22 30.06.2019
5496 Haze 30 1002 74 5000 3.6 360 08:42 30.06.2019
5497 Haze 30 1002 74 5000 3.6 360 08:23 30.06.2019
5498 Haze 29 1002 79 4000 4.6 320 07:52 30.06.2019
5499 Haze 29 1002 79 4000 4.6 350 07:26 30.06.2019
5500 Mist 28 1002 83 3000 3.6 360 06:39 30.06.2019
5501 Mist 26 1002 88 2000 2.1 320 04:48 30.06.2019
5502 Drizzle 25 1000 94 3000 3.6 210 02:27 30.06.2019
5503 Drizzle 25 1000 94 3000 2.6 210 01:23 30.06.2019
5504 Rain 25 1000 94 3000 2.6 210 00:24 30.06.2019
5505 Rain 25 1000 94 3000 2.6 200 23:53 29.06.2019
5506 Rain 25 1001 94 3000 3.6 200 23:23 29.06.2019
5507 Rain 25 1001 100 3000 2.1 210 22:52 29.06.2019
5508 Rain 25 1002 100 3000 2.1 170 22:25 29.06.2019
5509 Rain 25 1002 100 3000 3.1 180 21:57 29.06.2019
5510 Rain 25 1002 100 3000 3.1 180 21:56 29.06.2019
5511 Rain 25 1003 100 3000 3.6 150 21:38 29.06.2019
5512 Rain 25 1003 100 3000 2.6 140 21:19 29.06.2019
5513 Rain 25 1003 94 3000 2.1 140 20:36 29.06.2019
5514 Rain 25 1003 94 2500 2.1 180 20:18 29.06.2019
5515 Rain 25 1003 94 2500 2.1 140 19:43 29.06.2019
5516 Rain 25 1003 94 2500 2.1 140 19:22 29.06.2019
5517 Thunderstorm 25 1002 94 0 3.1 120 18:48 29.06.2019
5518 Thunderstorm 25 1002 94 0 3.1 120 18:25 29.06.2019
5519 Rain 26 1003 94 2500 1.5 360 17:40 29.06.2019
5520 Rain 26 1003 94 2500 1.5 360 17:21 29.06.2019
5521 Thunderstorm 26 1001 94 2500 1.5 140 16:45 29.06.2019
5522 Thunderstorm 26 1001 94 2500 1.5 140 16:25 29.06.2019
5523 Thunderstorm 25 1000 94 2000 1.5 110 15:34 29.06.2019
5524 Thunderstorm 26 1000 88 2000 1.5 90 14:59 29.06.2019
5525 Thunderstorm 26 1000 94 1500 1.5 40 14:41 29.06.2019
5526 Thunderstorm 26 1000 94 1500 1.5 40 14:23 29.06.2019
5527 Thunderstorm 26 1000 94 1200 2.1 120 13:44 29.06.2019
5528 Thunderstorm 26 1000 94 1200 2.1 120 13:25 29.06.2019
5529 Haze 30 998 74 3000 4.6 230 12:43 29.06.2019
5530 Rain 32 998 66 3000 3.1 250 12:24 29.06.2019
5531 Haze 35 998 56 3000 1.5 210 11:48 29.06.2019
5532 Haze 35 998 56 3000 1.5 210 11:29 29.06.2019
5533 Haze 35 999 53 3000 2.1 270 10:52 29.06.2019
5534 Haze 35 1000 53 3000 3.6 310 10:29 29.06.2019
5535 Haze 35 1000 53 3000 3.1 330 09:58 29.06.2019
5536 Haze 33 1001 59 3000 3.1 290 09:29 29.06.2019
5537 Haze 32 1002 66 3000 3.6 290 08:37 29.06.2019
5538 Haze 30 1003 74 3000 1.5 280 07:46 29.06.2019
5539 Haze 30 1003 74 3000 3.1 280 07:19 29.06.2019
5540 Haze 30 1003 74 3000 2.6 360 06:41 29.06.2019
5541 Haze 29 1003 79 3000 3.1 280 06:20 29.06.2019
5542 Haze 27 1002 88 3000 3.1 250 02:26 29.06.2019
5543 Haze 27 1001 88 3000 2.6 250 00:57 29.06.2019
5544 Haze 27 1001 88 3000 2.1 250 23:58 28.06.2019
5545 Haze 27 1001 88 3000 2.6 230 23:23 28.06.2019
5546 Haze 27 1001 88 3000 2.6 230 22:52 28.06.2019
5547 Haze 27 1002 88 3000 1.5 230 22:27 28.06.2019
5548 Haze 27 1002 83 3000 2.1 220 21:46 28.06.2019
5549 Haze 27 1002 88 3000 1.5 220 21:20 28.06.2019
5550 Rain 27 1002 88 3000 2.1 230 20:44 28.06.2019
5551 Thunderstorm 27 1003 88 3000 2.1 230 20:21 28.06.2019
5552 Thunderstorm 27 1003 88 3000 1.5 230 19:45 28.06.2019
5553 Thunderstorm 27 1003 88 3000 1.5 230 19:27 28.06.2019
5554 Thunderstorm 28 1003 83 3000 1.5 210 18:44 28.06.2019
5555 Haze 28 1003 83 3000 2.6 210 18:22 28.06.2019
5556 Haze 28 1003 83 3000 2.6 210 17:56 28.06.2019
5557 Haze 28 1003 83 3000 2.6 210 17:56 28.06.2019
5558 Haze 28 1002 83 3000 2.6 210 17:29 28.06.2019
5559 Haze 28 1001 83 3000 2.1 180 16:49 28.06.2019
5560 Haze 28 1001 83 3000 2.1 180 16:24 28.06.2019
5561 Haze 28 1000 83 3000 2.1 160 15:48 28.06.2019
5562 Haze 28 1000 83 3000 2.1 160 15:48 28.06.2019
5563 Haze 28 1000 83 3000 1 130 15:19 28.06.2019
5564 Rain 29 999 79 3000 3.1 140 14:42 28.06.2019
5565 Rain 29 999 79 3000 3.1 140 14:22 28.06.2019
5566 Haze 30 999 70 3000 2.6 170 13:50 28.06.2019
5567 Haze 30 999 70 3000 2.6 170 13:30 28.06.2019
5568 Haze 32 999 62 3000 2.6 230 12:54 28.06.2019
5569 Haze 31 1000 66 3000 1.5 140 12:36 28.06.2019
5570 Thunderstorm 32 1000 66 5000 1 80 11:47 28.06.2019
5571 Thunderstorm 32 1000 62 5000 2.1 80 11:19 28.06.2019
5572 Thunderstorm 34 1001 56 5000 4.2 280.183 10:43 28.06.2019
5573 Haze 35 1001 53 5000 1.5 50 10:21 28.06.2019
5574 Haze 34 1002 56 5000 2.6 350 09:47 28.06.2019
5575 Haze 34 1002 56 5000 2.6 350 09:29 28.06.2019
5576 Haze 33 1003 63 5000 2.6 160 08:44 28.06.2019
5577 Haze 33 1003 63 5000 2.6 160 08:24 28.06.2019
5578 Haze 31 1004 74 4000 2.6 190 07:45 28.06.2019
5579 Haze 31 1004 74 4000 2.6 190 06:57 28.06.2019
5580 Haze 29 1003 79 3000 2.1 300 05:18 28.06.2019
5581 Haze 28 1002 74 3000 4.1 180 01:21 28.06.2019
5582 Haze 29 1001 70 3000 3.45 231.803 00:23 28.06.2019
5583 Haze 29 1001 70 3000 1.5 360 23:48 27.06.2019
5584 Haze 29 1001 70 3000 1.5 360 23:25 27.06.2019
5585 Haze 29 1001 70 3000 3.1 360 22:44 27.06.2019
5586 Haze 29 1001 70 3000 3.1 360 22:26 27.06.2019
5587 Haze 30 1002 66 3000 3.1 350 21:59 27.06.2019
5588 Haze 30 1002 66 3000 3.1 350 21:41 27.06.2019
5589 Haze 30 1002 66 3000 5.1 360 21:21 27.06.2019
5590 Haze 31 1003 62 3000 5.1 360 20:49 27.06.2019
5591 Haze 31 1003 62 3000 5.1 360 20:31 27.06.2019
5592 Haze 33 1003 59 3000 4.1 360 19:50 27.06.2019
5593 Haze 33 1003 59 3000 4.1 360 19:30 27.06.2019
5594 Haze 33 1003 59 4000 1 270 18:55 27.06.2019
5595 Haze 34 1002 56 4000 1.5 270 18:33 27.06.2019
5596 Haze 34 1002 56 4000 1 360 17:58 27.06.2019
5597 Haze 34 1001 56 4000 2.1 320 17:37 27.06.2019
5598 Haze 34 1001 56 4000 1 40 17:19 27.06.2019
5599 Haze 34 1000 56 4000 1 40 16:39 27.06.2019
5600 Haze 35 1000 50 4000 3.1 270 16:19 27.06.2019
5601 Haze 36 999 50 5000 4.1 270 15:45 27.06.2019
5602 Haze 36 999 50 5000 2.1 250 15:24 27.06.2019
5603 Haze 37 998 47 5000 2.6 270 14:52 27.06.2019
5604 Haze 37 998 47 5000 2.6 270 14:30 27.06.2019
5605 Haze 37 999 47 5000 3.1 270 13:50 27.06.2019
5606 Haze 37 999 47 5000 3.1 270 13:32 27.06.2019
5607 Haze 37 999 47 5000 2.1 290 12:58 27.06.2019
5608 Haze 37 1000 47 5000 3.1 250 12:38 27.06.2019
5609 Haze 37 1000 47 5000 2.6 320 12:19 27.06.2019
5610 Haze 36 1001 50 5000 4.1 360 11:42 27.06.2019
5611 Haze 36 1001 50 5000 3.6 320 11:21 27.06.2019
5612 Haze 36 1002 50 5000 3.6 330 10:46 27.06.2019
5613 Haze 36 1002 50 5000 3.6 330 10:22 27.06.2019
5614 Haze 35 1002 56 5000 3.6 300 09:56 27.06.2019
5615 Haze 34 1002 56 5000 2.1 330 09:36 27.06.2019
5616 Haze 34 1003 56 5000 4.1 270 09:18 27.06.2019
5617 Haze 33 1003 63 5000 4.1 270 08:40 27.06.2019
5618 Haze 32 1004 62 5000 2.6 280 08:19 27.06.2019
5619 Haze 31 1004 70 5000 3.1 330 07:38 27.06.2019
5620 Haze 29 1004 74 5000 2.6 250 06:54 27.06.2019
5621 Haze 29 1004 79 4000 2.1 230 06:24 27.06.2019
5622 Haze 26 1004 88 4000 1 120 03:21 27.06.2019
5623 Rain 27 1003 83 3000 3.6 290 02:30 27.06.2019
5624 Thunderstorm 26 1003 94 2000 7.7 270 00:59 27.06.2019
5625 Thunderstorm 29 1003 74 2000 7.7 300 00:41 27.06.2019
5626 Haze 29 1002 70 3000 2.1 360 00:19 27.06.2019
5627 Haze 29 1003 70 3000 1.5 310 23:40 26.06.2019
5628 Haze 29 1003 70 3000 1.5 310 23:21 26.06.2019
5629 Haze 29 1003 70 3000 2.1 240 22:45 26.06.2019
5630 Haze 29 1003 70 3000 2.1 240 22:26 26.06.2019
5631 Haze 29 1003 70 3000 2.1 240 21:59 26.06.2019
5632 Haze 30 1003 66 3000 1.5 290 21:38 26.06.2019
5633 Haze 30 1003 66 3000 2.1 230 21:19 26.06.2019
5634 Haze 30 1003 66 3000 1 200 20:44 26.06.2019
5635 Haze 30 1003 66 3000 1 200 20:26 26.06.2019
5636 Haze 31 1004 62 3000 1.5 220 19:50 26.06.2019
5637 Haze 31 1004 62 3000 1.5 220 19:31 26.06.2019
5638 Haze 31 1004 58 3000 1 220 18:57 26.06.2019
5639 Haze 31 1004 58 3000 1 220 18:57 26.06.2019
5640 Thunderstorm 31 1004 62 3000 1.5 260 18:39 26.06.2019
5641 Thunderstorm 31 1004 62 3000 2.1 230 18:19 26.06.2019
5642 Thunderstorm 32 1004 59 3000 5.1 220 17:43 26.06.2019
5643 Thunderstorm 32 1004 59 3000 5.1 220 17:23 26.06.2019
5644 Haze 32 1002 59 3000 1.5 270 16:51 26.06.2019
5645 Haze 32 1002 59 3000 2.1 300 16:28 26.06.2019
5646 Haze 33 1001 55 3000 2.1 300 15:51 26.06.2019
5647 Haze 33 1001 55 3000 3.1 300 15:28 26.06.2019
5648 Haze 33 1000 52 3000 4.1 360 14:42 26.06.2019
5649 Haze 33 1000 55 3000 6.2 360 14:21 26.06.2019
5650 Haze 32 1001 59 3000 6.2 360 13:45 26.06.2019
5651 Haze 34 1001 56 2000 6.2 290 13:21 26.06.2019
5652 Haze 38 1001 42 5000 7.2 310 12:45 26.06.2019
5653 Haze 38 1001 42 5000 7.2 310 12:27 26.06.2019
5654 Haze 38 1001 42 5000 2.6 30 11:55 26.06.2019
5655 Haze 37 1002 42 5000 2.6 20 11:24 26.06.2019
5656 Haze 39 1002 40 5000 3.6 240 10:49 26.06.2019
5657 Haze 39 1002 40 5000 3.6 240 10:31 26.06.2019
5658 Haze 39 1002 40 5000 3.6 240 10:31 26.06.2019
5659 Haze 37 1003 44 5000 2.1 250 09:51 26.06.2019
5660 Haze 37 1003 44 5000 2.1 250 09:27 26.06.2019
5661 Haze 38 1003 45 5000 3.1 180 08:52 26.06.2019
5662 Haze 37 1004 47 5000 2.1 260 08:21 26.06.2019
5663 Haze 37 1004 47 5000 2.1 260 07:55 26.06.2019
5664 Haze 35 1005 53 5000 1.5 300 07:35 26.06.2019
5665 Haze 34 1005 52 5000 2.1 260 06:32 26.06.2019
5666 Haze 31 1004 62 4000 2.1 330 01:36 26.06.2019
5667 Haze 31 1004 62 4000 1 290 00:27 26.06.2019
5668 Haze 31 1004 66 4000 2.1 270 23:49 25.06.2019
5669 Haze 31 1004 66 4000 2.1 270 23:29 25.06.2019
5670 Haze 32 1004 62 4000 2.6 250 22:59 25.06.2019
5671 Haze 31 1004 66 4000 2.6 220 22:40 25.06.2019
5672 Haze 31 1004 66 4000 2.6 220 22:21 25.06.2019
5673 Haze 32 1005 62 4000 2.1 220 21:45 25.06.2019
5674 Haze 33 1005 55 4000 2.6 230 21:24 25.06.2019
5675 Haze 33 1005 55 4000 1.5 220 20:47 25.06.2019
5676 Haze 33 1005 55 4000 1.5 220 20:47 25.06.2019
5677 Haze 33 1005 55 4000 1.5 220 20:47 25.06.2019
5678 Haze 33 1005 55 4000 1.5 220 20:23 25.06.2019
5679 Haze 33 1005 55 4000 2.1 220 19:54 25.06.2019
5680 Haze 34 1005 52 4000 2.6 210 19:36 25.06.2019
5681 Haze 34 1005 52 4000 2.1 230 19:18 25.06.2019
5682 Haze 34 1005 52 4000 2.1 230 19:18 25.06.2019
5683 Haze 35 1005 53 4000 3.1 250 18:40 25.06.2019
5684 Haze 35 1004 50 4000 3.1 200 18:21 25.06.2019
5685 -273 0 0 0 0 0 17:38 25.06.2019
5686 -273 0 0 0 0 0 17:20 25.06.2019
5687 Haze 36 1003 47 4000 2.1 210 17:20 25.06.2019
5688 Haze 36 1003 47 4000 2.1 210 17:20 25.06.2019
5689 Haze 36 1003 47 4000 2.1 210 17:20 25.06.2019
5690 Haze 36 1003 47 4000 2.1 210 17:20 25.06.2019
5691 Haze 37 1003 44 4000 2.6 210 16:42 25.06.2019
5692 Haze 37 1003 44 4000 2.6 210 16:24 25.06.2019
5693 Haze 37 1002 44 4000 3.1 210 15:43 25.06.2019
5694 Haze 37 1002 44 4000 3.1 210 15:24 25.06.2019
5695 Haze 38 1002 42 5000 2.1 220 14:55 25.06.2019
5696 Haze 38 1002 42 5000 2.1 230 14:36 25.06.2019
5697 Haze 38 1002 42 5000 2.1 220 13:50 25.06.2019
5698 Haze 38 1002 42 5000 2.1 220 13:30 25.06.2019
5699 Haze 38 1002 39 5000 3.1 200 12:58 25.06.2019
5700 Haze 38 1003 42 5000 3.1 200 12:38 25.06.2019
5701 Haze 38 1003 42 5000 2.1 190 12:20 25.06.2019
5702 Haze 37 1003 44 5000 3.6 210 11:44 25.06.2019
5703 Haze 37 1003 44 5000 3.6 210 11:21 25.06.2019
5704 Haze 37 1004 47 5000 3.6 230 10:45 25.06.2019
5705 Haze 37 1005 47 5000 4.1 250 10:23 25.06.2019
5706 Haze 37 1005 47 5000 4.1 250 09:56 25.06.2019
5707 Haze 36 1005 47 5000 4.1 280 09:38 25.06.2019
5708 Haze 35 1005 53 5000 4.1 230 09:19 25.06.2019
5709 Haze 35 1006 53 5000 2.6 220 08:47 25.06.2019
5710 Haze 35 1006 53 5000 2.6 220 08:28 25.06.2019
5711 Haze 33 1006 63 5000 3.6 240 07:40 25.06.2019
5712 Haze 33 1006 63 5000 3.1 270 06:58 25.06.2019
5713 Haze 33 1006 63 5000 3.6 220 06:40 25.06.2019
5714 Haze 29 1005 79 3000 3 178.795 02:48 25.06.2019
5715 Haze 29 1005 79 3000 3 178.795 01:50 25.06.2019
5716 Haze 29 1004 74 3000 3.19 174.411 00:37 25.06.2019
5717 Haze 29 1004 79 3000 1 190 23:59 24.06.2019
5718 Haze 29 1004 79 3000 1.5 200 23:40 24.06.2019
5719 Haze 29 1004 79 3000 1.5 200 23:22 24.06.2019
5720 Haze 30 1004 70 3000 4.08 190.878 22:41 24.06.2019
5721 Haze 30 1005 74 3000 4.08 190.878 22:19 24.06.2019
5722 Haze 30 1005 74 3000 4.08 190.878 21:41 24.06.2019
5723 Haze 31 1005 74 3000 3.96 174.6 21:19 24.06.2019
5724 Haze 31 1005 74 3000 3.96 174.6 20:57 24.06.2019
5725 Haze 31 1005 74 3000 4.7 180.83 20:39 24.06.2019
5726 Haze 30 1005 79 3000 1 120 20:20 24.06.2019
5727 Haze 31 1005 74 3000 4.7 180.83 19:46 24.06.2019
5728 Haze 31 1005 70 3000 4.7 180.83 19:21 24.06.2019
5729 Haze 32 1004 66 3000 1 40 18:47 24.06.2019
5730 Haze 32 1004 66 3000 1 40 18:27 24.06.2019
5731 Haze 32 1004 66 3000 2.58 164.472 17:47 24.06.2019
5732 Haze 32 1004 66 3000 2.58 164.472 17:27 24.06.2019
5733 Haze 33 1003 63 4000 2.58 164.472 16:48 24.06.2019
5734 Haze 33 1003 63 4000 2.58 164.472 16:21 24.06.2019
5735 Haze 33 1003 63 4000 2.58 164.472 15:56 24.06.2019
5736 Haze 34 1002 59 4000 1 60 15:38 24.06.2019
5737 -273 0 0 0 0 0 15:19 24.06.2019
5738 Haze 35 1002 50 4000 1 270 14:33 24.06.2019
5739 Haze 35 1002 50 4000 1 150 13:49 24.06.2019
5740 Haze 35 1002 50 4000 1 150 13:49 24.06.2019
5741 Haze 35 1002 50 4000 1 150 13:24 24.06.2019
5742 Haze 34 1003 56 4000 2.1 170 12:44 24.06.2019
5743 Haze 34 1003 52 4000 1.5 300 12:21 24.06.2019
5744 Haze 33 1004 55 4000 2.6 200 11:47 24.06.2019
5745 Haze 33 1004 55 4000 2.6 200 11:28 24.06.2019
5746 Haze 33 1004 59 4000 1.5 230 10:58 24.06.2019
5747 Haze 33 1005 55 4000 2.6 250 10:39 24.06.2019
5748 Haze 32 1005 62 4000 2.1 200 10:20 24.06.2019
5749 Haze 32 1006 66 4000 2.6 220 09:44 24.06.2019
5750 Haze 31 1006 70 4000 2.1 220 09:19 24.06.2019
5751 Haze 30 1006 74 4000 1 270 08:50 24.06.2019
5752 Haze 30 1006 74 4000 2.1 220 08:20 24.06.2019
5753 Haze 29 1006 79 4000 1.5 270 07:41 24.06.2019
5754 Haze 29 1006 79 3000 1.5 210 07:23 24.06.2019
5755 Haze 28 1006 83 3000 0.5 350 06:24 24.06.2019
5756 Haze 28 1006 78 3000 1 250 05:45 24.06.2019
5757 Haze 27 1006 88 3000 1.5 210 04:46 24.06.2019
5758 Haze 26 1005 94 2500 3.24 230.808 03:49 24.06.2019
5759 Haze 26 1004 94 2500 1.97 232.834 02:48 24.06.2019
5760 Clouds 28 1003 67 0 1.97 232.834 01:55 24.06.2019
5761 Clouds 28 1003 70 0 3.44 214.106 01:33 24.06.2019
5762 Clouds 28 1003 70 0 3.44 214.106 00:55 24.06.2019
5763 Clouds 29 1002 68 0 2.36 223.834 00:21 24.06.2019
5764 Clouds 29 1002 68 0 2.36 223.834 23:56 23.06.2019
5765 Clouds 29 1002 68 0 2.36 223.834 23:37 23.06.2019
5766 Haze 25 1003 94 2000 1 20 23:18 23.06.2019
5767 Haze 25 1003 94 2000 1 20 22:41 23.06.2019
5768 Haze 25 1003 88 2000 2.36 223.834 22:20 23.06.2019
5769 Rain 25 1003 88 2000 1 290 21:42 23.06.2019
5770 Rain 25 1003 88 2000 1 290 21:22 23.06.2019
5771 Rain 25 1004 94 2000 1.5 200 20:51 23.06.2019
5772 Haze 26 1004 88 2500 4.86 239.711 20:31 23.06.2019
5773 Haze 26 1004 94 2500 1.5 280 19:55 23.06.2019
5774 Haze 26 1004 94 2500 2.1 230 19:37 23.06.2019
5775 Haze 26 1004 88 2500 4.86 239.711 19:19 23.06.2019
5776 Haze 25 1003 94 2500 1 230 18:43 23.06.2019
5777 Haze 25 1003 94 2500 1 230 18:19 23.06.2019
5778 Haze 25 1003 94 2500 5 229.622 17:41 23.06.2019
5779 Haze 25 1003 94 2500 5 229.622 17:22 23.06.2019
5780 Rain 25 1002 88 2500 1 220 16:45 23.06.2019
5781 Rain 25 1002 88 2500 1 220 16:25 23.06.2019
5782 Rain 25 1002 88 2500 2.1 210 15:45 23.06.2019
5783 Rain 25 1002 88 2500 2.1 210 15:25 23.06.2019
5784 Rain 24 1002 94 2500 1 160 14:59 23.06.2019
5785 Thunderstorm 25 1002 94 2000 3.1 230 14:38 23.06.2019
5786 Thunderstorm 25 1002 94 2000 2.1 200 14:20 23.06.2019
5787 Thunderstorm 25 1002 94 2000 1.5 100 13:42 23.06.2019
5788 Thunderstorm 25 1002 88 1500 4.1 360 13:21 23.06.2019
5789 Thunderstorm 25 1002 88 1500 4.1 360 12:56 23.06.2019
5790 Thunderstorm 26 1002 83 2000 5.1 330 12:37 23.06.2019
5791 Clouds 29 1001 62 2000 5.1 320 12:18 23.06.2019
5792 Haze 35 1001 50 3000 3.1 260 11:45 23.06.2019
5793 Haze 35 1001 50 3000 3.1 260 11:25 23.06.2019
5794 Haze 35 1001 56 4000 4.1 250 10:48 23.06.2019
5795 Haze 35 1001 56 4000 4.1 250 10:21 23.06.2019
5796 Haze 34 1001 56 4000 3.6 260 09:57 23.06.2019
5797 Haze 34 1002 56 4000 2.6 180 09:22 23.06.2019
5798 Haze 34 1002 56 4000 1 340 08:46 23.06.2019
5799 Haze 34 1002 56 4000 1 340 08:27 23.06.2019
5800 Haze 34 1002 56 4000 3.6 360 07:55 23.06.2019
5801 Haze 32 1002 62 4000 3.6 360 07:25 23.06.2019
5802 Haze 32 1002 62 4000 3.6 360 06:59 23.06.2019
5803 Haze 31 1002 62 4000 2.6 320 06:40 23.06.2019
5804 Haze 28 1002 78 4000 2.6 250 04:38 23.06.2019
5805 Haze 27 1002 78 3000 1 220 02:24 23.06.2019
5806 Haze 28 1001 74 3000 1.5 280 01:37 23.06.2019
5807 Haze 28 1001 74 3000 2.6 360 00:37 23.06.2019
5808 Haze 27 1001 78 3000 2.1 360 23:58 22.06.2019
5809 Haze 27 1001 78 3000 1 300 23:39 22.06.2019
5810 Haze 27 1001 78 3000 1 300 23:20 22.06.2019
5811 Haze 27 1002 78 3000 2.6 280 22:45 22.06.2019
5812 Haze 27 1002 78 3000 2.6 280 22:24 22.06.2019
5813 Haze 28 1003 74 3000 4.1 340 21:41 22.06.2019
5814 Haze 28 1003 74 3000 3.1 330 21:20 22.06.2019
5815 Haze 28 1003 74 3000 2.6 300 20:53 22.06.2019
5816 Haze 28 1003 74 3000 2.6 300 20:26 22.06.2019
5817 Haze 28 1003 74 3000 2.6 240 19:53 22.06.2019
5818 Haze 28 1003 74 3000 2.6 240 19:28 22.06.2019
5819 Haze 27 1003 78 3000 2.6 250 18:59 22.06.2019
5820 Haze 27 1003 78 3000 2.6 240 18:41 22.06.2019
5821 Haze 27 1003 78 3000 2.6 240 18:19 22.06.2019
5822 Haze 27 1002 78 3000 3.1 210 17:38 22.06.2019
5823 Haze 27 1002 78 3000 3.1 210 17:38 22.06.2019
5824 Haze 28 1002 74 3000 5.1 210 17:19 22.06.2019
5825 Haze 28 1002 74 3000 4.1 230 16:39 22.06.2019
5826 Haze 29 1001 70 3000 5.1 220 16:21 22.06.2019
5827 Haze 31 1000 62 3000 1.5 240 15:41 22.06.2019
5828 Haze 31 1000 62 3000 1.5 240 15:23 22.06.2019
5829 Haze 30 999 70 3000 2.1 180 14:46 22.06.2019
5830 Haze 30 999 70 3000 2.1 180 14:28 22.06.2019
5831 Haze 29 999 74 3000 3.6 190 13:43 22.06.2019
5832 Haze 29 999 74 3000 3.6 190 13:25 22.06.2019
5833 Haze 31 999 66 3000 4.1 200 12:54 22.06.2019
5834 Haze 35 999 53 3000 3.1 170 12:35 22.06.2019
5835 Haze 34 998 56 3000 2.1 150 11:59 22.06.2019
5836 Haze 31 999 70 3000 1 220 11:34 22.06.2019
5837 Rain 28 1000 78 2000 2.6 180 10:54 22.06.2019
5838 Rain 39 1000 33 1500 3.1 70 10:21 22.06.2019
5839 Rain 39 1000 33 1500 3.1 70 09:55 22.06.2019
5840 Haze 39 1001 33 4000 1.5 50 09:23 22.06.2019
5841 Haze 38 1002 35 4000 1.5 40 08:44 22.06.2019
5842 Haze 38 1002 37 4000 3.1 30 08:25 22.06.2019
5843 Haze 37 1002 39 4000 1.5 20 07:35 22.06.2019
5844 Haze 35 1002 44 4000 3.1 360 06:56 22.06.2019
5845 Haze 33 1003 52 4000 3.6 360 05:23 22.06.2019
5846 Haze 30 1001 58 3000 3.1 270 02:34 22.06.2019
5847 Haze 29 1000 66 3000 2.6 230 01:24 22.06.2019
5848 Haze 29 1001 66 3000 2.1 230 00:46 22.06.2019
5849 Haze 29 1001 66 3000 2.1 230 00:22 22.06.2019
5850 Haze 30 1001 62 3000 2.1 220 23:44 21.06.2019
5851 Haze 30 1001 62 3000 2.1 220 23:22 21.06.2019
5852 Haze 30 1001 62 3000 2.1 220 22:52 21.06.2019
5853 Haze 30 1001 62 3000 2.1 250 22:24 21.06.2019
5854 Haze 30 1001 62 3000 1 250 21:55 21.06.2019
5855 Haze 31 1002 58 3000 2.1 220 21:36 21.06.2019
5856 Haze 31 1002 58 3000 2.1 220 21:36 21.06.2019
5857 Haze 31 1002 58 3000 2.6 230 21:18 21.06.2019
5858 Haze 31 1002 58 3000 3.6 230 20:42 21.06.2019
5859 Haze 32 1002 52 3000 4.6 230 20:20 21.06.2019
5860 Haze 33 1002 46 3000 2.1 240 19:34 21.06.2019
5861 Haze 33 1002 46 3000 2.6 230 18:49 21.06.2019
5862 Haze 33 1002 46 3000 2.6 230 18:29 21.06.2019
5863 Haze 35 1001 44 3000 3.1 230 17:46 21.06.2019
5864 Haze 35 1001 44 3000 3.1 230 17:28 21.06.2019
5865 Haze 36 1000 39 3000 2.6 280 16:40 21.06.2019
5866 Haze 37 1000 37 4000 3.1 270 16:22 21.06.2019
5867 Haze 39 999 26 4000 2.1 50 15:40 21.06.2019
5868 Haze 40 998 24 4000 2.1 70 15:20 21.06.2019
5869 Haze 40 998 24 4000 1.5 80 14:49 21.06.2019
5870 Haze 40 998 24 4000 1.5 80 14:30 21.06.2019
5871 Haze 40 999 28 5000 1 120 13:53 21.06.2019
5872 Haze 40 999 28 5000 1 120 13:33 21.06.2019
5873 Haze 40 999 29 5000 2.1 80 12:58 21.06.2019
5874 Clouds 39 997 22 0 3.66 300.891 12:38 21.06.2019
5875 Haze 39 1000 31 5000 1.5 80 12:18 21.06.2019
5876 Haze 39 1000 31 5000 1.5 80 12:18 21.06.2019
5877 Haze 39 1000 31 5000 1.5 80 12:18 21.06.2019
5878 Haze 39 1000 31 5000 1.5 80 12:18 21.06.2019
5879 Haze 39 1001 31 5000 3.1 30 11:46 21.06.2019
5880 Haze 39 1001 31 5000 3.1 30 11:24 21.06.2019
5881 Haze 38 1002 37 5000 1.5 350 10:49 21.06.2019
5882 Haze 37 1002 44 5000 3.1 70 10:21 21.06.2019
5883 Haze 37 1002 44 5000 3.1 70 09:56 21.06.2019
5884 Haze 36 1003 47 5000 1.5 350 09:38 21.06.2019
5885 Haze 36 1003 47 5000 3.1 30 09:19 21.06.2019
5886 Haze 36 1004 47 5000 3.1 100 08:42 21.06.2019
5887 Haze 34 1004 52 5000 2.6 360 08:22 21.06.2019
5888 Haze 34 1004 56 5000 2.6 90 07:46 21.06.2019
5889 Haze 34 1004 56 5000 2.6 90 07:26 21.06.2019
5890 Haze 31 1005 66 5000 1 160 06:51 21.06.2019
5891 Haze 30 1005 70 5000 1.5 250 06:19 21.06.2019
5892 Haze 29 1005 74 5000 1.5 240 04:57 21.06.2019
5893 Haze 28 1005 78 4000 2.6 180 03:58 21.06.2019
5894 Haze 28 1005 78 4000 1.5 170 03:32 21.06.2019
5895 Haze 27 1004 83 3000 1.5 180 02:44 21.06.2019
5896 Haze 27 1004 83 3000 1.5 190 01:38 21.06.2019
5897 Haze 27 1004 83 3000 3.1 200 00:52 21.06.2019
5898 Haze 28 1003 78 3000 2.6 200 00:18 21.06.2019
5899 Haze 28 1003 78 3000 1.5 190 23:42 20.06.2019
5900 Haze 28 1003 78 3000 4.1 200 23:21 20.06.2019
5901 Haze 28 1004 78 3000 1.5 220 22:46 20.06.2019
5902 Haze 28 1004 78 3000 1.5 220 22:26 20.06.2019
5903 Haze 29 1004 74 3000 2.1 200 21:57 20.06.2019
5904 Haze 29 1004 74 3000 3.1 200 21:38 20.06.2019
5905 Haze 29 1004 70 3000 4.6 200 21:19 20.06.2019
5906 Haze 30 1004 66 3000 4.1 200 20:46 20.06.2019
5907 Haze 30 1004 66 3000 4.1 200 20:25 20.06.2019
5908 Haze 31 1004 58 3000 3.6 190 19:55 20.06.2019
5909 Haze 31 1004 58 3000 4.6 200 19:36 20.06.2019
5910 Haze 31 1003 58 3000 3.1 210 19:18 20.06.2019
5911 Haze 32 1003 59 3000 3.1 210 18:42 20.06.2019
5912 Haze 32 1003 59 3000 3.1 210 18:23 20.06.2019
5913 Haze 33 1002 55 3000 3.1 200 17:49 20.06.2019
5914 Haze 33 1002 55 3000 3.1 200 17:31 20.06.2019
5915 Haze 34 1001 52 3000 1.5 180 16:48 20.06.2019
5916 Haze 34 1000 56 3000 1 210 16:20 20.06.2019
5917 Haze 34 1000 56 3000 1 210 15:58 20.06.2019
5918 Haze 34 1000 56 4000 1 200 15:40 20.06.2019
5919 Haze 34 1000 56 4000 1 200 15:21 20.06.2019
5920 Haze 34 999 52 4000 1 230 14:44 20.06.2019
5921 Haze 34 999 52 4000 1 230 14:22 20.06.2019
5922 Haze 34 999 46 3000 3.6 10 13:41 20.06.2019
5923 Haze 34 1000 52 3000 4.1 360 13:20 20.06.2019
5924 Thunderstorm 33 1000 52 3000 2.6 50 12:47 20.06.2019
5925 Thunderstorm 33 1000 52 3000 2.6 50 12:23 20.06.2019
5926 Haze 38 1001 33 4000 3.1 290 11:48 20.06.2019
5927 Haze 38 1001 33 4000 3.1 290 11:29 20.06.2019
5928 Haze 39 1002 31 5000 5.1 360 10:57 20.06.2019
5929 Haze 39 1002 33 5000 3.6 360 10:39 20.06.2019
5930 Clouds 38 1002 35 6000 4.1 360 10:20 20.06.2019
5931 Clouds 38 1003 35 6000 3.6 350 09:40 20.06.2019
5932 Clouds 38 1003 35 6000 3.6 350 09:21 20.06.2019
5933 Clouds 37 1003 37 6000 4.6 360 08:46 20.06.2019
5934 Clouds 37 1003 37 6000 4.6 360 08:27 20.06.2019
5935 Clouds 37 1003 39 6000 4.6 350 07:53 20.06.2019
5936 Clouds 36 1004 41 6000 6.2 350 07:28 20.06.2019
5937 Haze 35 1004 44 5000 4.1 360 06:28 20.06.2019
5938 Haze 33 1004 52 5000 2.6 360 04:54 20.06.2019
5939 Haze 32 1003 52 4000 2.1 350 02:55 20.06.2019
5940 Haze 33 1002 49 4000 1 360 00:34 20.06.2019
5941 Haze 33 1002 49 4000 1 360 23:58 19.06.2019
5942 Haze 33 1002 49 4000 2.6 360 23:39 19.06.2019
5943 Haze 34 1002 46 4000 2.1 360 23:21 19.06.2019
5944 Haze 34 1002 46 4000 3.1 360 22:45 19.06.2019
5945 Haze 34 1002 46 4000 2.6 360 22:18 19.06.2019
5946 Haze 34 1002 44 4000 2.6 350 21:46 19.06.2019
5947 Haze 34 1002 44 4000 2.6 350 21:25 19.06.2019
5948 Haze 35 1002 41 4000 2.6 350 20:44 19.06.2019
5949 Haze 35 1002 41 4000 2.6 350 20:22 19.06.2019
5950 Haze 35 1002 41 4000 2.6 350 20:22 19.06.2019
5951 Haze 35 1002 41 4000 2.6 350 19:58 19.06.2019
5952 Haze 36 1002 39 4000 3.1 350 19:39 19.06.2019
5953 Haze 36 1002 37 4000 2.6 350 19:20 19.06.2019
5954 Haze 37 1001 30 4000 1.5 330 18:47 19.06.2019
5955 Haze 37 1001 30 4000 2.6 350 18:20 19.06.2019
5956 Haze 38 1001 31 4000 3.1 310 17:37 19.06.2019
5957 Haze 38 1000 29 4000 2.6 290 16:59 19.06.2019
5958 Haze 38 1000 31 5000 3.1 270 16:39 19.06.2019
5959 Haze 38 1000 31 5000 3.1 270 16:21 19.06.2019
5960 Haze 39 1000 27 5000 2.6 270 15:53 19.06.2019
5961 Clouds 39 1000 29 6000 3.6 260 15:27 19.06.2019
5962 Clouds 39 999 27 6000 5.1 270 14:51 19.06.2019
5963 Clouds 40 999 28 6000 4.1 250 14:32 19.06.2019
5964 Clouds 40 999 28 6000 4.1 280 13:59 19.06.2019
5965 Clouds 40 999 28 6000 5.1 290 13:41 19.06.2019
5966 Clouds 40 999 28 6000 3.1 290 13:23 19.06.2019
5967 Clouds 40 999 28 6000 4.1 260 12:44 19.06.2019
5968 Clouds 40 1000 28 6000 4.1 270 12:22 19.06.2019
5969 Clouds 40 1000 28 6000 4.1 270 11:55 19.06.2019
5970 Clouds 40 1000 28 6000 5.1 290 11:37 19.06.2019
5971 Clouds 40 1001 28 6000 4.1 260 11:18 19.06.2019
5972 Clouds 39 1001 29 6000 4.1 260 10:41 19.06.2019
5973 Clouds 39 1002 31 6000 3.1 340 10:23 19.06.2019
5974 Clouds 38 1002 33 6000 3.1 220 09:41 19.06.2019
5975 Clouds 38 1002 33 6000 3.6 340 09:20 19.06.2019
5976 Clouds 38 1003 33 6000 3.6 340 08:50 19.06.2019
5977 Clouds 38 1003 33 6000 3.6 340 08:28 19.06.2019
5978 Clouds 37 1003 35 6000 4.6 300 07:47 19.06.2019
5979 Clouds 37 1003 35 6000 4.6 300 07:25 19.06.2019
5980 Clouds 36 1003 39 6000 5.1 300 06:52 19.06.2019
5981 Clouds 36 1003 39 6000 5.1 300 06:28 19.06.2019
5982 Haze 34 1003 44 5000 5.1 350 05:49 19.06.2019
5983 Haze 33 1003 46 4000 4.6 300 04:41 19.06.2019
5984 Haze 33 1002 46 4000 4.6 300 03:33 19.06.2019
5985 Haze 32 1001 46 4000 3.1 290 02:26 19.06.2019
5986 Haze 31 1001 48 4000 1.5 220 01:23 19.06.2019
5987 Haze 31 1001 55 4000 1 180 00:43 19.06.2019
5988 Haze 31 1001 55 4000 1 180 00:43 19.06.2019
5989 Haze 31 1000 55 4000 2.98 158.628 00:20 19.06.2019
5990 Haze 31 1000 55 4000 2.98 158.628 23:52 18.06.2019
5991 Haze 31 1001 55 4000 2.98 158.628 23:28 18.06.2019
5992 Haze 32 1001 52 4000 1.5 120 22:49 18.06.2019
5993 Haze 32 1001 52 4000 1.5 120 22:25 18.06.2019
5994 Haze 33 1002 49 4000 1.5 130 21:57 18.06.2019
5995 Haze 33 1002 49 4000 2.1 130 21:39 18.06.2019
5996 Haze 34 1002 46 4000 2.1 110 21:20 18.06.2019
5997 Haze 34 1002 46 4000 1.5 110 20:43 18.06.2019
5998 Haze 34 1002 46 4000 1.5 110 20:25 18.06.2019
5999 Clouds 33 1002 39 0 4.07 137.811 19:42 18.06.2019
6000 Haze 35 1003 44 4000 2.1 90 19:24 18.06.2019
6001 Haze 35 1003 44 4000 2.1 90 18:59 18.06.2019
6002 Haze 35 1003 44 4000 2.1 90 18:39 18.06.2019
6003 Haze 36 1002 41 4000 2.1 70 18:20 18.06.2019
6004 Haze 37 1002 37 4000 2.1 70 17:39 18.06.2019
6005 Haze 38 1001 29 4000 4.1 260 17:19 18.06.2019
6006 Haze 39 1001 26 4000 3.6 260 16:43 18.06.2019
6007 Haze 39 1001 26 4000 3.6 260 16:43 18.06.2019
6008 Haze 39 1000 27 5000 2.1 240 16:24 18.06.2019
6009 Haze 39 1000 26 5000 4.1 280 15:43 18.06.2019
6010 Haze 39 1000 26 5000 4.1 280 15:25 18.06.2019
6011 Haze 40 1000 26 5000 4.1 280 14:59 18.06.2019
6012 Haze 40 999 24 5000 3.1 260 14:41 18.06.2019
6013 Haze 40 999 26 5000 5.1 250 14:20 18.06.2019
6014 Haze 40 1000 26 5000 5.1 250 13:52 18.06.2019
6015 Haze 40 1000 26 5000 5.1 250 13:31 18.06.2019
6016 Haze 40 1000 26 5000 2.6 320 12:48 18.06.2019
6017 Haze 40 1000 26 5000 2.6 320 12:30 18.06.2019
6018 Clouds 39 1001 27 6000 3.6 240 11:59 18.06.2019
6019 Clouds 40 1001 28 6000 4.1 280 11:40 18.06.2019
6020 Clouds 39 1001 29 6000 1.5 360 11:20 18.06.2019
6021 Clouds 39 1001 29 6000 1.5 360 10:55 18.06.2019
6022 Clouds 39 1002 31 6000 2.6 350 10:36 18.06.2019
6023 Clouds 38 1003 33 6000 2.1 350 10:18 18.06.2019
6024 Clouds 38 1003 33 6000 2.6 260 09:36 18.06.2019
6025 Clouds 38 1004 33 6000 2.1 270 09:18 18.06.2019
6026 Clouds 37 1004 35 6000 3.1 320 08:42 18.06.2019
6027 Clouds 37 1004 35 6000 5.1 300 08:21 18.06.2019
6028 Haze 36 1005 37 5000 4.6 300 07:37 18.06.2019
6029 Haze 35 1005 39 5000 4.1 320 07:18 18.06.2019
6030 Haze 34 1005 44 5000 5.1 300 05:38 18.06.2019
6031 Haze 33 1005 43 4000 5.1 330 04:23 18.06.2019
6032 Haze 32 1004 46 4000 2.6 290 02:51 18.06.2019
6033 Haze 31 1003 55 4000 1.5 260 01:49 18.06.2019
6034 Haze 31 1003 55 4000 1.5 260 01:24 18.06.2019
6035 Haze 31 1003 55 4000 1 200 00:40 18.06.2019
6036 Haze 31 1003 55 4000 5.91 264.505 00:22 18.06.2019
6037 Haze 32 1003 52 4000 5.91 264.505 23:39 17.06.2019
6038 Haze 32 1003 52 4000 5.91 264.505 23:19 17.06.2019
6039 Haze 32 1003 52 4000 5.91 264.505 23:19 17.06.2019
6040 Haze 32 1004 52 4000 5.91 264.505 22:41 17.06.2019
6041 Haze 32 1004 55 4000 5.91 264.505 22:22 17.06.2019
6042 Haze 32 1004 55 4000 5.91 264.505 21:56 17.06.2019
6043 Haze 33 1004 49 4000 5.91 264.505 21:38 17.06.2019
6044 Haze 33 1004 49 4000 3.26 199.053 21:18 17.06.2019
6045 Haze 33 1005 49 4000 3.26 199.053 20:36 17.06.2019
6046 Haze 32 1005 52 4000 5.93 179.71 20:18 17.06.2019
6047 Haze 33 1005 49 4000 5.93 179.71 19:41 17.06.2019
6048 Haze 32 1004 52 4000 5.93 179.71 19:22 17.06.2019
6049 Haze 32 1004 52 4000 5.93 179.71 18:57 17.06.2019
6050 Haze 33 1004 49 4000 5.93 179.71 18:37 17.06.2019
6051 Haze 33 1003 46 4000 0.58 265.844 18:18 17.06.2019
6052 Haze 33 1003 46 4000 0.58 265.844 17:42 17.06.2019
6053 Haze 34 1003 44 4000 0.58 265.844 17:24 17.06.2019
6054 Haze 34 1003 44 4000 2.1 120 16:45 17.06.2019
6055 Haze 34 1003 44 4000 2.1 120 16:27 17.06.2019
6056 Haze 39 1002 27 4000 5.7 350 15:56 17.06.2019
6057 Haze 39 1002 27 4000 5.7 350 15:37 17.06.2019
6058 Haze 39 1002 26 5000 6.2 350 15:18 17.06.2019
6059 Haze 39 1001 27 5000 6.2 340 14:47 17.06.2019
6060 Haze 40 1001 26 5000 5.1 300 14:26 17.06.2019
6061 Haze 40 1001 26 5000 5.1 320 13:50 17.06.2019
6062 Haze 40 1001 26 5000 6.2 350 13:23 17.06.2019
6063 Haze 40 1001 26 5000 6.2 320 12:51 17.06.2019
6064 Haze 40 1001 26 5000 6.2 320 12:31 17.06.2019
6065 Haze 39 1002 29 5000 5.1 350 11:49 17.06.2019
6066 Haze 39 1002 29 5000 5.1 350 11:26 17.06.2019
6067 Haze 39 1003 29 5000 5.1 280 10:58 17.06.2019
6068 Haze 38 1003 33 5000 3.1 300 10:40 17.06.2019
6069 Haze 38 1004 33 5000 3.1 300 10:21 17.06.2019
6070 -273 0 0 0 0 0 09:53 17.06.2019
6071 Haze 37 1004 37 5000 4.1 360 09:28 17.06.2019
6072 Haze 37 1005 37 5000 3.6 280 08:41 17.06.2019
6073 Haze 36 1006 37 5000 4.1 360 08:23 17.06.2019
6074 Haze 36 1006 39 5000 6.7 360 07:46 17.06.2019
6075 Haze 36 1006 39 5000 6.7 360 07:46 17.06.2019
6076 Haze 36 1006 39 5000 6.7 360 07:27 17.06.2019
6077 Haze 35 1006 39 5000 6.7 330 06:44 17.06.2019
6078 Haze 34 1006 44 5000 7.7 360 05:49 17.06.2019
6079 Haze 33 1006 49 0 5.7 360 04:42 17.06.2019
6080 Haze 33 1005 49 0 2.6 290 03:49 17.06.2019
6081 Haze 31 1005 58 0 2.1 270 03:20 17.06.2019
6082 Haze 33 1004 49 0 4.6 290 02:41 17.06.2019
6083 Haze 34 1004 44 0 1.5 280 01:56 17.06.2019
6084 Haze 34 1004 44 0 1.5 250 01:34 17.06.2019
6085 Haze 33 1003 49 0 1 300 00:44 17.06.2019
6086 Haze 34 1003 46 0 1 320 00:23 17.06.2019
6087 Haze 33 1003 49 0 1 290 23:43 16.06.2019
6088 Haze 33 1003 49 0 4.78 300.789 23:23 16.06.2019
6089 Haze 33 1003 49 0 4.78 300.789 22:57 16.06.2019
6090 Haze 33 1003 49 0 1 250 22:39 16.06.2019
6091 Haze 33 1004 49 0 4.78 300.789 22:19 16.06.2019
6092 Haze 33 1004 49 0 4.78 300.789 22:19 16.06.2019
6093 Haze 33 1004 49 0 4.78 300.789 21:55 16.06.2019
6094 Haze 33 1004 49 0 4.78 300.789 21:37 16.06.2019
6095 Haze 34 1004 46 0 2.49 305.725 21:19 16.06.2019
6096 Haze 33 1004 49 0 3.55 321.966 20:37 16.06.2019
6097 Haze 33 1004 49 0 3.55 321.966 20:19 16.06.2019
6098 Haze 34 1004 46 0 2.1 100 19:43 16.06.2019
6099 Haze 34 1004 46 0 2.1 60 19:22 16.06.2019
6100 Haze 34 1004 46 0 2.1 60 18:59 16.06.2019
6101 Haze 34 1004 46 0 2.1 50 18:41 16.06.2019
6102 Haze 34 1004 46 0 2.6 60 18:21 16.06.2019
6103 Haze 34 1004 46 0 2.6 60 18:21 16.06.2019
6104 Haze 34 1003 49 3000 2.6 60 17:48 16.06.2019
6105 Haze 34 1003 49 3000 2.6 60 17:24 16.06.2019
6106 Haze 34 1003 49 3000 2.6 60 17:24 16.06.2019
6107 Haze 33 1003 52 3000 2.6 60 16:57 16.06.2019
6108 Haze 33 1003 52 3000 2.6 60 16:57 16.06.2019
6109 Haze 34 1003 49 3000 4.1 110 16:39 16.06.2019
6110 Haze 36 1002 41 4000 4.6 110 16:21 16.06.2019
6111 Haze 39 1001 31 4000 5.7 360 15:45 16.06.2019
6112 Haze 40 1001 29 4000 5.1 360 15:26 16.06.2019
6113 Haze 40 1001 29 4000 5.1 360 14:56 16.06.2019
6114 Haze 39 1000 33 4000 4.6 360 14:36 16.06.2019
6115 Rain 39 1000 31 4000 7.7 360 14:18 16.06.2019
6116 Haze 40 1000 29 4000 7.7 360 13:44 16.06.2019
6117 Haze 40 1001 29 4000 4.6 360 13:24 16.06.2019
6118 Haze 40 1001 29 4000 4.1 300 12:43 16.06.2019
6119 Haze 39 1001 31 4000 6.7 260 12:21 16.06.2019
6120 Haze 40 1002 29 4000 6.7 250 11:54 16.06.2019
6121 Haze 40 1002 29 4000 6.7 250 11:36 16.06.2019
6122 Haze 40 1002 29 4000 6.7 250 11:36 16.06.2019
6123 Haze 40 1002 31 4000 5.1 360 11:18 16.06.2019
6124 Haze 40 1003 31 5000 4.6 310 10:43 16.06.2019
6125 Clouds 38 1003 35 6000 4.6 290 10:19 16.06.2019
6126 Clouds 39 1004 35 6000 4.6 340 09:42 16.06.2019
6127 Clouds 38 1004 37 6000 4.6 320 09:23 16.06.2019
6128 Clouds 38 1005 37 0 4.6 360 08:46 16.06.2019
6129 Haze 37 1005 39 5000 5.1 330 08:20 16.06.2019
6130 Haze 37 1005 39 5000 5.1 330 07:44 16.06.2019
6131 Haze 37 1005 39 5000 5.1 330 07:26 16.06.2019
6132 Haze 35 1006 44 4000 6.2 360 06:50 16.06.2019
6133 Haze 34 1006 46 4000 5.7 360 05:53 16.06.2019
6134 Haze 32 1006 55 4000 4.1 330 05:20 16.06.2019
6135 Haze 32 1005 52 4000 4.6 340 04:21 16.06.2019
6136 Haze 31 1005 58 3000 3.1 300 03:38 16.06.2019
6137 Haze 31 1005 58 3000 4.1 330 03:18 16.06.2019
6138 Haze 31 1004 58 3000 4.1 350 01:48 16.06.2019
6139 Haze 31 1004 58 3000 4.1 350 01:28 16.06.2019
6140 Haze 32 1003 52 3000 5.1 350 00:43 16.06.2019
6141 Haze 32 1003 52 3000 2.1 290 00:23 16.06.2019
6142 Haze 32 1003 52 3000 2.1 290 23:55 15.06.2019
6143 Haze 32 1003 52 3000 2.1 260 23:37 15.06.2019
6144 Haze 32 1004 52 3000 2.1 250 23:18 15.06.2019
6145 Haze 32 1004 52 3000 2.1 250 22:43 15.06.2019
6146 Haze 32 1004 52 3000 2.1 250 22:24 15.06.2019
6147 Haze 32 1004 52 4000 1.5 280 21:43 15.06.2019
6148 Haze 32 1004 55 4000 1.5 270 21:20 15.06.2019
6149 Haze 32 1004 52 4000 1 30 20:45 15.06.2019
6150 Haze 32 1004 52 4000 1.5 70 20:22 15.06.2019
6151 Haze 32 1004 52 4000 2.1 70 19:47 15.06.2019
6152 Haze 33 1004 49 4000 2.1 80 19:26 15.06.2019
6153 Haze 33 1004 49 4000 1.5 50 18:44 15.06.2019
6154 Haze 33 1004 49 4000 1.5 50 18:25 15.06.2019
6155 Haze 34 1003 46 4000 1.5 50 17:45 15.06.2019
6156 Haze 34 1003 46 4000 1.5 50 17:27 15.06.2019
6157 Haze 34 1002 46 4000 2.1 20 16:49 15.06.2019
6158 Haze 34 1002 46 4000 2.6 30 16:22 15.06.2019
6159 Haze 34 1002 46 4000 2.6 30 15:55 15.06.2019
6160 Haze 35 1001 44 4000 3.1 10 15:37 15.06.2019
6161 Haze 35 1001 41 5000 4.1 10 15:18 15.06.2019
6162 Haze 37 1000 37 5000 4.6 20 14:37 15.06.2019
6163 Haze 37 1000 37 5000 6.2 10 14:18 15.06.2019
6164 Haze 41 1000 24 5000 5.1 280 13:42 15.06.2019
6165 Haze 41 999 24 5000 4.6 260 13:20 15.06.2019
6166 Haze 41 1000 26 5000 4.1 260 12:53 15.06.2019
6167 Haze 41 1000 26 5000 4.1 260 12:28 15.06.2019
6168 Haze 41 1000 26 5000 3.6 260 11:59 15.06.2019
6169 Haze 40 1000 29 5000 4.1 260 11:41 15.06.2019
6170 Haze 40 1001 29 5000 3.6 315 11:23 15.06.2019
6171 Haze 40 1002 31 5000 6.2 360 10:41 15.06.2019
6172 Haze 40 1002 31 5000 4.1 270 10:23 15.06.2019
6173 Haze 39 1003 33 5000 3.6 270 09:44 15.06.2019
6174 Haze 39 1003 33 5000 3.6 270 09:25 15.06.2019
6175 Haze 39 1003 33 5000 4.1 270 08:54 15.06.2019
6176 Haze 39 1003 33 5000 4.1 270 08:32 15.06.2019
6177 Haze 38 1004 35 5000 3.6 260 07:50 15.06.2019
6178 Haze 38 1004 35 5000 3.6 260 07:50 15.06.2019
6179 Haze 37 1004 37 5000 3.6 270 07:25 15.06.2019
6180 Haze 37 1004 39 5000 6.2 270 06:41 15.06.2019
6181 Haze 37 1004 37 5000 6.2 270 06:19 15.06.2019
6182 Haze 36 1004 39 5000 3.6 270 05:27 15.06.2019
6183 Haze 35 1004 41 4000 4.6 250 04:44 15.06.2019
6184 Haze 35 1004 41 4000 4.6 250 04:44 15.06.2019
6185 Haze 35 1004 41 4000 4.6 250 04:44 15.06.2019
6186 Haze 35 1004 41 4000 4.6 250 04:44 15.06.2019
6187 Haze 35 1004 41 4000 4.6 250 04:44 15.06.2019
6188 Haze 31 1003 55 4000 2.1 230 03:42 15.06.2019
6189 Haze 30 1003 58 4000 6.56 242.923 02:56 15.06.2019
6190 Haze 30 1002 58 3000 1 200 02:22 15.06.2019
6191 Haze 30 1002 58 3000 6.56 242.923 01:44 15.06.2019
6192 Haze 30 1002 55 3000 6.56 242.923 00:56 15.06.2019
6193 Haze 30 1002 58 3000 6.56 242.923 00:37 15.06.2019
6194 Haze 33 1002 52 3000 1.25 281.957 23:54 14.06.2019
6195 Haze 33 1002 52 3000 2.57 295.52 23:26 14.06.2019
6196 Haze 32 1002 52 3000 1 0 22:45 14.06.2019
6197 Haze 33 1003 49 3000 1.5 360 22:23 14.06.2019
6198 Haze 33 1003 49 3000 1.5 360 21:59 14.06.2019
6199 Haze 33 1003 49 3000 2.1 360 21:40 14.06.2019
6200 Haze 33 1003 49 3000 1.5 360 21:21 14.06.2019
6201 Haze 34 1003 46 3000 2.6 360 20:42 14.06.2019
6202 Haze 34 1003 46 3000 1.5 360 20:18 14.06.2019
6203 Haze 34 1003 46 3000 1.5 60 19:53 14.06.2019
6204 Haze 34 1003 46 3000 3.1 80 19:23 14.06.2019
6205 Haze 34 1003 46 3000 3.1 80 18:58 14.06.2019
6206 Haze 35 1003 44 3000 3.6 360 18:40 14.06.2019
6207 Thunderstorm 35 1003 41 3000 4.1 360 18:22 14.06.2019
6208 Thunderstorm 36 1002 39 3000 1.5 30 17:47 14.06.2019
6209 Thunderstorm 36 1002 39 3000 1.5 30 17:28 14.06.2019
6210 Thunderstorm 36 1001 39 3000 2.6 40 16:58 14.06.2019
6211 -273 0 0 0 0 0 16:40 14.06.2019
6212 Haze 36 1001 39 4000 4.1 20 16:40 14.06.2019
6213 Haze 40 1000 29 5000 5.1 290 16:19 14.06.2019
6214 Clouds 41 999 26 6000 5.7 240 15:40 14.06.2019
6215 Clouds 41 999 26 6000 4.1 180 15:22 14.06.2019
6216 Clouds 41 999 26 6000 4.1 180 14:54 14.06.2019
6217 Clouds 41 999 26 6000 4.1 170 14:35 14.06.2019
6218 Clouds 41 999 26 6000 4.1 170 14:34 14.06.2019
6219 Clouds 41 998 26 6000 4.6 210 13:56 14.06.2019
6220 Clouds 41 999 26 6000 4.1 200 13:37 14.06.2019
6221 Clouds 42 999 25 6000 4.1 230 13:19 14.06.2019
6222 Clouds 42 999 25 6000 4.1 230 13:19 14.06.2019
6223 Clouds 42 999 25 6000 2.6 250 12:42 14.06.2019
6224 Clouds 42 999 25 6000 2.6 250 12:42 14.06.2019
6225 Clouds 41 999 28 6000 4.1 230 12:23 14.06.2019
6226 Clouds 41 1000 28 6000 3.6 240 11:47 14.06.2019
6227 Clouds 41 1000 28 6000 3.6 240 11:24 14.06.2019
6228 Clouds 41 1000 28 6000 3.6 240 10:58 14.06.2019
6229 Clouds 40 1001 29 6000 3.6 270 10:39 14.06.2019
6230 Clouds 39 1002 31 0 2.6 250 10:18 14.06.2019
6231 Clouds 39 1002 31 0 2.6 290 09:39 14.06.2019
6232 Clouds 39 1003 31 0 2.6 250 09:20 14.06.2019
6233 Clouds 39 1003 31 0 3.1 270 08:45 14.06.2019
6234 Clouds 37 1003 35 6000 4.1 290 08:18 14.06.2019
6235 Clouds 37 1003 35 0 4.1 280 07:48 14.06.2019
6236 Haze 37 1004 35 5000 4.1 340 07:20 14.06.2019
6237 Haze 37 1004 35 5000 4.6 340 06:31 14.06.2019
6238 -273 0 0 0 0 0 05:55 14.06.2019
6239 Haze 35 1004 41 5000 4.1 280 05:00 14.06.2019
6240 Haze 34 1004 44 5000 4.1 250 04:37 14.06.2019
6241 Haze 33 1003 46 4000 3.1 230 03:51 14.06.2019
6242 Haze 33 1003 46 4000 3.1 230 03:25 14.06.2019
6243 -273 0 0 0 0 0 03:25 14.06.2019
6244 Haze 33 1003 46 4000 3.1 230 03:25 14.06.2019
6245 Haze 33 1003 46 3000 2.1 260 02:47 14.06.2019
6246 -273 0 0 0 0 0 01:58 14.06.2019
6247 Haze 34 1002 41 3000 2.6 260 00:49 14.06.2019
6248 Haze 34 1002 41 3000 2.6 260 00:22 14.06.2019
6249 Haze 34 1002 41 3000 2.6 260 23:56 13.06.2019
6250 Haze 34 1002 41 3000 3.6 250 23:27 13.06.2019
6251 Haze 35 1003 39 3000 3.6 270 22:59 13.06.2019
6252 Haze 35 1002 39 3000 4.1 260 22:39 13.06.2019
6253 Haze 36 1002 34 3000 4.6 260 22:20 13.06.2019
6254 Haze 36 1002 32 3000 3.1 240 21:39 13.06.2019
6255 Haze 36 1002 30 3000 2.6 250 21:20 13.06.2019
6256 Haze 36 1002 28 3000 2.1 230 20:45 13.06.2019
6257 Haze 36 1002 30 3000 1.5 250 20:22 13.06.2019
6258 Haze 36 1002 30 3000 1.5 250 19:57 13.06.2019
6259 Haze 37 1002 29 3000 1.5 260 19:37 13.06.2019
6260 Haze 37 1002 29 4000 2.1 250 19:19 13.06.2019
6261 Haze 38 1002 27 4000 2.6 260 18:46 13.06.2019
6262 Haze 38 1002 27 4000 2.6 260 18:28 13.06.2019
6263 Haze 38 1001 27 4000 2.1 270 17:59 13.06.2019
6264 Haze 38 1001 27 4000 2.6 270 17:41 13.06.2019
6265 Haze 39 1001 26 4000 3.1 270 17:20 13.06.2019
6266 Haze 39 1000 26 4000 4.1 260 16:46 13.06.2019
6267 Haze 40 999 24 5000 4.6 270 16:21 13.06.2019
6268 Haze 40 999 24 5000 4.6 270 15:56 13.06.2019
6269 Clouds 40 999 24 5000 5.1 270 15:38 13.06.2019
6270 Clouds 40 999 24 6000 5.1 260 15:18 13.06.2019
6271 Clouds 41 999 23 6000 61.7 280 14:44 13.06.2019
6272 Clouds 41 999 23 6000 5.7 260 14:23 13.06.2019
6273 Clouds 41 999 24 6000 4.6 260 13:44 13.06.2019
6274 Clouds 41 1000 26 6000 4.6 270 13:21 13.06.2019
6275 Clouds 41 1000 24 6000 5.1 260 12:42 13.06.2019
6276 Clouds 41 1000 26 6000 4.1 240 12:22 13.06.2019
6277 Clouds 41 1000 26 6000 4.1 240 11:57 13.06.2019
6278 Clouds 40 1001 28 6000 4.1 260 11:38 13.06.2019
6279 Clouds 40 1001 28 6000 5.7 250 11:19 13.06.2019
6280 Clouds 40 1002 26 6000 3.6 240 10:43 13.06.2019
6281 Clouds 40 1002 26 6000 3.6 240 10:24 13.06.2019
6282 Clouds 38 1003 33 6000 1.5 230 09:44 13.06.2019
6283 Clouds 38 1003 33 6000 3.1 260 09:23 13.06.2019
6284 Clouds 38 1003 33 6000 3.1 260 09:23 13.06.2019
6285 Clouds 38 1003 33 6000 3.1 260 09:23 13.06.2019
6286 Clouds 37 1004 35 6000 3.1 250 08:44 13.06.2019
6287 Clouds 37 1004 35 6000 3.1 250 08:25 13.06.2019
6288 Clouds 37 1005 35 6000 2.6 270 07:52 13.06.2019
6289 Clouds 37 1005 35 6000 2.6 270 07:25 13.06.2019
6290 Clouds 35 1005 39 6000 5.1 300 06:47 13.06.2019
6291 Clouds 34 1005 41 6000 5.1 360 06:23 13.06.2019
6292 Clouds 34 1005 41 6000 5.1 360 05:55 13.06.2019
6293 Clouds 34 1005 41 6000 4.1 360 05:36 13.06.2019
6294 Clouds 33 1005 43 6000 5.1 250 04:57 13.06.2019
6295 Haze 33 1003 46 3000 4.6 240 02:26 13.06.2019
6296 Haze 34 1002 41 3000 4.6 260 00:47 13.06.2019
6297 Haze 35 1002 39 3000 5.1 240 23:52 12.06.2019
6298 Haze 35 1002 39 3000 6.2 240 23:23 12.06.2019
6299 Haze 36 1002 37 4000 3.1 250 22:44 12.06.2019
6300 Haze 36 1002 37 4000 3.1 250 22:26 12.06.2019
6301 Haze 36 1001 37 4000 5.1 240 21:56 12.06.2019
6302 Haze 37 1002 35 4000 6.2 240 21:37 12.06.2019
6303 Haze 37 1001 35 4000 4.6 240 21:18 12.06.2019
6304 Haze 37 1001 35 4000 4.6 240 21:18 12.06.2019
6305 Haze 37 1001 35 4000 4.1 240 20:38 12.06.2019
6306 Haze 37 1001 35 4000 5.7 250 20:20 12.06.2019
6307 Haze 37 1001 30 4000 1 210 19:42 12.06.2019
6308 Haze 37 1001 30 4000 1 210 19:23 12.06.2019
6309 Haze 37 1001 30 4000 1 210 18:56 12.06.2019
6310 Haze 38 1000 31 4000 1 230 18:38 12.06.2019
6311 Haze 38 1000 29 4000 1 230 18:19 12.06.2019
6312 Haze 39 1000 27 4000 2.1 220 17:43 12.06.2019
6313 Haze 39 999 29 5000 2.1 240 17:20 12.06.2019
6314 Haze 40 999 28 5000 3.1 220 16:42 12.06.2019
6315 Clouds 40 999 28 6000 3.6 250 16:23 12.06.2019
6316 Clouds 40 999 28 6000 3.6 250 15:53 12.06.2019
6317 Clouds 41 999 24 6000 2.6 220 15:32 12.06.2019
6318 Clouds 42 998 23 6000 4.6 210 14:49 12.06.2019
6319 Clouds 42 998 23 6000 4.6 210 14:27 12.06.2019
6320 Clouds 42 998 23 6000 5.7 230 13:44 12.06.2019
6321 Clouds 42 998 23 6000 4.1 230 13:21 12.06.2019
6322 Clouds 42 998 23 6000 4.1 230 12:59 12.06.2019
6323 Clouds 42 999 23 6000 4.1 220 12:38 12.06.2019
6324 Clouds 42 999 25 6000 2.1 250 12:19 12.06.2019
6325 Clouds 42 999 25 6000 2.1 250 12:19 12.06.2019
6326 Clouds 42 999 25 6000 2.1 250 12:19 12.06.2019
6327 Clouds 42 1000 25 6000 2.6 200 11:46 12.06.2019
6328 Clouds 42 1000 25 6000 2.6 200 11:28 12.06.2019
6329 Clouds 41 1001 26 6000 4.6 250 10:51 12.06.2019
6330 Clouds 41 1001 26 6000 4.6 250 10:31 12.06.2019
6331 Clouds 40 1002 29 6000 5.1 220 09:45 12.06.2019
6332 Clouds 40 1002 29 6000 5.1 220 09:24 12.06.2019
6333 Clouds 40 1002 29 6000 4.6 230 08:58 12.06.2019
6334 Clouds 39 1002 31 6000 5.1 230 08:24 12.06.2019
6335 Clouds 39 1003 33 6000 4.6 280 07:48 12.06.2019
6336 Clouds 38 1003 33 6000 4.6 270 06:54 12.06.2019
6337 Clouds 38 1003 33 6000 4.6 270 06:54 12.06.2019
6338 Haze 36 1002 39 5000 5.7 240 05:37 12.06.2019
6339 Haze 36 1002 39 5000 5.7 240 05:19 12.06.2019
6340 Haze 33 1001 41 3000 2.1 240 01:58 12.06.2019
6341 Haze 34 1001 38 3000 2.1 250 00:40 12.06.2019
6342 Haze 34 1000 38 3000 1 280 23:50 11.06.2019
6343 Haze 34 1000 38 3000 1 280 23:31 11.06.2019
6344 Haze 35 1000 36 4000 1 270 22:44 11.06.2019
6345 Haze 35 1001 36 4000 1.5 230 22:21 11.06.2019
6346 Haze 35 1001 36 4000 1.5 230 21:58 11.06.2019
6347 Haze 35 1001 36 4000 1.5 220 21:39 11.06.2019
6348 Haze 36 1001 34 4000 1.5 230 21:20 11.06.2019
6349 Haze 36 1001 32 4000 1.5 230 20:49 11.06.2019
6350 Haze 36 1001 32 4000 1.5 230 20:27 11.06.2019
6351 Haze 37 1001 30 4000 2.6 210 19:57 11.06.2019
6352 Haze 37 1001 30 4000 2.6 210 19:39 11.06.2019
6353 Haze 37 1001 32 4000 2.6 210 19:18 11.06.2019
6354 Haze 38 1000 31 4000 2.6 190 18:40 11.06.2019
6355 Haze 39 1000 27 4000 3.1 190 18:18 11.06.2019
6356 Haze 39 999 26 4000 3.1 190 17:41 11.06.2019
6357 Haze 40 999 24 4000 3.1 230 17:19 11.06.2019
6358 Haze 41 998 21 4000 3.1 220 16:42 11.06.2019
6359 Haze 41 998 23 4000 1.5 220 16:23 11.06.2019
6360 Haze 41 998 23 4000 1.5 220 16:23 11.06.2019
6361 Haze 42 998 22 4000 2.1 240 15:43 11.06.2019
6362 Haze 43 997 19 5000 2.1 220 15:25 11.06.2019
6363 Haze 43 997 19 5000 2.1 220 14:54 11.06.2019
6364 Haze 43 997 19 5000 1.5 230 14:23 11.06.2019
6365 Haze 44 997 20 5000 3.6 220 13:58 11.06.2019
6366 Haze 44 997 20 5000 3.6 220 13:37 11.06.2019
6367 Haze 44 997 20 5000 1.5 330 13:19 11.06.2019
6368 Haze 44 998 20 5000 3.1 220 12:41 11.06.2019
6369 Haze 43 998 22 5000 3.1 230 12:21 11.06.2019
6370 Haze 43 998 21 5000 1 320 11:49 11.06.2019
6371 Haze 43 998 21 5000 1 320 11:30 11.06.2019
6372 Haze 42 999 23 5000 4.6 250 10:50 11.06.2019
6373 Haze 42 999 23 5000 4.6 250 10:27 11.06.2019
6374 Haze 42 1001 23 5000 3.6 270 09:51 11.06.2019
6375 Haze 42 1001 23 5000 3.6 270 09:25 11.06.2019
6376 Haze 40 1002 29 5000 2.1 230 08:49 11.06.2019
6377 Haze 40 1002 29 5000 2.1 230 08:30 11.06.2019
6378 Haze 39 1002 29 5000 2.6 290 07:57 11.06.2019
6379 Haze 39 1002 31 5000 3.1 300 07:31 11.06.2019
6380 Haze 37 1003 35 4000 2.1 300 06:52 11.06.2019
6381 Haze 34 1003 41 4000 2.1 260 05:20 11.06.2019
6382 Haze 32 1002 46 4000 2.1 360 03:55 11.06.2019
6383 Haze 32 1001 46 3000 3.1 270 01:53 11.06.2019
6384 Haze 32 1001 46 3000 4.6 240 00:49 11.06.2019
6385 Haze 33 1000 43 3000 5.1 230 00:23 11.06.2019
6386 Haze 33 1000 43 3000 5.7 230 23:41 10.06.2019
6387 Haze 33 1000 43 3000 5.1 220 22:59 10.06.2019
6388 Haze 33 1000 43 3000 4.1 220 22:41 10.06.2019
6389 Haze 33 1000 43 3000 5.1 220 22:23 10.06.2019
6390 Haze 33 1001 43 3000 6.2 210 21:41 10.06.2019
6391 Haze 35 1001 36 3000 6.2 210 21:23 10.06.2019
6392 Haze 34 1000 36 3000 4.6 200 20:48 10.06.2019
6393 Haze 34 1000 36 3000 4.6 200 20:26 10.06.2019
6394 Haze 34 1000 36 3000 2.1 210 19:58 10.06.2019
6395 Haze 35 1000 32 3000 1.5 230 19:39 10.06.2019
6396 Haze 35 1000 34 3000 3.1 230 19:21 10.06.2019
6397 Haze 36 1000 30 3000 3.6 220 18:55 10.06.2019
6398 Haze 36 1000 30 3000 3.6 220 18:37 10.06.2019
6399 Haze 36 1000 30 3000 3.6 220 18:18 10.06.2019
6400 Thunderstorm 36 999 32 2500 6.2 240 17:40 10.06.2019
6401 Thunderstorm 36 999 32 2500 6.2 210 17:22 10.06.2019
6402 Thunderstorm 37 999 27 2000 4.1 230 16:46 10.06.2019
6403 Thunderstorm 37 999 27 2000 4.1 230 16:28 10.06.2019
6404 Thunderstorm 34 999 41 2000 4.1 280 15:46 10.06.2019
6405 Thunderstorm 34 999 41 2000 4.1 280 15:46 10.06.2019
6406 Thunderstorm 34 999 41 2000 4.1 280 15:24 10.06.2019
6407 Thunderstorm 33 999 38 1500 7.7 300 14:59 10.06.2019
6408 Clouds 39 998 27 1500 5.1 330 14:40 10.06.2019
6409 Haze 44 997 16 4000 1 80 14:21 10.06.2019
6410 Haze 44 997 16 5000 1 300 13:43 10.06.2019
6411 Haze 45 997 16 5000 1.5 290 13:23 10.06.2019
6412 Haze 45 998 16 5000 1.5 210 12:45 10.06.2019
6413 Haze 45 998 16 5000 1.5 210 12:27 10.06.2019
6414 Haze 44 998 18 5000 1 60 11:48 10.06.2019
6415 Haze 44 998 18 5000 1 60 11:29 10.06.2019
6416 Haze 44 999 18 5000 2.1 260 10:57 10.06.2019
6417 Haze 43 999 19 5000 1.5 330 10:38 10.06.2019
6418 Haze 43 1000 21 5000 1.5 10 10:18 10.06.2019
6419 Haze 42 1000 22 5000 1 350 09:45 10.06.2019
6420 Haze 42 1000 22 5000 1 350 09:26 10.06.2019
6421 Haze 41 1001 23 5000 1.5 360 08:45 10.06.2019
6422 Haze 41 1001 23 5000 4.1 350 08:25 10.06.2019
6423 Haze 40 1002 24 5000 3.1 320 07:26 10.06.2019
6424 Haze 35 1002 36 5000 2.6 290 04:41 10.06.2019
6425 Haze 33 1001 38 4000 2.6 260 01:59 10.06.2019
6426 Haze 32 1001 43 4000 1 310 01:27 10.06.2019
6427 Haze 31 1000 48 4000 1 200 00:58 10.06.2019
6428 Haze 32 1000 46 4000 2.35 210.248 00:23 10.06.2019
6429 Haze 32 1000 46 4000 2.35 210.248 23:44 09.06.2019
6430 Haze 31 1000 48 4000 2.35 210.248 23:20 09.06.2019
6431 Haze 32 1000 46 4000 1.5 270 22:45 09.06.2019
6432 Haze 32 1000 46 4000 1.5 270 22:25 09.06.2019
6433 Haze 33 1001 43 4000 1.5 340 21:46 09.06.2019
6434 Haze 33 1001 43 4000 1.5 340 21:27 09.06.2019
6435 Haze 34 1001 38 4000 2.43 169.742 20:45 09.06.2019
6436 Haze 35 1001 36 4000 1 60 20:23 09.06.2019
6437 Haze 35 1001 36 4000 1 60 19:58 09.06.2019
6438 Haze 36 1001 32 4000 1 40 19:39 09.06.2019
6439 Haze 36 1001 28 4000 2.64 240.861 19:18 09.06.2019
6440 Haze 36 1001 30 4000 2.64 240.861 18:42 09.06.2019
6441 Haze 37 1001 29 4000 1 50 18:24 09.06.2019
6442 Haze 38 1001 27 4000 1 320 17:48 09.06.2019
6443 Haze 38 1001 27 4000 1 320 17:28 09.06.2019
6444 Haze 38 1000 25 4000 3.1 300 16:55 09.06.2019
6445 Haze 38 999 21 4000 1 300 16:37 09.06.2019
6446 Clouds 42 1000 18 0 2.66 241.451 16:19 09.06.2019
6447 Clouds 42 1000 18 0 2.66 241.451 15:47 09.06.2019
6448 Clouds 42 999 17 0 2.03 292.174 15:27 09.06.2019
6449 Haze 40 999 20 0 4.1 50 14:46 09.06.2019
6450 Haze 40 999 20 0 4.1 50 14:26 09.06.2019
6451 Clouds 42 999 17 0 2.03 292.174 13:56 09.06.2019
6452 Dust 39 999 26 0 2.03 292.174 13:35 09.06.2019
6453 Haze 43 1000 21 5000 2.6 300 12:43 09.06.2019
6454 Haze 43 1000 21 5000 2.6 300 12:25 09.06.2019
6455 Haze 43 1000 21 5000 2.1 230 11:47 09.06.2019
6456 Haze 43 1000 21 5000 2.1 230 11:28 09.06.2019
6457 Haze 42 1002 20 5000 3.6 310 10:46 09.06.2019
6458 Haze 42 1002 20 5000 3.6 310 10:46 09.06.2019
6459 Haze 41 1002 24 5000 3.1 280 10:24 09.06.2019
6460 Haze 41 1003 24 5000 4.1 310 09:41 09.06.2019
6461 Haze 41 1003 24 5000 4.1 310 09:23 09.06.2019
6462 Haze 40 1004 26 5000 5.7 310 08:55 09.06.2019
6463 Haze 40 1004 26 5000 5.7 310 08:36 09.06.2019
6464 Haze 39 1004 31 5000 5.1 280 07:46 09.06.2019
6465 Haze 37 1004 32 5000 4.6 240 06:30 09.06.2019
6466 Haze 34 1004 41 5000 2.1 280 05:34 09.06.2019
6467 Haze 29 1002 62 4000 4.05 255.6 01:46 09.06.2019
6468 Haze 29 1003 62 4000 5.07 180.215 01:22 09.06.2019
6469 Haze 29 1003 62 4000 5.07 180.215 00:59 09.06.2019
6470 Haze 30 1003 58 4000 1 290 00:19 09.06.2019
6471 Haze 29 1003 66 4000 1.5 220 23:38 08.06.2019
6472 Haze 30 1003 66 4000 1.5 340 23:20 08.06.2019
6473 Haze 30 1003 66 4000 1 330 22:43 08.06.2019
6474 Haze 30 1003 62 4000 1 310 22:25 08.06.2019
6475 Haze 29 1003 66 4000 1 150 21:52 08.06.2019
6476 Haze 29 1003 66 4000 1 150 21:34 08.06.2019
6477 Haze 30 1003 62 4000 1 300 20:59 08.06.2019
6478 Haze 30 1003 62 4000 5.36 168.971 20:40 08.06.2019
6479 Haze 30 1003 62 4000 5.36 168.971 20:40 08.06.2019
6480 Haze 30 1003 58 4000 5.36 168.971 20:20 08.06.2019
6481 Haze 31 1003 52 4000 1 300 19:42 08.06.2019
6482 Haze 31 1003 55 4000 2.1 300 19:22 08.06.2019
6483 Haze 31 1003 55 4000 2.1 300 18:58 08.06.2019
6484 Haze 31 1003 58 4000 4.1 320 18:38 08.06.2019
6485 Haze 33 1002 43 4000 1 250 18:18 08.06.2019
6486 Haze 33 1002 41 4000 1 130 17:41 08.06.2019
6487 Thunderstorm 30 1002 55 3000 3.1 210 17:18 08.06.2019
6488 Thunderstorm 31 1003 55 2000 1 190 16:44 08.06.2019
6489 Thunderstorm 31 1003 55 2000 1 190 16:44 08.06.2019
6490 Thunderstorm 31 1003 55 2000 1 190 16:20 08.06.2019
6491 Thunderstorm 30 1002 58 1500 3.6 260 15:38 08.06.2019
6492 Thunderstorm 33 1003 41 1500 3.1 90 14:54 08.06.2019
6493 Haze 33 1002 46 1500 7.7 360 14:32 08.06.2019
6494 Haze 38 1000 29 3500 4.1 280 13:59 08.06.2019
6495 Haze 41 1000 26 3500 6.2 270 13:25 08.06.2019
6496 Haze 41 1001 26 5000 3.6 200 12:46 08.06.2019
6497 Haze 42 1001 26 5000 2.6 220 12:21 08.06.2019
6498 Haze 42 1002 26 5000 4.1 200 11:44 08.06.2019
6499 Clouds 42 1002 26 6000 5.1 200 11:22 08.06.2019
6500 Clouds 41 1003 28 6000 2.6 230 10:44 08.06.2019
6501 Clouds 41 1004 28 6000 4.1 220 10:22 08.06.2019
6502 Clouds 40 1004 29 6000 2.6 180 09:48 08.06.2019
6503 Clouds 40 1005 29 6000 2.1 230 09:22 08.06.2019
6504 Haze 39 1005 31 5000 2.1 250 08:29 08.06.2019
6505 Haze 37 1006 35 4000 2.6 170 07:49 08.06.2019
6506 Haze 35 1006 39 4000 2.1 280 06:50 08.06.2019
6507 Haze 33 1006 43 4000 2.1 290 05:42 08.06.2019
6508 Haze 30 1005 48 3000 2.1 210 03:30 08.06.2019
6509 Haze 31 1004 45 3000 1 90 01:25 08.06.2019
6510 Haze 31 1004 45 3000 2.1 200 00:25 08.06.2019
6511 Haze 31 1004 45 3000 1 240 23:41 07.06.2019
6512 Haze 32 1004 43 3000 1 300 23:20 07.06.2019
6513 Haze 32 1005 43 3000 2.6 10 22:37 07.06.2019
6514 Haze 32 1006 43 3000 3.1 20 22:19 07.06.2019
6515 Haze 33 1005 41 3000 2.1 350 21:49 07.06.2019
6516 Haze 33 1005 41 3000 2.1 350 21:28 07.06.2019
6517 Haze 32 1006 40 3000 1.5 350 20:54 07.06.2019
6518 Haze 33 1006 38 3000 2.6 230 20:35 07.06.2019
6519 Haze 33 1006 38 3000 1.5 60 19:46 07.06.2019
6520 Haze 33 1005 38 3000 1 80 19:20 07.06.2019
6521 Haze 33 1005 38 3000 3.1 120 18:50 07.06.2019
6522 Haze 33 1005 38 3000 3.1 120 18:28 07.06.2019
6523 Haze 34 1004 36 3000 3.6 100 17:47 07.06.2019
6524 Haze 34 1004 36 3000 3.6 100 17:26 07.06.2019
6525 Thunderstorm 33 1004 43 2000 5.1 90 16:48 07.06.2019
6526 Thunderstorm 33 1004 43 2000 5.1 90 16:30 07.06.2019
6527 Haze 39 1001 21 4000 2.1 120 15:50 07.06.2019
6528 Haze 39 1000 22 4000 2.1 150 15:21 07.06.2019
6529 Haze 38 1001 25 4000 2.1 100 14:47 07.06.2019
6530 Thunderstorm 37 1002 29 3000 2.1 50 14:23 07.06.2019
6531 Thunderstorm 38 1003 25 2000 3.1 40 13:42 07.06.2019
6532 Thunderstorm 36 1002 41 1500 6.2 360 13:22 07.06.2019
6533 Haze 43 1001 18 2000 6.2 360 12:44 07.06.2019
6534 Haze 46 1000 13 3000 1.5 180 12:20 07.06.2019
6535 Haze 45 1000 15 3000 4.1 170 11:41 07.06.2019
6536 Haze 45 1001 16 3000 1 60 11:22 07.06.2019
6537 Haze 45 1001 17 4000 3.1 90 10:48 07.06.2019
6538 Haze 45 1002 19 4000 2.1 80 10:22 07.06.2019
6539 Haze 44 1002 20 4000 3.76 318.562 09:50 07.06.2019
6540 Haze 44 1002 20 4000 3.76 318.562 09:29 07.06.2019
6541 Haze 42 1003 22 4000 1 30 08:56 07.06.2019
6542 Haze 42 1003 22 4000 1 30 08:28 07.06.2019
6543 Haze 41 1003 23 4000 2.6 330 07:55 07.06.2019
6544 Haze 40 1002 26 4000 4.6 330 07:24 07.06.2019
6545 Haze 39 1003 27 4000 4.6 290 06:50 07.06.2019
6546 Haze 39 1003 27 4000 4.6 290 06:28 07.06.2019
6547 Haze 38 1003 29 4000 5.1 290 05:46 07.06.2019
6548 Haze 32 1003 46 3000 2.6 230 03:34 07.06.2019
6549 Haze 33 1002 43 3000 3.6 220 01:39 07.06.2019
6550 Haze 34 1003 41 3000 3.6 210 00:49 07.06.2019
6551 Haze 34 1003 41 3000 3.6 210 00:49 07.06.2019
6552 Haze 34 1003 41 3000 3.6 210 00:25 07.06.2019
6553 Haze 36 1002 30 3000 4.6 220 23:43 06.06.2019
6554 Haze 36 1002 28 3000 5.1 190 23:21 06.06.2019
6555 Haze 37 1003 27 3000 4.1 200 22:38 06.06.2019
6556 Haze 38 1003 25 3000 4.6 180 22:20 06.06.2019
6557 Haze 38 1003 25 3000 4.6 180 21:56 06.06.2019
6558 Haze 38 1002 24 3000 1.5 240 21:38 06.06.2019
6559 Haze 38 1002 24 3000 2.1 180 21:19 06.06.2019
6560 Haze 38 1002 22 3000 2.6 290 20:44 06.06.2019
6561 Haze 38 1002 22 3000 3.75 349.706 20:22 06.06.2019
6562 Haze 37 1002 23 3000 1.5 240 19:39 06.06.2019
6563 Haze 38 1001 22 3000 1.5 260 19:19 06.06.2019
6564 Haze 39 1001 21 3000 1.5 260 18:52 06.06.2019
6565 Haze 39 1001 21 3000 1.5 260 18:32 06.06.2019
6566 Haze 39 1001 21 3000 2.1 230 17:57 06.06.2019
6567 Clouds 44 1000 10 0 3.05 347.634 17:38 06.06.2019
6568 Haze 40 1000 20 3000 1.5 200 17:20 06.06.2019
6569 Haze 40 1000 20 3000 1.5 200 17:20 06.06.2019
6570 Haze 41 1000 19 3000 1.5 210 16:43 06.06.2019
6571 Haze 41 999 18 3000 2.6 260 16:22 06.06.2019
6572 Haze 42 999 18 3000 3.6 250 15:47 06.06.2019
6573 Haze 42 999 18 3000 3.6 250 15:26 06.06.2019
6574 Haze 41 999 19 3000 4.1 200 14:46 06.06.2019
6575 Haze 41 999 19 3000 4.1 200 14:46 06.06.2019
6576 Haze 41 1000 19 2500 2.6 200 14:20 06.06.2019
6577 Haze 42 1000 18 2500 3.6 230 13:54 06.06.2019
6578 Haze 42 1000 18 2500 3.6 230 13:31 06.06.2019
6579 Haze 43 1000 15 2500 4.1 70 12:58 06.06.2019
6580 Dust 43 1000 18 2000 4.6 50 12:39 06.06.2019
6581 Dust 46 1000 13 3000 1 70 12:21 06.06.2019
6582 Haze 46 1000 13 4000 1 110 11:46 06.06.2019
6583 Haze 46 1000 13 4000 1 110 11:27 06.06.2019
6584 Haze 46 1001 13 4000 1.5 120 10:49 06.06.2019
6585 Haze 46 1001 13 4000 1.5 120 10:28 06.06.2019
6586 Haze 45 1002 14 4000 1.5 30 09:47 06.06.2019
6587 Haze 45 1002 15 4000 2.1 110 09:25 06.06.2019
6588 Haze 44 1002 16 4000 1.5 110 08:52 06.06.2019
6589 Haze 44 1002 16 4000 1.5 110 08:27 06.06.2019
6590 Haze 43 1003 17 3000 1.5 80 07:55 06.06.2019
6591 Haze 43 1003 17 3000 1.5 80 07:33 06.06.2019
6592 Haze 41 1003 20 3000 3.6 10 06:49 06.06.2019
6593 Haze 39 1003 24 3000 3.6 10 05:46 06.06.2019
6594 Haze 37 1003 25 3000 2.1 280 04:38 06.06.2019
6595 Haze 34 1001 32 3000 2.1 300 02:24 06.06.2019
6596 Haze 33 1001 33 3000 1 310 01:57 06.06.2019
6597 Haze 34 1000 32 3000 2.1 240 01:19 06.06.2019
6598 Haze 34 1000 32 3000 1.5 250 00:32 06.06.2019
6599 Haze 35 1000 30 3000 1 290 23:50 05.06.2019
6600 Haze 35 1000 30 3000 1 290 23:30 05.06.2019
6601 Haze 36 1000 26 3000 1.5 360 22:55 05.06.2019
6602 Haze 36 1000 26 3000 1 290 22:36 05.06.2019
6603 Haze 36 1001 26 3000 1 230 22:18 05.06.2019
6604 Haze 35 1001 28 3000 1 270 21:42 05.06.2019
6605 Haze 36 1001 26 3000 3.28 315.63 21:23 05.06.2019
6606 Haze 37 1001 25 3000 1 320 20:44 05.06.2019
6607 Haze 37 1001 25 3000 1 320 20:25 05.06.2019
6608 Haze 37 1001 29 3000 1 240 19:44 05.06.2019
6609 Haze 37 1001 29 3000 2.1 320 19:20 05.06.2019
6610 Haze 37 1001 29 3000 1.5 290 18:48 05.06.2019
6611 Haze 37 1001 29 3000 1.5 290 18:30 05.06.2019
6612 Haze 37 1001 29 3000 2.1 220 17:51 05.06.2019
6613 Haze 37 1001 29 3000 2.1 220 17:25 05.06.2019
6614 Haze 38 1001 27 3000 2.6 290 16:44 05.06.2019
6615 Haze 40 1000 23 3000 5.7 300 16:21 05.06.2019
6616 Haze 40 1000 23 3000 5.7 300 15:55 05.06.2019
6617 Haze 42 999 17 3000 2.1 290 15:36 05.06.2019
6618 Haze 42 999 17 3000 3.1 260 15:18 05.06.2019
6619 Haze 42 999 17 3000 3.6 340 14:39 05.06.2019
6620 Haze 42 999 18 3000 5.1 350 14:20 05.06.2019
6621 Clouds 42 999 19 2500 1.5 20 13:45 05.06.2019
6622 Haze 45 999 13 3000 1.5 20 13:22 05.06.2019
6623 Haze 45 999 13 3000 1.5 20 13:22 05.06.2019
6624 Haze 47 999 12 3000 2.6 50 12:50 05.06.2019
6625 Haze 47 999 12 3000 2.6 50 12:27 05.06.2019
6626 Haze 46 999 13 4000 2.6 110 11:57 05.06.2019
6627 Haze 46 1000 13 4000 2.6 110 11:39 05.06.2019
6628 Haze 46 1001 13 4000 3.1 120 11:19 05.06.2019
6629 Haze 46 1001 14 4000 2.6 20 10:43 05.06.2019
6630 Haze 45 1002 15 4000 2.1 160 10:22 05.06.2019
6631 Haze 45 1002 16 5000 1 180 09:43 05.06.2019
6632 Haze 45 1002 16 5000 1 180 09:24 05.06.2019
6633 Haze 43 1003 19 5000 2.6 120 08:32 05.06.2019
6634 Haze 41 1004 21 5000 2.1 330 07:43 05.06.2019
6635 Haze 40 1004 23 5000 5.1 360 06:57 05.06.2019
6636 Haze 40 1004 23 5000 5.7 360 06:31 05.06.2019
6637 Haze 38 1004 25 4000 5.1 360 05:50 05.06.2019
6638 Haze 32 1003 43 3000 1.5 200 03:32 05.06.2019
6639 Haze 33 1002 43 3000 3.1 210 01:33 05.06.2019
6640 Haze 33 1001 41 3000 1.5 200 00:50 05.06.2019
6641 Haze 33 1001 41 3000 1.5 200 00:28 05.06.2019
6642 Haze 33 1001 41 3000 1.5 190 23:46 04.06.2019
6643 Haze 33 1001 41 3000 1.5 190 23:25 04.06.2019
6644 Haze 33 1001 41 3000 1.5 210 22:57 04.06.2019
6645 Haze 33 1002 41 3000 2.1 220 22:38 04.06.2019
6646 Haze 33 1002 41 3000 1.5 220 22:18 04.06.2019
6647 Haze 34 1002 36 3000 1 210 21:49 04.06.2019
6648 Haze 34 1002 36 3000 1 210 21:26 04.06.2019
6649 Haze 34 1002 38 3000 2.6 210 20:59 04.06.2019
6650 Haze 35 1003 36 3000 3.1 230 20:37 04.06.2019
6651 Haze 35 1003 34 3000 3.1 220 20:18 04.06.2019
6652 Haze 36 1003 32 3000 3.6 230 19:43 04.06.2019
6653 Haze 37 1002 29 3000 2.6 220 19:22 04.06.2019
6654 Haze 37 1002 30 3000 4.1 210 18:44 04.06.2019
6655 Haze 37 1002 29 3000 2.1 230 18:23 04.06.2019
6656 Haze 37 1001 29 3000 2.7 238.996 17:46 04.06.2019
6657 Haze 38 1001 27 3000 1.5 220 17:27 04.06.2019
6658 Haze 38 1001 27 3000 3.6 240 16:48 04.06.2019
6659 Haze 39 1000 27 3000 3.6 260 16:21 04.06.2019
6660 Haze 41 1000 24 3000 4.6 250 15:44 04.06.2019
6661 Haze 41 999 23 3000 3.1 280 15:25 04.06.2019
6662 Haze 41 999 23 3000 3.1 280 15:25 04.06.2019
6663 Haze 41 999 24 3000 6.2 260 14:48 04.06.2019
6664 Haze 45 999 12 3000 2.1 140 14:21 04.06.2019
6665 Haze 45 999 12 3000 2.1 140 13:55 04.06.2019
6666 Haze 45 999 13 4000 3.1 120 13:37 04.06.2019
6667 Haze 45 999 12 5000 2.6 140 13:19 04.06.2019
6668 Haze 44 999 17 5000 2.6 320 12:38 04.06.2019
6669 Clouds 45 1000 17 6000 4.1 280 12:19 04.06.2019
6670 Clouds 45 1000 17 6000 3.1 210 11:40 04.06.2019
6671 Clouds 44 1001 18 6000 2.6 320 11:19 04.06.2019
6672 Clouds 43 1001 23 6000 2.6 250 10:38 04.06.2019
6673 Clouds 43 1002 23 6000 1.5 50 10:19 04.06.2019
6674 Clouds 42 1002 25 6000 2.1 260 09:41 04.06.2019
6675 Clouds 41 1003 28 6000 2.1 30 09:19 04.06.2019
6676 Clouds 41 1003 28 6000 2.1 260 08:48 04.06.2019
6677 Clouds 41 1003 28 6000 2.1 260 08:30 04.06.2019
6678 Clouds 39 1004 31 6000 3.6 310 07:51 04.06.2019
6679 Clouds 39 1004 31 6000 3.6 310 07:29 04.06.2019
6680 Clouds 38 1004 33 6000 4.6 300 06:56 04.06.2019
6681 Clouds 38 1005 33 6000 3.1 300 06:36 04.06.2019
6682 Clouds 36 1005 37 6000 3.1 270 05:59 04.06.2019
6683 Haze 33 1004 46 4000 3.6 240 05:20 04.06.2019
6684 Haze 32 1004 49 3000 3.1 220 04:31 04.06.2019
6685 Haze 31 1004 52 3000 2.1 190 03:54 04.06.2019
6686 Haze 31 1003 52 3000 1.5 230 02:37 04.06.2019
6687 Haze 31 1003 52 3000 2.6 220 01:50 04.06.2019
6688 Haze 31 1003 52 3000 1.5 210 01:25 04.06.2019
6689 Haze 31 1003 52 3000 1.5 210 00:36 04.06.2019
6690 Haze 31 1003 52 3000 2.1 180 23:44 03.06.2019
6691 Haze 32 1002 49 3000 3.6 210 23:23 03.06.2019
6692 Haze 32 1002 49 3000 3.6 210 22:56 03.06.2019
6693 Haze 32 1002 46 3000 4.1 220 22:38 03.06.2019
6694 Haze 32 1003 49 3000 4.6 200 22:19 03.06.2019
6695 Haze 32 1003 46 3000 4.1 220 21:41 03.06.2019
6696 Haze 32 1004 46 3000 4.1 210 21:20 03.06.2019
6697 Haze 32 1003 46 3000 4.1 210 20:45 03.06.2019
6698 Haze 32 1003 46 3000 4.1 210 20:45 03.06.2019
6699 Haze 32 1003 46 3000 3.1 230 20:26 03.06.2019
6700 Haze 32 1003 46 3000 3.1 230 19:59 03.06.2019
6701 Haze 33 1004 41 3000 4.1 200 19:41 03.06.2019
6702 Haze 33 1002 41 3000 3.1 200 19:22 03.06.2019
6703 Haze 33 1002 41 3000 3.1 200 18:59 03.06.2019
6704 Haze 34 1002 38 3000 5.1 220 18:41 03.06.2019
6705 Haze 35 1001 36 3000 5.1 210 18:22 03.06.2019
6706 Haze 37 1001 30 3000 4.6 210 17:45 03.06.2019
6707 Haze 37 1001 30 3000 4.6 210 17:27 03.06.2019
6708 Haze 38 1001 25 3000 3.6 200 16:50 03.06.2019
6709 Haze 39 1000 24 3000 3.6 190 16:20 03.06.2019
6710 Haze 39 1000 24 3000 3.6 190 15:58 03.06.2019
6711 Haze 40 999 23 3000 3.6 240 15:37 03.06.2019
6712 Haze 40 999 21 3000 2.1 250 15:19 03.06.2019
6713 Haze 42 999 18 3000 4.1 200 14:41 03.06.2019
6714 Haze 43 999 17 3000 3.1 230 14:19 03.06.2019
6715 Haze 43 999 17 3000 3.1 230 13:42 03.06.2019
6716 Haze 43 999 18 3000 3.1 240 13:21 03.06.2019
6717 Haze 42 1000 19 3000 2.6 300 12:41 03.06.2019
6718 Haze 43 1000 17 3000 3.1 100 12:23 03.06.2019
6719 Haze 44 1001 17 3000 2.1 130 11:50 03.06.2019
6720 Haze 44 1001 18 3000 2.6 10 11:23 03.06.2019
6721 Haze 44 1002 18 3000 2.1 30 10:56 03.06.2019
6722 Haze 44 1002 18 3000 2.1 30 10:37 03.06.2019
6723 Haze 43 1002 19 3000 2.1 50 10:19 03.06.2019
6724 Haze 43 1003 21 3000 1 10 09:43 03.06.2019
6725 Haze 43 1003 21 3000 1 10 09:23 03.06.2019
6726 Haze 41 1003 23 3000 3.95 297.526 08:42 03.06.2019
6727 Haze 41 1004 24 3000 2.6 350 08:23 03.06.2019
6728 Haze 40 1004 24 3000 1 320 07:27 03.06.2019
6729 Haze 39 1004 27 3000 2.1 270 05:57 03.06.2019
6730 Haze 33 1002 33 3000 1 270 01:57 03.06.2019
6731 Haze 34 1002 32 3000 1.5 220 00:59 03.06.2019